<?xml version="1.0" encoding="UTF-8" standalone="no" ?>
<gpx xmlns="http://www.topografix.com/GPX/1/1" xmlns:xsi="http://www.w3.org/2001/XMLSchema-instance" xsi:schemaLocation="http://www.topografix.com/GPX/1/1 http://www.topografix.com/GPX/1/1/gpx.xsd" version="1.1" creator="VisuGPX - https://www.visugpx.com">
  <metadata>
    <name>Epaule du Cornafion / Rochers de l\'Ours</name>
    <desc><![CDATA[Rochers de l\'Ours (variante par l\'épaule du Cornafion)]]></desc>
  </metadata>
  <trk>
    <name><![CDATA[Trk002]]></name>
    <trkseg>
      <trkpt lat="45.07287" lon="5.57915">
        <ele>1176</ele>
        <time>2013-01-30T08:12:06Z</time>
      </trkpt>
      <trkpt lat="45.07282" lon="5.57909">
        <ele>1175</ele>
        <time>2013-01-30T08:12:11Z</time>
      </trkpt>
      <trkpt lat="45.07276" lon="5.57904">
        <ele>1173</ele>
        <time>2013-01-30T08:12:16Z</time>
      </trkpt>
      <trkpt lat="45.0727" lon="5.579">
        <ele>1173</ele>
        <time>2013-01-30T08:12:21Z</time>
      </trkpt>
      <trkpt lat="45.07263" lon="5.57896">
        <ele>1172</ele>
        <time>2013-01-30T08:12:26Z</time>
      </trkpt>
      <trkpt lat="45.07257" lon="5.57895">
        <ele>1171</ele>
        <time>2013-01-30T08:12:31Z</time>
      </trkpt>
      <trkpt lat="45.07254" lon="5.57895">
        <ele>1176</ele>
        <time>2013-01-30T08:12:36Z</time>
      </trkpt>
      <trkpt lat="45.07248" lon="5.57894">
        <ele>1178</ele>
        <time>2013-01-30T08:12:41Z</time>
      </trkpt>
      <trkpt lat="45.07243" lon="5.57894">
        <ele>1178</ele>
        <time>2013-01-30T08:12:46Z</time>
      </trkpt>
      <trkpt lat="45.07238" lon="5.57891">
        <ele>1179</ele>
        <time>2013-01-30T08:12:51Z</time>
      </trkpt>
      <trkpt lat="45.07234" lon="5.57889">
        <ele>1179</ele>
        <time>2013-01-30T08:12:56Z</time>
      </trkpt>
      <trkpt lat="45.07228" lon="5.57888">
        <ele>1179</ele>
        <time>2013-01-30T08:13:01Z</time>
      </trkpt>
      <trkpt lat="45.07222" lon="5.57887">
        <ele>1179</ele>
        <time>2013-01-30T08:13:06Z</time>
      </trkpt>
      <trkpt lat="45.07217" lon="5.57885">
        <ele>1178</ele>
        <time>2013-01-30T08:13:11Z</time>
      </trkpt>
      <trkpt lat="45.07211" lon="5.57884">
        <ele>1178</ele>
        <time>2013-01-30T08:13:16Z</time>
      </trkpt>
      <trkpt lat="45.07205" lon="5.57883">
        <ele>1177</ele>
        <time>2013-01-30T08:13:21Z</time>
      </trkpt>
      <trkpt lat="45.07199" lon="5.57883">
        <ele>1177</ele>
        <time>2013-01-30T08:13:26Z</time>
      </trkpt>
      <trkpt lat="45.07193" lon="5.57885">
        <ele>1177</ele>
        <time>2013-01-30T08:13:31Z</time>
      </trkpt>
      <trkpt lat="45.07187" lon="5.57888">
        <ele>1177</ele>
        <time>2013-01-30T08:13:36Z</time>
      </trkpt>
      <trkpt lat="45.07182" lon="5.57891">
        <ele>1176</ele>
        <time>2013-01-30T08:13:41Z</time>
      </trkpt>
      <trkpt lat="45.07177" lon="5.57894">
        <ele>1176</ele>
        <time>2013-01-30T08:13:46Z</time>
      </trkpt>
      <trkpt lat="45.07171" lon="5.57895">
        <ele>1177</ele>
        <time>2013-01-30T08:13:51Z</time>
      </trkpt>
      <trkpt lat="45.07166" lon="5.57894">
        <ele>1178</ele>
        <time>2013-01-30T08:13:56Z</time>
      </trkpt>
      <trkpt lat="45.07161" lon="5.5789">
        <ele>1180</ele>
        <time>2013-01-30T08:14:01Z</time>
      </trkpt>
      <trkpt lat="45.07156" lon="5.57886">
        <ele>1182</ele>
        <time>2013-01-30T08:14:06Z</time>
      </trkpt>
      <trkpt lat="45.07156" lon="5.5788">
        <ele>1187</ele>
        <time>2013-01-30T08:14:11Z</time>
      </trkpt>
      <trkpt lat="45.07156" lon="5.57876">
        <ele>1188</ele>
        <time>2013-01-30T08:14:16Z</time>
      </trkpt>
      <trkpt lat="45.07156" lon="5.57868">
        <ele>1190</ele>
        <time>2013-01-30T08:14:21Z</time>
      </trkpt>
      <trkpt lat="45.07154" lon="5.5786">
        <ele>1192</ele>
        <time>2013-01-30T08:14:26Z</time>
      </trkpt>
      <trkpt lat="45.07151" lon="5.57853">
        <ele>1192</ele>
        <time>2013-01-30T08:14:31Z</time>
      </trkpt>
      <trkpt lat="45.07149" lon="5.57847">
        <ele>1192</ele>
        <time>2013-01-30T08:14:36Z</time>
      </trkpt>
      <trkpt lat="45.07145" lon="5.5784">
        <ele>1190</ele>
        <time>2013-01-30T08:14:41Z</time>
      </trkpt>
      <trkpt lat="45.0714" lon="5.57833">
        <ele>1188</ele>
        <time>2013-01-30T08:14:46Z</time>
      </trkpt>
      <trkpt lat="45.07134" lon="5.57827">
        <ele>1186</ele>
        <time>2013-01-30T08:14:51Z</time>
      </trkpt>
      <trkpt lat="45.07129" lon="5.57821">
        <ele>1183</ele>
        <time>2013-01-30T08:14:56Z</time>
      </trkpt>
      <trkpt lat="45.07121" lon="5.57814">
        <ele>1183</ele>
        <time>2013-01-30T08:15:01Z</time>
      </trkpt>
      <trkpt lat="45.07115" lon="5.57807">
        <ele>1183</ele>
        <time>2013-01-30T08:15:06Z</time>
      </trkpt>
      <trkpt lat="45.07111" lon="5.57805">
        <ele>1180</ele>
        <time>2013-01-30T08:15:11Z</time>
      </trkpt>
      <trkpt lat="45.07106" lon="5.578">
        <ele>1178</ele>
        <time>2013-01-30T08:15:16Z</time>
      </trkpt>
      <trkpt lat="45.071" lon="5.57797">
        <ele>1178</ele>
        <time>2013-01-30T08:15:21Z</time>
      </trkpt>
      <trkpt lat="45.07094" lon="5.57791">
        <ele>1175</ele>
        <time>2013-01-30T08:15:26Z</time>
      </trkpt>
      <trkpt lat="45.07087" lon="5.57785">
        <ele>1174</ele>
        <time>2013-01-30T08:15:31Z</time>
      </trkpt>
      <trkpt lat="45.07084" lon="5.57783">
        <ele>1174</ele>
        <time>2013-01-30T08:15:36Z</time>
      </trkpt>
      <trkpt lat="45.0708" lon="5.57781">
        <ele>1177</ele>
        <time>2013-01-30T08:18:31Z</time>
      </trkpt>
      <trkpt lat="45.07081" lon="5.57779">
        <ele>1177</ele>
        <time>2013-01-30T08:18:36Z</time>
      </trkpt>
      <trkpt lat="45.07077" lon="5.57778">
        <ele>1176</ele>
        <time>2013-01-30T08:18:41Z</time>
      </trkpt>
      <trkpt lat="45.07073" lon="5.57776">
        <ele>1177</ele>
        <time>2013-01-30T08:18:46Z</time>
      </trkpt>
      <trkpt lat="45.07071" lon="5.57774">
        <ele>1177</ele>
        <time>2013-01-30T08:18:51Z</time>
      </trkpt>
      <trkpt lat="45.07066" lon="5.57771">
        <ele>1177</ele>
        <time>2013-01-30T08:18:56Z</time>
      </trkpt>
      <trkpt lat="45.07062" lon="5.57768">
        <ele>1179</ele>
        <time>2013-01-30T08:19:01Z</time>
      </trkpt>
      <trkpt lat="45.07058" lon="5.57764">
        <ele>1180</ele>
        <time>2013-01-30T08:19:06Z</time>
      </trkpt>
      <trkpt lat="45.07055" lon="5.57761">
        <ele>1181</ele>
        <time>2013-01-30T08:19:11Z</time>
      </trkpt>
      <trkpt lat="45.0705" lon="5.57758">
        <ele>1180</ele>
        <time>2013-01-30T08:19:16Z</time>
      </trkpt>
      <trkpt lat="45.07045" lon="5.57756">
        <ele>1179</ele>
        <time>2013-01-30T08:19:21Z</time>
      </trkpt>
      <trkpt lat="45.0704" lon="5.57751">
        <ele>1177</ele>
        <time>2013-01-30T08:19:26Z</time>
      </trkpt>
      <trkpt lat="45.07034" lon="5.57747">
        <ele>1175</ele>
        <time>2013-01-30T08:19:31Z</time>
      </trkpt>
      <trkpt lat="45.0703" lon="5.57742">
        <ele>1175</ele>
        <time>2013-01-30T08:19:36Z</time>
      </trkpt>
      <trkpt lat="45.07027" lon="5.57736">
        <ele>1175</ele>
        <time>2013-01-30T08:19:41Z</time>
      </trkpt>
      <trkpt lat="45.07023" lon="5.57732">
        <ele>1175</ele>
        <time>2013-01-30T08:19:46Z</time>
      </trkpt>
      <trkpt lat="45.07019" lon="5.57727">
        <ele>1174</ele>
        <time>2013-01-30T08:19:51Z</time>
      </trkpt>
      <trkpt lat="45.07015" lon="5.5772">
        <ele>1174</ele>
        <time>2013-01-30T08:19:56Z</time>
      </trkpt>
      <trkpt lat="45.07011" lon="5.57714">
        <ele>1173</ele>
        <time>2013-01-30T08:20:01Z</time>
      </trkpt>
      <trkpt lat="45.07008" lon="5.57708">
        <ele>1172</ele>
        <time>2013-01-30T08:20:06Z</time>
      </trkpt>
      <trkpt lat="45.07003" lon="5.57703">
        <ele>1172</ele>
        <time>2013-01-30T08:20:11Z</time>
      </trkpt>
      <trkpt lat="45.07" lon="5.57698">
        <ele>1171</ele>
        <time>2013-01-30T08:20:16Z</time>
      </trkpt>
      <trkpt lat="45.06999" lon="5.57697">
        <ele>1171</ele>
        <time>2013-01-30T08:20:21Z</time>
      </trkpt>
      <trkpt lat="45.06997" lon="5.57696">
        <ele>1170</ele>
        <time>2013-01-30T08:20:26Z</time>
      </trkpt>
      <trkpt lat="45.06994" lon="5.57692">
        <ele>1170</ele>
        <time>2013-01-30T08:20:31Z</time>
      </trkpt>
      <trkpt lat="45.06989" lon="5.57686">
        <ele>1169</ele>
        <time>2013-01-30T08:20:36Z</time>
      </trkpt>
      <trkpt lat="45.06987" lon="5.57683">
        <ele>1167</ele>
        <time>2013-01-30T08:20:41Z</time>
      </trkpt>
      <trkpt lat="45.06981" lon="5.57682">
        <ele>1166</ele>
        <time>2013-01-30T08:20:46Z</time>
      </trkpt>
      <trkpt lat="45.06974" lon="5.57688">
        <ele>1165</ele>
        <time>2013-01-30T08:20:51Z</time>
      </trkpt>
      <trkpt lat="45.06968" lon="5.57694">
        <ele>1165</ele>
        <time>2013-01-30T08:20:56Z</time>
      </trkpt>
      <trkpt lat="45.06963" lon="5.57699">
        <ele>1165</ele>
        <time>2013-01-30T08:21:01Z</time>
      </trkpt>
      <trkpt lat="45.06958" lon="5.57704">
        <ele>1165</ele>
        <time>2013-01-30T08:21:06Z</time>
      </trkpt>
      <trkpt lat="45.06954" lon="5.57709">
        <ele>1165</ele>
        <time>2013-01-30T08:21:11Z</time>
      </trkpt>
      <trkpt lat="45.0695" lon="5.57714">
        <ele>1165</ele>
        <time>2013-01-30T08:21:16Z</time>
      </trkpt>
      <trkpt lat="45.06946" lon="5.57716">
        <ele>1166</ele>
        <time>2013-01-30T08:21:21Z</time>
      </trkpt>
      <trkpt lat="45.06941" lon="5.57716">
        <ele>1166</ele>
        <time>2013-01-30T08:21:26Z</time>
      </trkpt>
      <trkpt lat="45.06938" lon="5.57714">
        <ele>1167</ele>
        <time>2013-01-30T08:21:31Z</time>
      </trkpt>
      <trkpt lat="45.06937" lon="5.57714">
        <ele>1167</ele>
        <time>2013-01-30T08:21:36Z</time>
      </trkpt>
      <trkpt lat="45.06937" lon="5.57714">
        <ele>1166</ele>
        <time>2013-01-30T08:21:41Z</time>
      </trkpt>
      <trkpt lat="45.06932" lon="5.57711">
        <ele>1167</ele>
        <time>2013-01-30T08:21:46Z</time>
      </trkpt>
      <trkpt lat="45.06926" lon="5.57706">
        <ele>1168</ele>
        <time>2013-01-30T08:21:51Z</time>
      </trkpt>
      <trkpt lat="45.06922" lon="5.57702">
        <ele>1169</ele>
        <time>2013-01-30T08:21:56Z</time>
      </trkpt>
      <trkpt lat="45.06922" lon="5.577">
        <ele>1169</ele>
        <time>2013-01-30T08:22:01Z</time>
      </trkpt>
      <trkpt lat="45.06922" lon="5.57701">
        <ele>1169</ele>
        <time>2013-01-30T08:22:06Z</time>
      </trkpt>
      <trkpt lat="45.06922" lon="5.57702">
        <ele>1171</ele>
        <time>2013-01-30T08:22:11Z</time>
      </trkpt>
      <trkpt lat="45.06923" lon="5.57703">
        <ele>1174</ele>
        <time>2013-01-30T08:22:16Z</time>
      </trkpt>
      <trkpt lat="45.06924" lon="5.57704">
        <ele>1175</ele>
        <time>2013-01-30T08:22:21Z</time>
      </trkpt>
      <trkpt lat="45.06923" lon="5.57702">
        <ele>1175</ele>
        <time>2013-01-30T08:22:26Z</time>
      </trkpt>
      <trkpt lat="45.0692" lon="5.577">
        <ele>1178</ele>
        <time>2013-01-30T08:22:31Z</time>
      </trkpt>
      <trkpt lat="45.06917" lon="5.57696">
        <ele>1179</ele>
        <time>2013-01-30T08:22:36Z</time>
      </trkpt>
      <trkpt lat="45.06914" lon="5.5769">
        <ele>1180</ele>
        <time>2013-01-30T08:22:41Z</time>
      </trkpt>
      <trkpt lat="45.06911" lon="5.57685">
        <ele>1180</ele>
        <time>2013-01-30T08:22:46Z</time>
      </trkpt>
      <trkpt lat="45.06909" lon="5.57679">
        <ele>1180</ele>
        <time>2013-01-30T08:22:51Z</time>
      </trkpt>
      <trkpt lat="45.06907" lon="5.57672">
        <ele>1180</ele>
        <time>2013-01-30T08:22:56Z</time>
      </trkpt>
      <trkpt lat="45.06904" lon="5.57667">
        <ele>1179</ele>
        <time>2013-01-30T08:23:01Z</time>
      </trkpt>
      <trkpt lat="45.06902" lon="5.57662">
        <ele>1179</ele>
        <time>2013-01-30T08:23:06Z</time>
      </trkpt>
      <trkpt lat="45.06899" lon="5.57657">
        <ele>1180</ele>
        <time>2013-01-30T08:23:11Z</time>
      </trkpt>
      <trkpt lat="45.06897" lon="5.57653">
        <ele>1181</ele>
        <time>2013-01-30T08:23:16Z</time>
      </trkpt>
      <trkpt lat="45.06895" lon="5.57649">
        <ele>1182</ele>
        <time>2013-01-30T08:23:21Z</time>
      </trkpt>
      <trkpt lat="45.06891" lon="5.57646">
        <ele>1183</ele>
        <time>2013-01-30T08:23:26Z</time>
      </trkpt>
      <trkpt lat="45.06887" lon="5.57644">
        <ele>1184</ele>
        <time>2013-01-30T08:23:31Z</time>
      </trkpt>
      <trkpt lat="45.06884" lon="5.57643">
        <ele>1185</ele>
        <time>2013-01-30T08:23:36Z</time>
      </trkpt>
      <trkpt lat="45.06882" lon="5.57644">
        <ele>1186</ele>
        <time>2013-01-30T08:23:41Z</time>
      </trkpt>
      <trkpt lat="45.06882" lon="5.57644">
        <ele>1187</ele>
        <time>2013-01-30T08:23:46Z</time>
      </trkpt>
      <trkpt lat="45.06881" lon="5.57643">
        <ele>1187</ele>
        <time>2013-01-30T08:23:51Z</time>
      </trkpt>
      <trkpt lat="45.06878" lon="5.57641">
        <ele>1189</ele>
        <time>2013-01-30T08:23:56Z</time>
      </trkpt>
      <trkpt lat="45.06875" lon="5.57639">
        <ele>1191</ele>
        <time>2013-01-30T08:24:01Z</time>
      </trkpt>
      <trkpt lat="45.06872" lon="5.57639">
        <ele>1191</ele>
        <time>2013-01-30T08:24:06Z</time>
      </trkpt>
      <trkpt lat="45.06868" lon="5.57638">
        <ele>1192</ele>
        <time>2013-01-30T08:24:11Z</time>
      </trkpt>
      <trkpt lat="45.06865" lon="5.57636">
        <ele>1195</ele>
        <time>2013-01-30T08:24:16Z</time>
      </trkpt>
      <trkpt lat="45.06862" lon="5.57637">
        <ele>1199</ele>
        <time>2013-01-30T08:24:21Z</time>
      </trkpt>
      <trkpt lat="45.0686" lon="5.57637">
        <ele>1201</ele>
        <time>2013-01-30T08:24:26Z</time>
      </trkpt>
      <trkpt lat="45.06857" lon="5.57635">
        <ele>1202</ele>
        <time>2013-01-30T08:24:31Z</time>
      </trkpt>
      <trkpt lat="45.06854" lon="5.57633">
        <ele>1201</ele>
        <time>2013-01-30T08:24:36Z</time>
      </trkpt>
      <trkpt lat="45.0685" lon="5.57632">
        <ele>1201</ele>
        <time>2013-01-30T08:24:41Z</time>
      </trkpt>
      <trkpt lat="45.06847" lon="5.57631">
        <ele>1202</ele>
        <time>2013-01-30T08:24:46Z</time>
      </trkpt>
      <trkpt lat="45.06843" lon="5.57629">
        <ele>1202</ele>
        <time>2013-01-30T08:24:51Z</time>
      </trkpt>
      <trkpt lat="45.06839" lon="5.57628">
        <ele>1200</ele>
        <time>2013-01-30T08:24:56Z</time>
      </trkpt>
      <trkpt lat="45.06835" lon="5.57627">
        <ele>1200</ele>
        <time>2013-01-30T08:25:01Z</time>
      </trkpt>
      <trkpt lat="45.06831" lon="5.57627">
        <ele>1200</ele>
        <time>2013-01-30T08:25:06Z</time>
      </trkpt>
      <trkpt lat="45.06827" lon="5.57627">
        <ele>1200</ele>
        <time>2013-01-30T08:25:11Z</time>
      </trkpt>
      <trkpt lat="45.06824" lon="5.57626">
        <ele>1201</ele>
        <time>2013-01-30T08:25:16Z</time>
      </trkpt>
      <trkpt lat="45.06821" lon="5.57625">
        <ele>1201</ele>
        <time>2013-01-30T08:25:21Z</time>
      </trkpt>
      <trkpt lat="45.06818" lon="5.57625">
        <ele>1201</ele>
        <time>2013-01-30T08:25:26Z</time>
      </trkpt>
      <trkpt lat="45.06815" lon="5.57623">
        <ele>1202</ele>
        <time>2013-01-30T08:25:31Z</time>
      </trkpt>
      <trkpt lat="45.06811" lon="5.57622">
        <ele>1202</ele>
        <time>2013-01-30T08:25:36Z</time>
      </trkpt>
      <trkpt lat="45.06807" lon="5.5762">
        <ele>1202</ele>
        <time>2013-01-30T08:25:41Z</time>
      </trkpt>
      <trkpt lat="45.06804" lon="5.57619">
        <ele>1202</ele>
        <time>2013-01-30T08:25:46Z</time>
      </trkpt>
      <trkpt lat="45.068" lon="5.57617">
        <ele>1203</ele>
        <time>2013-01-30T08:25:51Z</time>
      </trkpt>
      <trkpt lat="45.06797" lon="5.57616">
        <ele>1204</ele>
        <time>2013-01-30T08:25:56Z</time>
      </trkpt>
      <trkpt lat="45.06794" lon="5.57615">
        <ele>1205</ele>
        <time>2013-01-30T08:26:01Z</time>
      </trkpt>
      <trkpt lat="45.06795" lon="5.57616">
        <ele>1207</ele>
        <time>2013-01-30T08:26:06Z</time>
      </trkpt>
      <trkpt lat="45.06797" lon="5.57616">
        <ele>1211</ele>
        <time>2013-01-30T08:26:11Z</time>
      </trkpt>
      <trkpt lat="45.06794" lon="5.57615">
        <ele>1212</ele>
        <time>2013-01-30T08:26:16Z</time>
      </trkpt>
      <trkpt lat="45.06791" lon="5.57614">
        <ele>1211</ele>
        <time>2013-01-30T08:26:21Z</time>
      </trkpt>
      <trkpt lat="45.06786" lon="5.57611">
        <ele>1211</ele>
        <time>2013-01-30T08:26:26Z</time>
      </trkpt>
      <trkpt lat="45.06783" lon="5.57608">
        <ele>1212</ele>
        <time>2013-01-30T08:26:31Z</time>
      </trkpt>
      <trkpt lat="45.06779" lon="5.57606">
        <ele>1213</ele>
        <time>2013-01-30T08:26:36Z</time>
      </trkpt>
      <trkpt lat="45.06775" lon="5.57604">
        <ele>1213</ele>
        <time>2013-01-30T08:26:41Z</time>
      </trkpt>
      <trkpt lat="45.06772" lon="5.57601">
        <ele>1214</ele>
        <time>2013-01-30T08:26:46Z</time>
      </trkpt>
      <trkpt lat="45.06768" lon="5.57598">
        <ele>1215</ele>
        <time>2013-01-30T08:26:51Z</time>
      </trkpt>
      <trkpt lat="45.06766" lon="5.57594">
        <ele>1215</ele>
        <time>2013-01-30T08:26:56Z</time>
      </trkpt>
      <trkpt lat="45.06763" lon="5.5759">
        <ele>1216</ele>
        <time>2013-01-30T08:27:01Z</time>
      </trkpt>
      <trkpt lat="45.06761" lon="5.57589">
        <ele>1216</ele>
        <time>2013-01-30T08:27:06Z</time>
      </trkpt>
      <trkpt lat="45.06759" lon="5.57588">
        <ele>1217</ele>
        <time>2013-01-30T08:27:11Z</time>
      </trkpt>
      <trkpt lat="45.06755" lon="5.57588">
        <ele>1216</ele>
        <time>2013-01-30T08:27:16Z</time>
      </trkpt>
      <trkpt lat="45.06752" lon="5.57589">
        <ele>1215</ele>
        <time>2013-01-30T08:27:21Z</time>
      </trkpt>
      <trkpt lat="45.0675" lon="5.57591">
        <ele>1215</ele>
        <time>2013-01-30T08:27:26Z</time>
      </trkpt>
      <trkpt lat="45.06747" lon="5.57592">
        <ele>1215</ele>
        <time>2013-01-30T08:27:31Z</time>
      </trkpt>
      <trkpt lat="45.06744" lon="5.57594">
        <ele>1215</ele>
        <time>2013-01-30T08:27:36Z</time>
      </trkpt>
      <trkpt lat="45.0674" lon="5.57595">
        <ele>1216</ele>
        <time>2013-01-30T08:27:41Z</time>
      </trkpt>
      <trkpt lat="45.06737" lon="5.57597">
        <ele>1217</ele>
        <time>2013-01-30T08:27:46Z</time>
      </trkpt>
      <trkpt lat="45.06735" lon="5.57598">
        <ele>1218</ele>
        <time>2013-01-30T08:27:51Z</time>
      </trkpt>
      <trkpt lat="45.06732" lon="5.57598">
        <ele>1219</ele>
        <time>2013-01-30T08:27:56Z</time>
      </trkpt>
      <trkpt lat="45.06729" lon="5.57599">
        <ele>1220</ele>
        <time>2013-01-30T08:28:01Z</time>
      </trkpt>
      <trkpt lat="45.06726" lon="5.57601">
        <ele>1220</ele>
        <time>2013-01-30T08:28:06Z</time>
      </trkpt>
      <trkpt lat="45.06723" lon="5.57603">
        <ele>1221</ele>
        <time>2013-01-30T08:28:11Z</time>
      </trkpt>
      <trkpt lat="45.06721" lon="5.57605">
        <ele>1221</ele>
        <time>2013-01-30T08:28:16Z</time>
      </trkpt>
      <trkpt lat="45.06719" lon="5.57606">
        <ele>1222</ele>
        <time>2013-01-30T08:28:21Z</time>
      </trkpt>
      <trkpt lat="45.06716" lon="5.57608">
        <ele>1223</ele>
        <time>2013-01-30T08:28:26Z</time>
      </trkpt>
      <trkpt lat="45.06713" lon="5.57609">
        <ele>1224</ele>
        <time>2013-01-30T08:28:31Z</time>
      </trkpt>
      <trkpt lat="45.0671" lon="5.5761">
        <ele>1226</ele>
        <time>2013-01-30T08:28:36Z</time>
      </trkpt>
      <trkpt lat="45.06707" lon="5.57609">
        <ele>1225</ele>
        <time>2013-01-30T08:28:41Z</time>
      </trkpt>
      <trkpt lat="45.06704" lon="5.57609">
        <ele>1225</ele>
        <time>2013-01-30T08:28:46Z</time>
      </trkpt>
      <trkpt lat="45.06701" lon="5.5761">
        <ele>1227</ele>
        <time>2013-01-30T08:28:51Z</time>
      </trkpt>
      <trkpt lat="45.06698" lon="5.57611">
        <ele>1227</ele>
        <time>2013-01-30T08:28:56Z</time>
      </trkpt>
      <trkpt lat="45.06695" lon="5.57613">
        <ele>1228</ele>
        <time>2013-01-30T08:29:01Z</time>
      </trkpt>
      <trkpt lat="45.06693" lon="5.57615">
        <ele>1230</ele>
        <time>2013-01-30T08:29:06Z</time>
      </trkpt>
      <trkpt lat="45.0669" lon="5.57616">
        <ele>1231</ele>
        <time>2013-01-30T08:29:11Z</time>
      </trkpt>
      <trkpt lat="45.06686" lon="5.57616">
        <ele>1232</ele>
        <time>2013-01-30T08:29:16Z</time>
      </trkpt>
      <trkpt lat="45.06684" lon="5.57616">
        <ele>1234</ele>
        <time>2013-01-30T08:29:21Z</time>
      </trkpt>
      <trkpt lat="45.0668" lon="5.57617">
        <ele>1235</ele>
        <time>2013-01-30T08:29:26Z</time>
      </trkpt>
      <trkpt lat="45.06677" lon="5.57618">
        <ele>1235</ele>
        <time>2013-01-30T08:29:31Z</time>
      </trkpt>
      <trkpt lat="45.06675" lon="5.5762">
        <ele>1236</ele>
        <time>2013-01-30T08:29:36Z</time>
      </trkpt>
      <trkpt lat="45.06671" lon="5.57619">
        <ele>1238</ele>
        <time>2013-01-30T08:29:41Z</time>
      </trkpt>
      <trkpt lat="45.06669" lon="5.57618">
        <ele>1240</ele>
        <time>2013-01-30T08:29:46Z</time>
      </trkpt>
      <trkpt lat="45.06667" lon="5.57618">
        <ele>1241</ele>
        <time>2013-01-30T08:29:51Z</time>
      </trkpt>
      <trkpt lat="45.06664" lon="5.57618">
        <ele>1242</ele>
        <time>2013-01-30T08:29:56Z</time>
      </trkpt>
      <trkpt lat="45.06661" lon="5.57619">
        <ele>1243</ele>
        <time>2013-01-30T08:30:01Z</time>
      </trkpt>
      <trkpt lat="45.06657" lon="5.57621">
        <ele>1243</ele>
        <time>2013-01-30T08:30:06Z</time>
      </trkpt>
      <trkpt lat="45.06654" lon="5.57623">
        <ele>1244</ele>
        <time>2013-01-30T08:30:11Z</time>
      </trkpt>
      <trkpt lat="45.0665" lon="5.57625">
        <ele>1245</ele>
        <time>2013-01-30T08:30:16Z</time>
      </trkpt>
      <trkpt lat="45.06648" lon="5.57627">
        <ele>1245</ele>
        <time>2013-01-30T08:30:21Z</time>
      </trkpt>
      <trkpt lat="45.06645" lon="5.5763">
        <ele>1246</ele>
        <time>2013-01-30T08:30:26Z</time>
      </trkpt>
      <trkpt lat="45.06642" lon="5.57633">
        <ele>1247</ele>
        <time>2013-01-30T08:30:31Z</time>
      </trkpt>
      <trkpt lat="45.0664" lon="5.57635">
        <ele>1247</ele>
        <time>2013-01-30T08:30:36Z</time>
      </trkpt>
      <trkpt lat="45.06637" lon="5.57638">
        <ele>1248</ele>
        <time>2013-01-30T08:30:41Z</time>
      </trkpt>
      <trkpt lat="45.06634" lon="5.5764">
        <ele>1248</ele>
        <time>2013-01-30T08:30:46Z</time>
      </trkpt>
      <trkpt lat="45.06632" lon="5.57642">
        <ele>1249</ele>
        <time>2013-01-30T08:30:51Z</time>
      </trkpt>
      <trkpt lat="45.06629" lon="5.57644">
        <ele>1250</ele>
        <time>2013-01-30T08:30:56Z</time>
      </trkpt>
      <trkpt lat="45.06626" lon="5.57646">
        <ele>1251</ele>
        <time>2013-01-30T08:31:01Z</time>
      </trkpt>
      <trkpt lat="45.06624" lon="5.57649">
        <ele>1251</ele>
        <time>2013-01-30T08:31:06Z</time>
      </trkpt>
      <trkpt lat="45.06621" lon="5.57651">
        <ele>1252</ele>
        <time>2013-01-30T08:31:11Z</time>
      </trkpt>
      <trkpt lat="45.06618" lon="5.57654">
        <ele>1253</ele>
        <time>2013-01-30T08:31:16Z</time>
      </trkpt>
      <trkpt lat="45.06615" lon="5.57657">
        <ele>1253</ele>
        <time>2013-01-30T08:31:21Z</time>
      </trkpt>
      <trkpt lat="45.06612" lon="5.57659">
        <ele>1254</ele>
        <time>2013-01-30T08:31:26Z</time>
      </trkpt>
      <trkpt lat="45.0661" lon="5.57662">
        <ele>1255</ele>
        <time>2013-01-30T08:31:31Z</time>
      </trkpt>
      <trkpt lat="45.06607" lon="5.57665">
        <ele>1255</ele>
        <time>2013-01-30T08:31:36Z</time>
      </trkpt>
      <trkpt lat="45.06604" lon="5.57668">
        <ele>1256</ele>
        <time>2013-01-30T08:31:41Z</time>
      </trkpt>
      <trkpt lat="45.06602" lon="5.57671">
        <ele>1257</ele>
        <time>2013-01-30T08:31:46Z</time>
      </trkpt>
      <trkpt lat="45.06599" lon="5.57675">
        <ele>1258</ele>
        <time>2013-01-30T08:31:51Z</time>
      </trkpt>
      <trkpt lat="45.06596" lon="5.57677">
        <ele>1258</ele>
        <time>2013-01-30T08:31:56Z</time>
      </trkpt>
      <trkpt lat="45.06594" lon="5.57681">
        <ele>1259</ele>
        <time>2013-01-30T08:32:01Z</time>
      </trkpt>
      <trkpt lat="45.06593" lon="5.57686">
        <ele>1260</ele>
        <time>2013-01-30T08:32:06Z</time>
      </trkpt>
      <trkpt lat="45.06592" lon="5.57687">
        <ele>1261</ele>
        <time>2013-01-30T08:32:11Z</time>
      </trkpt>
      <trkpt lat="45.06592" lon="5.57687">
        <ele>1261</ele>
        <time>2013-01-30T08:32:16Z</time>
      </trkpt>
      <trkpt lat="45.06592" lon="5.57687">
        <ele>1261</ele>
        <time>2013-01-30T08:32:21Z</time>
      </trkpt>
      <trkpt lat="45.06592" lon="5.57687">
        <ele>1260</ele>
        <time>2013-01-30T08:32:26Z</time>
      </trkpt>
      <trkpt lat="45.06592" lon="5.57688">
        <ele>1260</ele>
        <time>2013-01-30T08:32:31Z</time>
      </trkpt>
      <trkpt lat="45.06592" lon="5.57688">
        <ele>1260</ele>
        <time>2013-01-30T08:32:36Z</time>
      </trkpt>
      <trkpt lat="45.06592" lon="5.57688">
        <ele>1260</ele>
        <time>2013-01-30T08:32:41Z</time>
      </trkpt>
      <trkpt lat="45.06592" lon="5.57689">
        <ele>1260</ele>
        <time>2013-01-30T08:32:46Z</time>
      </trkpt>
      <trkpt lat="45.06592" lon="5.57689">
        <ele>1260</ele>
        <time>2013-01-30T08:32:51Z</time>
      </trkpt>
      <trkpt lat="45.06591" lon="5.57689">
        <ele>1261</ele>
        <time>2013-01-30T08:32:56Z</time>
      </trkpt>
      <trkpt lat="45.06591" lon="5.57689">
        <ele>1261</ele>
        <time>2013-01-30T08:33:01Z</time>
      </trkpt>
      <trkpt lat="45.06591" lon="5.5769">
        <ele>1261</ele>
        <time>2013-01-30T08:33:06Z</time>
      </trkpt>
      <trkpt lat="45.06591" lon="5.57689">
        <ele>1261</ele>
        <time>2013-01-30T08:33:11Z</time>
      </trkpt>
      <trkpt lat="45.06591" lon="5.5769">
        <ele>1261</ele>
        <time>2013-01-30T08:33:16Z</time>
      </trkpt>
      <trkpt lat="45.0659" lon="5.57689">
        <ele>1262</ele>
        <time>2013-01-30T08:33:21Z</time>
      </trkpt>
      <trkpt lat="45.0659" lon="5.57689">
        <ele>1263</ele>
        <time>2013-01-30T08:33:26Z</time>
      </trkpt>
      <trkpt lat="45.0659" lon="5.57688">
        <ele>1263</ele>
        <time>2013-01-30T08:33:31Z</time>
      </trkpt>
      <trkpt lat="45.0659" lon="5.57688">
        <ele>1263</ele>
        <time>2013-01-30T08:33:36Z</time>
      </trkpt>
      <trkpt lat="45.0659" lon="5.57688">
        <ele>1263</ele>
        <time>2013-01-30T08:33:41Z</time>
      </trkpt>
      <trkpt lat="45.06589" lon="5.57688">
        <ele>1263</ele>
        <time>2013-01-30T08:33:46Z</time>
      </trkpt>
      <trkpt lat="45.0659" lon="5.5769">
        <ele>1264</ele>
        <time>2013-01-30T08:33:51Z</time>
      </trkpt>
      <trkpt lat="45.06589" lon="5.57697">
        <ele>1264</ele>
        <time>2013-01-30T08:33:56Z</time>
      </trkpt>
      <trkpt lat="45.0659" lon="5.57704">
        <ele>1264</ele>
        <time>2013-01-30T08:34:01Z</time>
      </trkpt>
      <trkpt lat="45.06591" lon="5.5771">
        <ele>1265</ele>
        <time>2013-01-30T08:34:06Z</time>
      </trkpt>
      <trkpt lat="45.06592" lon="5.57716">
        <ele>1265</ele>
        <time>2013-01-30T08:34:11Z</time>
      </trkpt>
      <trkpt lat="45.06592" lon="5.57721">
        <ele>1266</ele>
        <time>2013-01-30T08:34:16Z</time>
      </trkpt>
      <trkpt lat="45.06593" lon="5.57726">
        <ele>1266</ele>
        <time>2013-01-30T08:34:21Z</time>
      </trkpt>
      <trkpt lat="45.06595" lon="5.57731">
        <ele>1267</ele>
        <time>2013-01-30T08:34:26Z</time>
      </trkpt>
      <trkpt lat="45.06596" lon="5.57736">
        <ele>1267</ele>
        <time>2013-01-30T08:34:31Z</time>
      </trkpt>
      <trkpt lat="45.06597" lon="5.57741">
        <ele>1268</ele>
        <time>2013-01-30T08:34:36Z</time>
      </trkpt>
      <trkpt lat="45.06598" lon="5.57745">
        <ele>1269</ele>
        <time>2013-01-30T08:34:41Z</time>
      </trkpt>
      <trkpt lat="45.066" lon="5.5775">
        <ele>1270</ele>
        <time>2013-01-30T08:34:46Z</time>
      </trkpt>
      <trkpt lat="45.06601" lon="5.57754">
        <ele>1271</ele>
        <time>2013-01-30T08:34:51Z</time>
      </trkpt>
      <trkpt lat="45.06603" lon="5.57758">
        <ele>1273</ele>
        <time>2013-01-30T08:34:56Z</time>
      </trkpt>
      <trkpt lat="45.06604" lon="5.57762">
        <ele>1274</ele>
        <time>2013-01-30T08:35:01Z</time>
      </trkpt>
      <trkpt lat="45.06606" lon="5.57766">
        <ele>1274</ele>
        <time>2013-01-30T08:35:06Z</time>
      </trkpt>
      <trkpt lat="45.06608" lon="5.57771">
        <ele>1276</ele>
        <time>2013-01-30T08:35:11Z</time>
      </trkpt>
      <trkpt lat="45.06609" lon="5.57775">
        <ele>1277</ele>
        <time>2013-01-30T08:35:16Z</time>
      </trkpt>
      <trkpt lat="45.06608" lon="5.57779">
        <ele>1278</ele>
        <time>2013-01-30T08:35:21Z</time>
      </trkpt>
      <trkpt lat="45.06605" lon="5.5778">
        <ele>1278</ele>
        <time>2013-01-30T08:35:26Z</time>
      </trkpt>
      <trkpt lat="45.06605" lon="5.5778">
        <ele>1277</ele>
        <time>2013-01-30T08:35:31Z</time>
      </trkpt>
      <trkpt lat="45.06606" lon="5.57781">
        <ele>1276</ele>
        <time>2013-01-30T08:35:36Z</time>
      </trkpt>
      <trkpt lat="45.06605" lon="5.57781">
        <ele>1275</ele>
        <time>2013-01-30T08:37:06Z</time>
      </trkpt>
      <trkpt lat="45.06606" lon="5.5778">
        <ele>1275</ele>
        <time>2013-01-30T08:37:11Z</time>
      </trkpt>
      <trkpt lat="45.06603" lon="5.57781">
        <ele>1276</ele>
        <time>2013-01-30T08:37:16Z</time>
      </trkpt>
      <trkpt lat="45.066" lon="5.57781">
        <ele>1277</ele>
        <time>2013-01-30T08:37:21Z</time>
      </trkpt>
      <trkpt lat="45.06596" lon="5.57783">
        <ele>1278</ele>
        <time>2013-01-30T08:37:26Z</time>
      </trkpt>
      <trkpt lat="45.06593" lon="5.57785">
        <ele>1278</ele>
        <time>2013-01-30T08:37:31Z</time>
      </trkpt>
      <trkpt lat="45.06592" lon="5.57789">
        <ele>1280</ele>
        <time>2013-01-30T08:37:36Z</time>
      </trkpt>
      <trkpt lat="45.06594" lon="5.57793">
        <ele>1280</ele>
        <time>2013-01-30T08:37:41Z</time>
      </trkpt>
      <trkpt lat="45.06596" lon="5.57796">
        <ele>1282</ele>
        <time>2013-01-30T08:37:46Z</time>
      </trkpt>
      <trkpt lat="45.06596" lon="5.578">
        <ele>1283</ele>
        <time>2013-01-30T08:37:51Z</time>
      </trkpt>
      <trkpt lat="45.06595" lon="5.57804">
        <ele>1284</ele>
        <time>2013-01-30T08:37:56Z</time>
      </trkpt>
      <trkpt lat="45.06593" lon="5.57806">
        <ele>1286</ele>
        <time>2013-01-30T08:38:01Z</time>
      </trkpt>
      <trkpt lat="45.0659" lon="5.57808">
        <ele>1287</ele>
        <time>2013-01-30T08:38:06Z</time>
      </trkpt>
      <trkpt lat="45.06588" lon="5.5781">
        <ele>1287</ele>
        <time>2013-01-30T08:38:11Z</time>
      </trkpt>
      <trkpt lat="45.06586" lon="5.57813">
        <ele>1288</ele>
        <time>2013-01-30T08:38:16Z</time>
      </trkpt>
      <trkpt lat="45.06583" lon="5.57815">
        <ele>1289</ele>
        <time>2013-01-30T08:38:21Z</time>
      </trkpt>
      <trkpt lat="45.0658" lon="5.57815">
        <ele>1290</ele>
        <time>2013-01-30T08:38:26Z</time>
      </trkpt>
      <trkpt lat="45.06578" lon="5.57816">
        <ele>1291</ele>
        <time>2013-01-30T08:38:31Z</time>
      </trkpt>
      <trkpt lat="45.06578" lon="5.57819">
        <ele>1292</ele>
        <time>2013-01-30T08:38:36Z</time>
      </trkpt>
      <trkpt lat="45.06579" lon="5.57821">
        <ele>1292</ele>
        <time>2013-01-30T08:38:41Z</time>
      </trkpt>
      <trkpt lat="45.06578" lon="5.57821">
        <ele>1293</ele>
        <time>2013-01-30T08:38:46Z</time>
      </trkpt>
      <trkpt lat="45.06578" lon="5.57821">
        <ele>1294</ele>
        <time>2013-01-30T08:38:51Z</time>
      </trkpt>
      <trkpt lat="45.06578" lon="5.57821">
        <ele>1295</ele>
        <time>2013-01-30T08:38:56Z</time>
      </trkpt>
      <trkpt lat="45.06578" lon="5.57822">
        <ele>1295</ele>
        <time>2013-01-30T08:39:01Z</time>
      </trkpt>
      <trkpt lat="45.06578" lon="5.57822">
        <ele>1296</ele>
        <time>2013-01-30T08:39:06Z</time>
      </trkpt>
      <trkpt lat="45.06578" lon="5.57822">
        <ele>1296</ele>
        <time>2013-01-30T08:39:11Z</time>
      </trkpt>
      <trkpt lat="45.06578" lon="5.57822">
        <ele>1297</ele>
        <time>2013-01-30T08:39:16Z</time>
      </trkpt>
      <trkpt lat="45.06578" lon="5.57822">
        <ele>1297</ele>
        <time>2013-01-30T08:39:21Z</time>
      </trkpt>
      <trkpt lat="45.06578" lon="5.57822">
        <ele>1298</ele>
        <time>2013-01-30T08:39:26Z</time>
      </trkpt>
      <trkpt lat="45.06577" lon="5.57822">
        <ele>1299</ele>
        <time>2013-01-30T08:39:31Z</time>
      </trkpt>
      <trkpt lat="45.06577" lon="5.57822">
        <ele>1299</ele>
        <time>2013-01-30T08:39:36Z</time>
      </trkpt>
      <trkpt lat="45.06577" lon="5.57823">
        <ele>1299</ele>
        <time>2013-01-30T08:39:41Z</time>
      </trkpt>
      <trkpt lat="45.06577" lon="5.57823">
        <ele>1299</ele>
        <time>2013-01-30T08:39:46Z</time>
      </trkpt>
      <trkpt lat="45.06578" lon="5.57822">
        <ele>1299</ele>
        <time>2013-01-30T08:39:51Z</time>
      </trkpt>
      <trkpt lat="45.06578" lon="5.57823">
        <ele>1299</ele>
        <time>2013-01-30T08:39:56Z</time>
      </trkpt>
      <trkpt lat="45.06578" lon="5.57824">
        <ele>1299</ele>
        <time>2013-01-30T08:40:01Z</time>
      </trkpt>
      <trkpt lat="45.06579" lon="5.57828">
        <ele>1300</ele>
        <time>2013-01-30T08:40:06Z</time>
      </trkpt>
      <trkpt lat="45.06579" lon="5.57832">
        <ele>1301</ele>
        <time>2013-01-30T08:40:11Z</time>
      </trkpt>
      <trkpt lat="45.06577" lon="5.57835">
        <ele>1301</ele>
        <time>2013-01-30T08:40:16Z</time>
      </trkpt>
      <trkpt lat="45.06578" lon="5.57838">
        <ele>1303</ele>
        <time>2013-01-30T08:40:21Z</time>
      </trkpt>
      <trkpt lat="45.06579" lon="5.57841">
        <ele>1303</ele>
        <time>2013-01-30T08:40:26Z</time>
      </trkpt>
      <trkpt lat="45.06579" lon="5.57845">
        <ele>1304</ele>
        <time>2013-01-30T08:40:31Z</time>
      </trkpt>
      <trkpt lat="45.06577" lon="5.57848">
        <ele>1305</ele>
        <time>2013-01-30T08:40:36Z</time>
      </trkpt>
      <trkpt lat="45.06576" lon="5.5785">
        <ele>1306</ele>
        <time>2013-01-30T08:40:41Z</time>
      </trkpt>
      <trkpt lat="45.06575" lon="5.57853">
        <ele>1306</ele>
        <time>2013-01-30T08:40:46Z</time>
      </trkpt>
      <trkpt lat="45.06576" lon="5.57858">
        <ele>1306</ele>
        <time>2013-01-30T08:40:51Z</time>
      </trkpt>
      <trkpt lat="45.06576" lon="5.57862">
        <ele>1307</ele>
        <time>2013-01-30T08:40:56Z</time>
      </trkpt>
      <trkpt lat="45.06575" lon="5.57865">
        <ele>1307</ele>
        <time>2013-01-30T08:41:01Z</time>
      </trkpt>
      <trkpt lat="45.06574" lon="5.57868">
        <ele>1308</ele>
        <time>2013-01-30T08:41:06Z</time>
      </trkpt>
      <trkpt lat="45.06573" lon="5.57872">
        <ele>1309</ele>
        <time>2013-01-30T08:41:11Z</time>
      </trkpt>
      <trkpt lat="45.06571" lon="5.57874">
        <ele>1310</ele>
        <time>2013-01-30T08:41:16Z</time>
      </trkpt>
      <trkpt lat="45.06568" lon="5.57876">
        <ele>1311</ele>
        <time>2013-01-30T08:41:21Z</time>
      </trkpt>
      <trkpt lat="45.06566" lon="5.57878">
        <ele>1312</ele>
        <time>2013-01-30T08:41:26Z</time>
      </trkpt>
      <trkpt lat="45.06566" lon="5.57884">
        <ele>1313</ele>
        <time>2013-01-30T08:41:31Z</time>
      </trkpt>
      <trkpt lat="45.06565" lon="5.57886">
        <ele>1316</ele>
        <time>2013-01-30T08:41:36Z</time>
      </trkpt>
      <trkpt lat="45.06564" lon="5.57888">
        <ele>1318</ele>
        <time>2013-01-30T08:41:41Z</time>
      </trkpt>
      <trkpt lat="45.06564" lon="5.5789">
        <ele>1320</ele>
        <time>2013-01-30T08:41:46Z</time>
      </trkpt>
      <trkpt lat="45.06563" lon="5.57895">
        <ele>1320</ele>
        <time>2013-01-30T08:41:51Z</time>
      </trkpt>
      <trkpt lat="45.06561" lon="5.57899">
        <ele>1322</ele>
        <time>2013-01-30T08:41:56Z</time>
      </trkpt>
      <trkpt lat="45.0656" lon="5.57902">
        <ele>1323</ele>
        <time>2013-01-30T08:42:01Z</time>
      </trkpt>
      <trkpt lat="45.06559" lon="5.57905">
        <ele>1324</ele>
        <time>2013-01-30T08:42:06Z</time>
      </trkpt>
      <trkpt lat="45.06559" lon="5.57908">
        <ele>1324</ele>
        <time>2013-01-30T08:42:11Z</time>
      </trkpt>
      <trkpt lat="45.06558" lon="5.57912">
        <ele>1324</ele>
        <time>2013-01-30T08:42:16Z</time>
      </trkpt>
      <trkpt lat="45.06558" lon="5.57916">
        <ele>1324</ele>
        <time>2013-01-30T08:42:21Z</time>
      </trkpt>
      <trkpt lat="45.06558" lon="5.57921">
        <ele>1324</ele>
        <time>2013-01-30T08:42:26Z</time>
      </trkpt>
      <trkpt lat="45.06558" lon="5.57924">
        <ele>1324</ele>
        <time>2013-01-30T08:42:31Z</time>
      </trkpt>
      <trkpt lat="45.06559" lon="5.57928">
        <ele>1325</ele>
        <time>2013-01-30T08:42:36Z</time>
      </trkpt>
      <trkpt lat="45.06557" lon="5.57931">
        <ele>1326</ele>
        <time>2013-01-30T08:42:41Z</time>
      </trkpt>
      <trkpt lat="45.06554" lon="5.57932">
        <ele>1328</ele>
        <time>2013-01-30T08:42:46Z</time>
      </trkpt>
      <trkpt lat="45.06551" lon="5.57932">
        <ele>1328</ele>
        <time>2013-01-30T08:42:51Z</time>
      </trkpt>
      <trkpt lat="45.06548" lon="5.57932">
        <ele>1329</ele>
        <time>2013-01-30T08:42:56Z</time>
      </trkpt>
      <trkpt lat="45.06545" lon="5.57931">
        <ele>1329</ele>
        <time>2013-01-30T08:43:01Z</time>
      </trkpt>
      <trkpt lat="45.06542" lon="5.57931">
        <ele>1329</ele>
        <time>2013-01-30T08:43:06Z</time>
      </trkpt>
      <trkpt lat="45.06539" lon="5.57932">
        <ele>1330</ele>
        <time>2013-01-30T08:43:11Z</time>
      </trkpt>
      <trkpt lat="45.06536" lon="5.57932">
        <ele>1331</ele>
        <time>2013-01-30T08:43:16Z</time>
      </trkpt>
      <trkpt lat="45.06534" lon="5.57932">
        <ele>1332</ele>
        <time>2013-01-30T08:43:21Z</time>
      </trkpt>
      <trkpt lat="45.0653" lon="5.57933">
        <ele>1332</ele>
        <time>2013-01-30T08:43:26Z</time>
      </trkpt>
      <trkpt lat="45.06527" lon="5.57933">
        <ele>1333</ele>
        <time>2013-01-30T08:43:31Z</time>
      </trkpt>
      <trkpt lat="45.06523" lon="5.57933">
        <ele>1333</ele>
        <time>2013-01-30T08:43:36Z</time>
      </trkpt>
      <trkpt lat="45.0652" lon="5.57933">
        <ele>1333</ele>
        <time>2013-01-30T08:43:41Z</time>
      </trkpt>
      <trkpt lat="45.06517" lon="5.57933">
        <ele>1333</ele>
        <time>2013-01-30T08:43:46Z</time>
      </trkpt>
      <trkpt lat="45.06514" lon="5.57933">
        <ele>1333</ele>
        <time>2013-01-30T08:43:51Z</time>
      </trkpt>
      <trkpt lat="45.06511" lon="5.57933">
        <ele>1332</ele>
        <time>2013-01-30T08:43:56Z</time>
      </trkpt>
      <trkpt lat="45.06508" lon="5.57933">
        <ele>1332</ele>
        <time>2013-01-30T08:44:01Z</time>
      </trkpt>
      <trkpt lat="45.06505" lon="5.57933">
        <ele>1333</ele>
        <time>2013-01-30T08:44:06Z</time>
      </trkpt>
      <trkpt lat="45.06502" lon="5.57932">
        <ele>1336</ele>
        <time>2013-01-30T08:44:11Z</time>
      </trkpt>
      <trkpt lat="45.06501" lon="5.57931">
        <ele>1337</ele>
        <time>2013-01-30T08:44:16Z</time>
      </trkpt>
      <trkpt lat="45.06499" lon="5.57931">
        <ele>1339</ele>
        <time>2013-01-30T08:44:21Z</time>
      </trkpt>
      <trkpt lat="45.06498" lon="5.57933">
        <ele>1341</ele>
        <time>2013-01-30T08:44:26Z</time>
      </trkpt>
      <trkpt lat="45.06498" lon="5.57936">
        <ele>1342</ele>
        <time>2013-01-30T08:44:31Z</time>
      </trkpt>
      <trkpt lat="45.06498" lon="5.5794">
        <ele>1343</ele>
        <time>2013-01-30T08:44:36Z</time>
      </trkpt>
      <trkpt lat="45.06497" lon="5.57943">
        <ele>1344</ele>
        <time>2013-01-30T08:44:41Z</time>
      </trkpt>
      <trkpt lat="45.06497" lon="5.57947">
        <ele>1345</ele>
        <time>2013-01-30T08:44:46Z</time>
      </trkpt>
      <trkpt lat="45.06495" lon="5.57948">
        <ele>1345</ele>
        <time>2013-01-30T08:44:51Z</time>
      </trkpt>
      <trkpt lat="45.06492" lon="5.5795">
        <ele>1345</ele>
        <time>2013-01-30T08:44:56Z</time>
      </trkpt>
      <trkpt lat="45.06489" lon="5.57951">
        <ele>1345</ele>
        <time>2013-01-30T08:45:01Z</time>
      </trkpt>
      <trkpt lat="45.06487" lon="5.57952">
        <ele>1345</ele>
        <time>2013-01-30T08:45:06Z</time>
      </trkpt>
      <trkpt lat="45.06484" lon="5.57953">
        <ele>1345</ele>
        <time>2013-01-30T08:45:11Z</time>
      </trkpt>
      <trkpt lat="45.06482" lon="5.57954">
        <ele>1345</ele>
        <time>2013-01-30T08:45:16Z</time>
      </trkpt>
      <trkpt lat="45.06479" lon="5.57955">
        <ele>1346</ele>
        <time>2013-01-30T08:45:21Z</time>
      </trkpt>
      <trkpt lat="45.06477" lon="5.57955">
        <ele>1348</ele>
        <time>2013-01-30T08:45:26Z</time>
      </trkpt>
      <trkpt lat="45.06475" lon="5.57956">
        <ele>1351</ele>
        <time>2013-01-30T08:45:31Z</time>
      </trkpt>
      <trkpt lat="45.06474" lon="5.57958">
        <ele>1352</ele>
        <time>2013-01-30T08:45:36Z</time>
      </trkpt>
      <trkpt lat="45.06472" lon="5.57959">
        <ele>1353</ele>
        <time>2013-01-30T08:45:41Z</time>
      </trkpt>
      <trkpt lat="45.06471" lon="5.57961">
        <ele>1354</ele>
        <time>2013-01-30T08:45:46Z</time>
      </trkpt>
      <trkpt lat="45.06471" lon="5.57963">
        <ele>1353</ele>
        <time>2013-01-30T08:45:51Z</time>
      </trkpt>
      <trkpt lat="45.06472" lon="5.57967">
        <ele>1354</ele>
        <time>2013-01-30T08:45:56Z</time>
      </trkpt>
      <trkpt lat="45.0647" lon="5.57969">
        <ele>1354</ele>
        <time>2013-01-30T08:46:01Z</time>
      </trkpt>
      <trkpt lat="45.06468" lon="5.57972">
        <ele>1354</ele>
        <time>2013-01-30T08:46:06Z</time>
      </trkpt>
      <trkpt lat="45.06465" lon="5.57973">
        <ele>1354</ele>
        <time>2013-01-30T08:46:11Z</time>
      </trkpt>
      <trkpt lat="45.06462" lon="5.57974">
        <ele>1354</ele>
        <time>2013-01-30T08:46:16Z</time>
      </trkpt>
      <trkpt lat="45.06459" lon="5.57974">
        <ele>1354</ele>
        <time>2013-01-30T08:46:21Z</time>
      </trkpt>
      <trkpt lat="45.06456" lon="5.57974">
        <ele>1354</ele>
        <time>2013-01-30T08:46:26Z</time>
      </trkpt>
      <trkpt lat="45.06453" lon="5.57974">
        <ele>1354</ele>
        <time>2013-01-30T08:46:31Z</time>
      </trkpt>
      <trkpt lat="45.0645" lon="5.57974">
        <ele>1354</ele>
        <time>2013-01-30T08:46:36Z</time>
      </trkpt>
      <trkpt lat="45.06447" lon="5.57974">
        <ele>1355</ele>
        <time>2013-01-30T08:46:41Z</time>
      </trkpt>
      <trkpt lat="45.06445" lon="5.57975">
        <ele>1355</ele>
        <time>2013-01-30T08:46:46Z</time>
      </trkpt>
      <trkpt lat="45.06442" lon="5.57976">
        <ele>1356</ele>
        <time>2013-01-30T08:46:51Z</time>
      </trkpt>
      <trkpt lat="45.06439" lon="5.57977">
        <ele>1357</ele>
        <time>2013-01-30T08:46:56Z</time>
      </trkpt>
      <trkpt lat="45.06437" lon="5.57977">
        <ele>1358</ele>
        <time>2013-01-30T08:47:01Z</time>
      </trkpt>
      <trkpt lat="45.06434" lon="5.57977">
        <ele>1358</ele>
        <time>2013-01-30T08:47:06Z</time>
      </trkpt>
      <trkpt lat="45.06432" lon="5.57979">
        <ele>1358</ele>
        <time>2013-01-30T08:47:11Z</time>
      </trkpt>
      <trkpt lat="45.0643" lon="5.5798">
        <ele>1359</ele>
        <time>2013-01-30T08:47:16Z</time>
      </trkpt>
      <trkpt lat="45.06428" lon="5.57982">
        <ele>1359</ele>
        <time>2013-01-30T08:47:21Z</time>
      </trkpt>
      <trkpt lat="45.06426" lon="5.57983">
        <ele>1360</ele>
        <time>2013-01-30T08:47:26Z</time>
      </trkpt>
      <trkpt lat="45.06424" lon="5.57985">
        <ele>1360</ele>
        <time>2013-01-30T08:47:31Z</time>
      </trkpt>
      <trkpt lat="45.06424" lon="5.57987">
        <ele>1360</ele>
        <time>2013-01-30T08:47:36Z</time>
      </trkpt>
      <trkpt lat="45.06424" lon="5.5799">
        <ele>1361</ele>
        <time>2013-01-30T08:47:41Z</time>
      </trkpt>
      <trkpt lat="45.06425" lon="5.57993">
        <ele>1361</ele>
        <time>2013-01-30T08:47:46Z</time>
      </trkpt>
      <trkpt lat="45.06423" lon="5.57994">
        <ele>1362</ele>
        <time>2013-01-30T08:47:51Z</time>
      </trkpt>
      <trkpt lat="45.06421" lon="5.57995">
        <ele>1363</ele>
        <time>2013-01-30T08:47:56Z</time>
      </trkpt>
      <trkpt lat="45.06418" lon="5.57996">
        <ele>1363</ele>
        <time>2013-01-30T08:48:01Z</time>
      </trkpt>
      <trkpt lat="45.06416" lon="5.57998">
        <ele>1364</ele>
        <time>2013-01-30T08:48:06Z</time>
      </trkpt>
      <trkpt lat="45.06413" lon="5.58">
        <ele>1365</ele>
        <time>2013-01-30T08:48:11Z</time>
      </trkpt>
      <trkpt lat="45.06411" lon="5.58001">
        <ele>1365</ele>
        <time>2013-01-30T08:48:16Z</time>
      </trkpt>
      <trkpt lat="45.06409" lon="5.58003">
        <ele>1366</ele>
        <time>2013-01-30T08:48:21Z</time>
      </trkpt>
      <trkpt lat="45.06406" lon="5.58004">
        <ele>1367</ele>
        <time>2013-01-30T08:48:26Z</time>
      </trkpt>
      <trkpt lat="45.06404" lon="5.58005">
        <ele>1367</ele>
        <time>2013-01-30T08:48:31Z</time>
      </trkpt>
      <trkpt lat="45.06402" lon="5.58006">
        <ele>1368</ele>
        <time>2013-01-30T08:48:36Z</time>
      </trkpt>
      <trkpt lat="45.06399" lon="5.58007">
        <ele>1368</ele>
        <time>2013-01-30T08:48:41Z</time>
      </trkpt>
      <trkpt lat="45.06397" lon="5.58008">
        <ele>1369</ele>
        <time>2013-01-30T08:48:46Z</time>
      </trkpt>
      <trkpt lat="45.06395" lon="5.5801">
        <ele>1369</ele>
        <time>2013-01-30T08:48:51Z</time>
      </trkpt>
      <trkpt lat="45.06392" lon="5.58011">
        <ele>1370</ele>
        <time>2013-01-30T08:48:56Z</time>
      </trkpt>
      <trkpt lat="45.0639" lon="5.58012">
        <ele>1370</ele>
        <time>2013-01-30T08:49:01Z</time>
      </trkpt>
      <trkpt lat="45.06388" lon="5.58014">
        <ele>1371</ele>
        <time>2013-01-30T08:49:06Z</time>
      </trkpt>
      <trkpt lat="45.06386" lon="5.58015">
        <ele>1371</ele>
        <time>2013-01-30T08:49:11Z</time>
      </trkpt>
      <trkpt lat="45.06383" lon="5.58016">
        <ele>1372</ele>
        <time>2013-01-30T08:49:16Z</time>
      </trkpt>
      <trkpt lat="45.06381" lon="5.58017">
        <ele>1373</ele>
        <time>2013-01-30T08:49:21Z</time>
      </trkpt>
      <trkpt lat="45.0638" lon="5.58017">
        <ele>1373</ele>
        <time>2013-01-30T08:49:26Z</time>
      </trkpt>
      <trkpt lat="45.0638" lon="5.58017">
        <ele>1373</ele>
        <time>2013-01-30T08:49:31Z</time>
      </trkpt>
      <trkpt lat="45.06378" lon="5.58018">
        <ele>1373</ele>
        <time>2013-01-30T08:49:36Z</time>
      </trkpt>
      <trkpt lat="45.06378" lon="5.5802">
        <ele>1374</ele>
        <time>2013-01-30T08:49:41Z</time>
      </trkpt>
      <trkpt lat="45.0638" lon="5.58023">
        <ele>1375</ele>
        <time>2013-01-30T08:49:46Z</time>
      </trkpt>
      <trkpt lat="45.06382" lon="5.58026">
        <ele>1375</ele>
        <time>2013-01-30T08:49:51Z</time>
      </trkpt>
      <trkpt lat="45.06384" lon="5.5803">
        <ele>1376</ele>
        <time>2013-01-30T08:49:56Z</time>
      </trkpt>
      <trkpt lat="45.06387" lon="5.58033">
        <ele>1377</ele>
        <time>2013-01-30T08:50:01Z</time>
      </trkpt>
      <trkpt lat="45.06389" lon="5.58036">
        <ele>1377</ele>
        <time>2013-01-30T08:50:06Z</time>
      </trkpt>
      <trkpt lat="45.0639" lon="5.58039">
        <ele>1378</ele>
        <time>2013-01-30T08:50:11Z</time>
      </trkpt>
      <trkpt lat="45.06392" lon="5.58042">
        <ele>1379</ele>
        <time>2013-01-30T08:50:16Z</time>
      </trkpt>
      <trkpt lat="45.06393" lon="5.58045">
        <ele>1380</ele>
        <time>2013-01-30T08:50:21Z</time>
      </trkpt>
      <trkpt lat="45.06395" lon="5.58047">
        <ele>1381</ele>
        <time>2013-01-30T08:50:26Z</time>
      </trkpt>
      <trkpt lat="45.06397" lon="5.5805">
        <ele>1382</ele>
        <time>2013-01-30T08:50:31Z</time>
      </trkpt>
      <trkpt lat="45.06398" lon="5.58053">
        <ele>1382</ele>
        <time>2013-01-30T08:50:36Z</time>
      </trkpt>
      <trkpt lat="45.064" lon="5.58056">
        <ele>1383</ele>
        <time>2013-01-30T08:50:41Z</time>
      </trkpt>
      <trkpt lat="45.06403" lon="5.58059">
        <ele>1384</ele>
        <time>2013-01-30T08:50:46Z</time>
      </trkpt>
      <trkpt lat="45.06405" lon="5.58062">
        <ele>1384</ele>
        <time>2013-01-30T08:50:51Z</time>
      </trkpt>
      <trkpt lat="45.06406" lon="5.58064">
        <ele>1385</ele>
        <time>2013-01-30T08:50:56Z</time>
      </trkpt>
      <trkpt lat="45.06408" lon="5.58067">
        <ele>1386</ele>
        <time>2013-01-30T08:51:01Z</time>
      </trkpt>
      <trkpt lat="45.0641" lon="5.5807">
        <ele>1386</ele>
        <time>2013-01-30T08:51:06Z</time>
      </trkpt>
      <trkpt lat="45.06411" lon="5.58073">
        <ele>1387</ele>
        <time>2013-01-30T08:51:11Z</time>
      </trkpt>
      <trkpt lat="45.06413" lon="5.58076">
        <ele>1387</ele>
        <time>2013-01-30T08:51:16Z</time>
      </trkpt>
      <trkpt lat="45.06415" lon="5.5808">
        <ele>1388</ele>
        <time>2013-01-30T08:51:21Z</time>
      </trkpt>
      <trkpt lat="45.06416" lon="5.58083">
        <ele>1389</ele>
        <time>2013-01-30T08:51:26Z</time>
      </trkpt>
      <trkpt lat="45.06418" lon="5.58085">
        <ele>1389</ele>
        <time>2013-01-30T08:51:31Z</time>
      </trkpt>
      <trkpt lat="45.06417" lon="5.58087">
        <ele>1390</ele>
        <time>2013-01-30T08:51:36Z</time>
      </trkpt>
      <trkpt lat="45.06414" lon="5.58088">
        <ele>1391</ele>
        <time>2013-01-30T08:51:41Z</time>
      </trkpt>
      <trkpt lat="45.06412" lon="5.58088">
        <ele>1392</ele>
        <time>2013-01-30T08:51:46Z</time>
      </trkpt>
      <trkpt lat="45.06409" lon="5.58088">
        <ele>1393</ele>
        <time>2013-01-30T08:51:51Z</time>
      </trkpt>
      <trkpt lat="45.06406" lon="5.58089">
        <ele>1394</ele>
        <time>2013-01-30T08:51:56Z</time>
      </trkpt>
      <trkpt lat="45.06404" lon="5.5809">
        <ele>1395</ele>
        <time>2013-01-30T08:52:01Z</time>
      </trkpt>
      <trkpt lat="45.06402" lon="5.58091">
        <ele>1395</ele>
        <time>2013-01-30T08:52:06Z</time>
      </trkpt>
      <trkpt lat="45.06399" lon="5.58092">
        <ele>1396</ele>
        <time>2013-01-30T08:52:11Z</time>
      </trkpt>
      <trkpt lat="45.06397" lon="5.58093">
        <ele>1397</ele>
        <time>2013-01-30T08:52:16Z</time>
      </trkpt>
      <trkpt lat="45.06395" lon="5.58094">
        <ele>1397</ele>
        <time>2013-01-30T08:52:21Z</time>
      </trkpt>
      <trkpt lat="45.06392" lon="5.58096">
        <ele>1398</ele>
        <time>2013-01-30T08:52:26Z</time>
      </trkpt>
      <trkpt lat="45.0639" lon="5.58097">
        <ele>1399</ele>
        <time>2013-01-30T08:52:31Z</time>
      </trkpt>
      <trkpt lat="45.06387" lon="5.58097">
        <ele>1399</ele>
        <time>2013-01-30T08:52:36Z</time>
      </trkpt>
      <trkpt lat="45.06385" lon="5.58099">
        <ele>1400</ele>
        <time>2013-01-30T08:52:41Z</time>
      </trkpt>
      <trkpt lat="45.06383" lon="5.581">
        <ele>1401</ele>
        <time>2013-01-30T08:52:46Z</time>
      </trkpt>
      <trkpt lat="45.06381" lon="5.58101">
        <ele>1401</ele>
        <time>2013-01-30T08:52:51Z</time>
      </trkpt>
      <trkpt lat="45.06378" lon="5.58103">
        <ele>1402</ele>
        <time>2013-01-30T08:52:56Z</time>
      </trkpt>
      <trkpt lat="45.06376" lon="5.58104">
        <ele>1402</ele>
        <time>2013-01-30T08:53:01Z</time>
      </trkpt>
      <trkpt lat="45.06374" lon="5.58106">
        <ele>1403</ele>
        <time>2013-01-30T08:53:06Z</time>
      </trkpt>
      <trkpt lat="45.06372" lon="5.58108">
        <ele>1404</ele>
        <time>2013-01-30T08:53:11Z</time>
      </trkpt>
      <trkpt lat="45.06369" lon="5.58109">
        <ele>1405</ele>
        <time>2013-01-30T08:53:16Z</time>
      </trkpt>
      <trkpt lat="45.06367" lon="5.5811">
        <ele>1405</ele>
        <time>2013-01-30T08:53:21Z</time>
      </trkpt>
      <trkpt lat="45.06365" lon="5.58111">
        <ele>1406</ele>
        <time>2013-01-30T08:53:26Z</time>
      </trkpt>
      <trkpt lat="45.06363" lon="5.58113">
        <ele>1407</ele>
        <time>2013-01-30T08:53:31Z</time>
      </trkpt>
      <trkpt lat="45.0636" lon="5.58114">
        <ele>1407</ele>
        <time>2013-01-30T08:53:36Z</time>
      </trkpt>
      <trkpt lat="45.06358" lon="5.58116">
        <ele>1408</ele>
        <time>2013-01-30T08:53:41Z</time>
      </trkpt>
      <trkpt lat="45.06356" lon="5.58118">
        <ele>1408</ele>
        <time>2013-01-30T08:53:46Z</time>
      </trkpt>
      <trkpt lat="45.06354" lon="5.58119">
        <ele>1409</ele>
        <time>2013-01-30T08:53:51Z</time>
      </trkpt>
      <trkpt lat="45.06353" lon="5.58121">
        <ele>1410</ele>
        <time>2013-01-30T08:53:56Z</time>
      </trkpt>
      <trkpt lat="45.06351" lon="5.58123">
        <ele>1410</ele>
        <time>2013-01-30T08:54:01Z</time>
      </trkpt>
      <trkpt lat="45.0635" lon="5.58126">
        <ele>1411</ele>
        <time>2013-01-30T08:54:06Z</time>
      </trkpt>
      <trkpt lat="45.06348" lon="5.58128">
        <ele>1412</ele>
        <time>2013-01-30T08:54:11Z</time>
      </trkpt>
      <trkpt lat="45.06346" lon="5.58131">
        <ele>1412</ele>
        <time>2013-01-30T08:54:16Z</time>
      </trkpt>
      <trkpt lat="45.06344" lon="5.58134">
        <ele>1413</ele>
        <time>2013-01-30T08:54:21Z</time>
      </trkpt>
      <trkpt lat="45.06342" lon="5.58135">
        <ele>1414</ele>
        <time>2013-01-30T08:54:26Z</time>
      </trkpt>
      <trkpt lat="45.0634" lon="5.58138">
        <ele>1414</ele>
        <time>2013-01-30T08:54:31Z</time>
      </trkpt>
      <trkpt lat="45.06339" lon="5.58139">
        <ele>1415</ele>
        <time>2013-01-30T08:54:36Z</time>
      </trkpt>
      <trkpt lat="45.06338" lon="5.5814">
        <ele>1415</ele>
        <time>2013-01-30T08:54:41Z</time>
      </trkpt>
      <trkpt lat="45.06338" lon="5.58143">
        <ele>1416</ele>
        <time>2013-01-30T08:54:46Z</time>
      </trkpt>
      <trkpt lat="45.06339" lon="5.58145">
        <ele>1417</ele>
        <time>2013-01-30T08:54:51Z</time>
      </trkpt>
      <trkpt lat="45.06341" lon="5.58147">
        <ele>1418</ele>
        <time>2013-01-30T08:54:56Z</time>
      </trkpt>
      <trkpt lat="45.06344" lon="5.58149">
        <ele>1419</ele>
        <time>2013-01-30T08:55:01Z</time>
      </trkpt>
      <trkpt lat="45.06346" lon="5.58151">
        <ele>1419</ele>
        <time>2013-01-30T08:55:06Z</time>
      </trkpt>
      <trkpt lat="45.06349" lon="5.58153">
        <ele>1420</ele>
        <time>2013-01-30T08:55:11Z</time>
      </trkpt>
      <trkpt lat="45.06352" lon="5.58155">
        <ele>1420</ele>
        <time>2013-01-30T08:55:16Z</time>
      </trkpt>
      <trkpt lat="45.06354" lon="5.58158">
        <ele>1421</ele>
        <time>2013-01-30T08:55:21Z</time>
      </trkpt>
      <trkpt lat="45.06357" lon="5.58161">
        <ele>1422</ele>
        <time>2013-01-30T08:55:26Z</time>
      </trkpt>
      <trkpt lat="45.06359" lon="5.58163">
        <ele>1422</ele>
        <time>2013-01-30T08:55:31Z</time>
      </trkpt>
      <trkpt lat="45.06361" lon="5.58165">
        <ele>1423</ele>
        <time>2013-01-30T08:55:36Z</time>
      </trkpt>
      <trkpt lat="45.06364" lon="5.58168">
        <ele>1423</ele>
        <time>2013-01-30T08:55:41Z</time>
      </trkpt>
      <trkpt lat="45.06366" lon="5.5817">
        <ele>1424</ele>
        <time>2013-01-30T08:55:46Z</time>
      </trkpt>
      <trkpt lat="45.06369" lon="5.58173">
        <ele>1424</ele>
        <time>2013-01-30T08:55:51Z</time>
      </trkpt>
      <trkpt lat="45.06371" lon="5.58174">
        <ele>1425</ele>
        <time>2013-01-30T08:55:56Z</time>
      </trkpt>
      <trkpt lat="45.06373" lon="5.58177">
        <ele>1425</ele>
        <time>2013-01-30T08:56:01Z</time>
      </trkpt>
      <trkpt lat="45.06374" lon="5.5818">
        <ele>1425</ele>
        <time>2013-01-30T08:56:06Z</time>
      </trkpt>
      <trkpt lat="45.06372" lon="5.58182">
        <ele>1426</ele>
        <time>2013-01-30T08:56:11Z</time>
      </trkpt>
      <trkpt lat="45.0637" lon="5.58184">
        <ele>1427</ele>
        <time>2013-01-30T08:56:16Z</time>
      </trkpt>
      <trkpt lat="45.06368" lon="5.58186">
        <ele>1427</ele>
        <time>2013-01-30T08:56:21Z</time>
      </trkpt>
      <trkpt lat="45.06367" lon="5.58188">
        <ele>1428</ele>
        <time>2013-01-30T08:56:26Z</time>
      </trkpt>
      <trkpt lat="45.06365" lon="5.5819">
        <ele>1429</ele>
        <time>2013-01-30T08:56:31Z</time>
      </trkpt>
      <trkpt lat="45.06362" lon="5.58192">
        <ele>1430</ele>
        <time>2013-01-30T08:56:36Z</time>
      </trkpt>
      <trkpt lat="45.06361" lon="5.58194">
        <ele>1431</ele>
        <time>2013-01-30T08:56:41Z</time>
      </trkpt>
      <trkpt lat="45.06358" lon="5.58196">
        <ele>1432</ele>
        <time>2013-01-30T08:56:46Z</time>
      </trkpt>
      <trkpt lat="45.06356" lon="5.58198">
        <ele>1433</ele>
        <time>2013-01-30T08:56:51Z</time>
      </trkpt>
      <trkpt lat="45.06354" lon="5.582">
        <ele>1434</ele>
        <time>2013-01-30T08:56:56Z</time>
      </trkpt>
      <trkpt lat="45.06352" lon="5.58202">
        <ele>1434</ele>
        <time>2013-01-30T08:57:01Z</time>
      </trkpt>
      <trkpt lat="45.0635" lon="5.58204">
        <ele>1435</ele>
        <time>2013-01-30T08:57:06Z</time>
      </trkpt>
      <trkpt lat="45.06348" lon="5.58206">
        <ele>1436</ele>
        <time>2013-01-30T08:57:11Z</time>
      </trkpt>
      <trkpt lat="45.06347" lon="5.58208">
        <ele>1437</ele>
        <time>2013-01-30T08:57:16Z</time>
      </trkpt>
      <trkpt lat="45.06345" lon="5.5821">
        <ele>1438</ele>
        <time>2013-01-30T08:57:21Z</time>
      </trkpt>
      <trkpt lat="45.06344" lon="5.58213">
        <ele>1438</ele>
        <time>2013-01-30T08:57:26Z</time>
      </trkpt>
      <trkpt lat="45.06342" lon="5.58216">
        <ele>1439</ele>
        <time>2013-01-30T08:57:31Z</time>
      </trkpt>
      <trkpt lat="45.06342" lon="5.58219">
        <ele>1440</ele>
        <time>2013-01-30T08:57:36Z</time>
      </trkpt>
      <trkpt lat="45.06341" lon="5.58222">
        <ele>1441</ele>
        <time>2013-01-30T08:57:41Z</time>
      </trkpt>
      <trkpt lat="45.06341" lon="5.58222">
        <ele>1441</ele>
        <time>2013-01-30T08:57:46Z</time>
      </trkpt>
      <trkpt lat="45.06341" lon="5.58222">
        <ele>1441</ele>
        <time>2013-01-30T08:57:51Z</time>
      </trkpt>
      <trkpt lat="45.06341" lon="5.58222">
        <ele>1441</ele>
        <time>2013-01-30T08:57:56Z</time>
      </trkpt>
      <trkpt lat="45.06341" lon="5.58222">
        <ele>1441</ele>
        <time>2013-01-30T08:58:01Z</time>
      </trkpt>
      <trkpt lat="45.06341" lon="5.58222">
        <ele>1443</ele>
        <time>2013-01-30T09:02:06Z</time>
      </trkpt>
      <trkpt lat="45.06341" lon="5.58222">
        <ele>1443</ele>
        <time>2013-01-30T09:02:11Z</time>
      </trkpt>
      <trkpt lat="45.06341" lon="5.58222">
        <ele>1443</ele>
        <time>2013-01-30T09:02:16Z</time>
      </trkpt>
      <trkpt lat="45.06341" lon="5.58226">
        <ele>1444</ele>
        <time>2013-01-30T09:02:21Z</time>
      </trkpt>
      <trkpt lat="45.06341" lon="5.58228">
        <ele>1444</ele>
        <time>2013-01-30T09:02:26Z</time>
      </trkpt>
      <trkpt lat="45.0634" lon="5.58232">
        <ele>1445</ele>
        <time>2013-01-30T09:02:31Z</time>
      </trkpt>
      <trkpt lat="45.0634" lon="5.58235">
        <ele>1446</ele>
        <time>2013-01-30T09:02:36Z</time>
      </trkpt>
      <trkpt lat="45.0634" lon="5.58239">
        <ele>1447</ele>
        <time>2013-01-30T09:02:41Z</time>
      </trkpt>
      <trkpt lat="45.06339" lon="5.58243">
        <ele>1448</ele>
        <time>2013-01-30T09:02:46Z</time>
      </trkpt>
      <trkpt lat="45.06339" lon="5.58248">
        <ele>1449</ele>
        <time>2013-01-30T09:02:51Z</time>
      </trkpt>
      <trkpt lat="45.06338" lon="5.58252">
        <ele>1450</ele>
        <time>2013-01-30T09:02:56Z</time>
      </trkpt>
      <trkpt lat="45.06337" lon="5.58257">
        <ele>1451</ele>
        <time>2013-01-30T09:03:01Z</time>
      </trkpt>
      <trkpt lat="45.06336" lon="5.58261">
        <ele>1452</ele>
        <time>2013-01-30T09:03:06Z</time>
      </trkpt>
      <trkpt lat="45.06337" lon="5.58265">
        <ele>1453</ele>
        <time>2013-01-30T09:03:11Z</time>
      </trkpt>
      <trkpt lat="45.06339" lon="5.58267">
        <ele>1454</ele>
        <time>2013-01-30T09:03:16Z</time>
      </trkpt>
      <trkpt lat="45.06341" lon="5.5827">
        <ele>1454</ele>
        <time>2013-01-30T09:03:21Z</time>
      </trkpt>
      <trkpt lat="45.06343" lon="5.58272">
        <ele>1455</ele>
        <time>2013-01-30T09:03:26Z</time>
      </trkpt>
      <trkpt lat="45.06345" lon="5.58274">
        <ele>1456</ele>
        <time>2013-01-30T09:03:31Z</time>
      </trkpt>
      <trkpt lat="45.06347" lon="5.58277">
        <ele>1457</ele>
        <time>2013-01-30T09:03:36Z</time>
      </trkpt>
      <trkpt lat="45.06347" lon="5.58281">
        <ele>1458</ele>
        <time>2013-01-30T09:03:41Z</time>
      </trkpt>
      <trkpt lat="45.06347" lon="5.58284">
        <ele>1458</ele>
        <time>2013-01-30T09:03:46Z</time>
      </trkpt>
      <trkpt lat="45.06347" lon="5.58287">
        <ele>1459</ele>
        <time>2013-01-30T09:03:51Z</time>
      </trkpt>
      <trkpt lat="45.06349" lon="5.5829">
        <ele>1460</ele>
        <time>2013-01-30T09:03:56Z</time>
      </trkpt>
      <trkpt lat="45.06351" lon="5.58293">
        <ele>1461</ele>
        <time>2013-01-30T09:04:01Z</time>
      </trkpt>
      <trkpt lat="45.06353" lon="5.58296">
        <ele>1462</ele>
        <time>2013-01-30T09:04:06Z</time>
      </trkpt>
      <trkpt lat="45.06355" lon="5.58299">
        <ele>1463</ele>
        <time>2013-01-30T09:04:11Z</time>
      </trkpt>
      <trkpt lat="45.06357" lon="5.58302">
        <ele>1463</ele>
        <time>2013-01-30T09:04:16Z</time>
      </trkpt>
      <trkpt lat="45.0636" lon="5.58305">
        <ele>1464</ele>
        <time>2013-01-30T09:04:21Z</time>
      </trkpt>
      <trkpt lat="45.06361" lon="5.58308">
        <ele>1465</ele>
        <time>2013-01-30T09:04:26Z</time>
      </trkpt>
      <trkpt lat="45.06364" lon="5.58312">
        <ele>1466</ele>
        <time>2013-01-30T09:04:31Z</time>
      </trkpt>
      <trkpt lat="45.06365" lon="5.58314">
        <ele>1467</ele>
        <time>2013-01-30T09:04:36Z</time>
      </trkpt>
      <trkpt lat="45.06366" lon="5.58317">
        <ele>1467</ele>
        <time>2013-01-30T09:04:41Z</time>
      </trkpt>
      <trkpt lat="45.06368" lon="5.5832">
        <ele>1468</ele>
        <time>2013-01-30T09:04:46Z</time>
      </trkpt>
      <trkpt lat="45.0637" lon="5.58323">
        <ele>1469</ele>
        <time>2013-01-30T09:04:51Z</time>
      </trkpt>
      <trkpt lat="45.06372" lon="5.58326">
        <ele>1469</ele>
        <time>2013-01-30T09:04:56Z</time>
      </trkpt>
      <trkpt lat="45.06374" lon="5.5833">
        <ele>1470</ele>
        <time>2013-01-30T09:05:01Z</time>
      </trkpt>
      <trkpt lat="45.06375" lon="5.58333">
        <ele>1471</ele>
        <time>2013-01-30T09:05:06Z</time>
      </trkpt>
      <trkpt lat="45.06377" lon="5.58336">
        <ele>1472</ele>
        <time>2013-01-30T09:05:11Z</time>
      </trkpt>
      <trkpt lat="45.06378" lon="5.58339">
        <ele>1473</ele>
        <time>2013-01-30T09:05:16Z</time>
      </trkpt>
      <trkpt lat="45.06379" lon="5.58343">
        <ele>1473</ele>
        <time>2013-01-30T09:05:21Z</time>
      </trkpt>
      <trkpt lat="45.06379" lon="5.58346">
        <ele>1474</ele>
        <time>2013-01-30T09:05:26Z</time>
      </trkpt>
      <trkpt lat="45.06379" lon="5.5835">
        <ele>1475</ele>
        <time>2013-01-30T09:05:31Z</time>
      </trkpt>
      <trkpt lat="45.06381" lon="5.58353">
        <ele>1476</ele>
        <time>2013-01-30T09:05:36Z</time>
      </trkpt>
      <trkpt lat="45.06382" lon="5.58356">
        <ele>1476</ele>
        <time>2013-01-30T09:05:41Z</time>
      </trkpt>
      <trkpt lat="45.06384" lon="5.5836">
        <ele>1477</ele>
        <time>2013-01-30T09:05:46Z</time>
      </trkpt>
      <trkpt lat="45.06386" lon="5.58363">
        <ele>1478</ele>
        <time>2013-01-30T09:05:51Z</time>
      </trkpt>
      <trkpt lat="45.06388" lon="5.58366">
        <ele>1479</ele>
        <time>2013-01-30T09:05:56Z</time>
      </trkpt>
      <trkpt lat="45.0639" lon="5.5837">
        <ele>1479</ele>
        <time>2013-01-30T09:06:01Z</time>
      </trkpt>
      <trkpt lat="45.06393" lon="5.58374">
        <ele>1480</ele>
        <time>2013-01-30T09:06:06Z</time>
      </trkpt>
      <trkpt lat="45.06393" lon="5.58378">
        <ele>1481</ele>
        <time>2013-01-30T09:06:11Z</time>
      </trkpt>
      <trkpt lat="45.0639" lon="5.58381">
        <ele>1482</ele>
        <time>2013-01-30T09:06:16Z</time>
      </trkpt>
      <trkpt lat="45.06389" lon="5.58384">
        <ele>1483</ele>
        <time>2013-01-30T09:06:21Z</time>
      </trkpt>
      <trkpt lat="45.06386" lon="5.58385">
        <ele>1485</ele>
        <time>2013-01-30T09:06:26Z</time>
      </trkpt>
      <trkpt lat="45.06384" lon="5.58388">
        <ele>1486</ele>
        <time>2013-01-30T09:06:31Z</time>
      </trkpt>
      <trkpt lat="45.06382" lon="5.58391">
        <ele>1487</ele>
        <time>2013-01-30T09:06:36Z</time>
      </trkpt>
      <trkpt lat="45.0638" lon="5.58395">
        <ele>1488</ele>
        <time>2013-01-30T09:06:41Z</time>
      </trkpt>
      <trkpt lat="45.0638" lon="5.58399">
        <ele>1489</ele>
        <time>2013-01-30T09:06:46Z</time>
      </trkpt>
      <trkpt lat="45.06379" lon="5.58403">
        <ele>1490</ele>
        <time>2013-01-30T09:06:51Z</time>
      </trkpt>
      <trkpt lat="45.06379" lon="5.58407">
        <ele>1491</ele>
        <time>2013-01-30T09:06:56Z</time>
      </trkpt>
      <trkpt lat="45.06378" lon="5.58411">
        <ele>1492</ele>
        <time>2013-01-30T09:07:01Z</time>
      </trkpt>
      <trkpt lat="45.06379" lon="5.58414">
        <ele>1492</ele>
        <time>2013-01-30T09:07:06Z</time>
      </trkpt>
      <trkpt lat="45.06378" lon="5.58414">
        <ele>1492</ele>
        <time>2013-01-30T09:07:11Z</time>
      </trkpt>
      <trkpt lat="45.06379" lon="5.58414">
        <ele>1492</ele>
        <time>2013-01-30T09:07:16Z</time>
      </trkpt>
      <trkpt lat="45.06379" lon="5.58414">
        <ele>1492</ele>
        <time>2013-01-30T09:07:21Z</time>
      </trkpt>
      <trkpt lat="45.06378" lon="5.58414">
        <ele>1492</ele>
        <time>2013-01-30T09:07:26Z</time>
      </trkpt>
      <trkpt lat="45.06378" lon="5.58414">
        <ele>1492</ele>
        <time>2013-01-30T09:07:31Z</time>
      </trkpt>
      <trkpt lat="45.06378" lon="5.58414">
        <ele>1492</ele>
        <time>2013-01-30T09:07:36Z</time>
      </trkpt>
      <trkpt lat="45.06378" lon="5.58414">
        <ele>1492</ele>
        <time>2013-01-30T09:07:41Z</time>
      </trkpt>
      <trkpt lat="45.06378" lon="5.58414">
        <ele>1492</ele>
        <time>2013-01-30T09:07:46Z</time>
      </trkpt>
      <trkpt lat="45.06378" lon="5.58414">
        <ele>1492</ele>
        <time>2013-01-30T09:07:51Z</time>
      </trkpt>
      <trkpt lat="45.06378" lon="5.58414">
        <ele>1492</ele>
        <time>2013-01-30T09:07:56Z</time>
      </trkpt>
      <trkpt lat="45.06378" lon="5.58414">
        <ele>1492</ele>
        <time>2013-01-30T09:08:01Z</time>
      </trkpt>
      <trkpt lat="45.06378" lon="5.58414">
        <ele>1492</ele>
        <time>2013-01-30T09:08:06Z</time>
      </trkpt>
      <trkpt lat="45.06379" lon="5.58414">
        <ele>1492</ele>
        <time>2013-01-30T09:08:11Z</time>
      </trkpt>
      <trkpt lat="45.06379" lon="5.58414">
        <ele>1492</ele>
        <time>2013-01-30T09:08:16Z</time>
      </trkpt>
      <trkpt lat="45.06379" lon="5.58414">
        <ele>1492</ele>
        <time>2013-01-30T09:08:21Z</time>
      </trkpt>
      <trkpt lat="45.06379" lon="5.58414">
        <ele>1492</ele>
        <time>2013-01-30T09:08:26Z</time>
      </trkpt>
      <trkpt lat="45.06379" lon="5.58414">
        <ele>1492</ele>
        <time>2013-01-30T09:08:31Z</time>
      </trkpt>
      <trkpt lat="45.06379" lon="5.58414">
        <ele>1492</ele>
        <time>2013-01-30T09:08:36Z</time>
      </trkpt>
      <trkpt lat="45.06379" lon="5.58414">
        <ele>1492</ele>
        <time>2013-01-30T09:08:41Z</time>
      </trkpt>
      <trkpt lat="45.06378" lon="5.58414">
        <ele>1492</ele>
        <time>2013-01-30T09:08:46Z</time>
      </trkpt>
      <trkpt lat="45.06378" lon="5.58414">
        <ele>1492</ele>
        <time>2013-01-30T09:08:51Z</time>
      </trkpt>
      <trkpt lat="45.06378" lon="5.58414">
        <ele>1492</ele>
        <time>2013-01-30T09:08:56Z</time>
      </trkpt>
      <trkpt lat="45.06378" lon="5.58414">
        <ele>1492</ele>
        <time>2013-01-30T09:09:01Z</time>
      </trkpt>
      <trkpt lat="45.06378" lon="5.58414">
        <ele>1492</ele>
        <time>2013-01-30T09:09:06Z</time>
      </trkpt>
      <trkpt lat="45.06378" lon="5.58414">
        <ele>1492</ele>
        <time>2013-01-30T09:09:11Z</time>
      </trkpt>
      <trkpt lat="45.06378" lon="5.58416">
        <ele>1492</ele>
        <time>2013-01-30T09:09:16Z</time>
      </trkpt>
      <trkpt lat="45.06379" lon="5.58416">
        <ele>1492</ele>
        <time>2013-01-30T09:09:21Z</time>
      </trkpt>
      <trkpt lat="45.06378" lon="5.58416">
        <ele>1493</ele>
        <time>2013-01-30T09:09:26Z</time>
      </trkpt>
      <trkpt lat="45.06378" lon="5.58415">
        <ele>1493</ele>
        <time>2013-01-30T09:09:31Z</time>
      </trkpt>
      <trkpt lat="45.06377" lon="5.58418">
        <ele>1493</ele>
        <time>2013-01-30T09:09:36Z</time>
      </trkpt>
      <trkpt lat="45.06375" lon="5.58422">
        <ele>1493</ele>
        <time>2013-01-30T09:09:41Z</time>
      </trkpt>
      <trkpt lat="45.06375" lon="5.58423">
        <ele>1493</ele>
        <time>2013-01-30T09:09:46Z</time>
      </trkpt>
      <trkpt lat="45.06375" lon="5.58423">
        <ele>1493</ele>
        <time>2013-01-30T09:09:51Z</time>
      </trkpt>
      <trkpt lat="45.06374" lon="5.58424">
        <ele>1493</ele>
        <time>2013-01-30T09:09:56Z</time>
      </trkpt>
      <trkpt lat="45.06374" lon="5.58428">
        <ele>1492</ele>
        <time>2013-01-30T09:10:01Z</time>
      </trkpt>
      <trkpt lat="45.06373" lon="5.58435">
        <ele>1492</ele>
        <time>2013-01-30T09:10:06Z</time>
      </trkpt>
      <trkpt lat="45.06372" lon="5.58441">
        <ele>1492</ele>
        <time>2013-01-30T09:10:11Z</time>
      </trkpt>
      <trkpt lat="45.06371" lon="5.58446">
        <ele>1492</ele>
        <time>2013-01-30T09:10:16Z</time>
      </trkpt>
      <trkpt lat="45.0637" lon="5.58453">
        <ele>1492</ele>
        <time>2013-01-30T09:10:21Z</time>
      </trkpt>
      <trkpt lat="45.06368" lon="5.58459">
        <ele>1492</ele>
        <time>2013-01-30T09:10:26Z</time>
      </trkpt>
      <trkpt lat="45.06367" lon="5.58465">
        <ele>1493</ele>
        <time>2013-01-30T09:10:31Z</time>
      </trkpt>
      <trkpt lat="45.06366" lon="5.58472">
        <ele>1493</ele>
        <time>2013-01-30T09:10:36Z</time>
      </trkpt>
      <trkpt lat="45.06365" lon="5.58477">
        <ele>1494</ele>
        <time>2013-01-30T09:10:41Z</time>
      </trkpt>
      <trkpt lat="45.06363" lon="5.58483">
        <ele>1494</ele>
        <time>2013-01-30T09:10:46Z</time>
      </trkpt>
      <trkpt lat="45.06361" lon="5.58489">
        <ele>1495</ele>
        <time>2013-01-30T09:10:51Z</time>
      </trkpt>
      <trkpt lat="45.06359" lon="5.58495">
        <ele>1496</ele>
        <time>2013-01-30T09:10:56Z</time>
      </trkpt>
      <trkpt lat="45.06358" lon="5.58499">
        <ele>1499</ele>
        <time>2013-01-30T09:11:01Z</time>
      </trkpt>
      <trkpt lat="45.06357" lon="5.58503">
        <ele>1500</ele>
        <time>2013-01-30T09:11:06Z</time>
      </trkpt>
      <trkpt lat="45.06355" lon="5.58508">
        <ele>1502</ele>
        <time>2013-01-30T09:11:11Z</time>
      </trkpt>
      <trkpt lat="45.06352" lon="5.58515">
        <ele>1501</ele>
        <time>2013-01-30T09:11:16Z</time>
      </trkpt>
      <trkpt lat="45.06349" lon="5.5852">
        <ele>1501</ele>
        <time>2013-01-30T09:11:21Z</time>
      </trkpt>
      <trkpt lat="45.06346" lon="5.58526">
        <ele>1501</ele>
        <time>2013-01-30T09:11:26Z</time>
      </trkpt>
      <trkpt lat="45.06344" lon="5.58532">
        <ele>1500</ele>
        <time>2013-01-30T09:11:31Z</time>
      </trkpt>
      <trkpt lat="45.0634" lon="5.58539">
        <ele>1497</ele>
        <time>2013-01-30T09:11:36Z</time>
      </trkpt>
      <trkpt lat="45.06337" lon="5.58546">
        <ele>1496</ele>
        <time>2013-01-30T09:11:41Z</time>
      </trkpt>
      <trkpt lat="45.06334" lon="5.58553">
        <ele>1496</ele>
        <time>2013-01-30T09:11:46Z</time>
      </trkpt>
      <trkpt lat="45.06329" lon="5.58559">
        <ele>1495</ele>
        <time>2013-01-30T09:11:51Z</time>
      </trkpt>
      <trkpt lat="45.06325" lon="5.58564">
        <ele>1495</ele>
        <time>2013-01-30T09:11:56Z</time>
      </trkpt>
      <trkpt lat="45.06321" lon="5.58569">
        <ele>1496</ele>
        <time>2013-01-30T09:12:01Z</time>
      </trkpt>
      <trkpt lat="45.0632" lon="5.58571">
        <ele>1495</ele>
        <time>2013-01-30T09:12:06Z</time>
      </trkpt>
      <trkpt lat="45.0632" lon="5.58571">
        <ele>1495</ele>
        <time>2013-01-30T09:12:11Z</time>
      </trkpt>
      <trkpt lat="45.0632" lon="5.58571">
        <ele>1495</ele>
        <time>2013-01-30T09:12:16Z</time>
      </trkpt>
      <trkpt lat="45.06318" lon="5.58574">
        <ele>1496</ele>
        <time>2013-01-30T09:12:21Z</time>
      </trkpt>
      <trkpt lat="45.06315" lon="5.58578">
        <ele>1496</ele>
        <time>2013-01-30T09:12:26Z</time>
      </trkpt>
      <trkpt lat="45.06311" lon="5.58582">
        <ele>1496</ele>
        <time>2013-01-30T09:12:31Z</time>
      </trkpt>
      <trkpt lat="45.06307" lon="5.58588">
        <ele>1496</ele>
        <time>2013-01-30T09:12:36Z</time>
      </trkpt>
      <trkpt lat="45.06306" lon="5.58589">
        <ele>1495</ele>
        <time>2013-01-30T09:12:41Z</time>
      </trkpt>
      <trkpt lat="45.06305" lon="5.5859">
        <ele>1495</ele>
        <time>2013-01-30T09:12:46Z</time>
      </trkpt>
      <trkpt lat="45.063" lon="5.58597">
        <ele>1494</ele>
        <time>2013-01-30T09:12:51Z</time>
      </trkpt>
      <trkpt lat="45.06296" lon="5.58602">
        <ele>1494</ele>
        <time>2013-01-30T09:12:56Z</time>
      </trkpt>
      <trkpt lat="45.06293" lon="5.58606">
        <ele>1496</ele>
        <time>2013-01-30T09:13:01Z</time>
      </trkpt>
      <trkpt lat="45.0629" lon="5.5861">
        <ele>1498</ele>
        <time>2013-01-30T09:13:06Z</time>
      </trkpt>
      <trkpt lat="45.06287" lon="5.58615">
        <ele>1498</ele>
        <time>2013-01-30T09:13:11Z</time>
      </trkpt>
      <trkpt lat="45.06283" lon="5.58623">
        <ele>1497</ele>
        <time>2013-01-30T09:13:16Z</time>
      </trkpt>
      <trkpt lat="45.0628" lon="5.58628">
        <ele>1496</ele>
        <time>2013-01-30T09:13:21Z</time>
      </trkpt>
      <trkpt lat="45.06276" lon="5.58636">
        <ele>1496</ele>
        <time>2013-01-30T09:13:26Z</time>
      </trkpt>
      <trkpt lat="45.06273" lon="5.5864">
        <ele>1497</ele>
        <time>2013-01-30T09:13:31Z</time>
      </trkpt>
      <trkpt lat="45.06269" lon="5.58644">
        <ele>1498</ele>
        <time>2013-01-30T09:13:36Z</time>
      </trkpt>
      <trkpt lat="45.06265" lon="5.5865">
        <ele>1497</ele>
        <time>2013-01-30T09:13:41Z</time>
      </trkpt>
      <trkpt lat="45.06261" lon="5.58655">
        <ele>1497</ele>
        <time>2013-01-30T09:13:46Z</time>
      </trkpt>
      <trkpt lat="45.06258" lon="5.5866">
        <ele>1498</ele>
        <time>2013-01-30T09:13:51Z</time>
      </trkpt>
      <trkpt lat="45.06255" lon="5.58663">
        <ele>1500</ele>
        <time>2013-01-30T09:13:56Z</time>
      </trkpt>
      <trkpt lat="45.06251" lon="5.58669">
        <ele>1499</ele>
        <time>2013-01-30T09:14:01Z</time>
      </trkpt>
      <trkpt lat="45.06247" lon="5.58676">
        <ele>1498</ele>
        <time>2013-01-30T09:14:06Z</time>
      </trkpt>
      <trkpt lat="45.06244" lon="5.58681">
        <ele>1497</ele>
        <time>2013-01-30T09:14:11Z</time>
      </trkpt>
      <trkpt lat="45.06241" lon="5.58686">
        <ele>1498</ele>
        <time>2013-01-30T09:14:16Z</time>
      </trkpt>
      <trkpt lat="45.06237" lon="5.58692">
        <ele>1498</ele>
        <time>2013-01-30T09:14:21Z</time>
      </trkpt>
      <trkpt lat="45.06234" lon="5.58696">
        <ele>1499</ele>
        <time>2013-01-30T09:14:26Z</time>
      </trkpt>
      <trkpt lat="45.0623" lon="5.58701">
        <ele>1499</ele>
        <time>2013-01-30T09:14:31Z</time>
      </trkpt>
      <trkpt lat="45.06227" lon="5.58707">
        <ele>1497</ele>
        <time>2013-01-30T09:14:36Z</time>
      </trkpt>
      <trkpt lat="45.06223" lon="5.58711">
        <ele>1497</ele>
        <time>2013-01-30T09:14:41Z</time>
      </trkpt>
      <trkpt lat="45.06219" lon="5.58716">
        <ele>1497</ele>
        <time>2013-01-30T09:14:46Z</time>
      </trkpt>
      <trkpt lat="45.06215" lon="5.58721">
        <ele>1496</ele>
        <time>2013-01-30T09:14:51Z</time>
      </trkpt>
      <trkpt lat="45.06211" lon="5.58726">
        <ele>1496</ele>
        <time>2013-01-30T09:14:56Z</time>
      </trkpt>
      <trkpt lat="45.06205" lon="5.58729">
        <ele>1497</ele>
        <time>2013-01-30T09:15:01Z</time>
      </trkpt>
      <trkpt lat="45.06201" lon="5.58733">
        <ele>1496</ele>
        <time>2013-01-30T09:15:06Z</time>
      </trkpt>
      <trkpt lat="45.06198" lon="5.58737">
        <ele>1498</ele>
        <time>2013-01-30T09:15:11Z</time>
      </trkpt>
      <trkpt lat="45.06196" lon="5.5874">
        <ele>1499</ele>
        <time>2013-01-30T09:15:16Z</time>
      </trkpt>
      <trkpt lat="45.06192" lon="5.58745">
        <ele>1499</ele>
        <time>2013-01-30T09:15:21Z</time>
      </trkpt>
      <trkpt lat="45.0619" lon="5.58749">
        <ele>1499</ele>
        <time>2013-01-30T09:15:26Z</time>
      </trkpt>
      <trkpt lat="45.06188" lon="5.58756">
        <ele>1499</ele>
        <time>2013-01-30T09:15:31Z</time>
      </trkpt>
      <trkpt lat="45.06186" lon="5.58762">
        <ele>1498</ele>
        <time>2013-01-30T09:15:36Z</time>
      </trkpt>
      <trkpt lat="45.06183" lon="5.58767">
        <ele>1497</ele>
        <time>2013-01-30T09:15:41Z</time>
      </trkpt>
      <trkpt lat="45.06182" lon="5.58773">
        <ele>1496</ele>
        <time>2013-01-30T09:15:46Z</time>
      </trkpt>
      <trkpt lat="45.0618" lon="5.58776">
        <ele>1496</ele>
        <time>2013-01-30T09:15:51Z</time>
      </trkpt>
      <trkpt lat="45.06176" lon="5.58779">
        <ele>1497</ele>
        <time>2013-01-30T09:15:56Z</time>
      </trkpt>
      <trkpt lat="45.06172" lon="5.58781">
        <ele>1498</ele>
        <time>2013-01-30T09:16:01Z</time>
      </trkpt>
      <trkpt lat="45.06172" lon="5.58781">
        <ele>1498</ele>
        <time>2013-01-30T09:16:06Z</time>
      </trkpt>
      <trkpt lat="45.06169" lon="5.58781">
        <ele>1497</ele>
        <time>2013-01-30T09:16:11Z</time>
      </trkpt>
      <trkpt lat="45.06166" lon="5.58781">
        <ele>1497</ele>
        <time>2013-01-30T09:16:16Z</time>
      </trkpt>
      <trkpt lat="45.06162" lon="5.58781">
        <ele>1498</ele>
        <time>2013-01-30T09:16:21Z</time>
      </trkpt>
      <trkpt lat="45.06159" lon="5.58783">
        <ele>1499</ele>
        <time>2013-01-30T09:16:26Z</time>
      </trkpt>
      <trkpt lat="45.06156" lon="5.58784">
        <ele>1499</ele>
        <time>2013-01-30T09:16:31Z</time>
      </trkpt>
      <trkpt lat="45.06152" lon="5.58786">
        <ele>1499</ele>
        <time>2013-01-30T09:16:36Z</time>
      </trkpt>
      <trkpt lat="45.06149" lon="5.58789">
        <ele>1499</ele>
        <time>2013-01-30T09:16:41Z</time>
      </trkpt>
      <trkpt lat="45.06145" lon="5.58793">
        <ele>1498</ele>
        <time>2013-01-30T09:16:46Z</time>
      </trkpt>
      <trkpt lat="45.06142" lon="5.58796">
        <ele>1498</ele>
        <time>2013-01-30T09:16:51Z</time>
      </trkpt>
      <trkpt lat="45.06138" lon="5.58799">
        <ele>1497</ele>
        <time>2013-01-30T09:16:56Z</time>
      </trkpt>
      <trkpt lat="45.06133" lon="5.58803">
        <ele>1497</ele>
        <time>2013-01-30T09:17:01Z</time>
      </trkpt>
      <trkpt lat="45.0613" lon="5.58806">
        <ele>1496</ele>
        <time>2013-01-30T09:17:06Z</time>
      </trkpt>
      <trkpt lat="45.06126" lon="5.58809">
        <ele>1496</ele>
        <time>2013-01-30T09:17:11Z</time>
      </trkpt>
      <trkpt lat="45.06122" lon="5.58811">
        <ele>1495</ele>
        <time>2013-01-30T09:17:16Z</time>
      </trkpt>
      <trkpt lat="45.06118" lon="5.58813">
        <ele>1495</ele>
        <time>2013-01-30T09:17:21Z</time>
      </trkpt>
      <trkpt lat="45.06115" lon="5.58814">
        <ele>1497</ele>
        <time>2013-01-30T09:17:26Z</time>
      </trkpt>
      <trkpt lat="45.06112" lon="5.58815">
        <ele>1498</ele>
        <time>2013-01-30T09:17:31Z</time>
      </trkpt>
      <trkpt lat="45.06107" lon="5.58816">
        <ele>1498</ele>
        <time>2013-01-30T09:17:36Z</time>
      </trkpt>
      <trkpt lat="45.06105" lon="5.58816">
        <ele>1499</ele>
        <time>2013-01-30T09:17:41Z</time>
      </trkpt>
      <trkpt lat="45.06102" lon="5.58817">
        <ele>1501</ele>
        <time>2013-01-30T09:17:46Z</time>
      </trkpt>
      <trkpt lat="45.06099" lon="5.58816">
        <ele>1504</ele>
        <time>2013-01-30T09:17:51Z</time>
      </trkpt>
      <trkpt lat="45.06097" lon="5.58817">
        <ele>1504</ele>
        <time>2013-01-30T09:17:56Z</time>
      </trkpt>
      <trkpt lat="45.06093" lon="5.58817">
        <ele>1505</ele>
        <time>2013-01-30T09:18:01Z</time>
      </trkpt>
      <trkpt lat="45.0609" lon="5.58821">
        <ele>1504</ele>
        <time>2013-01-30T09:18:06Z</time>
      </trkpt>
      <trkpt lat="45.06086" lon="5.58821">
        <ele>1506</ele>
        <time>2013-01-30T09:18:11Z</time>
      </trkpt>
      <trkpt lat="45.06081" lon="5.58822">
        <ele>1506</ele>
        <time>2013-01-30T09:18:16Z</time>
      </trkpt>
      <trkpt lat="45.06077" lon="5.58822">
        <ele>1507</ele>
        <time>2013-01-30T09:18:21Z</time>
      </trkpt>
      <trkpt lat="45.06073" lon="5.58822">
        <ele>1508</ele>
        <time>2013-01-30T09:18:26Z</time>
      </trkpt>
      <trkpt lat="45.06069" lon="5.58822">
        <ele>1510</ele>
        <time>2013-01-30T09:18:31Z</time>
      </trkpt>
      <trkpt lat="45.06065" lon="5.58823">
        <ele>1511</ele>
        <time>2013-01-30T09:18:36Z</time>
      </trkpt>
      <trkpt lat="45.06061" lon="5.58824">
        <ele>1513</ele>
        <time>2013-01-30T09:18:41Z</time>
      </trkpt>
      <trkpt lat="45.06055" lon="5.5883">
        <ele>1507</ele>
        <time>2013-01-30T09:18:46Z</time>
      </trkpt>
      <trkpt lat="45.06049" lon="5.58835">
        <ele>1503</ele>
        <time>2013-01-30T09:18:51Z</time>
      </trkpt>
      <trkpt lat="45.06044" lon="5.58841">
        <ele>1500</ele>
        <time>2013-01-30T09:18:56Z</time>
      </trkpt>
      <trkpt lat="45.06041" lon="5.58847">
        <ele>1497</ele>
        <time>2013-01-30T09:19:01Z</time>
      </trkpt>
      <trkpt lat="45.06038" lon="5.58853">
        <ele>1497</ele>
        <time>2013-01-30T09:19:06Z</time>
      </trkpt>
      <trkpt lat="45.06035" lon="5.58858">
        <ele>1496</ele>
        <time>2013-01-30T09:19:11Z</time>
      </trkpt>
      <trkpt lat="45.06032" lon="5.58864">
        <ele>1495</ele>
        <time>2013-01-30T09:19:16Z</time>
      </trkpt>
      <trkpt lat="45.06029" lon="5.58868">
        <ele>1496</ele>
        <time>2013-01-30T09:19:21Z</time>
      </trkpt>
      <trkpt lat="45.06027" lon="5.58873">
        <ele>1495</ele>
        <time>2013-01-30T09:19:26Z</time>
      </trkpt>
      <trkpt lat="45.06023" lon="5.58877">
        <ele>1495</ele>
        <time>2013-01-30T09:19:31Z</time>
      </trkpt>
      <trkpt lat="45.0602" lon="5.58882">
        <ele>1498</ele>
        <time>2013-01-30T09:19:36Z</time>
      </trkpt>
      <trkpt lat="45.06018" lon="5.58887">
        <ele>1499</ele>
        <time>2013-01-30T09:19:41Z</time>
      </trkpt>
      <trkpt lat="45.06015" lon="5.58894">
        <ele>1497</ele>
        <time>2013-01-30T09:19:46Z</time>
      </trkpt>
      <trkpt lat="45.06012" lon="5.589">
        <ele>1497</ele>
        <time>2013-01-30T09:19:51Z</time>
      </trkpt>
      <trkpt lat="45.0601" lon="5.58904">
        <ele>1497</ele>
        <time>2013-01-30T09:19:56Z</time>
      </trkpt>
      <trkpt lat="45.06007" lon="5.58908">
        <ele>1497</ele>
        <time>2013-01-30T09:20:01Z</time>
      </trkpt>
      <trkpt lat="45.06006" lon="5.58912">
        <ele>1498</ele>
        <time>2013-01-30T09:20:06Z</time>
      </trkpt>
      <trkpt lat="45.06003" lon="5.58915">
        <ele>1499</ele>
        <time>2013-01-30T09:20:11Z</time>
      </trkpt>
      <trkpt lat="45.06" lon="5.58917">
        <ele>1501</ele>
        <time>2013-01-30T09:20:16Z</time>
      </trkpt>
      <trkpt lat="45.05997" lon="5.58919">
        <ele>1502</ele>
        <time>2013-01-30T09:20:21Z</time>
      </trkpt>
      <trkpt lat="45.05992" lon="5.58925">
        <ele>1501</ele>
        <time>2013-01-30T09:20:26Z</time>
      </trkpt>
      <trkpt lat="45.05989" lon="5.58929">
        <ele>1499</ele>
        <time>2013-01-30T09:20:31Z</time>
      </trkpt>
      <trkpt lat="45.05986" lon="5.58934">
        <ele>1498</ele>
        <time>2013-01-30T09:20:36Z</time>
      </trkpt>
      <trkpt lat="45.05984" lon="5.58938">
        <ele>1501</ele>
        <time>2013-01-30T09:20:41Z</time>
      </trkpt>
      <trkpt lat="45.0598" lon="5.58943">
        <ele>1502</ele>
        <time>2013-01-30T09:20:46Z</time>
      </trkpt>
      <trkpt lat="45.05975" lon="5.58952">
        <ele>1497</ele>
        <time>2013-01-30T09:20:51Z</time>
      </trkpt>
      <trkpt lat="45.05972" lon="5.58958">
        <ele>1495</ele>
        <time>2013-01-30T09:20:56Z</time>
      </trkpt>
      <trkpt lat="45.05968" lon="5.58962">
        <ele>1494</ele>
        <time>2013-01-30T09:21:01Z</time>
      </trkpt>
      <trkpt lat="45.05964" lon="5.58966">
        <ele>1496</ele>
        <time>2013-01-30T09:21:06Z</time>
      </trkpt>
      <trkpt lat="45.0596" lon="5.58969">
        <ele>1496</ele>
        <time>2013-01-30T09:21:11Z</time>
      </trkpt>
      <trkpt lat="45.05956" lon="5.58973">
        <ele>1496</ele>
        <time>2013-01-30T09:21:16Z</time>
      </trkpt>
      <trkpt lat="45.05953" lon="5.58975">
        <ele>1497</ele>
        <time>2013-01-30T09:21:21Z</time>
      </trkpt>
      <trkpt lat="45.05948" lon="5.58978">
        <ele>1497</ele>
        <time>2013-01-30T09:21:26Z</time>
      </trkpt>
      <trkpt lat="45.05946" lon="5.58982">
        <ele>1497</ele>
        <time>2013-01-30T09:21:31Z</time>
      </trkpt>
      <trkpt lat="45.05941" lon="5.58987">
        <ele>1496</ele>
        <time>2013-01-30T09:21:36Z</time>
      </trkpt>
      <trkpt lat="45.05938" lon="5.58991">
        <ele>1495</ele>
        <time>2013-01-30T09:21:41Z</time>
      </trkpt>
      <trkpt lat="45.05934" lon="5.58995">
        <ele>1495</ele>
        <time>2013-01-30T09:21:46Z</time>
      </trkpt>
      <trkpt lat="45.0593" lon="5.58997">
        <ele>1497</ele>
        <time>2013-01-30T09:21:51Z</time>
      </trkpt>
      <trkpt lat="45.05927" lon="5.58998">
        <ele>1499</ele>
        <time>2013-01-30T09:21:56Z</time>
      </trkpt>
      <trkpt lat="45.05923" lon="5.58999">
        <ele>1501</ele>
        <time>2013-01-30T09:22:01Z</time>
      </trkpt>
      <trkpt lat="45.05919" lon="5.58996">
        <ele>1505</ele>
        <time>2013-01-30T09:22:06Z</time>
      </trkpt>
      <trkpt lat="45.05915" lon="5.58995">
        <ele>1507</ele>
        <time>2013-01-30T09:22:11Z</time>
      </trkpt>
      <trkpt lat="45.05911" lon="5.58994">
        <ele>1510</ele>
        <time>2013-01-30T09:22:16Z</time>
      </trkpt>
      <trkpt lat="45.05905" lon="5.58997">
        <ele>1508</ele>
        <time>2013-01-30T09:22:21Z</time>
      </trkpt>
      <trkpt lat="45.05901" lon="5.59001">
        <ele>1506</ele>
        <time>2013-01-30T09:22:26Z</time>
      </trkpt>
      <trkpt lat="45.05895" lon="5.59007">
        <ele>1502</ele>
        <time>2013-01-30T09:22:31Z</time>
      </trkpt>
      <trkpt lat="45.05888" lon="5.59011">
        <ele>1500</ele>
        <time>2013-01-30T09:22:36Z</time>
      </trkpt>
      <trkpt lat="45.05884" lon="5.59015">
        <ele>1500</ele>
        <time>2013-01-30T09:22:41Z</time>
      </trkpt>
      <trkpt lat="45.0588" lon="5.59018">
        <ele>1502</ele>
        <time>2013-01-30T09:22:46Z</time>
      </trkpt>
      <trkpt lat="45.05876" lon="5.59025">
        <ele>1500</ele>
        <time>2013-01-30T09:22:51Z</time>
      </trkpt>
      <trkpt lat="45.05872" lon="5.5903">
        <ele>1499</ele>
        <time>2013-01-30T09:22:56Z</time>
      </trkpt>
      <trkpt lat="45.05867" lon="5.59036">
        <ele>1498</ele>
        <time>2013-01-30T09:23:01Z</time>
      </trkpt>
      <trkpt lat="45.05864" lon="5.59038">
        <ele>1499</ele>
        <time>2013-01-30T09:23:06Z</time>
      </trkpt>
      <trkpt lat="45.05859" lon="5.59042">
        <ele>1499</ele>
        <time>2013-01-30T09:23:11Z</time>
      </trkpt>
      <trkpt lat="45.05853" lon="5.59048">
        <ele>1498</ele>
        <time>2013-01-30T09:23:16Z</time>
      </trkpt>
      <trkpt lat="45.05848" lon="5.59051">
        <ele>1497</ele>
        <time>2013-01-30T09:23:21Z</time>
      </trkpt>
      <trkpt lat="45.05843" lon="5.59054">
        <ele>1497</ele>
        <time>2013-01-30T09:23:26Z</time>
      </trkpt>
      <trkpt lat="45.0584" lon="5.59055">
        <ele>1499</ele>
        <time>2013-01-30T09:23:31Z</time>
      </trkpt>
      <trkpt lat="45.05835" lon="5.59058">
        <ele>1499</ele>
        <time>2013-01-30T09:23:36Z</time>
      </trkpt>
      <trkpt lat="45.05831" lon="5.59062">
        <ele>1500</ele>
        <time>2013-01-30T09:23:41Z</time>
      </trkpt>
      <trkpt lat="45.05826" lon="5.59066">
        <ele>1502</ele>
        <time>2013-01-30T09:23:46Z</time>
      </trkpt>
      <trkpt lat="45.05822" lon="5.5907">
        <ele>1502</ele>
        <time>2013-01-30T09:23:51Z</time>
      </trkpt>
      <trkpt lat="45.05818" lon="5.59073">
        <ele>1502</ele>
        <time>2013-01-30T09:23:56Z</time>
      </trkpt>
      <trkpt lat="45.05815" lon="5.59077">
        <ele>1502</ele>
        <time>2013-01-30T09:24:01Z</time>
      </trkpt>
      <trkpt lat="45.05811" lon="5.5908">
        <ele>1503</ele>
        <time>2013-01-30T09:24:06Z</time>
      </trkpt>
      <trkpt lat="45.05807" lon="5.59083">
        <ele>1503</ele>
        <time>2013-01-30T09:24:11Z</time>
      </trkpt>
      <trkpt lat="45.05803" lon="5.59085">
        <ele>1503</ele>
        <time>2013-01-30T09:24:16Z</time>
      </trkpt>
      <trkpt lat="45.058" lon="5.59087">
        <ele>1503</ele>
        <time>2013-01-30T09:24:21Z</time>
      </trkpt>
      <trkpt lat="45.05798" lon="5.59092">
        <ele>1501</ele>
        <time>2013-01-30T09:24:26Z</time>
      </trkpt>
      <trkpt lat="45.05795" lon="5.59096">
        <ele>1501</ele>
        <time>2013-01-30T09:24:31Z</time>
      </trkpt>
      <trkpt lat="45.05793" lon="5.59099">
        <ele>1502</ele>
        <time>2013-01-30T09:24:36Z</time>
      </trkpt>
      <trkpt lat="45.05792" lon="5.59101">
        <ele>1503</ele>
        <time>2013-01-30T09:24:41Z</time>
      </trkpt>
      <trkpt lat="45.0579" lon="5.59104">
        <ele>1504</ele>
        <time>2013-01-30T09:24:46Z</time>
      </trkpt>
      <trkpt lat="45.05788" lon="5.59106">
        <ele>1506</ele>
        <time>2013-01-30T09:24:51Z</time>
      </trkpt>
      <trkpt lat="45.05787" lon="5.59109">
        <ele>1507</ele>
        <time>2013-01-30T09:24:56Z</time>
      </trkpt>
      <trkpt lat="45.05784" lon="5.59112">
        <ele>1507</ele>
        <time>2013-01-30T09:25:01Z</time>
      </trkpt>
      <trkpt lat="45.05782" lon="5.59115">
        <ele>1508</ele>
        <time>2013-01-30T09:25:06Z</time>
      </trkpt>
      <trkpt lat="45.0578" lon="5.59118">
        <ele>1508</ele>
        <time>2013-01-30T09:25:11Z</time>
      </trkpt>
      <trkpt lat="45.05778" lon="5.59122">
        <ele>1509</ele>
        <time>2013-01-30T09:25:16Z</time>
      </trkpt>
      <trkpt lat="45.05776" lon="5.59126">
        <ele>1509</ele>
        <time>2013-01-30T09:25:21Z</time>
      </trkpt>
      <trkpt lat="45.05774" lon="5.59129">
        <ele>1510</ele>
        <time>2013-01-30T09:25:26Z</time>
      </trkpt>
      <trkpt lat="45.05772" lon="5.59133">
        <ele>1511</ele>
        <time>2013-01-30T09:25:31Z</time>
      </trkpt>
      <trkpt lat="45.05771" lon="5.59136">
        <ele>1511</ele>
        <time>2013-01-30T09:25:36Z</time>
      </trkpt>
      <trkpt lat="45.05771" lon="5.59136">
        <ele>1511</ele>
        <time>2013-01-30T09:25:41Z</time>
      </trkpt>
      <trkpt lat="45.0577" lon="5.59137">
        <ele>1511</ele>
        <time>2013-01-30T09:25:46Z</time>
      </trkpt>
      <trkpt lat="45.0577" lon="5.59137">
        <ele>1511</ele>
        <time>2013-01-30T09:25:51Z</time>
      </trkpt>
      <trkpt lat="45.0577" lon="5.59137">
        <ele>1511</ele>
        <time>2013-01-30T09:25:56Z</time>
      </trkpt>
      <trkpt lat="45.0577" lon="5.59137">
        <ele>1510</ele>
        <time>2013-01-30T09:26:01Z</time>
      </trkpt>
      <trkpt lat="45.05769" lon="5.59137">
        <ele>1510</ele>
        <time>2013-01-30T09:26:06Z</time>
      </trkpt>
      <trkpt lat="45.05769" lon="5.59137">
        <ele>1510</ele>
        <time>2013-01-30T09:26:11Z</time>
      </trkpt>
      <trkpt lat="45.05769" lon="5.59137">
        <ele>1510</ele>
        <time>2013-01-30T09:26:16Z</time>
      </trkpt>
      <trkpt lat="45.05769" lon="5.59137">
        <ele>1510</ele>
        <time>2013-01-30T09:26:21Z</time>
      </trkpt>
      <trkpt lat="45.05769" lon="5.59137">
        <ele>1510</ele>
        <time>2013-01-30T09:26:26Z</time>
      </trkpt>
      <trkpt lat="45.05769" lon="5.59137">
        <ele>1510</ele>
        <time>2013-01-30T09:26:31Z</time>
      </trkpt>
      <trkpt lat="45.05769" lon="5.59137">
        <ele>1509</ele>
        <time>2013-01-30T09:26:36Z</time>
      </trkpt>
      <trkpt lat="45.05769" lon="5.59137">
        <ele>1510</ele>
        <time>2013-01-30T09:26:41Z</time>
      </trkpt>
      <trkpt lat="45.05768" lon="5.59137">
        <ele>1510</ele>
        <time>2013-01-30T09:26:46Z</time>
      </trkpt>
      <trkpt lat="45.05768" lon="5.5914">
        <ele>1510</ele>
        <time>2013-01-30T09:26:51Z</time>
      </trkpt>
      <trkpt lat="45.05767" lon="5.59146">
        <ele>1511</ele>
        <time>2013-01-30T09:26:56Z</time>
      </trkpt>
      <trkpt lat="45.05766" lon="5.59152">
        <ele>1512</ele>
        <time>2013-01-30T09:27:01Z</time>
      </trkpt>
      <trkpt lat="45.05766" lon="5.59159">
        <ele>1513</ele>
        <time>2013-01-30T09:27:06Z</time>
      </trkpt>
      <trkpt lat="45.05764" lon="5.59165">
        <ele>1513</ele>
        <time>2013-01-30T09:27:11Z</time>
      </trkpt>
      <trkpt lat="45.05763" lon="5.59172">
        <ele>1513</ele>
        <time>2013-01-30T09:27:16Z</time>
      </trkpt>
      <trkpt lat="45.05763" lon="5.59179">
        <ele>1514</ele>
        <time>2013-01-30T09:27:21Z</time>
      </trkpt>
      <trkpt lat="45.05761" lon="5.59185">
        <ele>1514</ele>
        <time>2013-01-30T09:27:26Z</time>
      </trkpt>
      <trkpt lat="45.0576" lon="5.59192">
        <ele>1515</ele>
        <time>2013-01-30T09:27:31Z</time>
      </trkpt>
      <trkpt lat="45.0576" lon="5.59198">
        <ele>1516</ele>
        <time>2013-01-30T09:27:36Z</time>
      </trkpt>
      <trkpt lat="45.05759" lon="5.59205">
        <ele>1517</ele>
        <time>2013-01-30T09:27:41Z</time>
      </trkpt>
      <trkpt lat="45.05758" lon="5.5921">
        <ele>1518</ele>
        <time>2013-01-30T09:27:46Z</time>
      </trkpt>
      <trkpt lat="45.05758" lon="5.5921">
        <ele>1518</ele>
        <time>2013-01-30T09:27:51Z</time>
      </trkpt>
      <trkpt lat="45.05758" lon="5.59211">
        <ele>1518</ele>
        <time>2013-01-30T09:27:56Z</time>
      </trkpt>
      <trkpt lat="45.05758" lon="5.59217">
        <ele>1518</ele>
        <time>2013-01-30T09:28:01Z</time>
      </trkpt>
      <trkpt lat="45.05759" lon="5.59221">
        <ele>1518</ele>
        <time>2013-01-30T09:28:06Z</time>
      </trkpt>
      <trkpt lat="45.05759" lon="5.59221">
        <ele>1518</ele>
        <time>2013-01-30T09:28:11Z</time>
      </trkpt>
      <trkpt lat="45.05759" lon="5.59221">
        <ele>1518</ele>
        <time>2013-01-30T09:28:16Z</time>
      </trkpt>
      <trkpt lat="45.05759" lon="5.59222">
        <ele>1517</ele>
        <time>2013-01-30T09:28:21Z</time>
      </trkpt>
      <trkpt lat="45.05759" lon="5.59222">
        <ele>1517</ele>
        <time>2013-01-30T09:28:26Z</time>
      </trkpt>
      <trkpt lat="45.05758" lon="5.59222">
        <ele>1517</ele>
        <time>2013-01-30T09:28:31Z</time>
      </trkpt>
      <trkpt lat="45.0576" lon="5.59226">
        <ele>1517</ele>
        <time>2013-01-30T09:28:36Z</time>
      </trkpt>
      <trkpt lat="45.05761" lon="5.59232">
        <ele>1518</ele>
        <time>2013-01-30T09:28:41Z</time>
      </trkpt>
      <trkpt lat="45.05761" lon="5.59237">
        <ele>1519</ele>
        <time>2013-01-30T09:28:46Z</time>
      </trkpt>
      <trkpt lat="45.05763" lon="5.59242">
        <ele>1519</ele>
        <time>2013-01-30T09:28:51Z</time>
      </trkpt>
      <trkpt lat="45.05764" lon="5.59247">
        <ele>1520</ele>
        <time>2013-01-30T09:28:56Z</time>
      </trkpt>
      <trkpt lat="45.05764" lon="5.59251">
        <ele>1521</ele>
        <time>2013-01-30T09:29:01Z</time>
      </trkpt>
      <trkpt lat="45.05764" lon="5.59253">
        <ele>1521</ele>
        <time>2013-01-30T09:29:06Z</time>
      </trkpt>
      <trkpt lat="45.05764" lon="5.59254">
        <ele>1521</ele>
        <time>2013-01-30T09:29:11Z</time>
      </trkpt>
      <trkpt lat="45.05764" lon="5.59259">
        <ele>1522</ele>
        <time>2013-01-30T09:29:16Z</time>
      </trkpt>
      <trkpt lat="45.05765" lon="5.59263">
        <ele>1524</ele>
        <time>2013-01-30T09:29:21Z</time>
      </trkpt>
      <trkpt lat="45.05766" lon="5.59267">
        <ele>1524</ele>
        <time>2013-01-30T09:29:26Z</time>
      </trkpt>
      <trkpt lat="45.05767" lon="5.59272">
        <ele>1525</ele>
        <time>2013-01-30T09:29:31Z</time>
      </trkpt>
      <trkpt lat="45.05768" lon="5.59275">
        <ele>1526</ele>
        <time>2013-01-30T09:29:36Z</time>
      </trkpt>
      <trkpt lat="45.05768" lon="5.59277">
        <ele>1526</ele>
        <time>2013-01-30T09:29:41Z</time>
      </trkpt>
      <trkpt lat="45.05769" lon="5.59281">
        <ele>1527</ele>
        <time>2013-01-30T09:29:46Z</time>
      </trkpt>
      <trkpt lat="45.05771" lon="5.59285">
        <ele>1528</ele>
        <time>2013-01-30T09:29:51Z</time>
      </trkpt>
      <trkpt lat="45.05772" lon="5.59289">
        <ele>1529</ele>
        <time>2013-01-30T09:29:56Z</time>
      </trkpt>
      <trkpt lat="45.05774" lon="5.59293">
        <ele>1530</ele>
        <time>2013-01-30T09:30:01Z</time>
      </trkpt>
      <trkpt lat="45.05775" lon="5.59298">
        <ele>1531</ele>
        <time>2013-01-30T09:30:06Z</time>
      </trkpt>
      <trkpt lat="45.05776" lon="5.59302">
        <ele>1531</ele>
        <time>2013-01-30T09:30:11Z</time>
      </trkpt>
      <trkpt lat="45.05777" lon="5.59306">
        <ele>1532</ele>
        <time>2013-01-30T09:30:16Z</time>
      </trkpt>
      <trkpt lat="45.05778" lon="5.5931">
        <ele>1533</ele>
        <time>2013-01-30T09:30:21Z</time>
      </trkpt>
      <trkpt lat="45.05779" lon="5.59314">
        <ele>1533</ele>
        <time>2013-01-30T09:30:26Z</time>
      </trkpt>
      <trkpt lat="45.0578" lon="5.59317">
        <ele>1534</ele>
        <time>2013-01-30T09:30:31Z</time>
      </trkpt>
      <trkpt lat="45.05782" lon="5.59321">
        <ele>1535</ele>
        <time>2013-01-30T09:30:36Z</time>
      </trkpt>
      <trkpt lat="45.05783" lon="5.59324">
        <ele>1535</ele>
        <time>2013-01-30T09:30:41Z</time>
      </trkpt>
      <trkpt lat="45.05784" lon="5.59327">
        <ele>1536</ele>
        <time>2013-01-30T09:30:46Z</time>
      </trkpt>
      <trkpt lat="45.05786" lon="5.5933">
        <ele>1537</ele>
        <time>2013-01-30T09:30:51Z</time>
      </trkpt>
      <trkpt lat="45.05787" lon="5.59332">
        <ele>1539</ele>
        <time>2013-01-30T09:30:56Z</time>
      </trkpt>
      <trkpt lat="45.05788" lon="5.59334">
        <ele>1541</ele>
        <time>2013-01-30T09:31:01Z</time>
      </trkpt>
      <trkpt lat="45.0579" lon="5.59336">
        <ele>1543</ele>
        <time>2013-01-30T09:31:06Z</time>
      </trkpt>
      <trkpt lat="45.05792" lon="5.59337">
        <ele>1544</ele>
        <time>2013-01-30T09:31:11Z</time>
      </trkpt>
      <trkpt lat="45.05794" lon="5.59339">
        <ele>1546</ele>
        <time>2013-01-30T09:31:16Z</time>
      </trkpt>
      <trkpt lat="45.05797" lon="5.59341">
        <ele>1547</ele>
        <time>2013-01-30T09:31:21Z</time>
      </trkpt>
      <trkpt lat="45.05799" lon="5.59342">
        <ele>1548</ele>
        <time>2013-01-30T09:31:26Z</time>
      </trkpt>
      <trkpt lat="45.05801" lon="5.59343">
        <ele>1549</ele>
        <time>2013-01-30T09:31:31Z</time>
      </trkpt>
      <trkpt lat="45.05805" lon="5.59343">
        <ele>1549</ele>
        <time>2013-01-30T09:31:36Z</time>
      </trkpt>
      <trkpt lat="45.05806" lon="5.59342">
        <ele>1550</ele>
        <time>2013-01-30T09:31:41Z</time>
      </trkpt>
      <trkpt lat="45.05809" lon="5.5934">
        <ele>1551</ele>
        <time>2013-01-30T09:31:46Z</time>
      </trkpt>
      <trkpt lat="45.05811" lon="5.5934">
        <ele>1552</ele>
        <time>2013-01-30T09:31:51Z</time>
      </trkpt>
      <trkpt lat="45.05814" lon="5.5934">
        <ele>1552</ele>
        <time>2013-01-30T09:31:56Z</time>
      </trkpt>
      <trkpt lat="45.05816" lon="5.59342">
        <ele>1553</ele>
        <time>2013-01-30T09:32:01Z</time>
      </trkpt>
      <trkpt lat="45.05818" lon="5.59345">
        <ele>1554</ele>
        <time>2013-01-30T09:32:06Z</time>
      </trkpt>
      <trkpt lat="45.05819" lon="5.59347">
        <ele>1555</ele>
        <time>2013-01-30T09:32:11Z</time>
      </trkpt>
      <trkpt lat="45.05821" lon="5.5935">
        <ele>1555</ele>
        <time>2013-01-30T09:32:16Z</time>
      </trkpt>
      <trkpt lat="45.05823" lon="5.59353">
        <ele>1555</ele>
        <time>2013-01-30T09:32:21Z</time>
      </trkpt>
      <trkpt lat="45.05824" lon="5.59356">
        <ele>1555</ele>
        <time>2013-01-30T09:32:26Z</time>
      </trkpt>
      <trkpt lat="45.05826" lon="5.59359">
        <ele>1555</ele>
        <time>2013-01-30T09:32:31Z</time>
      </trkpt>
      <trkpt lat="45.05826" lon="5.59363">
        <ele>1556</ele>
        <time>2013-01-30T09:32:36Z</time>
      </trkpt>
      <trkpt lat="45.05827" lon="5.59366">
        <ele>1556</ele>
        <time>2013-01-30T09:32:41Z</time>
      </trkpt>
      <trkpt lat="45.05829" lon="5.59369">
        <ele>1556</ele>
        <time>2013-01-30T09:32:46Z</time>
      </trkpt>
      <trkpt lat="45.0583" lon="5.59373">
        <ele>1557</ele>
        <time>2013-01-30T09:32:51Z</time>
      </trkpt>
      <trkpt lat="45.05831" lon="5.59376">
        <ele>1557</ele>
        <time>2013-01-30T09:32:56Z</time>
      </trkpt>
      <trkpt lat="45.05832" lon="5.59379">
        <ele>1557</ele>
        <time>2013-01-30T09:33:01Z</time>
      </trkpt>
      <trkpt lat="45.05834" lon="5.59381">
        <ele>1558</ele>
        <time>2013-01-30T09:33:06Z</time>
      </trkpt>
      <trkpt lat="45.05835" lon="5.59384">
        <ele>1558</ele>
        <time>2013-01-30T09:33:11Z</time>
      </trkpt>
      <trkpt lat="45.05836" lon="5.59387">
        <ele>1558</ele>
        <time>2013-01-30T09:33:16Z</time>
      </trkpt>
      <trkpt lat="45.05837" lon="5.5939">
        <ele>1559</ele>
        <time>2013-01-30T09:33:21Z</time>
      </trkpt>
      <trkpt lat="45.05837" lon="5.59393">
        <ele>1560</ele>
        <time>2013-01-30T09:33:26Z</time>
      </trkpt>
      <trkpt lat="45.05837" lon="5.59397">
        <ele>1560</ele>
        <time>2013-01-30T09:33:31Z</time>
      </trkpt>
      <trkpt lat="45.05836" lon="5.594">
        <ele>1561</ele>
        <time>2013-01-30T09:33:36Z</time>
      </trkpt>
      <trkpt lat="45.05835" lon="5.59402">
        <ele>1562</ele>
        <time>2013-01-30T09:33:41Z</time>
      </trkpt>
      <trkpt lat="45.05834" lon="5.59406">
        <ele>1564</ele>
        <time>2013-01-30T09:33:46Z</time>
      </trkpt>
      <trkpt lat="45.05832" lon="5.59409">
        <ele>1565</ele>
        <time>2013-01-30T09:33:51Z</time>
      </trkpt>
      <trkpt lat="45.0583" lon="5.59411">
        <ele>1565</ele>
        <time>2013-01-30T09:33:56Z</time>
      </trkpt>
      <trkpt lat="45.05829" lon="5.59414">
        <ele>1566</ele>
        <time>2013-01-30T09:34:01Z</time>
      </trkpt>
      <trkpt lat="45.05827" lon="5.59416">
        <ele>1567</ele>
        <time>2013-01-30T09:34:06Z</time>
      </trkpt>
      <trkpt lat="45.05824" lon="5.59417">
        <ele>1568</ele>
        <time>2013-01-30T09:34:11Z</time>
      </trkpt>
      <trkpt lat="45.05822" lon="5.59418">
        <ele>1569</ele>
        <time>2013-01-30T09:34:16Z</time>
      </trkpt>
      <trkpt lat="45.05819" lon="5.59419">
        <ele>1570</ele>
        <time>2013-01-30T09:34:21Z</time>
      </trkpt>
      <trkpt lat="45.05816" lon="5.5942">
        <ele>1570</ele>
        <time>2013-01-30T09:34:26Z</time>
      </trkpt>
      <trkpt lat="45.05814" lon="5.59421">
        <ele>1571</ele>
        <time>2013-01-30T09:34:31Z</time>
      </trkpt>
      <trkpt lat="45.05812" lon="5.59422">
        <ele>1572</ele>
        <time>2013-01-30T09:34:36Z</time>
      </trkpt>
      <trkpt lat="45.0581" lon="5.59423">
        <ele>1573</ele>
        <time>2013-01-30T09:34:41Z</time>
      </trkpt>
      <trkpt lat="45.05807" lon="5.59425">
        <ele>1574</ele>
        <time>2013-01-30T09:34:46Z</time>
      </trkpt>
      <trkpt lat="45.05805" lon="5.59426">
        <ele>1574</ele>
        <time>2013-01-30T09:34:51Z</time>
      </trkpt>
      <trkpt lat="45.05803" lon="5.59428">
        <ele>1574</ele>
        <time>2013-01-30T09:34:56Z</time>
      </trkpt>
      <trkpt lat="45.05801" lon="5.5943">
        <ele>1575</ele>
        <time>2013-01-30T09:35:01Z</time>
      </trkpt>
      <trkpt lat="45.05799" lon="5.59432">
        <ele>1576</ele>
        <time>2013-01-30T09:35:06Z</time>
      </trkpt>
      <trkpt lat="45.05797" lon="5.59434">
        <ele>1576</ele>
        <time>2013-01-30T09:35:11Z</time>
      </trkpt>
      <trkpt lat="45.05795" lon="5.59437">
        <ele>1576</ele>
        <time>2013-01-30T09:35:16Z</time>
      </trkpt>
      <trkpt lat="45.05793" lon="5.59439">
        <ele>1577</ele>
        <time>2013-01-30T09:35:21Z</time>
      </trkpt>
      <trkpt lat="45.05792" lon="5.59441">
        <ele>1578</ele>
        <time>2013-01-30T09:35:26Z</time>
      </trkpt>
      <trkpt lat="45.0579" lon="5.59443">
        <ele>1578</ele>
        <time>2013-01-30T09:35:31Z</time>
      </trkpt>
      <trkpt lat="45.05788" lon="5.59444">
        <ele>1579</ele>
        <time>2013-01-30T09:35:36Z</time>
      </trkpt>
      <trkpt lat="45.05786" lon="5.59446">
        <ele>1580</ele>
        <time>2013-01-30T09:35:41Z</time>
      </trkpt>
      <trkpt lat="45.05784" lon="5.59448">
        <ele>1580</ele>
        <time>2013-01-30T09:35:46Z</time>
      </trkpt>
      <trkpt lat="45.05784" lon="5.59448">
        <ele>1580</ele>
        <time>2013-01-30T09:35:51Z</time>
      </trkpt>
      <trkpt lat="45.05783" lon="5.59449">
        <ele>1580</ele>
        <time>2013-01-30T09:35:56Z</time>
      </trkpt>
      <trkpt lat="45.0578" lon="5.59451">
        <ele>1581</ele>
        <time>2013-01-30T09:36:01Z</time>
      </trkpt>
      <trkpt lat="45.05778" lon="5.59454">
        <ele>1582</ele>
        <time>2013-01-30T09:36:06Z</time>
      </trkpt>
      <trkpt lat="45.05776" lon="5.59456">
        <ele>1583</ele>
        <time>2013-01-30T09:36:11Z</time>
      </trkpt>
      <trkpt lat="45.05773" lon="5.59457">
        <ele>1584</ele>
        <time>2013-01-30T09:36:16Z</time>
      </trkpt>
      <trkpt lat="45.0577" lon="5.59458">
        <ele>1585</ele>
        <time>2013-01-30T09:36:21Z</time>
      </trkpt>
      <trkpt lat="45.05767" lon="5.59458">
        <ele>1585</ele>
        <time>2013-01-30T09:36:26Z</time>
      </trkpt>
      <trkpt lat="45.05764" lon="5.59458">
        <ele>1586</ele>
        <time>2013-01-30T09:36:31Z</time>
      </trkpt>
      <trkpt lat="45.05761" lon="5.59457">
        <ele>1586</ele>
        <time>2013-01-30T09:36:36Z</time>
      </trkpt>
      <trkpt lat="45.05759" lon="5.59456">
        <ele>1586</ele>
        <time>2013-01-30T09:36:41Z</time>
      </trkpt>
      <trkpt lat="45.05757" lon="5.59453">
        <ele>1587</ele>
        <time>2013-01-30T09:36:46Z</time>
      </trkpt>
      <trkpt lat="45.05756" lon="5.59451">
        <ele>1588</ele>
        <time>2013-01-30T09:36:51Z</time>
      </trkpt>
      <trkpt lat="45.05754" lon="5.59449">
        <ele>1588</ele>
        <time>2013-01-30T09:36:56Z</time>
      </trkpt>
      <trkpt lat="45.05753" lon="5.59446">
        <ele>1589</ele>
        <time>2013-01-30T09:37:01Z</time>
      </trkpt>
      <trkpt lat="45.05752" lon="5.59446">
        <ele>1589</ele>
        <time>2013-01-30T09:37:06Z</time>
      </trkpt>
      <trkpt lat="45.05752" lon="5.59446">
        <ele>1589</ele>
        <time>2013-01-30T09:37:11Z</time>
      </trkpt>
      <trkpt lat="45.05752" lon="5.59446">
        <ele>1589</ele>
        <time>2013-01-30T09:37:16Z</time>
      </trkpt>
      <trkpt lat="45.05753" lon="5.59446">
        <ele>1590</ele>
        <time>2013-01-30T09:37:21Z</time>
      </trkpt>
      <trkpt lat="45.05753" lon="5.59446">
        <ele>1590</ele>
        <time>2013-01-30T09:37:26Z</time>
      </trkpt>
      <trkpt lat="45.05753" lon="5.59446">
        <ele>1590</ele>
        <time>2013-01-30T09:37:31Z</time>
      </trkpt>
      <trkpt lat="45.05753" lon="5.59446">
        <ele>1590</ele>
        <time>2013-01-30T09:37:36Z</time>
      </trkpt>
      <trkpt lat="45.05751" lon="5.59443">
        <ele>1591</ele>
        <time>2013-01-30T09:37:41Z</time>
      </trkpt>
      <trkpt lat="45.0575" lon="5.59443">
        <ele>1592</ele>
        <time>2013-01-30T09:37:46Z</time>
      </trkpt>
      <trkpt lat="45.05751" lon="5.59446">
        <ele>1593</ele>
        <time>2013-01-30T09:37:51Z</time>
      </trkpt>
      <trkpt lat="45.05751" lon="5.59451">
        <ele>1593</ele>
        <time>2013-01-30T09:37:56Z</time>
      </trkpt>
      <trkpt lat="45.05751" lon="5.59455">
        <ele>1594</ele>
        <time>2013-01-30T09:38:01Z</time>
      </trkpt>
      <trkpt lat="45.05751" lon="5.59459">
        <ele>1595</ele>
        <time>2013-01-30T09:38:06Z</time>
      </trkpt>
      <trkpt lat="45.05751" lon="5.59463">
        <ele>1595</ele>
        <time>2013-01-30T09:38:11Z</time>
      </trkpt>
      <trkpt lat="45.05752" lon="5.59468">
        <ele>1596</ele>
        <time>2013-01-30T09:38:16Z</time>
      </trkpt>
      <trkpt lat="45.05752" lon="5.5947">
        <ele>1596</ele>
        <time>2013-01-30T09:38:21Z</time>
      </trkpt>
      <trkpt lat="45.05752" lon="5.5947">
        <ele>1596</ele>
        <time>2013-01-30T09:38:26Z</time>
      </trkpt>
      <trkpt lat="45.05753" lon="5.59474">
        <ele>1596</ele>
        <time>2013-01-30T09:38:31Z</time>
      </trkpt>
      <trkpt lat="45.05753" lon="5.59474">
        <ele>1597</ele>
        <time>2013-01-30T09:38:36Z</time>
      </trkpt>
      <trkpt lat="45.05754" lon="5.59475">
        <ele>1597</ele>
        <time>2013-01-30T09:38:41Z</time>
      </trkpt>
      <trkpt lat="45.05758" lon="5.5948">
        <ele>1598</ele>
        <time>2013-01-30T09:38:46Z</time>
      </trkpt>
      <trkpt lat="45.0576" lon="5.59483">
        <ele>1598</ele>
        <time>2013-01-30T09:38:51Z</time>
      </trkpt>
      <trkpt lat="45.05763" lon="5.59486">
        <ele>1599</ele>
        <time>2013-01-30T09:38:56Z</time>
      </trkpt>
      <trkpt lat="45.05765" lon="5.5949">
        <ele>1600</ele>
        <time>2013-01-30T09:39:01Z</time>
      </trkpt>
      <trkpt lat="45.05767" lon="5.59493">
        <ele>1601</ele>
        <time>2013-01-30T09:39:06Z</time>
      </trkpt>
      <trkpt lat="45.0577" lon="5.59495">
        <ele>1602</ele>
        <time>2013-01-30T09:39:11Z</time>
      </trkpt>
      <trkpt lat="45.05773" lon="5.59497">
        <ele>1602</ele>
        <time>2013-01-30T09:39:16Z</time>
      </trkpt>
      <trkpt lat="45.05776" lon="5.59498">
        <ele>1604</ele>
        <time>2013-01-30T09:39:21Z</time>
      </trkpt>
      <trkpt lat="45.05779" lon="5.595">
        <ele>1604</ele>
        <time>2013-01-30T09:39:26Z</time>
      </trkpt>
      <trkpt lat="45.05782" lon="5.595">
        <ele>1605</ele>
        <time>2013-01-30T09:39:31Z</time>
      </trkpt>
      <trkpt lat="45.05786" lon="5.595">
        <ele>1606</ele>
        <time>2013-01-30T09:39:36Z</time>
      </trkpt>
      <trkpt lat="45.05789" lon="5.595">
        <ele>1607</ele>
        <time>2013-01-30T09:39:41Z</time>
      </trkpt>
      <trkpt lat="45.05792" lon="5.595">
        <ele>1608</ele>
        <time>2013-01-30T09:39:46Z</time>
      </trkpt>
      <trkpt lat="45.05795" lon="5.59499">
        <ele>1609</ele>
        <time>2013-01-30T09:39:51Z</time>
      </trkpt>
      <trkpt lat="45.05795" lon="5.595">
        <ele>1609</ele>
        <time>2013-01-30T09:39:56Z</time>
      </trkpt>
      <trkpt lat="45.05793" lon="5.59502">
        <ele>1610</ele>
        <time>2013-01-30T09:40:01Z</time>
      </trkpt>
      <trkpt lat="45.0579" lon="5.59505">
        <ele>1611</ele>
        <time>2013-01-30T09:40:06Z</time>
      </trkpt>
      <trkpt lat="45.05788" lon="5.59507">
        <ele>1611</ele>
        <time>2013-01-30T09:40:11Z</time>
      </trkpt>
      <trkpt lat="45.05786" lon="5.59509">
        <ele>1612</ele>
        <time>2013-01-30T09:40:16Z</time>
      </trkpt>
      <trkpt lat="45.05783" lon="5.59511">
        <ele>1612</ele>
        <time>2013-01-30T09:40:21Z</time>
      </trkpt>
      <trkpt lat="45.0578" lon="5.59513">
        <ele>1613</ele>
        <time>2013-01-30T09:40:26Z</time>
      </trkpt>
      <trkpt lat="45.05778" lon="5.59515">
        <ele>1614</ele>
        <time>2013-01-30T09:40:31Z</time>
      </trkpt>
      <trkpt lat="45.05776" lon="5.59517">
        <ele>1614</ele>
        <time>2013-01-30T09:40:36Z</time>
      </trkpt>
      <trkpt lat="45.05774" lon="5.5952">
        <ele>1615</ele>
        <time>2013-01-30T09:40:41Z</time>
      </trkpt>
      <trkpt lat="45.05772" lon="5.59521">
        <ele>1616</ele>
        <time>2013-01-30T09:40:46Z</time>
      </trkpt>
      <trkpt lat="45.05774" lon="5.59522">
        <ele>1616</ele>
        <time>2013-01-30T09:40:51Z</time>
      </trkpt>
      <trkpt lat="45.05777" lon="5.59523">
        <ele>1616</ele>
        <time>2013-01-30T09:40:56Z</time>
      </trkpt>
      <trkpt lat="45.0578" lon="5.59524">
        <ele>1617</ele>
        <time>2013-01-30T09:41:01Z</time>
      </trkpt>
      <trkpt lat="45.05782" lon="5.59525">
        <ele>1617</ele>
        <time>2013-01-30T09:41:06Z</time>
      </trkpt>
      <trkpt lat="45.05784" lon="5.59526">
        <ele>1618</ele>
        <time>2013-01-30T09:41:11Z</time>
      </trkpt>
      <trkpt lat="45.05787" lon="5.59527">
        <ele>1619</ele>
        <time>2013-01-30T09:41:16Z</time>
      </trkpt>
      <trkpt lat="45.05789" lon="5.59528">
        <ele>1620</ele>
        <time>2013-01-30T09:41:21Z</time>
      </trkpt>
      <trkpt lat="45.05792" lon="5.59529">
        <ele>1620</ele>
        <time>2013-01-30T09:41:26Z</time>
      </trkpt>
      <trkpt lat="45.05795" lon="5.5953">
        <ele>1621</ele>
        <time>2013-01-30T09:41:31Z</time>
      </trkpt>
      <trkpt lat="45.05797" lon="5.59532">
        <ele>1622</ele>
        <time>2013-01-30T09:41:36Z</time>
      </trkpt>
      <trkpt lat="45.058" lon="5.59533">
        <ele>1623</ele>
        <time>2013-01-30T09:41:41Z</time>
      </trkpt>
      <trkpt lat="45.05803" lon="5.59533">
        <ele>1624</ele>
        <time>2013-01-30T09:41:46Z</time>
      </trkpt>
      <trkpt lat="45.05806" lon="5.59535">
        <ele>1624</ele>
        <time>2013-01-30T09:41:51Z</time>
      </trkpt>
      <trkpt lat="45.05806" lon="5.59538">
        <ele>1625</ele>
        <time>2013-01-30T09:41:56Z</time>
      </trkpt>
      <trkpt lat="45.05806" lon="5.59541">
        <ele>1626</ele>
        <time>2013-01-30T09:42:01Z</time>
      </trkpt>
      <trkpt lat="45.05805" lon="5.59543">
        <ele>1627</ele>
        <time>2013-01-30T09:42:06Z</time>
      </trkpt>
      <trkpt lat="45.05803" lon="5.59545">
        <ele>1628</ele>
        <time>2013-01-30T09:42:11Z</time>
      </trkpt>
      <trkpt lat="45.05801" lon="5.59548">
        <ele>1628</ele>
        <time>2013-01-30T09:42:16Z</time>
      </trkpt>
      <trkpt lat="45.05799" lon="5.59549">
        <ele>1629</ele>
        <time>2013-01-30T09:42:21Z</time>
      </trkpt>
      <trkpt lat="45.05797" lon="5.5955">
        <ele>1630</ele>
        <time>2013-01-30T09:42:26Z</time>
      </trkpt>
      <trkpt lat="45.05795" lon="5.59553">
        <ele>1631</ele>
        <time>2013-01-30T09:42:31Z</time>
      </trkpt>
      <trkpt lat="45.05796" lon="5.59556">
        <ele>1632</ele>
        <time>2013-01-30T09:42:36Z</time>
      </trkpt>
      <trkpt lat="45.05797" lon="5.59559">
        <ele>1632</ele>
        <time>2013-01-30T09:42:41Z</time>
      </trkpt>
      <trkpt lat="45.05799" lon="5.59561">
        <ele>1633</ele>
        <time>2013-01-30T09:42:46Z</time>
      </trkpt>
      <trkpt lat="45.058" lon="5.59563">
        <ele>1634</ele>
        <time>2013-01-30T09:42:51Z</time>
      </trkpt>
      <trkpt lat="45.05802" lon="5.59565">
        <ele>1634</ele>
        <time>2013-01-30T09:42:56Z</time>
      </trkpt>
      <trkpt lat="45.05804" lon="5.59567">
        <ele>1635</ele>
        <time>2013-01-30T09:43:01Z</time>
      </trkpt>
      <trkpt lat="45.05806" lon="5.59569">
        <ele>1635</ele>
        <time>2013-01-30T09:43:06Z</time>
      </trkpt>
      <trkpt lat="45.05807" lon="5.59572">
        <ele>1636</ele>
        <time>2013-01-30T09:43:11Z</time>
      </trkpt>
      <trkpt lat="45.05809" lon="5.59575">
        <ele>1636</ele>
        <time>2013-01-30T09:43:16Z</time>
      </trkpt>
      <trkpt lat="45.05811" lon="5.59577">
        <ele>1637</ele>
        <time>2013-01-30T09:43:21Z</time>
      </trkpt>
      <trkpt lat="45.05813" lon="5.5958">
        <ele>1638</ele>
        <time>2013-01-30T09:43:26Z</time>
      </trkpt>
      <trkpt lat="45.05815" lon="5.59582">
        <ele>1639</ele>
        <time>2013-01-30T09:43:31Z</time>
      </trkpt>
      <trkpt lat="45.05816" lon="5.59586">
        <ele>1640</ele>
        <time>2013-01-30T09:43:36Z</time>
      </trkpt>
      <trkpt lat="45.05816" lon="5.59589">
        <ele>1641</ele>
        <time>2013-01-30T09:43:41Z</time>
      </trkpt>
      <trkpt lat="45.05815" lon="5.59591">
        <ele>1642</ele>
        <time>2013-01-30T09:43:46Z</time>
      </trkpt>
      <trkpt lat="45.05813" lon="5.59592">
        <ele>1643</ele>
        <time>2013-01-30T09:43:51Z</time>
      </trkpt>
      <trkpt lat="45.05811" lon="5.59592">
        <ele>1645</ele>
        <time>2013-01-30T09:43:56Z</time>
      </trkpt>
      <trkpt lat="45.05809" lon="5.59592">
        <ele>1646</ele>
        <time>2013-01-30T09:44:01Z</time>
      </trkpt>
      <trkpt lat="45.05807" lon="5.59593">
        <ele>1647</ele>
        <time>2013-01-30T09:44:06Z</time>
      </trkpt>
      <trkpt lat="45.05804" lon="5.59595">
        <ele>1648</ele>
        <time>2013-01-30T09:44:11Z</time>
      </trkpt>
      <trkpt lat="45.05803" lon="5.59597">
        <ele>1648</ele>
        <time>2013-01-30T09:44:16Z</time>
      </trkpt>
      <trkpt lat="45.05802" lon="5.59601">
        <ele>1649</ele>
        <time>2013-01-30T09:44:21Z</time>
      </trkpt>
      <trkpt lat="45.05803" lon="5.59604">
        <ele>1649</ele>
        <time>2013-01-30T09:44:26Z</time>
      </trkpt>
      <trkpt lat="45.05804" lon="5.59605">
        <ele>1649</ele>
        <time>2013-01-30T09:44:31Z</time>
      </trkpt>
      <trkpt lat="45.05805" lon="5.59606">
        <ele>1649</ele>
        <time>2013-01-30T09:44:36Z</time>
      </trkpt>
      <trkpt lat="45.05807" lon="5.59609">
        <ele>1650</ele>
        <time>2013-01-30T09:44:41Z</time>
      </trkpt>
      <trkpt lat="45.05806" lon="5.59612">
        <ele>1651</ele>
        <time>2013-01-30T09:44:46Z</time>
      </trkpt>
      <trkpt lat="45.05805" lon="5.59614">
        <ele>1653</ele>
        <time>2013-01-30T09:44:51Z</time>
      </trkpt>
      <trkpt lat="45.05802" lon="5.59616">
        <ele>1654</ele>
        <time>2013-01-30T09:44:56Z</time>
      </trkpt>
      <trkpt lat="45.058" lon="5.59617">
        <ele>1655</ele>
        <time>2013-01-30T09:45:01Z</time>
      </trkpt>
      <trkpt lat="45.05797" lon="5.59618">
        <ele>1655</ele>
        <time>2013-01-30T09:45:06Z</time>
      </trkpt>
      <trkpt lat="45.05796" lon="5.5962">
        <ele>1655</ele>
        <time>2013-01-30T09:45:11Z</time>
      </trkpt>
      <trkpt lat="45.05798" lon="5.59623">
        <ele>1656</ele>
        <time>2013-01-30T09:45:16Z</time>
      </trkpt>
      <trkpt lat="45.05799" lon="5.59625">
        <ele>1656</ele>
        <time>2013-01-30T09:45:21Z</time>
      </trkpt>
      <trkpt lat="45.05801" lon="5.59628">
        <ele>1657</ele>
        <time>2013-01-30T09:45:26Z</time>
      </trkpt>
      <trkpt lat="45.05803" lon="5.5963">
        <ele>1657</ele>
        <time>2013-01-30T09:45:31Z</time>
      </trkpt>
      <trkpt lat="45.05804" lon="5.59633">
        <ele>1658</ele>
        <time>2013-01-30T09:45:36Z</time>
      </trkpt>
      <trkpt lat="45.05806" lon="5.59635">
        <ele>1658</ele>
        <time>2013-01-30T09:45:41Z</time>
      </trkpt>
      <trkpt lat="45.05807" lon="5.59638">
        <ele>1659</ele>
        <time>2013-01-30T09:45:46Z</time>
      </trkpt>
      <trkpt lat="45.05808" lon="5.5964">
        <ele>1659</ele>
        <time>2013-01-30T09:45:51Z</time>
      </trkpt>
      <trkpt lat="45.0581" lon="5.59641">
        <ele>1660</ele>
        <time>2013-01-30T09:45:56Z</time>
      </trkpt>
      <trkpt lat="45.0581" lon="5.59643">
        <ele>1661</ele>
        <time>2013-01-30T09:46:01Z</time>
      </trkpt>
      <trkpt lat="45.05808" lon="5.59645">
        <ele>1662</ele>
        <time>2013-01-30T09:46:06Z</time>
      </trkpt>
      <trkpt lat="45.05806" lon="5.59647">
        <ele>1663</ele>
        <time>2013-01-30T09:46:11Z</time>
      </trkpt>
      <trkpt lat="45.05803" lon="5.59648">
        <ele>1664</ele>
        <time>2013-01-30T09:46:16Z</time>
      </trkpt>
      <trkpt lat="45.05801" lon="5.59648">
        <ele>1664</ele>
        <time>2013-01-30T09:46:21Z</time>
      </trkpt>
      <trkpt lat="45.05798" lon="5.59649">
        <ele>1665</ele>
        <time>2013-01-30T09:46:26Z</time>
      </trkpt>
      <trkpt lat="45.05796" lon="5.5965">
        <ele>1666</ele>
        <time>2013-01-30T09:46:31Z</time>
      </trkpt>
      <trkpt lat="45.05796" lon="5.59653">
        <ele>1666</ele>
        <time>2013-01-30T09:46:36Z</time>
      </trkpt>
      <trkpt lat="45.05797" lon="5.59656">
        <ele>1667</ele>
        <time>2013-01-30T09:46:41Z</time>
      </trkpt>
      <trkpt lat="45.05798" lon="5.59659">
        <ele>1668</ele>
        <time>2013-01-30T09:46:46Z</time>
      </trkpt>
      <trkpt lat="45.058" lon="5.59661">
        <ele>1668</ele>
        <time>2013-01-30T09:46:51Z</time>
      </trkpt>
      <trkpt lat="45.05802" lon="5.59663">
        <ele>1669</ele>
        <time>2013-01-30T09:46:56Z</time>
      </trkpt>
      <trkpt lat="45.05804" lon="5.59665">
        <ele>1670</ele>
        <time>2013-01-30T09:47:01Z</time>
      </trkpt>
      <trkpt lat="45.05806" lon="5.59667">
        <ele>1671</ele>
        <time>2013-01-30T09:47:06Z</time>
      </trkpt>
      <trkpt lat="45.05808" lon="5.59669">
        <ele>1672</ele>
        <time>2013-01-30T09:47:11Z</time>
      </trkpt>
      <trkpt lat="45.0581" lon="5.59671">
        <ele>1672</ele>
        <time>2013-01-30T09:47:16Z</time>
      </trkpt>
      <trkpt lat="45.05812" lon="5.59674">
        <ele>1673</ele>
        <time>2013-01-30T09:47:21Z</time>
      </trkpt>
      <trkpt lat="45.05814" lon="5.59676">
        <ele>1674</ele>
        <time>2013-01-30T09:47:26Z</time>
      </trkpt>
      <trkpt lat="45.05817" lon="5.59678">
        <ele>1675</ele>
        <time>2013-01-30T09:47:31Z</time>
      </trkpt>
      <trkpt lat="45.05819" lon="5.59679">
        <ele>1676</ele>
        <time>2013-01-30T09:47:36Z</time>
      </trkpt>
      <trkpt lat="45.0582" lon="5.5968">
        <ele>1676</ele>
        <time>2013-01-30T09:47:41Z</time>
      </trkpt>
      <trkpt lat="45.05818" lon="5.59682">
        <ele>1677</ele>
        <time>2013-01-30T09:47:46Z</time>
      </trkpt>
      <trkpt lat="45.05816" lon="5.59684">
        <ele>1677</ele>
        <time>2013-01-30T09:47:51Z</time>
      </trkpt>
      <trkpt lat="45.05813" lon="5.59685">
        <ele>1678</ele>
        <time>2013-01-30T09:47:56Z</time>
      </trkpt>
      <trkpt lat="45.05811" lon="5.59687">
        <ele>1679</ele>
        <time>2013-01-30T09:48:01Z</time>
      </trkpt>
      <trkpt lat="45.05808" lon="5.59689">
        <ele>1679</ele>
        <time>2013-01-30T09:48:06Z</time>
      </trkpt>
      <trkpt lat="45.05806" lon="5.59691">
        <ele>1680</ele>
        <time>2013-01-30T09:48:11Z</time>
      </trkpt>
      <trkpt lat="45.05803" lon="5.59693">
        <ele>1681</ele>
        <time>2013-01-30T09:48:16Z</time>
      </trkpt>
      <trkpt lat="45.058" lon="5.59694">
        <ele>1681</ele>
        <time>2013-01-30T09:48:21Z</time>
      </trkpt>
      <trkpt lat="45.05797" lon="5.59696">
        <ele>1682</ele>
        <time>2013-01-30T09:48:26Z</time>
      </trkpt>
      <trkpt lat="45.05793" lon="5.59698">
        <ele>1682</ele>
        <time>2013-01-30T09:48:31Z</time>
      </trkpt>
      <trkpt lat="45.05791" lon="5.59699">
        <ele>1683</ele>
        <time>2013-01-30T09:48:36Z</time>
      </trkpt>
      <trkpt lat="45.0579" lon="5.59702">
        <ele>1684</ele>
        <time>2013-01-30T09:48:41Z</time>
      </trkpt>
      <trkpt lat="45.0579" lon="5.59702">
        <ele>1684</ele>
        <time>2013-01-30T09:48:46Z</time>
      </trkpt>
      <trkpt lat="45.05791" lon="5.59703">
        <ele>1685</ele>
        <time>2013-01-30T09:48:51Z</time>
      </trkpt>
      <trkpt lat="45.05791" lon="5.59704">
        <ele>1685</ele>
        <time>2013-01-30T09:48:56Z</time>
      </trkpt>
      <trkpt lat="45.05791" lon="5.59704">
        <ele>1685</ele>
        <time>2013-01-30T09:49:01Z</time>
      </trkpt>
      <trkpt lat="45.05793" lon="5.59706">
        <ele>1686</ele>
        <time>2013-01-30T09:49:06Z</time>
      </trkpt>
      <trkpt lat="45.05797" lon="5.59709">
        <ele>1686</ele>
        <time>2013-01-30T09:49:11Z</time>
      </trkpt>
      <trkpt lat="45.058" lon="5.59711">
        <ele>1686</ele>
        <time>2013-01-30T09:49:16Z</time>
      </trkpt>
      <trkpt lat="45.05802" lon="5.59713">
        <ele>1686</ele>
        <time>2013-01-30T09:49:21Z</time>
      </trkpt>
      <trkpt lat="45.05804" lon="5.59716">
        <ele>1687</ele>
        <time>2013-01-30T09:49:26Z</time>
      </trkpt>
      <trkpt lat="45.05806" lon="5.59719">
        <ele>1688</ele>
        <time>2013-01-30T09:49:31Z</time>
      </trkpt>
      <trkpt lat="45.05808" lon="5.59722">
        <ele>1689</ele>
        <time>2013-01-30T09:49:36Z</time>
      </trkpt>
      <trkpt lat="45.05809" lon="5.59725">
        <ele>1689</ele>
        <time>2013-01-30T09:49:41Z</time>
      </trkpt>
      <trkpt lat="45.05811" lon="5.59728">
        <ele>1690</ele>
        <time>2013-01-30T09:49:46Z</time>
      </trkpt>
      <trkpt lat="45.05813" lon="5.59732">
        <ele>1691</ele>
        <time>2013-01-30T09:49:51Z</time>
      </trkpt>
      <trkpt lat="45.05815" lon="5.59735">
        <ele>1691</ele>
        <time>2013-01-30T09:49:56Z</time>
      </trkpt>
      <trkpt lat="45.05817" lon="5.59738">
        <ele>1692</ele>
        <time>2013-01-30T09:50:01Z</time>
      </trkpt>
      <trkpt lat="45.05819" lon="5.59742">
        <ele>1693</ele>
        <time>2013-01-30T09:50:06Z</time>
      </trkpt>
      <trkpt lat="45.05821" lon="5.59745">
        <ele>1693</ele>
        <time>2013-01-30T09:50:11Z</time>
      </trkpt>
      <trkpt lat="45.05823" lon="5.59748">
        <ele>1694</ele>
        <time>2013-01-30T09:50:16Z</time>
      </trkpt>
      <trkpt lat="45.05826" lon="5.59751">
        <ele>1695</ele>
        <time>2013-01-30T09:50:21Z</time>
      </trkpt>
      <trkpt lat="45.05827" lon="5.59754">
        <ele>1696</ele>
        <time>2013-01-30T09:50:26Z</time>
      </trkpt>
      <trkpt lat="45.05828" lon="5.59758">
        <ele>1697</ele>
        <time>2013-01-30T09:50:31Z</time>
      </trkpt>
      <trkpt lat="45.0583" lon="5.59761">
        <ele>1698</ele>
        <time>2013-01-30T09:50:36Z</time>
      </trkpt>
      <trkpt lat="45.05833" lon="5.59763">
        <ele>1698</ele>
        <time>2013-01-30T09:50:41Z</time>
      </trkpt>
      <trkpt lat="45.05836" lon="5.59765">
        <ele>1699</ele>
        <time>2013-01-30T09:50:46Z</time>
      </trkpt>
      <trkpt lat="45.05838" lon="5.59767">
        <ele>1700</ele>
        <time>2013-01-30T09:50:51Z</time>
      </trkpt>
      <trkpt lat="45.05841" lon="5.59769">
        <ele>1701</ele>
        <time>2013-01-30T09:50:56Z</time>
      </trkpt>
      <trkpt lat="45.05843" lon="5.59771">
        <ele>1702</ele>
        <time>2013-01-30T09:51:01Z</time>
      </trkpt>
      <trkpt lat="45.05846" lon="5.59774">
        <ele>1703</ele>
        <time>2013-01-30T09:51:06Z</time>
      </trkpt>
      <trkpt lat="45.05848" lon="5.59776">
        <ele>1704</ele>
        <time>2013-01-30T09:51:11Z</time>
      </trkpt>
      <trkpt lat="45.0585" lon="5.59778">
        <ele>1704</ele>
        <time>2013-01-30T09:51:16Z</time>
      </trkpt>
      <trkpt lat="45.05853" lon="5.59781">
        <ele>1705</ele>
        <time>2013-01-30T09:51:21Z</time>
      </trkpt>
      <trkpt lat="45.05856" lon="5.59782">
        <ele>1705</ele>
        <time>2013-01-30T09:51:26Z</time>
      </trkpt>
      <trkpt lat="45.05858" lon="5.59784">
        <ele>1706</ele>
        <time>2013-01-30T09:51:31Z</time>
      </trkpt>
      <trkpt lat="45.05861" lon="5.59785">
        <ele>1707</ele>
        <time>2013-01-30T09:51:36Z</time>
      </trkpt>
      <trkpt lat="45.05863" lon="5.59786">
        <ele>1708</ele>
        <time>2013-01-30T09:51:41Z</time>
      </trkpt>
      <trkpt lat="45.05866" lon="5.59788">
        <ele>1708</ele>
        <time>2013-01-30T09:51:46Z</time>
      </trkpt>
      <trkpt lat="45.05868" lon="5.59791">
        <ele>1709</ele>
        <time>2013-01-30T09:51:51Z</time>
      </trkpt>
      <trkpt lat="45.05872" lon="5.59793">
        <ele>1710</ele>
        <time>2013-01-30T09:51:56Z</time>
      </trkpt>
      <trkpt lat="45.05875" lon="5.59795">
        <ele>1710</ele>
        <time>2013-01-30T09:52:01Z</time>
      </trkpt>
      <trkpt lat="45.05878" lon="5.59795">
        <ele>1711</ele>
        <time>2013-01-30T09:52:06Z</time>
      </trkpt>
      <trkpt lat="45.05882" lon="5.59796">
        <ele>1711</ele>
        <time>2013-01-30T09:52:11Z</time>
      </trkpt>
      <trkpt lat="45.05885" lon="5.59797">
        <ele>1712</ele>
        <time>2013-01-30T09:52:16Z</time>
      </trkpt>
      <trkpt lat="45.05888" lon="5.59798">
        <ele>1713</ele>
        <time>2013-01-30T09:52:21Z</time>
      </trkpt>
      <trkpt lat="45.05892" lon="5.59799">
        <ele>1713</ele>
        <time>2013-01-30T09:52:26Z</time>
      </trkpt>
      <trkpt lat="45.05896" lon="5.59802">
        <ele>1714</ele>
        <time>2013-01-30T09:52:31Z</time>
      </trkpt>
      <trkpt lat="45.05898" lon="5.598">
        <ele>1710</ele>
        <time>2013-01-30T10:01:31Z</time>
      </trkpt>
      <trkpt lat="45.059" lon="5.59802">
        <ele>1711</ele>
        <time>2013-01-30T10:01:36Z</time>
      </trkpt>
      <trkpt lat="45.05901" lon="5.59804">
        <ele>1711</ele>
        <time>2013-01-30T10:01:41Z</time>
      </trkpt>
      <trkpt lat="45.05904" lon="5.5981">
        <ele>1713</ele>
        <time>2013-01-30T10:01:46Z</time>
      </trkpt>
      <trkpt lat="45.05905" lon="5.59816">
        <ele>1714</ele>
        <time>2013-01-30T10:01:51Z</time>
      </trkpt>
      <trkpt lat="45.05908" lon="5.59822">
        <ele>1715</ele>
        <time>2013-01-30T10:01:56Z</time>
      </trkpt>
      <trkpt lat="45.0591" lon="5.59826">
        <ele>1717</ele>
        <time>2013-01-30T10:02:01Z</time>
      </trkpt>
      <trkpt lat="45.05913" lon="5.59829">
        <ele>1718</ele>
        <time>2013-01-30T10:02:06Z</time>
      </trkpt>
      <trkpt lat="45.05915" lon="5.59829">
        <ele>1719</ele>
        <time>2013-01-30T10:02:11Z</time>
      </trkpt>
      <trkpt lat="45.05919" lon="5.59829">
        <ele>1720</ele>
        <time>2013-01-30T10:02:16Z</time>
      </trkpt>
      <trkpt lat="45.05923" lon="5.59832">
        <ele>1720</ele>
        <time>2013-01-30T10:02:21Z</time>
      </trkpt>
      <trkpt lat="45.05926" lon="5.59836">
        <ele>1721</ele>
        <time>2013-01-30T10:02:26Z</time>
      </trkpt>
      <trkpt lat="45.05929" lon="5.59839">
        <ele>1722</ele>
        <time>2013-01-30T10:02:31Z</time>
      </trkpt>
      <trkpt lat="45.05931" lon="5.59842">
        <ele>1723</ele>
        <time>2013-01-30T10:02:36Z</time>
      </trkpt>
      <trkpt lat="45.05934" lon="5.59846">
        <ele>1724</ele>
        <time>2013-01-30T10:02:41Z</time>
      </trkpt>
      <trkpt lat="45.05937" lon="5.5985">
        <ele>1725</ele>
        <time>2013-01-30T10:02:46Z</time>
      </trkpt>
      <trkpt lat="45.05938" lon="5.59854">
        <ele>1726</ele>
        <time>2013-01-30T10:02:51Z</time>
      </trkpt>
      <trkpt lat="45.05941" lon="5.59856">
        <ele>1727</ele>
        <time>2013-01-30T10:02:56Z</time>
      </trkpt>
      <trkpt lat="45.05943" lon="5.59857">
        <ele>1728</ele>
        <time>2013-01-30T10:03:01Z</time>
      </trkpt>
      <trkpt lat="45.05947" lon="5.59859">
        <ele>1729</ele>
        <time>2013-01-30T10:03:06Z</time>
      </trkpt>
      <trkpt lat="45.05949" lon="5.59863">
        <ele>1729</ele>
        <time>2013-01-30T10:03:11Z</time>
      </trkpt>
      <trkpt lat="45.05951" lon="5.59866">
        <ele>1729</ele>
        <time>2013-01-30T10:03:16Z</time>
      </trkpt>
      <trkpt lat="45.05953" lon="5.59869">
        <ele>1730</ele>
        <time>2013-01-30T10:03:21Z</time>
      </trkpt>
      <trkpt lat="45.05955" lon="5.59872">
        <ele>1731</ele>
        <time>2013-01-30T10:03:26Z</time>
      </trkpt>
      <trkpt lat="45.05957" lon="5.59872">
        <ele>1732</ele>
        <time>2013-01-30T10:03:31Z</time>
      </trkpt>
      <trkpt lat="45.0596" lon="5.59872">
        <ele>1732</ele>
        <time>2013-01-30T10:03:36Z</time>
      </trkpt>
      <trkpt lat="45.05962" lon="5.59874">
        <ele>1733</ele>
        <time>2013-01-30T10:03:41Z</time>
      </trkpt>
      <trkpt lat="45.05964" lon="5.59877">
        <ele>1734</ele>
        <time>2013-01-30T10:03:46Z</time>
      </trkpt>
      <trkpt lat="45.05966" lon="5.5988">
        <ele>1734</ele>
        <time>2013-01-30T10:03:51Z</time>
      </trkpt>
      <trkpt lat="45.05969" lon="5.59882">
        <ele>1735</ele>
        <time>2013-01-30T10:03:56Z</time>
      </trkpt>
      <trkpt lat="45.05971" lon="5.59885">
        <ele>1736</ele>
        <time>2013-01-30T10:04:01Z</time>
      </trkpt>
      <trkpt lat="45.05973" lon="5.59887">
        <ele>1737</ele>
        <time>2013-01-30T10:04:06Z</time>
      </trkpt>
      <trkpt lat="45.05975" lon="5.59889">
        <ele>1737</ele>
        <time>2013-01-30T10:04:11Z</time>
      </trkpt>
      <trkpt lat="45.05977" lon="5.5989">
        <ele>1738</ele>
        <time>2013-01-30T10:04:16Z</time>
      </trkpt>
      <trkpt lat="45.0598" lon="5.59891">
        <ele>1739</ele>
        <time>2013-01-30T10:04:21Z</time>
      </trkpt>
      <trkpt lat="45.05983" lon="5.59892">
        <ele>1740</ele>
        <time>2013-01-30T10:04:26Z</time>
      </trkpt>
      <trkpt lat="45.05986" lon="5.59893">
        <ele>1741</ele>
        <time>2013-01-30T10:04:31Z</time>
      </trkpt>
      <trkpt lat="45.05989" lon="5.59894">
        <ele>1741</ele>
        <time>2013-01-30T10:04:36Z</time>
      </trkpt>
      <trkpt lat="45.05991" lon="5.59896">
        <ele>1742</ele>
        <time>2013-01-30T10:04:41Z</time>
      </trkpt>
      <trkpt lat="45.05994" lon="5.59897">
        <ele>1743</ele>
        <time>2013-01-30T10:04:46Z</time>
      </trkpt>
      <trkpt lat="45.05997" lon="5.59899">
        <ele>1744</ele>
        <time>2013-01-30T10:04:51Z</time>
      </trkpt>
      <trkpt lat="45.06" lon="5.59901">
        <ele>1744</ele>
        <time>2013-01-30T10:04:56Z</time>
      </trkpt>
      <trkpt lat="45.06002" lon="5.59903">
        <ele>1745</ele>
        <time>2013-01-30T10:05:01Z</time>
      </trkpt>
      <trkpt lat="45.06005" lon="5.59903">
        <ele>1746</ele>
        <time>2013-01-30T10:05:06Z</time>
      </trkpt>
      <trkpt lat="45.06007" lon="5.59903">
        <ele>1747</ele>
        <time>2013-01-30T10:05:11Z</time>
      </trkpt>
      <trkpt lat="45.0601" lon="5.59903">
        <ele>1748</ele>
        <time>2013-01-30T10:05:16Z</time>
      </trkpt>
      <trkpt lat="45.06012" lon="5.59901">
        <ele>1748</ele>
        <time>2013-01-30T10:05:21Z</time>
      </trkpt>
      <trkpt lat="45.06014" lon="5.59899">
        <ele>1749</ele>
        <time>2013-01-30T10:05:26Z</time>
      </trkpt>
      <trkpt lat="45.06016" lon="5.59898">
        <ele>1750</ele>
        <time>2013-01-30T10:05:31Z</time>
      </trkpt>
      <trkpt lat="45.06018" lon="5.59898">
        <ele>1751</ele>
        <time>2013-01-30T10:05:36Z</time>
      </trkpt>
      <trkpt lat="45.0602" lon="5.59897">
        <ele>1752</ele>
        <time>2013-01-30T10:05:41Z</time>
      </trkpt>
      <trkpt lat="45.06023" lon="5.59898">
        <ele>1752</ele>
        <time>2013-01-30T10:05:46Z</time>
      </trkpt>
      <trkpt lat="45.06025" lon="5.59899">
        <ele>1753</ele>
        <time>2013-01-30T10:05:51Z</time>
      </trkpt>
      <trkpt lat="45.06027" lon="5.599">
        <ele>1754</ele>
        <time>2013-01-30T10:05:56Z</time>
      </trkpt>
      <trkpt lat="45.06029" lon="5.59901">
        <ele>1755</ele>
        <time>2013-01-30T10:06:01Z</time>
      </trkpt>
      <trkpt lat="45.06032" lon="5.59902">
        <ele>1756</ele>
        <time>2013-01-30T10:06:06Z</time>
      </trkpt>
      <trkpt lat="45.06033" lon="5.59905">
        <ele>1756</ele>
        <time>2013-01-30T10:06:11Z</time>
      </trkpt>
      <trkpt lat="45.06033" lon="5.59907">
        <ele>1757</ele>
        <time>2013-01-30T10:06:16Z</time>
      </trkpt>
      <trkpt lat="45.06035" lon="5.59909">
        <ele>1758</ele>
        <time>2013-01-30T10:06:21Z</time>
      </trkpt>
      <trkpt lat="45.06036" lon="5.59911">
        <ele>1759</ele>
        <time>2013-01-30T10:06:26Z</time>
      </trkpt>
      <trkpt lat="45.06038" lon="5.59913">
        <ele>1759</ele>
        <time>2013-01-30T10:06:31Z</time>
      </trkpt>
      <trkpt lat="45.0604" lon="5.59915">
        <ele>1760</ele>
        <time>2013-01-30T10:06:36Z</time>
      </trkpt>
      <trkpt lat="45.06041" lon="5.59917">
        <ele>1761</ele>
        <time>2013-01-30T10:06:41Z</time>
      </trkpt>
      <trkpt lat="45.06043" lon="5.59919">
        <ele>1762</ele>
        <time>2013-01-30T10:06:46Z</time>
      </trkpt>
      <trkpt lat="45.06046" lon="5.5992">
        <ele>1763</ele>
        <time>2013-01-30T10:06:51Z</time>
      </trkpt>
      <trkpt lat="45.06048" lon="5.59918">
        <ele>1763</ele>
        <time>2013-01-30T10:06:56Z</time>
      </trkpt>
      <trkpt lat="45.06049" lon="5.59916">
        <ele>1764</ele>
        <time>2013-01-30T10:07:01Z</time>
      </trkpt>
      <trkpt lat="45.0605" lon="5.59913">
        <ele>1765</ele>
        <time>2013-01-30T10:07:06Z</time>
      </trkpt>
      <trkpt lat="45.06052" lon="5.5991">
        <ele>1766</ele>
        <time>2013-01-30T10:07:11Z</time>
      </trkpt>
      <trkpt lat="45.06054" lon="5.59908">
        <ele>1766</ele>
        <time>2013-01-30T10:07:16Z</time>
      </trkpt>
      <trkpt lat="45.06057" lon="5.59907">
        <ele>1767</ele>
        <time>2013-01-30T10:07:21Z</time>
      </trkpt>
      <trkpt lat="45.06059" lon="5.59908">
        <ele>1768</ele>
        <time>2013-01-30T10:07:26Z</time>
      </trkpt>
      <trkpt lat="45.06061" lon="5.59909">
        <ele>1768</ele>
        <time>2013-01-30T10:07:31Z</time>
      </trkpt>
      <trkpt lat="45.06063" lon="5.59909">
        <ele>1769</ele>
        <time>2013-01-30T10:07:36Z</time>
      </trkpt>
      <trkpt lat="45.06066" lon="5.59907">
        <ele>1769</ele>
        <time>2013-01-30T10:07:41Z</time>
      </trkpt>
      <trkpt lat="45.06068" lon="5.59905">
        <ele>1770</ele>
        <time>2013-01-30T10:07:46Z</time>
      </trkpt>
      <trkpt lat="45.06071" lon="5.59903">
        <ele>1770</ele>
        <time>2013-01-30T10:07:51Z</time>
      </trkpt>
      <trkpt lat="45.06073" lon="5.59902">
        <ele>1771</ele>
        <time>2013-01-30T10:07:56Z</time>
      </trkpt>
      <trkpt lat="45.06075" lon="5.59903">
        <ele>1772</ele>
        <time>2013-01-30T10:08:01Z</time>
      </trkpt>
      <trkpt lat="45.06076" lon="5.59906">
        <ele>1773</ele>
        <time>2013-01-30T10:08:06Z</time>
      </trkpt>
      <trkpt lat="45.06077" lon="5.5991">
        <ele>1773</ele>
        <time>2013-01-30T10:08:11Z</time>
      </trkpt>
      <trkpt lat="45.06078" lon="5.59914">
        <ele>1773</ele>
        <time>2013-01-30T10:08:16Z</time>
      </trkpt>
      <trkpt lat="45.06079" lon="5.59915">
        <ele>1775</ele>
        <time>2013-01-30T10:08:21Z</time>
      </trkpt>
      <trkpt lat="45.06081" lon="5.59917">
        <ele>1775</ele>
        <time>2013-01-30T10:08:26Z</time>
      </trkpt>
      <trkpt lat="45.06083" lon="5.59916">
        <ele>1777</ele>
        <time>2013-01-30T10:08:31Z</time>
      </trkpt>
      <trkpt lat="45.06085" lon="5.59916">
        <ele>1778</ele>
        <time>2013-01-30T10:08:36Z</time>
      </trkpt>
      <trkpt lat="45.06086" lon="5.59917">
        <ele>1778</ele>
        <time>2013-01-30T10:08:41Z</time>
      </trkpt>
      <trkpt lat="45.06088" lon="5.59919">
        <ele>1779</ele>
        <time>2013-01-30T10:08:46Z</time>
      </trkpt>
      <trkpt lat="45.06088" lon="5.59921">
        <ele>1781</ele>
        <time>2013-01-30T10:08:51Z</time>
      </trkpt>
      <trkpt lat="45.06089" lon="5.59922">
        <ele>1782</ele>
        <time>2013-01-30T10:08:56Z</time>
      </trkpt>
      <trkpt lat="45.06089" lon="5.59922">
        <ele>1782</ele>
        <time>2013-01-30T10:09:01Z</time>
      </trkpt>
      <trkpt lat="45.06089" lon="5.59922">
        <ele>1783</ele>
        <time>2013-01-30T10:09:06Z</time>
      </trkpt>
      <trkpt lat="45.0609" lon="5.59923">
        <ele>1783</ele>
        <time>2013-01-30T10:09:11Z</time>
      </trkpt>
      <trkpt lat="45.06091" lon="5.59925">
        <ele>1784</ele>
        <time>2013-01-30T10:09:16Z</time>
      </trkpt>
      <trkpt lat="45.06093" lon="5.59927">
        <ele>1784</ele>
        <time>2013-01-30T10:09:21Z</time>
      </trkpt>
      <trkpt lat="45.06095" lon="5.5993">
        <ele>1784</ele>
        <time>2013-01-30T10:09:26Z</time>
      </trkpt>
      <trkpt lat="45.06097" lon="5.5993">
        <ele>1785</ele>
        <time>2013-01-30T10:09:31Z</time>
      </trkpt>
      <trkpt lat="45.061" lon="5.59927">
        <ele>1785</ele>
        <time>2013-01-30T10:09:36Z</time>
      </trkpt>
      <trkpt lat="45.06102" lon="5.59926">
        <ele>1785</ele>
        <time>2013-01-30T10:09:41Z</time>
      </trkpt>
      <trkpt lat="45.06104" lon="5.59924">
        <ele>1786</ele>
        <time>2013-01-30T10:09:46Z</time>
      </trkpt>
      <trkpt lat="45.06105" lon="5.59922">
        <ele>1786</ele>
        <time>2013-01-30T10:09:51Z</time>
      </trkpt>
      <trkpt lat="45.06107" lon="5.5992">
        <ele>1787</ele>
        <time>2013-01-30T10:09:56Z</time>
      </trkpt>
      <trkpt lat="45.06109" lon="5.59918">
        <ele>1789</ele>
        <time>2013-01-30T10:10:01Z</time>
      </trkpt>
      <trkpt lat="45.0611" lon="5.59917">
        <ele>1791</ele>
        <time>2013-01-30T10:10:06Z</time>
      </trkpt>
      <trkpt lat="45.06112" lon="5.59916">
        <ele>1792</ele>
        <time>2013-01-30T10:10:11Z</time>
      </trkpt>
      <trkpt lat="45.06114" lon="5.59914">
        <ele>1793</ele>
        <time>2013-01-30T10:10:16Z</time>
      </trkpt>
      <trkpt lat="45.06116" lon="5.59911">
        <ele>1793</ele>
        <time>2013-01-30T10:10:21Z</time>
      </trkpt>
      <trkpt lat="45.06117" lon="5.5991">
        <ele>1793</ele>
        <time>2013-01-30T10:10:26Z</time>
      </trkpt>
      <trkpt lat="45.06119" lon="5.59908">
        <ele>1793</ele>
        <time>2013-01-30T10:10:31Z</time>
      </trkpt>
      <trkpt lat="45.06121" lon="5.59907">
        <ele>1793</ele>
        <time>2013-01-30T10:10:36Z</time>
      </trkpt>
      <trkpt lat="45.06123" lon="5.59905">
        <ele>1793</ele>
        <time>2013-01-30T10:10:41Z</time>
      </trkpt>
      <trkpt lat="45.06124" lon="5.59903">
        <ele>1794</ele>
        <time>2013-01-30T10:10:46Z</time>
      </trkpt>
      <trkpt lat="45.06126" lon="5.59903">
        <ele>1795</ele>
        <time>2013-01-30T10:10:51Z</time>
      </trkpt>
      <trkpt lat="45.06128" lon="5.59903">
        <ele>1795</ele>
        <time>2013-01-30T10:10:56Z</time>
      </trkpt>
      <trkpt lat="45.0613" lon="5.59905">
        <ele>1796</ele>
        <time>2013-01-30T10:11:01Z</time>
      </trkpt>
      <trkpt lat="45.06132" lon="5.59906">
        <ele>1797</ele>
        <time>2013-01-30T10:11:06Z</time>
      </trkpt>
      <trkpt lat="45.06134" lon="5.59908">
        <ele>1798</ele>
        <time>2013-01-30T10:11:11Z</time>
      </trkpt>
      <trkpt lat="45.06136" lon="5.5991">
        <ele>1799</ele>
        <time>2013-01-30T10:11:16Z</time>
      </trkpt>
      <trkpt lat="45.06138" lon="5.59911">
        <ele>1800</ele>
        <time>2013-01-30T10:11:21Z</time>
      </trkpt>
      <trkpt lat="45.0614" lon="5.59913">
        <ele>1800</ele>
        <time>2013-01-30T10:11:26Z</time>
      </trkpt>
      <trkpt lat="45.06142" lon="5.59914">
        <ele>1801</ele>
        <time>2013-01-30T10:11:31Z</time>
      </trkpt>
      <trkpt lat="45.06144" lon="5.59916">
        <ele>1801</ele>
        <time>2013-01-30T10:11:36Z</time>
      </trkpt>
      <trkpt lat="45.06146" lon="5.59918">
        <ele>1802</ele>
        <time>2013-01-30T10:11:41Z</time>
      </trkpt>
      <trkpt lat="45.06148" lon="5.5992">
        <ele>1802</ele>
        <time>2013-01-30T10:11:46Z</time>
      </trkpt>
      <trkpt lat="45.0615" lon="5.59921">
        <ele>1802</ele>
        <time>2013-01-30T10:11:51Z</time>
      </trkpt>
      <trkpt lat="45.06152" lon="5.59923">
        <ele>1802</ele>
        <time>2013-01-30T10:11:56Z</time>
      </trkpt>
      <trkpt lat="45.06154" lon="5.59924">
        <ele>1803</ele>
        <time>2013-01-30T10:12:01Z</time>
      </trkpt>
      <trkpt lat="45.06155" lon="5.59926">
        <ele>1803</ele>
        <time>2013-01-30T10:12:06Z</time>
      </trkpt>
      <trkpt lat="45.06157" lon="5.59928">
        <ele>1804</ele>
        <time>2013-01-30T10:12:11Z</time>
      </trkpt>
      <trkpt lat="45.06159" lon="5.59929">
        <ele>1805</ele>
        <time>2013-01-30T10:12:16Z</time>
      </trkpt>
      <trkpt lat="45.0616" lon="5.59931">
        <ele>1805</ele>
        <time>2013-01-30T10:12:21Z</time>
      </trkpt>
      <trkpt lat="45.06162" lon="5.59933">
        <ele>1806</ele>
        <time>2013-01-30T10:12:26Z</time>
      </trkpt>
      <trkpt lat="45.06162" lon="5.59936">
        <ele>1807</ele>
        <time>2013-01-30T10:12:31Z</time>
      </trkpt>
      <trkpt lat="45.06163" lon="5.59938">
        <ele>1807</ele>
        <time>2013-01-30T10:12:36Z</time>
      </trkpt>
      <trkpt lat="45.06165" lon="5.5994">
        <ele>1808</ele>
        <time>2013-01-30T10:12:41Z</time>
      </trkpt>
      <trkpt lat="45.06165" lon="5.59943">
        <ele>1809</ele>
        <time>2013-01-30T10:12:46Z</time>
      </trkpt>
      <trkpt lat="45.06167" lon="5.59945">
        <ele>1809</ele>
        <time>2013-01-30T10:12:51Z</time>
      </trkpt>
      <trkpt lat="45.06168" lon="5.59947">
        <ele>1810</ele>
        <time>2013-01-30T10:12:56Z</time>
      </trkpt>
      <trkpt lat="45.06168" lon="5.59949">
        <ele>1811</ele>
        <time>2013-01-30T10:13:01Z</time>
      </trkpt>
      <trkpt lat="45.06168" lon="5.59951">
        <ele>1812</ele>
        <time>2013-01-30T10:13:06Z</time>
      </trkpt>
      <trkpt lat="45.06168" lon="5.59954">
        <ele>1813</ele>
        <time>2013-01-30T10:13:11Z</time>
      </trkpt>
      <trkpt lat="45.06168" lon="5.59956">
        <ele>1814</ele>
        <time>2013-01-30T10:13:16Z</time>
      </trkpt>
      <trkpt lat="45.06168" lon="5.59959">
        <ele>1815</ele>
        <time>2013-01-30T10:13:21Z</time>
      </trkpt>
      <trkpt lat="45.06168" lon="5.59961">
        <ele>1816</ele>
        <time>2013-01-30T10:13:26Z</time>
      </trkpt>
      <trkpt lat="45.06168" lon="5.59964">
        <ele>1817</ele>
        <time>2013-01-30T10:13:31Z</time>
      </trkpt>
      <trkpt lat="45.06168" lon="5.59966">
        <ele>1818</ele>
        <time>2013-01-30T10:13:36Z</time>
      </trkpt>
      <trkpt lat="45.06168" lon="5.59969">
        <ele>1819</ele>
        <time>2013-01-30T10:13:41Z</time>
      </trkpt>
      <trkpt lat="45.06168" lon="5.59972">
        <ele>1820</ele>
        <time>2013-01-30T10:13:46Z</time>
      </trkpt>
      <trkpt lat="45.06168" lon="5.59974">
        <ele>1820</ele>
        <time>2013-01-30T10:13:51Z</time>
      </trkpt>
      <trkpt lat="45.06167" lon="5.59977">
        <ele>1821</ele>
        <time>2013-01-30T10:13:56Z</time>
      </trkpt>
      <trkpt lat="45.06167" lon="5.5998">
        <ele>1822</ele>
        <time>2013-01-30T10:14:01Z</time>
      </trkpt>
      <trkpt lat="45.06167" lon="5.59982">
        <ele>1823</ele>
        <time>2013-01-30T10:14:06Z</time>
      </trkpt>
      <trkpt lat="45.06167" lon="5.59985">
        <ele>1824</ele>
        <time>2013-01-30T10:14:11Z</time>
      </trkpt>
      <trkpt lat="45.06166" lon="5.59988">
        <ele>1824</ele>
        <time>2013-01-30T10:14:16Z</time>
      </trkpt>
      <trkpt lat="45.06166" lon="5.5999">
        <ele>1825</ele>
        <time>2013-01-30T10:14:21Z</time>
      </trkpt>
      <trkpt lat="45.06165" lon="5.59994">
        <ele>1826</ele>
        <time>2013-01-30T10:14:26Z</time>
      </trkpt>
      <trkpt lat="45.06165" lon="5.59996">
        <ele>1827</ele>
        <time>2013-01-30T10:14:31Z</time>
      </trkpt>
      <trkpt lat="45.06164" lon="5.59999">
        <ele>1827</ele>
        <time>2013-01-30T10:14:36Z</time>
      </trkpt>
      <trkpt lat="45.06163" lon="5.60002">
        <ele>1828</ele>
        <time>2013-01-30T10:14:41Z</time>
      </trkpt>
      <trkpt lat="45.06163" lon="5.60004">
        <ele>1828</ele>
        <time>2013-01-30T10:14:46Z</time>
      </trkpt>
      <trkpt lat="45.06164" lon="5.60004">
        <ele>1829</ele>
        <time>2013-01-30T10:14:51Z</time>
      </trkpt>
      <trkpt lat="45.06166" lon="5.60004">
        <ele>1829</ele>
        <time>2013-01-30T10:14:56Z</time>
      </trkpt>
      <trkpt lat="45.06168" lon="5.60004">
        <ele>1830</ele>
        <time>2013-01-30T10:15:01Z</time>
      </trkpt>
      <trkpt lat="45.06168" lon="5.60005">
        <ele>1829</ele>
        <time>2013-01-30T10:15:06Z</time>
      </trkpt>
      <trkpt lat="45.06168" lon="5.60005">
        <ele>1829</ele>
        <time>2013-01-30T10:15:11Z</time>
      </trkpt>
      <trkpt lat="45.06168" lon="5.60005">
        <ele>1829</ele>
        <time>2013-01-30T10:15:16Z</time>
      </trkpt>
      <trkpt lat="45.06168" lon="5.60005">
        <ele>1830</ele>
        <time>2013-01-30T10:15:21Z</time>
      </trkpt>
      <trkpt lat="45.06171" lon="5.60005">
        <ele>1830</ele>
        <time>2013-01-30T10:15:26Z</time>
      </trkpt>
      <trkpt lat="45.06173" lon="5.60005">
        <ele>1831</ele>
        <time>2013-01-30T10:15:31Z</time>
      </trkpt>
      <trkpt lat="45.06176" lon="5.60005">
        <ele>1831</ele>
        <time>2013-01-30T10:15:36Z</time>
      </trkpt>
      <trkpt lat="45.06178" lon="5.60005">
        <ele>1832</ele>
        <time>2013-01-30T10:15:41Z</time>
      </trkpt>
      <trkpt lat="45.0618" lon="5.60005">
        <ele>1833</ele>
        <time>2013-01-30T10:15:46Z</time>
      </trkpt>
      <trkpt lat="45.06182" lon="5.60004">
        <ele>1834</ele>
        <time>2013-01-30T10:15:51Z</time>
      </trkpt>
      <trkpt lat="45.06184" lon="5.60003">
        <ele>1834</ele>
        <time>2013-01-30T10:15:56Z</time>
      </trkpt>
      <trkpt lat="45.06186" lon="5.60003">
        <ele>1835</ele>
        <time>2013-01-30T10:16:01Z</time>
      </trkpt>
      <trkpt lat="45.06189" lon="5.60002">
        <ele>1836</ele>
        <time>2013-01-30T10:16:06Z</time>
      </trkpt>
      <trkpt lat="45.06191" lon="5.6">
        <ele>1837</ele>
        <time>2013-01-30T10:16:11Z</time>
      </trkpt>
      <trkpt lat="45.06193" lon="5.59999">
        <ele>1838</ele>
        <time>2013-01-30T10:16:16Z</time>
      </trkpt>
      <trkpt lat="45.06194" lon="5.59998">
        <ele>1838</ele>
        <time>2013-01-30T10:16:21Z</time>
      </trkpt>
      <trkpt lat="45.06194" lon="5.59999">
        <ele>1839</ele>
        <time>2013-01-30T10:16:26Z</time>
      </trkpt>
      <trkpt lat="45.06194" lon="5.60003">
        <ele>1840</ele>
        <time>2013-01-30T10:16:31Z</time>
      </trkpt>
      <trkpt lat="45.06193" lon="5.60006">
        <ele>1841</ele>
        <time>2013-01-30T10:16:36Z</time>
      </trkpt>
      <trkpt lat="45.06193" lon="5.60009">
        <ele>1842</ele>
        <time>2013-01-30T10:16:41Z</time>
      </trkpt>
      <trkpt lat="45.06192" lon="5.60012">
        <ele>1843</ele>
        <time>2013-01-30T10:16:46Z</time>
      </trkpt>
      <trkpt lat="45.06192" lon="5.60015">
        <ele>1843</ele>
        <time>2013-01-30T10:16:51Z</time>
      </trkpt>
      <trkpt lat="45.06192" lon="5.60018">
        <ele>1845</ele>
        <time>2013-01-30T10:16:56Z</time>
      </trkpt>
      <trkpt lat="45.06191" lon="5.60021">
        <ele>1846</ele>
        <time>2013-01-30T10:17:01Z</time>
      </trkpt>
      <trkpt lat="45.06191" lon="5.60024">
        <ele>1847</ele>
        <time>2013-01-30T10:17:06Z</time>
      </trkpt>
      <trkpt lat="45.06191" lon="5.60027">
        <ele>1848</ele>
        <time>2013-01-30T10:17:11Z</time>
      </trkpt>
      <trkpt lat="45.06191" lon="5.60031">
        <ele>1849</ele>
        <time>2013-01-30T10:17:16Z</time>
      </trkpt>
      <trkpt lat="45.06192" lon="5.60033">
        <ele>1850</ele>
        <time>2013-01-30T10:17:21Z</time>
      </trkpt>
      <trkpt lat="45.06191" lon="5.60035">
        <ele>1851</ele>
        <time>2013-01-30T10:17:26Z</time>
      </trkpt>
      <trkpt lat="45.0619" lon="5.60038">
        <ele>1852</ele>
        <time>2013-01-30T10:17:31Z</time>
      </trkpt>
      <trkpt lat="45.06189" lon="5.60039">
        <ele>1853</ele>
        <time>2013-01-30T10:17:36Z</time>
      </trkpt>
      <trkpt lat="45.06187" lon="5.60041">
        <ele>1854</ele>
        <time>2013-01-30T10:17:41Z</time>
      </trkpt>
      <trkpt lat="45.06187" lon="5.60041">
        <ele>1855</ele>
        <time>2013-01-30T10:17:46Z</time>
      </trkpt>
      <trkpt lat="45.06189" lon="5.60041">
        <ele>1855</ele>
        <time>2013-01-30T10:17:51Z</time>
      </trkpt>
      <trkpt lat="45.06191" lon="5.6004">
        <ele>1857</ele>
        <time>2013-01-30T10:17:56Z</time>
      </trkpt>
      <trkpt lat="45.06193" lon="5.6004">
        <ele>1858</ele>
        <time>2013-01-30T10:18:01Z</time>
      </trkpt>
      <trkpt lat="45.06194" lon="5.60037">
        <ele>1860</ele>
        <time>2013-01-30T10:18:06Z</time>
      </trkpt>
      <trkpt lat="45.06197" lon="5.60037">
        <ele>1861</ele>
        <time>2013-01-30T10:18:11Z</time>
      </trkpt>
      <trkpt lat="45.06199" lon="5.60038">
        <ele>1862</ele>
        <time>2013-01-30T10:18:16Z</time>
      </trkpt>
      <trkpt lat="45.06201" lon="5.60038">
        <ele>1862</ele>
        <time>2013-01-30T10:18:21Z</time>
      </trkpt>
      <trkpt lat="45.06201" lon="5.60032">
        <ele>1863</ele>
        <time>2013-01-30T10:18:26Z</time>
      </trkpt>
      <trkpt lat="45.06204" lon="5.60032">
        <ele>1864</ele>
        <time>2013-01-30T10:18:31Z</time>
      </trkpt>
      <trkpt lat="45.06206" lon="5.60031">
        <ele>1864</ele>
        <time>2013-01-30T10:18:36Z</time>
      </trkpt>
      <trkpt lat="45.06208" lon="5.6003">
        <ele>1865</ele>
        <time>2013-01-30T10:18:41Z</time>
      </trkpt>
      <trkpt lat="45.06211" lon="5.60029">
        <ele>1866</ele>
        <time>2013-01-30T10:18:46Z</time>
      </trkpt>
      <trkpt lat="45.06212" lon="5.60027">
        <ele>1867</ele>
        <time>2013-01-30T10:18:51Z</time>
      </trkpt>
      <trkpt lat="45.06214" lon="5.60025">
        <ele>1868</ele>
        <time>2013-01-30T10:18:56Z</time>
      </trkpt>
      <trkpt lat="45.06216" lon="5.60022">
        <ele>1870</ele>
        <time>2013-01-30T10:19:01Z</time>
      </trkpt>
      <trkpt lat="45.06217" lon="5.60019">
        <ele>1871</ele>
        <time>2013-01-30T10:19:06Z</time>
      </trkpt>
      <trkpt lat="45.0622" lon="5.60022">
        <ele>1870</ele>
        <time>2013-01-30T10:19:11Z</time>
      </trkpt>
      <trkpt lat="45.06221" lon="5.60023">
        <ele>1871</ele>
        <time>2013-01-30T10:19:16Z</time>
      </trkpt>
      <trkpt lat="45.06224" lon="5.60023">
        <ele>1871</ele>
        <time>2013-01-30T10:19:21Z</time>
      </trkpt>
      <trkpt lat="45.06225" lon="5.60022">
        <ele>1871</ele>
        <time>2013-01-30T10:19:26Z</time>
      </trkpt>
      <trkpt lat="45.06227" lon="5.60021">
        <ele>1872</ele>
        <time>2013-01-30T10:19:31Z</time>
      </trkpt>
      <trkpt lat="45.06228" lon="5.6002">
        <ele>1872</ele>
        <time>2013-01-30T10:19:36Z</time>
      </trkpt>
      <trkpt lat="45.0623" lon="5.60022">
        <ele>1872</ele>
        <time>2013-01-30T10:19:41Z</time>
      </trkpt>
      <trkpt lat="45.06231" lon="5.60024">
        <ele>1872</ele>
        <time>2013-01-30T10:19:46Z</time>
      </trkpt>
      <trkpt lat="45.06232" lon="5.60026">
        <ele>1872</ele>
        <time>2013-01-30T10:19:51Z</time>
      </trkpt>
      <trkpt lat="45.06233" lon="5.60028">
        <ele>1873</ele>
        <time>2013-01-30T10:19:56Z</time>
      </trkpt>
      <trkpt lat="45.06234" lon="5.6003">
        <ele>1874</ele>
        <time>2013-01-30T10:20:01Z</time>
      </trkpt>
      <trkpt lat="45.06234" lon="5.60032">
        <ele>1875</ele>
        <time>2013-01-30T10:20:06Z</time>
      </trkpt>
      <trkpt lat="45.06236" lon="5.60034">
        <ele>1876</ele>
        <time>2013-01-30T10:20:11Z</time>
      </trkpt>
      <trkpt lat="45.06236" lon="5.60034">
        <ele>1877</ele>
        <time>2013-01-30T10:20:16Z</time>
      </trkpt>
      <trkpt lat="45.06236" lon="5.60033">
        <ele>1878</ele>
        <time>2013-01-30T10:20:21Z</time>
      </trkpt>
      <trkpt lat="45.06238" lon="5.60033">
        <ele>1877</ele>
        <time>2013-01-30T10:20:26Z</time>
      </trkpt>
      <trkpt lat="45.0624" lon="5.60031">
        <ele>1878</ele>
        <time>2013-01-30T10:20:31Z</time>
      </trkpt>
      <trkpt lat="45.06241" lon="5.60029">
        <ele>1879</ele>
        <time>2013-01-30T10:20:36Z</time>
      </trkpt>
      <trkpt lat="45.06243" lon="5.60027">
        <ele>1879</ele>
        <time>2013-01-30T10:20:41Z</time>
      </trkpt>
      <trkpt lat="45.06246" lon="5.60027">
        <ele>1879</ele>
        <time>2013-01-30T10:20:46Z</time>
      </trkpt>
      <trkpt lat="45.06247" lon="5.60025">
        <ele>1880</ele>
        <time>2013-01-30T10:20:51Z</time>
      </trkpt>
      <trkpt lat="45.06249" lon="5.60024">
        <ele>1881</ele>
        <time>2013-01-30T10:20:56Z</time>
      </trkpt>
      <trkpt lat="45.06251" lon="5.60023">
        <ele>1882</ele>
        <time>2013-01-30T10:21:01Z</time>
      </trkpt>
      <trkpt lat="45.06252" lon="5.60022">
        <ele>1882</ele>
        <time>2013-01-30T10:21:06Z</time>
      </trkpt>
      <trkpt lat="45.06252" lon="5.60022">
        <ele>1882</ele>
        <time>2013-01-30T10:21:11Z</time>
      </trkpt>
      <trkpt lat="45.06252" lon="5.60022">
        <ele>1882</ele>
        <time>2013-01-30T10:21:16Z</time>
      </trkpt>
      <trkpt lat="45.06252" lon="5.60022">
        <ele>1883</ele>
        <time>2013-01-30T10:21:21Z</time>
      </trkpt>
      <trkpt lat="45.06251" lon="5.6002">
        <ele>1883</ele>
        <time>2013-01-30T10:21:26Z</time>
      </trkpt>
      <trkpt lat="45.06251" lon="5.6002">
        <ele>1883</ele>
        <time>2013-01-30T10:21:31Z</time>
      </trkpt>
      <trkpt lat="45.06251" lon="5.60019">
        <ele>1884</ele>
        <time>2013-01-30T10:21:36Z</time>
      </trkpt>
      <trkpt lat="45.0625" lon="5.60019">
        <ele>1884</ele>
        <time>2013-01-30T10:21:41Z</time>
      </trkpt>
      <trkpt lat="45.0625" lon="5.60019">
        <ele>1884</ele>
        <time>2013-01-30T10:21:46Z</time>
      </trkpt>
      <trkpt lat="45.0625" lon="5.6002">
        <ele>1884</ele>
        <time>2013-01-30T10:21:51Z</time>
      </trkpt>
      <trkpt lat="45.0625" lon="5.60022">
        <ele>1884</ele>
        <time>2013-01-30T10:21:56Z</time>
      </trkpt>
      <trkpt lat="45.0625" lon="5.60022">
        <ele>1885</ele>
        <time>2013-01-30T10:22:01Z</time>
      </trkpt>
      <trkpt lat="45.0625" lon="5.60025">
        <ele>1886</ele>
        <time>2013-01-30T10:22:06Z</time>
      </trkpt>
      <trkpt lat="45.0625" lon="5.60025">
        <ele>1886</ele>
        <time>2013-01-30T10:22:11Z</time>
      </trkpt>
      <trkpt lat="45.0625" lon="5.60027">
        <ele>1888</ele>
        <time>2013-01-30T10:22:16Z</time>
      </trkpt>
      <trkpt lat="45.0625" lon="5.6003">
        <ele>1889</ele>
        <time>2013-01-30T10:22:21Z</time>
      </trkpt>
      <trkpt lat="45.06252" lon="5.60029">
        <ele>1889</ele>
        <time>2013-01-30T10:22:26Z</time>
      </trkpt>
      <trkpt lat="45.06253" lon="5.60027">
        <ele>1891</ele>
        <time>2013-01-30T10:22:31Z</time>
      </trkpt>
      <trkpt lat="45.06256" lon="5.60026">
        <ele>1891</ele>
        <time>2013-01-30T10:22:36Z</time>
      </trkpt>
      <trkpt lat="45.06258" lon="5.60024">
        <ele>1894</ele>
        <time>2013-01-30T10:22:41Z</time>
      </trkpt>
      <trkpt lat="45.06259" lon="5.60019">
        <ele>1897</ele>
        <time>2013-01-30T10:22:46Z</time>
      </trkpt>
      <trkpt lat="45.06262" lon="5.60018">
        <ele>1898</ele>
        <time>2013-01-30T10:22:51Z</time>
      </trkpt>
      <trkpt lat="45.06264" lon="5.60017">
        <ele>1898</ele>
        <time>2013-01-30T10:22:56Z</time>
      </trkpt>
      <trkpt lat="45.06266" lon="5.60016">
        <ele>1899</ele>
        <time>2013-01-30T10:23:01Z</time>
      </trkpt>
      <trkpt lat="45.06268" lon="5.60012">
        <ele>1902</ele>
        <time>2013-01-30T10:23:06Z</time>
      </trkpt>
      <trkpt lat="45.0627" lon="5.6001">
        <ele>1903</ele>
        <time>2013-01-30T10:23:11Z</time>
      </trkpt>
      <trkpt lat="45.06271" lon="5.60004">
        <ele>1907</ele>
        <time>2013-01-30T10:23:16Z</time>
      </trkpt>
      <trkpt lat="45.06272" lon="5.59998">
        <ele>1910</ele>
        <time>2013-01-30T10:23:21Z</time>
      </trkpt>
      <trkpt lat="45.06274" lon="5.59996">
        <ele>1911</ele>
        <time>2013-01-30T10:23:26Z</time>
      </trkpt>
      <trkpt lat="45.06278" lon="5.6">
        <ele>1909</ele>
        <time>2013-01-30T10:23:31Z</time>
      </trkpt>
      <trkpt lat="45.06279" lon="5.59999">
        <ele>1910</ele>
        <time>2013-01-30T10:23:36Z</time>
      </trkpt>
      <trkpt lat="45.06283" lon="5.60001">
        <ele>1909</ele>
        <time>2013-01-30T10:23:41Z</time>
      </trkpt>
      <trkpt lat="45.06286" lon="5.60001">
        <ele>1908</ele>
        <time>2013-01-30T10:23:46Z</time>
      </trkpt>
      <trkpt lat="45.06288" lon="5.60001">
        <ele>1908</ele>
        <time>2013-01-30T10:23:51Z</time>
      </trkpt>
      <trkpt lat="45.0629" lon="5.60001">
        <ele>1908</ele>
        <time>2013-01-30T10:23:56Z</time>
      </trkpt>
      <trkpt lat="45.06292" lon="5.6">
        <ele>1908</ele>
        <time>2013-01-30T10:24:01Z</time>
      </trkpt>
      <trkpt lat="45.06295" lon="5.59999">
        <ele>1908</ele>
        <time>2013-01-30T10:24:06Z</time>
      </trkpt>
      <trkpt lat="45.06297" lon="5.59999">
        <ele>1908</ele>
        <time>2013-01-30T10:24:11Z</time>
      </trkpt>
      <trkpt lat="45.063" lon="5.59999">
        <ele>1908</ele>
        <time>2013-01-30T10:24:16Z</time>
      </trkpt>
      <trkpt lat="45.06302" lon="5.59998">
        <ele>1908</ele>
        <time>2013-01-30T10:24:21Z</time>
      </trkpt>
      <trkpt lat="45.06304" lon="5.59998">
        <ele>1909</ele>
        <time>2013-01-30T10:24:26Z</time>
      </trkpt>
      <trkpt lat="45.06306" lon="5.59997">
        <ele>1909</ele>
        <time>2013-01-30T10:24:31Z</time>
      </trkpt>
      <trkpt lat="45.06308" lon="5.59996">
        <ele>1909</ele>
        <time>2013-01-30T10:24:36Z</time>
      </trkpt>
      <trkpt lat="45.0631" lon="5.59996">
        <ele>1910</ele>
        <time>2013-01-30T10:24:41Z</time>
      </trkpt>
      <trkpt lat="45.06312" lon="5.59995">
        <ele>1910</ele>
        <time>2013-01-30T10:24:46Z</time>
      </trkpt>
      <trkpt lat="45.06314" lon="5.59994">
        <ele>1911</ele>
        <time>2013-01-30T10:24:51Z</time>
      </trkpt>
      <trkpt lat="45.06316" lon="5.59993">
        <ele>1912</ele>
        <time>2013-01-30T10:24:56Z</time>
      </trkpt>
      <trkpt lat="45.06318" lon="5.59991">
        <ele>1912</ele>
        <time>2013-01-30T10:25:01Z</time>
      </trkpt>
      <trkpt lat="45.0632" lon="5.5999">
        <ele>1913</ele>
        <time>2013-01-30T10:25:06Z</time>
      </trkpt>
      <trkpt lat="45.06321" lon="5.59988">
        <ele>1913</ele>
        <time>2013-01-30T10:25:11Z</time>
      </trkpt>
      <trkpt lat="45.06321" lon="5.59991">
        <ele>1914</ele>
        <time>2013-01-30T10:25:16Z</time>
      </trkpt>
      <trkpt lat="45.06321" lon="5.59994">
        <ele>1915</ele>
        <time>2013-01-30T10:25:21Z</time>
      </trkpt>
      <trkpt lat="45.06321" lon="5.59997">
        <ele>1916</ele>
        <time>2013-01-30T10:25:26Z</time>
      </trkpt>
      <trkpt lat="45.06322" lon="5.60001">
        <ele>1917</ele>
        <time>2013-01-30T10:25:31Z</time>
      </trkpt>
      <trkpt lat="45.06322" lon="5.60003">
        <ele>1917</ele>
        <time>2013-01-30T10:25:36Z</time>
      </trkpt>
      <trkpt lat="45.06323" lon="5.60006">
        <ele>1918</ele>
        <time>2013-01-30T10:25:41Z</time>
      </trkpt>
      <trkpt lat="45.06323" lon="5.60007">
        <ele>1918</ele>
        <time>2013-01-30T10:25:46Z</time>
      </trkpt>
      <trkpt lat="45.06325" lon="5.60006">
        <ele>1919</ele>
        <time>2013-01-30T10:25:51Z</time>
      </trkpt>
      <trkpt lat="45.06327" lon="5.60004">
        <ele>1919</ele>
        <time>2013-01-30T10:25:56Z</time>
      </trkpt>
      <trkpt lat="45.06329" lon="5.60002">
        <ele>1919</ele>
        <time>2013-01-30T10:26:01Z</time>
      </trkpt>
      <trkpt lat="45.06331" lon="5.6">
        <ele>1920</ele>
        <time>2013-01-30T10:26:06Z</time>
      </trkpt>
      <trkpt lat="45.06331" lon="5.59999">
        <ele>1921</ele>
        <time>2013-01-30T10:26:11Z</time>
      </trkpt>
      <trkpt lat="45.06332" lon="5.60002">
        <ele>1921</ele>
        <time>2013-01-30T10:26:16Z</time>
      </trkpt>
      <trkpt lat="45.06332" lon="5.60004">
        <ele>1922</ele>
        <time>2013-01-30T10:26:21Z</time>
      </trkpt>
      <trkpt lat="45.06332" lon="5.60006">
        <ele>1923</ele>
        <time>2013-01-30T10:26:26Z</time>
      </trkpt>
      <trkpt lat="45.06334" lon="5.60005">
        <ele>1924</ele>
        <time>2013-01-30T10:26:31Z</time>
      </trkpt>
      <trkpt lat="45.06336" lon="5.60003">
        <ele>1925</ele>
        <time>2013-01-30T10:26:36Z</time>
      </trkpt>
      <trkpt lat="45.06338" lon="5.60001">
        <ele>1926</ele>
        <time>2013-01-30T10:26:41Z</time>
      </trkpt>
      <trkpt lat="45.0634" lon="5.59999">
        <ele>1927</ele>
        <time>2013-01-30T10:26:46Z</time>
      </trkpt>
      <trkpt lat="45.06342" lon="5.59997">
        <ele>1928</ele>
        <time>2013-01-30T10:26:51Z</time>
      </trkpt>
      <trkpt lat="45.06345" lon="5.59994">
        <ele>1929</ele>
        <time>2013-01-30T10:26:56Z</time>
      </trkpt>
      <trkpt lat="45.06348" lon="5.59994">
        <ele>1930</ele>
        <time>2013-01-30T10:27:01Z</time>
      </trkpt>
      <trkpt lat="45.0635" lon="5.59996">
        <ele>1930</ele>
        <time>2013-01-30T10:27:06Z</time>
      </trkpt>
      <trkpt lat="45.06352" lon="5.59999">
        <ele>1931</ele>
        <time>2013-01-30T10:27:11Z</time>
      </trkpt>
      <trkpt lat="45.06353" lon="5.60001">
        <ele>1932</ele>
        <time>2013-01-30T10:27:16Z</time>
      </trkpt>
      <trkpt lat="45.06353" lon="5.60001">
        <ele>1933</ele>
        <time>2013-01-30T10:27:21Z</time>
      </trkpt>
      <trkpt lat="45.06353" lon="5.60002">
        <ele>1931</ele>
        <time>2013-01-30T10:27:26Z</time>
      </trkpt>
      <trkpt lat="45.06354" lon="5.60004">
        <ele>1928</ele>
        <time>2013-01-30T10:38:06Z</time>
      </trkpt>
      <trkpt lat="45.06357" lon="5.60004">
        <ele>1927</ele>
        <time>2013-01-30T10:38:11Z</time>
      </trkpt>
      <trkpt lat="45.06371" lon="5.5999">
        <ele>1921</ele>
        <time>2013-01-30T10:38:16Z</time>
      </trkpt>
      <trkpt lat="45.06384" lon="5.59969">
        <ele>1912</ele>
        <time>2013-01-30T10:38:21Z</time>
      </trkpt>
      <trkpt lat="45.06384" lon="5.59951">
        <ele>1907</ele>
        <time>2013-01-30T10:38:26Z</time>
      </trkpt>
      <trkpt lat="45.06384" lon="5.59951">
        <ele>1906</ele>
        <time>2013-01-30T10:38:31Z</time>
      </trkpt>
      <trkpt lat="45.06384" lon="5.59951">
        <ele>1905</ele>
        <time>2013-01-30T10:38:36Z</time>
      </trkpt>
      <trkpt lat="45.06384" lon="5.59949">
        <ele>1905</ele>
        <time>2013-01-30T10:38:41Z</time>
      </trkpt>
      <trkpt lat="45.06384" lon="5.59947">
        <ele>1904</ele>
        <time>2013-01-30T10:38:46Z</time>
      </trkpt>
      <trkpt lat="45.06384" lon="5.59947">
        <ele>1903</ele>
        <time>2013-01-30T10:38:51Z</time>
      </trkpt>
      <trkpt lat="45.06384" lon="5.59948">
        <ele>1902</ele>
        <time>2013-01-30T10:38:56Z</time>
      </trkpt>
      <trkpt lat="45.06384" lon="5.59949">
        <ele>1902</ele>
        <time>2013-01-30T10:39:01Z</time>
      </trkpt>
      <trkpt lat="45.06384" lon="5.59949">
        <ele>1902</ele>
        <time>2013-01-30T10:39:06Z</time>
      </trkpt>
      <trkpt lat="45.06384" lon="5.59949">
        <ele>1900</ele>
        <time>2013-01-30T10:39:11Z</time>
      </trkpt>
      <trkpt lat="45.06383" lon="5.5995">
        <ele>1899</ele>
        <time>2013-01-30T10:39:16Z</time>
      </trkpt>
      <trkpt lat="45.06383" lon="5.5995">
        <ele>1898</ele>
        <time>2013-01-30T10:39:21Z</time>
      </trkpt>
      <trkpt lat="45.06384" lon="5.5995">
        <ele>1898</ele>
        <time>2013-01-30T10:39:26Z</time>
      </trkpt>
      <trkpt lat="45.06384" lon="5.5995">
        <ele>1898</ele>
        <time>2013-01-30T10:39:31Z</time>
      </trkpt>
      <trkpt lat="45.06384" lon="5.5995">
        <ele>1897</ele>
        <time>2013-01-30T10:39:36Z</time>
      </trkpt>
      <trkpt lat="45.06384" lon="5.5995">
        <ele>1897</ele>
        <time>2013-01-30T10:39:41Z</time>
      </trkpt>
      <trkpt lat="45.06384" lon="5.5995">
        <ele>1897</ele>
        <time>2013-01-30T10:39:46Z</time>
      </trkpt>
      <trkpt lat="45.06384" lon="5.5995">
        <ele>1897</ele>
        <time>2013-01-30T10:39:51Z</time>
      </trkpt>
      <trkpt lat="45.06384" lon="5.5995">
        <ele>1897</ele>
        <time>2013-01-30T10:39:56Z</time>
      </trkpt>
      <trkpt lat="45.06384" lon="5.59949">
        <ele>1897</ele>
        <time>2013-01-30T10:40:01Z</time>
      </trkpt>
      <trkpt lat="45.06384" lon="5.59949">
        <ele>1897</ele>
        <time>2013-01-30T10:40:06Z</time>
      </trkpt>
      <trkpt lat="45.06384" lon="5.59949">
        <ele>1897</ele>
        <time>2013-01-30T10:40:11Z</time>
      </trkpt>
      <trkpt lat="45.06384" lon="5.59949">
        <ele>1897</ele>
        <time>2013-01-30T10:40:16Z</time>
      </trkpt>
      <trkpt lat="45.06384" lon="5.59948">
        <ele>1897</ele>
        <time>2013-01-30T10:40:21Z</time>
      </trkpt>
      <trkpt lat="45.06384" lon="5.59948">
        <ele>1897</ele>
        <time>2013-01-30T10:40:26Z</time>
      </trkpt>
      <trkpt lat="45.06384" lon="5.59948">
        <ele>1898</ele>
        <time>2013-01-30T10:40:31Z</time>
      </trkpt>
      <trkpt lat="45.06384" lon="5.59948">
        <ele>1898</ele>
        <time>2013-01-30T10:40:36Z</time>
      </trkpt>
      <trkpt lat="45.06384" lon="5.59948">
        <ele>1898</ele>
        <time>2013-01-30T10:40:41Z</time>
      </trkpt>
      <trkpt lat="45.06384" lon="5.59949">
        <ele>1897</ele>
        <time>2013-01-30T10:40:46Z</time>
      </trkpt>
      <trkpt lat="45.06385" lon="5.59949">
        <ele>1897</ele>
        <time>2013-01-30T10:40:51Z</time>
      </trkpt>
      <trkpt lat="45.06386" lon="5.59949">
        <ele>1897</ele>
        <time>2013-01-30T10:40:56Z</time>
      </trkpt>
      <trkpt lat="45.06387" lon="5.59951">
        <ele>1896</ele>
        <time>2013-01-30T10:41:01Z</time>
      </trkpt>
      <trkpt lat="45.06387" lon="5.59951">
        <ele>1896</ele>
        <time>2013-01-30T10:41:06Z</time>
      </trkpt>
      <trkpt lat="45.06397" lon="5.59944">
        <ele>1891</ele>
        <time>2013-01-30T10:41:11Z</time>
      </trkpt>
      <trkpt lat="45.0641" lon="5.59928">
        <ele>1885</ele>
        <time>2013-01-30T10:41:16Z</time>
      </trkpt>
      <trkpt lat="45.06421" lon="5.59954">
        <ele>1882</ele>
        <time>2013-01-30T10:41:21Z</time>
      </trkpt>
      <trkpt lat="45.06429" lon="5.59972">
        <ele>1881</ele>
        <time>2013-01-30T10:41:26Z</time>
      </trkpt>
      <trkpt lat="45.06438" lon="5.5999">
        <ele>1878</ele>
        <time>2013-01-30T10:41:31Z</time>
      </trkpt>
      <trkpt lat="45.0645" lon="5.59981">
        <ele>1872</ele>
        <time>2013-01-30T10:41:36Z</time>
      </trkpt>
      <trkpt lat="45.06466" lon="5.59973">
        <ele>1864</ele>
        <time>2013-01-30T10:41:41Z</time>
      </trkpt>
      <trkpt lat="45.06483" lon="5.5995">
        <ele>1856</ele>
        <time>2013-01-30T10:41:46Z</time>
      </trkpt>
      <trkpt lat="45.06487" lon="5.5996">
        <ele>1853</ele>
        <time>2013-01-30T10:41:51Z</time>
      </trkpt>
      <trkpt lat="45.06487" lon="5.59962">
        <ele>1852</ele>
        <time>2013-01-30T10:41:56Z</time>
      </trkpt>
      <trkpt lat="45.06494" lon="5.5997">
        <ele>1850</ele>
        <time>2013-01-30T10:42:01Z</time>
      </trkpt>
      <trkpt lat="45.0651" lon="5.59961">
        <ele>1846</ele>
        <time>2013-01-30T10:42:06Z</time>
      </trkpt>
      <trkpt lat="45.06511" lon="5.59962">
        <ele>1845</ele>
        <time>2013-01-30T10:42:11Z</time>
      </trkpt>
      <trkpt lat="45.06511" lon="5.59962">
        <ele>1843</ele>
        <time>2013-01-30T10:42:16Z</time>
      </trkpt>
      <trkpt lat="45.06511" lon="5.59963">
        <ele>1841</ele>
        <time>2013-01-30T10:42:21Z</time>
      </trkpt>
      <trkpt lat="45.06511" lon="5.59963">
        <ele>1840</ele>
        <time>2013-01-30T10:42:26Z</time>
      </trkpt>
      <trkpt lat="45.06511" lon="5.59963">
        <ele>1840</ele>
        <time>2013-01-30T10:42:31Z</time>
      </trkpt>
      <trkpt lat="45.06511" lon="5.59962">
        <ele>1840</ele>
        <time>2013-01-30T10:42:36Z</time>
      </trkpt>
      <trkpt lat="45.06511" lon="5.59962">
        <ele>1840</ele>
        <time>2013-01-30T10:42:41Z</time>
      </trkpt>
      <trkpt lat="45.06511" lon="5.59962">
        <ele>1840</ele>
        <time>2013-01-30T10:42:46Z</time>
      </trkpt>
      <trkpt lat="45.06511" lon="5.59962">
        <ele>1840</ele>
        <time>2013-01-30T10:42:51Z</time>
      </trkpt>
      <trkpt lat="45.06512" lon="5.59961">
        <ele>1839</ele>
        <time>2013-01-30T10:42:56Z</time>
      </trkpt>
      <trkpt lat="45.06517" lon="5.5995">
        <ele>1838</ele>
        <time>2013-01-30T10:43:01Z</time>
      </trkpt>
      <trkpt lat="45.06524" lon="5.59941">
        <ele>1834</ele>
        <time>2013-01-30T10:43:06Z</time>
      </trkpt>
      <trkpt lat="45.06538" lon="5.59927">
        <ele>1828</ele>
        <time>2013-01-30T10:43:11Z</time>
      </trkpt>
      <trkpt lat="45.06549" lon="5.59938">
        <ele>1818</ele>
        <time>2013-01-30T10:43:16Z</time>
      </trkpt>
      <trkpt lat="45.06565" lon="5.59948">
        <ele>1807</ele>
        <time>2013-01-30T10:43:21Z</time>
      </trkpt>
      <trkpt lat="45.06577" lon="5.59958">
        <ele>1797</ele>
        <time>2013-01-30T10:43:26Z</time>
      </trkpt>
      <trkpt lat="45.0659" lon="5.59963">
        <ele>1788</ele>
        <time>2013-01-30T10:43:31Z</time>
      </trkpt>
      <trkpt lat="45.06601" lon="5.5996">
        <ele>1778</ele>
        <time>2013-01-30T10:43:36Z</time>
      </trkpt>
      <trkpt lat="45.06601" lon="5.59959">
        <ele>1775</ele>
        <time>2013-01-30T10:43:41Z</time>
      </trkpt>
      <trkpt lat="45.06604" lon="5.59967">
        <ele>1771</ele>
        <time>2013-01-30T10:43:46Z</time>
      </trkpt>
      <trkpt lat="45.0661" lon="5.59988">
        <ele>1769</ele>
        <time>2013-01-30T10:43:51Z</time>
      </trkpt>
      <trkpt lat="45.06614" lon="5.60003">
        <ele>1769</ele>
        <time>2013-01-30T10:43:56Z</time>
      </trkpt>
      <trkpt lat="45.06623" lon="5.60023">
        <ele>1768</ele>
        <time>2013-01-30T10:44:01Z</time>
      </trkpt>
      <trkpt lat="45.06638" lon="5.60042">
        <ele>1766</ele>
        <time>2013-01-30T10:44:06Z</time>
      </trkpt>
      <trkpt lat="45.06654" lon="5.60055">
        <ele>1764</ele>
        <time>2013-01-30T10:44:11Z</time>
      </trkpt>
      <trkpt lat="45.06675" lon="5.60065">
        <ele>1761</ele>
        <time>2013-01-30T10:44:16Z</time>
      </trkpt>
      <trkpt lat="45.06698" lon="5.6007">
        <ele>1758</ele>
        <time>2013-01-30T10:44:21Z</time>
      </trkpt>
      <trkpt lat="45.0672" lon="5.60077">
        <ele>1754</ele>
        <time>2013-01-30T10:44:26Z</time>
      </trkpt>
      <trkpt lat="45.06742" lon="5.60088">
        <ele>1752</ele>
        <time>2013-01-30T10:44:31Z</time>
      </trkpt>
      <trkpt lat="45.06764" lon="5.60082">
        <ele>1751</ele>
        <time>2013-01-30T10:44:36Z</time>
      </trkpt>
      <trkpt lat="45.06788" lon="5.60071">
        <ele>1753</ele>
        <time>2013-01-30T10:44:41Z</time>
      </trkpt>
      <trkpt lat="45.06809" lon="5.60054">
        <ele>1750</ele>
        <time>2013-01-30T10:44:46Z</time>
      </trkpt>
      <trkpt lat="45.06828" lon="5.60033">
        <ele>1745</ele>
        <time>2013-01-30T10:44:51Z</time>
      </trkpt>
      <trkpt lat="45.06841" lon="5.60015">
        <ele>1739</ele>
        <time>2013-01-30T10:44:56Z</time>
      </trkpt>
      <trkpt lat="45.06853" lon="5.59993">
        <ele>1732</ele>
        <time>2013-01-30T10:45:01Z</time>
      </trkpt>
      <trkpt lat="45.06862" lon="5.59966">
        <ele>1725</ele>
        <time>2013-01-30T10:45:06Z</time>
      </trkpt>
      <trkpt lat="45.06874" lon="5.59938">
        <ele>1716</ele>
        <time>2013-01-30T10:45:11Z</time>
      </trkpt>
      <trkpt lat="45.06889" lon="5.59912">
        <ele>1707</ele>
        <time>2013-01-30T10:45:16Z</time>
      </trkpt>
      <trkpt lat="45.06894" lon="5.59909">
        <ele>1704</ele>
        <time>2013-01-30T10:45:21Z</time>
      </trkpt>
      <trkpt lat="45.06894" lon="5.5991">
        <ele>1703</ele>
        <time>2013-01-30T10:45:26Z</time>
      </trkpt>
      <trkpt lat="45.06894" lon="5.5991">
        <ele>1703</ele>
        <time>2013-01-30T10:45:31Z</time>
      </trkpt>
      <trkpt lat="45.06892" lon="5.59912">
        <ele>1707</ele>
        <time>2013-01-30T10:47:41Z</time>
      </trkpt>
      <trkpt lat="45.06892" lon="5.59912">
        <ele>1708</ele>
        <time>2013-01-30T10:47:46Z</time>
      </trkpt>
      <trkpt lat="45.06891" lon="5.59913">
        <ele>1708</ele>
        <time>2013-01-30T10:47:51Z</time>
      </trkpt>
      <trkpt lat="45.06891" lon="5.59913">
        <ele>1709</ele>
        <time>2013-01-30T10:47:56Z</time>
      </trkpt>
      <trkpt lat="45.06891" lon="5.59913">
        <ele>1710</ele>
        <time>2013-01-30T10:48:01Z</time>
      </trkpt>
      <trkpt lat="45.06891" lon="5.59914">
        <ele>1711</ele>
        <time>2013-01-30T10:48:06Z</time>
      </trkpt>
      <trkpt lat="45.06891" lon="5.59914">
        <ele>1711</ele>
        <time>2013-01-30T10:48:11Z</time>
      </trkpt>
      <trkpt lat="45.0689" lon="5.59915">
        <ele>1713</ele>
        <time>2013-01-30T10:48:16Z</time>
      </trkpt>
      <trkpt lat="45.06889" lon="5.59916">
        <ele>1714</ele>
        <time>2013-01-30T10:48:21Z</time>
      </trkpt>
      <trkpt lat="45.06889" lon="5.59916">
        <ele>1715</ele>
        <time>2013-01-30T10:48:26Z</time>
      </trkpt>
      <trkpt lat="45.06889" lon="5.59917">
        <ele>1716</ele>
        <time>2013-01-30T10:48:31Z</time>
      </trkpt>
      <trkpt lat="45.06888" lon="5.59918">
        <ele>1716</ele>
        <time>2013-01-30T10:48:36Z</time>
      </trkpt>
      <trkpt lat="45.06889" lon="5.59917">
        <ele>1716</ele>
        <time>2013-01-30T10:48:41Z</time>
      </trkpt>
      <trkpt lat="45.06889" lon="5.59917">
        <ele>1716</ele>
        <time>2013-01-30T10:48:46Z</time>
      </trkpt>
      <trkpt lat="45.06888" lon="5.59917">
        <ele>1717</ele>
        <time>2013-01-30T10:48:51Z</time>
      </trkpt>
      <trkpt lat="45.06888" lon="5.59918">
        <ele>1718</ele>
        <time>2013-01-30T10:48:56Z</time>
      </trkpt>
      <trkpt lat="45.06888" lon="5.59918">
        <ele>1718</ele>
        <time>2013-01-30T10:49:01Z</time>
      </trkpt>
      <trkpt lat="45.06888" lon="5.59917">
        <ele>1719</ele>
        <time>2013-01-30T10:49:06Z</time>
      </trkpt>
      <trkpt lat="45.06888" lon="5.59917">
        <ele>1719</ele>
        <time>2013-01-30T10:49:11Z</time>
      </trkpt>
      <trkpt lat="45.06888" lon="5.59917">
        <ele>1719</ele>
        <time>2013-01-30T10:49:16Z</time>
      </trkpt>
      <trkpt lat="45.06888" lon="5.59916">
        <ele>1719</ele>
        <time>2013-01-30T10:49:21Z</time>
      </trkpt>
      <trkpt lat="45.06895" lon="5.5991">
        <ele>1718</ele>
        <time>2013-01-30T10:49:26Z</time>
      </trkpt>
      <trkpt lat="45.06909" lon="5.59889">
        <ele>1713</ele>
        <time>2013-01-30T10:49:31Z</time>
      </trkpt>
      <trkpt lat="45.0692" lon="5.59858">
        <ele>1700</ele>
        <time>2013-01-30T10:49:36Z</time>
      </trkpt>
      <trkpt lat="45.06928" lon="5.59826">
        <ele>1688</ele>
        <time>2013-01-30T10:49:41Z</time>
      </trkpt>
      <trkpt lat="45.06928" lon="5.5981">
        <ele>1679</ele>
        <time>2013-01-30T10:49:46Z</time>
      </trkpt>
      <trkpt lat="45.06929" lon="5.5981">
        <ele>1678</ele>
        <time>2013-01-30T10:49:51Z</time>
      </trkpt>
      <trkpt lat="45.06935" lon="5.59806">
        <ele>1677</ele>
        <time>2013-01-30T10:49:56Z</time>
      </trkpt>
      <trkpt lat="45.06949" lon="5.59793">
        <ele>1674</ele>
        <time>2013-01-30T10:50:01Z</time>
      </trkpt>
      <trkpt lat="45.06969" lon="5.59782">
        <ele>1671</ele>
        <time>2013-01-30T10:50:06Z</time>
      </trkpt>
      <trkpt lat="45.06979" lon="5.5975">
        <ele>1657</ele>
        <time>2013-01-30T10:50:11Z</time>
      </trkpt>
      <trkpt lat="45.06996" lon="5.59725">
        <ele>1647</ele>
        <time>2013-01-30T10:50:16Z</time>
      </trkpt>
      <trkpt lat="45.07014" lon="5.59701">
        <ele>1641</ele>
        <time>2013-01-30T10:50:21Z</time>
      </trkpt>
      <trkpt lat="45.07031" lon="5.59669">
        <ele>1636</ele>
        <time>2013-01-30T10:50:26Z</time>
      </trkpt>
      <trkpt lat="45.07037" lon="5.5965">
        <ele>1634</ele>
        <time>2013-01-30T10:50:31Z</time>
      </trkpt>
      <trkpt lat="45.07039" lon="5.59648">
        <ele>1634</ele>
        <time>2013-01-30T10:50:36Z</time>
      </trkpt>
      <trkpt lat="45.07039" lon="5.59647">
        <ele>1634</ele>
        <time>2013-01-30T10:50:41Z</time>
      </trkpt>
      <trkpt lat="45.07038" lon="5.59648">
        <ele>1634</ele>
        <time>2013-01-30T10:50:46Z</time>
      </trkpt>
      <trkpt lat="45.07039" lon="5.59648">
        <ele>1635</ele>
        <time>2013-01-30T10:59:11Z</time>
      </trkpt>
      <trkpt lat="45.0704" lon="5.59648">
        <ele>1635</ele>
        <time>2013-01-30T10:59:16Z</time>
      </trkpt>
      <trkpt lat="45.07044" lon="5.59646">
        <ele>1635</ele>
        <time>2013-01-30T10:59:21Z</time>
      </trkpt>
      <trkpt lat="45.07048" lon="5.59643">
        <ele>1635</ele>
        <time>2013-01-30T10:59:26Z</time>
      </trkpt>
      <trkpt lat="45.07052" lon="5.59641">
        <ele>1635</ele>
        <time>2013-01-30T10:59:31Z</time>
      </trkpt>
      <trkpt lat="45.07055" lon="5.59641">
        <ele>1636</ele>
        <time>2013-01-30T10:59:36Z</time>
      </trkpt>
      <trkpt lat="45.07058" lon="5.59642">
        <ele>1637</ele>
        <time>2013-01-30T10:59:41Z</time>
      </trkpt>
      <trkpt lat="45.07062" lon="5.59642">
        <ele>1638</ele>
        <time>2013-01-30T10:59:46Z</time>
      </trkpt>
      <trkpt lat="45.07067" lon="5.59641">
        <ele>1638</ele>
        <time>2013-01-30T10:59:51Z</time>
      </trkpt>
      <trkpt lat="45.07071" lon="5.5964">
        <ele>1639</ele>
        <time>2013-01-30T10:59:56Z</time>
      </trkpt>
      <trkpt lat="45.07074" lon="5.5964">
        <ele>1639</ele>
        <time>2013-01-30T11:00:01Z</time>
      </trkpt>
      <trkpt lat="45.07077" lon="5.5964">
        <ele>1640</ele>
        <time>2013-01-30T11:00:06Z</time>
      </trkpt>
      <trkpt lat="45.07081" lon="5.59639">
        <ele>1641</ele>
        <time>2013-01-30T11:00:11Z</time>
      </trkpt>
      <trkpt lat="45.07084" lon="5.59639">
        <ele>1642</ele>
        <time>2013-01-30T11:00:16Z</time>
      </trkpt>
      <trkpt lat="45.07088" lon="5.59638">
        <ele>1643</ele>
        <time>2013-01-30T11:00:21Z</time>
      </trkpt>
      <trkpt lat="45.07091" lon="5.59637">
        <ele>1643</ele>
        <time>2013-01-30T11:00:26Z</time>
      </trkpt>
      <trkpt lat="45.07095" lon="5.59636">
        <ele>1644</ele>
        <time>2013-01-30T11:00:31Z</time>
      </trkpt>
      <trkpt lat="45.07098" lon="5.59635">
        <ele>1645</ele>
        <time>2013-01-30T11:00:36Z</time>
      </trkpt>
      <trkpt lat="45.07101" lon="5.59634">
        <ele>1645</ele>
        <time>2013-01-30T11:00:41Z</time>
      </trkpt>
      <trkpt lat="45.07104" lon="5.59633">
        <ele>1646</ele>
        <time>2013-01-30T11:00:46Z</time>
      </trkpt>
      <trkpt lat="45.07105" lon="5.59633">
        <ele>1647</ele>
        <time>2013-01-30T11:00:51Z</time>
      </trkpt>
      <trkpt lat="45.07108" lon="5.59632">
        <ele>1647</ele>
        <time>2013-01-30T11:00:56Z</time>
      </trkpt>
      <trkpt lat="45.0711" lon="5.59632">
        <ele>1648</ele>
        <time>2013-01-30T11:01:01Z</time>
      </trkpt>
      <trkpt lat="45.07113" lon="5.59632">
        <ele>1648</ele>
        <time>2013-01-30T11:01:06Z</time>
      </trkpt>
      <trkpt lat="45.07115" lon="5.59632">
        <ele>1649</ele>
        <time>2013-01-30T11:01:11Z</time>
      </trkpt>
      <trkpt lat="45.07117" lon="5.59633">
        <ele>1649</ele>
        <time>2013-01-30T11:01:16Z</time>
      </trkpt>
      <trkpt lat="45.07119" lon="5.59634">
        <ele>1649</ele>
        <time>2013-01-30T11:01:21Z</time>
      </trkpt>
      <trkpt lat="45.07122" lon="5.59635">
        <ele>1650</ele>
        <time>2013-01-30T11:01:26Z</time>
      </trkpt>
      <trkpt lat="45.07124" lon="5.59636">
        <ele>1650</ele>
        <time>2013-01-30T11:01:31Z</time>
      </trkpt>
      <trkpt lat="45.07125" lon="5.59639">
        <ele>1651</ele>
        <time>2013-01-30T11:01:36Z</time>
      </trkpt>
      <trkpt lat="45.07125" lon="5.5964">
        <ele>1651</ele>
        <time>2013-01-30T11:01:41Z</time>
      </trkpt>
      <trkpt lat="45.07127" lon="5.59643">
        <ele>1652</ele>
        <time>2013-01-30T11:01:46Z</time>
      </trkpt>
      <trkpt lat="45.07128" lon="5.59646">
        <ele>1653</ele>
        <time>2013-01-30T11:01:51Z</time>
      </trkpt>
      <trkpt lat="45.0713" lon="5.59649">
        <ele>1653</ele>
        <time>2013-01-30T11:01:56Z</time>
      </trkpt>
      <trkpt lat="45.07132" lon="5.59652">
        <ele>1654</ele>
        <time>2013-01-30T11:02:01Z</time>
      </trkpt>
      <trkpt lat="45.07133" lon="5.59656">
        <ele>1655</ele>
        <time>2013-01-30T11:02:06Z</time>
      </trkpt>
      <trkpt lat="45.07134" lon="5.59659">
        <ele>1656</ele>
        <time>2013-01-30T11:02:11Z</time>
      </trkpt>
      <trkpt lat="45.07136" lon="5.59662">
        <ele>1656</ele>
        <time>2013-01-30T11:02:16Z</time>
      </trkpt>
      <trkpt lat="45.07137" lon="5.59666">
        <ele>1657</ele>
        <time>2013-01-30T11:02:21Z</time>
      </trkpt>
      <trkpt lat="45.07137" lon="5.59667">
        <ele>1657</ele>
        <time>2013-01-30T11:02:26Z</time>
      </trkpt>
      <trkpt lat="45.07135" lon="5.59667">
        <ele>1658</ele>
        <time>2013-01-30T11:02:31Z</time>
      </trkpt>
      <trkpt lat="45.07133" lon="5.59667">
        <ele>1659</ele>
        <time>2013-01-30T11:02:36Z</time>
      </trkpt>
      <trkpt lat="45.0713" lon="5.59666">
        <ele>1660</ele>
        <time>2013-01-30T11:02:41Z</time>
      </trkpt>
      <trkpt lat="45.07127" lon="5.59666">
        <ele>1660</ele>
        <time>2013-01-30T11:02:46Z</time>
      </trkpt>
      <trkpt lat="45.07124" lon="5.59667">
        <ele>1661</ele>
        <time>2013-01-30T11:02:51Z</time>
      </trkpt>
      <trkpt lat="45.07121" lon="5.59667">
        <ele>1661</ele>
        <time>2013-01-30T11:02:56Z</time>
      </trkpt>
      <trkpt lat="45.07119" lon="5.59668">
        <ele>1662</ele>
        <time>2013-01-30T11:03:01Z</time>
      </trkpt>
      <trkpt lat="45.07119" lon="5.59669">
        <ele>1662</ele>
        <time>2013-01-30T11:03:06Z</time>
      </trkpt>
      <trkpt lat="45.07121" lon="5.59672">
        <ele>1663</ele>
        <time>2013-01-30T11:03:11Z</time>
      </trkpt>
      <trkpt lat="45.07121" lon="5.59673">
        <ele>1664</ele>
        <time>2013-01-30T11:03:16Z</time>
      </trkpt>
      <trkpt lat="45.07121" lon="5.59673">
        <ele>1664</ele>
        <time>2013-01-30T11:03:21Z</time>
      </trkpt>
      <trkpt lat="45.07121" lon="5.59673">
        <ele>1664</ele>
        <time>2013-01-30T11:03:26Z</time>
      </trkpt>
      <trkpt lat="45.07119" lon="5.59675">
        <ele>1665</ele>
        <time>2013-01-30T11:03:31Z</time>
      </trkpt>
      <trkpt lat="45.07117" lon="5.59676">
        <ele>1666</ele>
        <time>2013-01-30T11:03:36Z</time>
      </trkpt>
      <trkpt lat="45.07116" lon="5.59677">
        <ele>1666</ele>
        <time>2013-01-30T11:03:41Z</time>
      </trkpt>
      <trkpt lat="45.07114" lon="5.59679">
        <ele>1667</ele>
        <time>2013-01-30T11:03:46Z</time>
      </trkpt>
      <trkpt lat="45.07111" lon="5.5968">
        <ele>1668</ele>
        <time>2013-01-30T11:03:51Z</time>
      </trkpt>
      <trkpt lat="45.07109" lon="5.59682">
        <ele>1669</ele>
        <time>2013-01-30T11:03:56Z</time>
      </trkpt>
      <trkpt lat="45.07108" lon="5.59683">
        <ele>1669</ele>
        <time>2013-01-30T11:04:01Z</time>
      </trkpt>
      <trkpt lat="45.07108" lon="5.59683">
        <ele>1670</ele>
        <time>2013-01-30T11:04:06Z</time>
      </trkpt>
      <trkpt lat="45.07108" lon="5.59683">
        <ele>1670</ele>
        <time>2013-01-30T11:04:11Z</time>
      </trkpt>
      <trkpt lat="45.0711" lon="5.59686">
        <ele>1670</ele>
        <time>2013-01-30T11:04:16Z</time>
      </trkpt>
      <trkpt lat="45.07111" lon="5.59688">
        <ele>1671</ele>
        <time>2013-01-30T11:04:21Z</time>
      </trkpt>
      <trkpt lat="45.07113" lon="5.59691">
        <ele>1672</ele>
        <time>2013-01-30T11:04:26Z</time>
      </trkpt>
      <trkpt lat="45.07114" lon="5.59694">
        <ele>1673</ele>
        <time>2013-01-30T11:04:31Z</time>
      </trkpt>
      <trkpt lat="45.07115" lon="5.59697">
        <ele>1673</ele>
        <time>2013-01-30T11:04:36Z</time>
      </trkpt>
      <trkpt lat="45.07117" lon="5.59701">
        <ele>1674</ele>
        <time>2013-01-30T11:04:41Z</time>
      </trkpt>
      <trkpt lat="45.07118" lon="5.59704">
        <ele>1675</ele>
        <time>2013-01-30T11:04:46Z</time>
      </trkpt>
      <trkpt lat="45.07119" lon="5.59708">
        <ele>1676</ele>
        <time>2013-01-30T11:04:51Z</time>
      </trkpt>
      <trkpt lat="45.0712" lon="5.59711">
        <ele>1677</ele>
        <time>2013-01-30T11:04:56Z</time>
      </trkpt>
      <trkpt lat="45.07121" lon="5.59714">
        <ele>1677</ele>
        <time>2013-01-30T11:05:01Z</time>
      </trkpt>
      <trkpt lat="45.07118" lon="5.59713">
        <ele>1678</ele>
        <time>2013-01-30T11:05:06Z</time>
      </trkpt>
      <trkpt lat="45.07116" lon="5.59713">
        <ele>1679</ele>
        <time>2013-01-30T11:05:11Z</time>
      </trkpt>
      <trkpt lat="45.07113" lon="5.59713">
        <ele>1679</ele>
        <time>2013-01-30T11:05:16Z</time>
      </trkpt>
      <trkpt lat="45.07113" lon="5.59712">
        <ele>1679</ele>
        <time>2013-01-30T11:05:21Z</time>
      </trkpt>
      <trkpt lat="45.07113" lon="5.59712">
        <ele>1679</ele>
        <time>2013-01-30T11:05:26Z</time>
      </trkpt>
      <trkpt lat="45.0711" lon="5.59712">
        <ele>1680</ele>
        <time>2013-01-30T11:05:31Z</time>
      </trkpt>
      <trkpt lat="45.07107" lon="5.59712">
        <ele>1680</ele>
        <time>2013-01-30T11:05:36Z</time>
      </trkpt>
      <trkpt lat="45.07104" lon="5.59712">
        <ele>1681</ele>
        <time>2013-01-30T11:05:41Z</time>
      </trkpt>
      <trkpt lat="45.07102" lon="5.59712">
        <ele>1682</ele>
        <time>2013-01-30T11:05:46Z</time>
      </trkpt>
      <trkpt lat="45.07099" lon="5.59713">
        <ele>1683</ele>
        <time>2013-01-30T11:05:51Z</time>
      </trkpt>
      <trkpt lat="45.07097" lon="5.59713">
        <ele>1683</ele>
        <time>2013-01-30T11:05:56Z</time>
      </trkpt>
      <trkpt lat="45.07094" lon="5.59714">
        <ele>1684</ele>
        <time>2013-01-30T11:06:01Z</time>
      </trkpt>
      <trkpt lat="45.07092" lon="5.59715">
        <ele>1684</ele>
        <time>2013-01-30T11:06:06Z</time>
      </trkpt>
      <trkpt lat="45.07089" lon="5.59715">
        <ele>1685</ele>
        <time>2013-01-30T11:06:11Z</time>
      </trkpt>
      <trkpt lat="45.07086" lon="5.59715">
        <ele>1686</ele>
        <time>2013-01-30T11:06:16Z</time>
      </trkpt>
      <trkpt lat="45.07084" lon="5.59717">
        <ele>1686</ele>
        <time>2013-01-30T11:06:21Z</time>
      </trkpt>
      <trkpt lat="45.07084" lon="5.59719">
        <ele>1687</ele>
        <time>2013-01-30T11:06:26Z</time>
      </trkpt>
      <trkpt lat="45.07086" lon="5.59722">
        <ele>1688</ele>
        <time>2013-01-30T11:06:31Z</time>
      </trkpt>
      <trkpt lat="45.07088" lon="5.59724">
        <ele>1689</ele>
        <time>2013-01-30T11:06:36Z</time>
      </trkpt>
      <trkpt lat="45.07089" lon="5.59727">
        <ele>1689</ele>
        <time>2013-01-30T11:06:41Z</time>
      </trkpt>
      <trkpt lat="45.07091" lon="5.59731">
        <ele>1690</ele>
        <time>2013-01-30T11:06:46Z</time>
      </trkpt>
      <trkpt lat="45.07092" lon="5.59734">
        <ele>1691</ele>
        <time>2013-01-30T11:06:51Z</time>
      </trkpt>
      <trkpt lat="45.07093" lon="5.59736">
        <ele>1692</ele>
        <time>2013-01-30T11:06:56Z</time>
      </trkpt>
      <trkpt lat="45.07094" lon="5.59739">
        <ele>1692</ele>
        <time>2013-01-30T11:07:01Z</time>
      </trkpt>
      <trkpt lat="45.07095" lon="5.59742">
        <ele>1693</ele>
        <time>2013-01-30T11:07:06Z</time>
      </trkpt>
      <trkpt lat="45.07097" lon="5.59744">
        <ele>1694</ele>
        <time>2013-01-30T11:07:11Z</time>
      </trkpt>
      <trkpt lat="45.07097" lon="5.59747">
        <ele>1695</ele>
        <time>2013-01-30T11:07:16Z</time>
      </trkpt>
      <trkpt lat="45.07095" lon="5.59747">
        <ele>1695</ele>
        <time>2013-01-30T11:07:21Z</time>
      </trkpt>
      <trkpt lat="45.07092" lon="5.59747">
        <ele>1696</ele>
        <time>2013-01-30T11:07:26Z</time>
      </trkpt>
      <trkpt lat="45.07089" lon="5.59747">
        <ele>1697</ele>
        <time>2013-01-30T11:07:31Z</time>
      </trkpt>
      <trkpt lat="45.07087" lon="5.59747">
        <ele>1697</ele>
        <time>2013-01-30T11:07:36Z</time>
      </trkpt>
      <trkpt lat="45.07084" lon="5.59747">
        <ele>1698</ele>
        <time>2013-01-30T11:07:41Z</time>
      </trkpt>
      <trkpt lat="45.07081" lon="5.59748">
        <ele>1698</ele>
        <time>2013-01-30T11:07:46Z</time>
      </trkpt>
      <trkpt lat="45.07078" lon="5.59749">
        <ele>1699</ele>
        <time>2013-01-30T11:07:51Z</time>
      </trkpt>
      <trkpt lat="45.07076" lon="5.5975">
        <ele>1700</ele>
        <time>2013-01-30T11:07:56Z</time>
      </trkpt>
      <trkpt lat="45.07074" lon="5.5975">
        <ele>1700</ele>
        <time>2013-01-30T11:08:01Z</time>
      </trkpt>
      <trkpt lat="45.07075" lon="5.59753">
        <ele>1701</ele>
        <time>2013-01-30T11:08:06Z</time>
      </trkpt>
      <trkpt lat="45.07077" lon="5.59756">
        <ele>1702</ele>
        <time>2013-01-30T11:08:11Z</time>
      </trkpt>
      <trkpt lat="45.07078" lon="5.59759">
        <ele>1702</ele>
        <time>2013-01-30T11:08:16Z</time>
      </trkpt>
      <trkpt lat="45.07079" lon="5.59762">
        <ele>1703</ele>
        <time>2013-01-30T11:08:21Z</time>
      </trkpt>
      <trkpt lat="45.07081" lon="5.59764">
        <ele>1704</ele>
        <time>2013-01-30T11:08:26Z</time>
      </trkpt>
      <trkpt lat="45.07082" lon="5.59767">
        <ele>1705</ele>
        <time>2013-01-30T11:08:31Z</time>
      </trkpt>
      <trkpt lat="45.07084" lon="5.59771">
        <ele>1705</ele>
        <time>2013-01-30T11:08:36Z</time>
      </trkpt>
      <trkpt lat="45.07084" lon="5.59773">
        <ele>1706</ele>
        <time>2013-01-30T11:08:41Z</time>
      </trkpt>
      <trkpt lat="45.07084" lon="5.59772">
        <ele>1706</ele>
        <time>2013-01-30T11:08:46Z</time>
      </trkpt>
      <trkpt lat="45.07081" lon="5.59773">
        <ele>1706</ele>
        <time>2013-01-30T11:08:51Z</time>
      </trkpt>
      <trkpt lat="45.07079" lon="5.59773">
        <ele>1706</ele>
        <time>2013-01-30T11:08:56Z</time>
      </trkpt>
      <trkpt lat="45.07076" lon="5.59774">
        <ele>1707</ele>
        <time>2013-01-30T11:09:01Z</time>
      </trkpt>
      <trkpt lat="45.07074" lon="5.59775">
        <ele>1708</ele>
        <time>2013-01-30T11:09:06Z</time>
      </trkpt>
      <trkpt lat="45.07071" lon="5.59776">
        <ele>1709</ele>
        <time>2013-01-30T11:09:11Z</time>
      </trkpt>
      <trkpt lat="45.07068" lon="5.59777">
        <ele>1709</ele>
        <time>2013-01-30T11:09:16Z</time>
      </trkpt>
      <trkpt lat="45.07067" lon="5.59778">
        <ele>1710</ele>
        <time>2013-01-30T11:09:21Z</time>
      </trkpt>
      <trkpt lat="45.07068" lon="5.5978">
        <ele>1711</ele>
        <time>2013-01-30T11:09:26Z</time>
      </trkpt>
      <trkpt lat="45.0707" lon="5.59783">
        <ele>1711</ele>
        <time>2013-01-30T11:09:31Z</time>
      </trkpt>
      <trkpt lat="45.07071" lon="5.59786">
        <ele>1712</ele>
        <time>2013-01-30T11:09:36Z</time>
      </trkpt>
      <trkpt lat="45.07073" lon="5.5979">
        <ele>1713</ele>
        <time>2013-01-30T11:09:41Z</time>
      </trkpt>
      <trkpt lat="45.07074" lon="5.59793">
        <ele>1714</ele>
        <time>2013-01-30T11:09:46Z</time>
      </trkpt>
      <trkpt lat="45.07075" lon="5.59797">
        <ele>1714</ele>
        <time>2013-01-30T11:09:51Z</time>
      </trkpt>
      <trkpt lat="45.07076" lon="5.598">
        <ele>1715</ele>
        <time>2013-01-30T11:09:56Z</time>
      </trkpt>
      <trkpt lat="45.07077" lon="5.59803">
        <ele>1716</ele>
        <time>2013-01-30T11:10:01Z</time>
      </trkpt>
      <trkpt lat="45.07078" lon="5.59807">
        <ele>1716</ele>
        <time>2013-01-30T11:10:06Z</time>
      </trkpt>
      <trkpt lat="45.07079" lon="5.5981">
        <ele>1717</ele>
        <time>2013-01-30T11:10:11Z</time>
      </trkpt>
      <trkpt lat="45.07081" lon="5.59814">
        <ele>1717</ele>
        <time>2013-01-30T11:10:16Z</time>
      </trkpt>
      <trkpt lat="45.0708" lon="5.59815">
        <ele>1718</ele>
        <time>2013-01-30T11:10:21Z</time>
      </trkpt>
      <trkpt lat="45.07077" lon="5.59815">
        <ele>1718</ele>
        <time>2013-01-30T11:10:26Z</time>
      </trkpt>
      <trkpt lat="45.07075" lon="5.59815">
        <ele>1719</ele>
        <time>2013-01-30T11:10:31Z</time>
      </trkpt>
      <trkpt lat="45.07072" lon="5.59814">
        <ele>1720</ele>
        <time>2013-01-30T11:10:36Z</time>
      </trkpt>
      <trkpt lat="45.0707" lon="5.59814">
        <ele>1720</ele>
        <time>2013-01-30T11:10:41Z</time>
      </trkpt>
      <trkpt lat="45.07067" lon="5.59814">
        <ele>1721</ele>
        <time>2013-01-30T11:10:46Z</time>
      </trkpt>
      <trkpt lat="45.07065" lon="5.59814">
        <ele>1722</ele>
        <time>2013-01-30T11:10:51Z</time>
      </trkpt>
      <trkpt lat="45.07062" lon="5.59814">
        <ele>1722</ele>
        <time>2013-01-30T11:10:56Z</time>
      </trkpt>
      <trkpt lat="45.0706" lon="5.59815">
        <ele>1723</ele>
        <time>2013-01-30T11:11:01Z</time>
      </trkpt>
      <trkpt lat="45.07057" lon="5.59815">
        <ele>1724</ele>
        <time>2013-01-30T11:11:06Z</time>
      </trkpt>
      <trkpt lat="45.07055" lon="5.59815">
        <ele>1724</ele>
        <time>2013-01-30T11:11:11Z</time>
      </trkpt>
      <trkpt lat="45.07052" lon="5.59816">
        <ele>1725</ele>
        <time>2013-01-30T11:11:16Z</time>
      </trkpt>
      <trkpt lat="45.0705" lon="5.59816">
        <ele>1726</ele>
        <time>2013-01-30T11:11:21Z</time>
      </trkpt>
      <trkpt lat="45.07048" lon="5.59817">
        <ele>1727</ele>
        <time>2013-01-30T11:11:26Z</time>
      </trkpt>
      <trkpt lat="45.07045" lon="5.59817">
        <ele>1727</ele>
        <time>2013-01-30T11:11:31Z</time>
      </trkpt>
      <trkpt lat="45.07042" lon="5.59818">
        <ele>1728</ele>
        <time>2013-01-30T11:11:36Z</time>
      </trkpt>
      <trkpt lat="45.07042" lon="5.59818">
        <ele>1728</ele>
        <time>2013-01-30T11:11:41Z</time>
      </trkpt>
      <trkpt lat="45.07042" lon="5.59818">
        <ele>1729</ele>
        <time>2013-01-30T11:11:46Z</time>
      </trkpt>
      <trkpt lat="45.07042" lon="5.59818">
        <ele>1729</ele>
        <time>2013-01-30T11:11:51Z</time>
      </trkpt>
      <trkpt lat="45.07042" lon="5.5982">
        <ele>1729</ele>
        <time>2013-01-30T11:11:56Z</time>
      </trkpt>
      <trkpt lat="45.07044" lon="5.59824">
        <ele>1730</ele>
        <time>2013-01-30T11:12:01Z</time>
      </trkpt>
      <trkpt lat="45.07045" lon="5.59827">
        <ele>1731</ele>
        <time>2013-01-30T11:12:06Z</time>
      </trkpt>
      <trkpt lat="45.07045" lon="5.59831">
        <ele>1732</ele>
        <time>2013-01-30T11:12:11Z</time>
      </trkpt>
      <trkpt lat="45.07046" lon="5.59834">
        <ele>1733</ele>
        <time>2013-01-30T11:12:16Z</time>
      </trkpt>
      <trkpt lat="45.07047" lon="5.59837">
        <ele>1734</ele>
        <time>2013-01-30T11:12:21Z</time>
      </trkpt>
      <trkpt lat="45.07048" lon="5.5984">
        <ele>1735</ele>
        <time>2013-01-30T11:12:26Z</time>
      </trkpt>
      <trkpt lat="45.0705" lon="5.59843">
        <ele>1736</ele>
        <time>2013-01-30T11:12:31Z</time>
      </trkpt>
      <trkpt lat="45.07052" lon="5.59847">
        <ele>1737</ele>
        <time>2013-01-30T11:12:36Z</time>
      </trkpt>
      <trkpt lat="45.07052" lon="5.5985">
        <ele>1737</ele>
        <time>2013-01-30T11:12:41Z</time>
      </trkpt>
      <trkpt lat="45.07052" lon="5.59852">
        <ele>1737</ele>
        <time>2013-01-30T11:12:46Z</time>
      </trkpt>
      <trkpt lat="45.07052" lon="5.59851">
        <ele>1737</ele>
        <time>2013-01-30T11:12:51Z</time>
      </trkpt>
      <trkpt lat="45.07051" lon="5.59851">
        <ele>1737</ele>
        <time>2013-01-30T11:12:56Z</time>
      </trkpt>
      <trkpt lat="45.07048" lon="5.59851">
        <ele>1737</ele>
        <time>2013-01-30T11:13:01Z</time>
      </trkpt>
      <trkpt lat="45.07045" lon="5.59852">
        <ele>1738</ele>
        <time>2013-01-30T11:13:06Z</time>
      </trkpt>
      <trkpt lat="45.07043" lon="5.59853">
        <ele>1739</ele>
        <time>2013-01-30T11:13:11Z</time>
      </trkpt>
      <trkpt lat="45.0704" lon="5.59853">
        <ele>1739</ele>
        <time>2013-01-30T11:13:16Z</time>
      </trkpt>
      <trkpt lat="45.07038" lon="5.59854">
        <ele>1740</ele>
        <time>2013-01-30T11:13:21Z</time>
      </trkpt>
      <trkpt lat="45.07035" lon="5.59854">
        <ele>1740</ele>
        <time>2013-01-30T11:13:26Z</time>
      </trkpt>
      <trkpt lat="45.07032" lon="5.59855">
        <ele>1741</ele>
        <time>2013-01-30T11:13:31Z</time>
      </trkpt>
      <trkpt lat="45.0703" lon="5.59856">
        <ele>1742</ele>
        <time>2013-01-30T11:13:36Z</time>
      </trkpt>
      <trkpt lat="45.07028" lon="5.59857">
        <ele>1742</ele>
        <time>2013-01-30T11:13:41Z</time>
      </trkpt>
      <trkpt lat="45.07029" lon="5.59859">
        <ele>1743</ele>
        <time>2013-01-30T11:13:46Z</time>
      </trkpt>
      <trkpt lat="45.07029" lon="5.59863">
        <ele>1744</ele>
        <time>2013-01-30T11:13:51Z</time>
      </trkpt>
      <trkpt lat="45.0703" lon="5.59865">
        <ele>1744</ele>
        <time>2013-01-30T11:13:56Z</time>
      </trkpt>
      <trkpt lat="45.07031" lon="5.59868">
        <ele>1745</ele>
        <time>2013-01-30T11:14:01Z</time>
      </trkpt>
      <trkpt lat="45.07031" lon="5.59871">
        <ele>1746</ele>
        <time>2013-01-30T11:14:06Z</time>
      </trkpt>
      <trkpt lat="45.07032" lon="5.59874">
        <ele>1746</ele>
        <time>2013-01-30T11:14:11Z</time>
      </trkpt>
      <trkpt lat="45.07032" lon="5.59878">
        <ele>1747</ele>
        <time>2013-01-30T11:14:16Z</time>
      </trkpt>
      <trkpt lat="45.07032" lon="5.59881">
        <ele>1748</ele>
        <time>2013-01-30T11:14:21Z</time>
      </trkpt>
      <trkpt lat="45.07033" lon="5.59884">
        <ele>1748</ele>
        <time>2013-01-30T11:14:26Z</time>
      </trkpt>
      <trkpt lat="45.07034" lon="5.59887">
        <ele>1749</ele>
        <time>2013-01-30T11:14:31Z</time>
      </trkpt>
      <trkpt lat="45.07035" lon="5.59891">
        <ele>1750</ele>
        <time>2013-01-30T11:14:36Z</time>
      </trkpt>
      <trkpt lat="45.07036" lon="5.59895">
        <ele>1750</ele>
        <time>2013-01-30T11:14:41Z</time>
      </trkpt>
      <trkpt lat="45.07036" lon="5.59898">
        <ele>1751</ele>
        <time>2013-01-30T11:14:46Z</time>
      </trkpt>
      <trkpt lat="45.07036" lon="5.59901">
        <ele>1752</ele>
        <time>2013-01-30T11:14:51Z</time>
      </trkpt>
      <trkpt lat="45.07037" lon="5.59904">
        <ele>1752</ele>
        <time>2013-01-30T11:14:56Z</time>
      </trkpt>
      <trkpt lat="45.07037" lon="5.59907">
        <ele>1753</ele>
        <time>2013-01-30T11:15:01Z</time>
      </trkpt>
      <trkpt lat="45.07038" lon="5.5991">
        <ele>1753</ele>
        <time>2013-01-30T11:15:06Z</time>
      </trkpt>
      <trkpt lat="45.07038" lon="5.59912">
        <ele>1754</ele>
        <time>2013-01-30T11:15:11Z</time>
      </trkpt>
      <trkpt lat="45.07039" lon="5.59915">
        <ele>1755</ele>
        <time>2013-01-30T11:15:16Z</time>
      </trkpt>
      <trkpt lat="45.07039" lon="5.59918">
        <ele>1755</ele>
        <time>2013-01-30T11:15:21Z</time>
      </trkpt>
      <trkpt lat="45.0704" lon="5.59921">
        <ele>1756</ele>
        <time>2013-01-30T11:15:26Z</time>
      </trkpt>
      <trkpt lat="45.0704" lon="5.59923">
        <ele>1757</ele>
        <time>2013-01-30T11:15:31Z</time>
      </trkpt>
      <trkpt lat="45.0704" lon="5.59923">
        <ele>1756</ele>
        <time>2013-01-30T11:15:36Z</time>
      </trkpt>
      <trkpt lat="45.0704" lon="5.59923">
        <ele>1756</ele>
        <time>2013-01-30T11:15:41Z</time>
      </trkpt>
      <trkpt lat="45.0704" lon="5.59923">
        <ele>1756</ele>
        <time>2013-01-30T11:15:46Z</time>
      </trkpt>
      <trkpt lat="45.0704" lon="5.59923">
        <ele>1756</ele>
        <time>2013-01-30T11:15:51Z</time>
      </trkpt>
      <trkpt lat="45.0704" lon="5.59923">
        <ele>1756</ele>
        <time>2013-01-30T11:15:56Z</time>
      </trkpt>
      <trkpt lat="45.0704" lon="5.59923">
        <ele>1756</ele>
        <time>2013-01-30T11:16:01Z</time>
      </trkpt>
      <trkpt lat="45.0704" lon="5.59923">
        <ele>1756</ele>
        <time>2013-01-30T11:16:06Z</time>
      </trkpt>
      <trkpt lat="45.0704" lon="5.59923">
        <ele>1756</ele>
        <time>2013-01-30T11:16:11Z</time>
      </trkpt>
      <trkpt lat="45.0704" lon="5.59923">
        <ele>1756</ele>
        <time>2013-01-30T11:16:16Z</time>
      </trkpt>
      <trkpt lat="45.07041" lon="5.59925">
        <ele>1756</ele>
        <time>2013-01-30T11:16:21Z</time>
      </trkpt>
      <trkpt lat="45.07041" lon="5.59929">
        <ele>1757</ele>
        <time>2013-01-30T11:16:26Z</time>
      </trkpt>
      <trkpt lat="45.07042" lon="5.59933">
        <ele>1758</ele>
        <time>2013-01-30T11:16:31Z</time>
      </trkpt>
      <trkpt lat="45.07042" lon="5.59936">
        <ele>1759</ele>
        <time>2013-01-30T11:16:36Z</time>
      </trkpt>
      <trkpt lat="45.07043" lon="5.5994">
        <ele>1760</ele>
        <time>2013-01-30T11:16:41Z</time>
      </trkpt>
      <trkpt lat="45.07044" lon="5.59943">
        <ele>1761</ele>
        <time>2013-01-30T11:16:46Z</time>
      </trkpt>
      <trkpt lat="45.07045" lon="5.59947">
        <ele>1762</ele>
        <time>2013-01-30T11:16:51Z</time>
      </trkpt>
      <trkpt lat="45.07046" lon="5.5995">
        <ele>1762</ele>
        <time>2013-01-30T11:16:56Z</time>
      </trkpt>
      <trkpt lat="45.07047" lon="5.59953">
        <ele>1763</ele>
        <time>2013-01-30T11:17:01Z</time>
      </trkpt>
      <trkpt lat="45.07048" lon="5.59957">
        <ele>1764</ele>
        <time>2013-01-30T11:17:06Z</time>
      </trkpt>
      <trkpt lat="45.07049" lon="5.5996">
        <ele>1765</ele>
        <time>2013-01-30T11:17:11Z</time>
      </trkpt>
      <trkpt lat="45.0705" lon="5.59964">
        <ele>1766</ele>
        <time>2013-01-30T11:17:16Z</time>
      </trkpt>
      <trkpt lat="45.07052" lon="5.59967">
        <ele>1766</ele>
        <time>2013-01-30T11:17:21Z</time>
      </trkpt>
      <trkpt lat="45.07052" lon="5.5997">
        <ele>1767</ele>
        <time>2013-01-30T11:17:26Z</time>
      </trkpt>
      <trkpt lat="45.07053" lon="5.59973">
        <ele>1768</ele>
        <time>2013-01-30T11:17:31Z</time>
      </trkpt>
      <trkpt lat="45.07055" lon="5.59976">
        <ele>1769</ele>
        <time>2013-01-30T11:17:36Z</time>
      </trkpt>
      <trkpt lat="45.07055" lon="5.59979">
        <ele>1769</ele>
        <time>2013-01-30T11:17:41Z</time>
      </trkpt>
      <trkpt lat="45.07057" lon="5.59982">
        <ele>1770</ele>
        <time>2013-01-30T11:17:46Z</time>
      </trkpt>
      <trkpt lat="45.07058" lon="5.59985">
        <ele>1771</ele>
        <time>2013-01-30T11:17:51Z</time>
      </trkpt>
      <trkpt lat="45.07058" lon="5.59989">
        <ele>1771</ele>
        <time>2013-01-30T11:17:56Z</time>
      </trkpt>
      <trkpt lat="45.0706" lon="5.59992">
        <ele>1772</ele>
        <time>2013-01-30T11:18:01Z</time>
      </trkpt>
      <trkpt lat="45.07061" lon="5.59995">
        <ele>1773</ele>
        <time>2013-01-30T11:18:06Z</time>
      </trkpt>
      <trkpt lat="45.0706" lon="5.59996">
        <ele>1773</ele>
        <time>2013-01-30T11:18:11Z</time>
      </trkpt>
      <trkpt lat="45.07057" lon="5.59995">
        <ele>1774</ele>
        <time>2013-01-30T11:18:16Z</time>
      </trkpt>
      <trkpt lat="45.07054" lon="5.59995">
        <ele>1774</ele>
        <time>2013-01-30T11:18:21Z</time>
      </trkpt>
      <trkpt lat="45.07052" lon="5.59995">
        <ele>1775</ele>
        <time>2013-01-30T11:18:26Z</time>
      </trkpt>
      <trkpt lat="45.07049" lon="5.59995">
        <ele>1776</ele>
        <time>2013-01-30T11:18:31Z</time>
      </trkpt>
      <trkpt lat="45.07047" lon="5.59995">
        <ele>1777</ele>
        <time>2013-01-30T11:18:36Z</time>
      </trkpt>
      <trkpt lat="45.07044" lon="5.59995">
        <ele>1777</ele>
        <time>2013-01-30T11:18:41Z</time>
      </trkpt>
      <trkpt lat="45.07041" lon="5.59995">
        <ele>1778</ele>
        <time>2013-01-30T11:18:46Z</time>
      </trkpt>
      <trkpt lat="45.07039" lon="5.59996">
        <ele>1779</ele>
        <time>2013-01-30T11:18:51Z</time>
      </trkpt>
      <trkpt lat="45.07036" lon="5.59996">
        <ele>1780</ele>
        <time>2013-01-30T11:18:56Z</time>
      </trkpt>
      <trkpt lat="45.07033" lon="5.59997">
        <ele>1780</ele>
        <time>2013-01-30T11:19:01Z</time>
      </trkpt>
      <trkpt lat="45.07031" lon="5.59997">
        <ele>1781</ele>
        <time>2013-01-30T11:19:06Z</time>
      </trkpt>
      <trkpt lat="45.07029" lon="5.59997">
        <ele>1782</ele>
        <time>2013-01-30T11:19:11Z</time>
      </trkpt>
      <trkpt lat="45.07026" lon="5.59997">
        <ele>1783</ele>
        <time>2013-01-30T11:19:16Z</time>
      </trkpt>
      <trkpt lat="45.07023" lon="5.59997">
        <ele>1783</ele>
        <time>2013-01-30T11:19:21Z</time>
      </trkpt>
      <trkpt lat="45.0702" lon="5.59997">
        <ele>1784</ele>
        <time>2013-01-30T11:19:26Z</time>
      </trkpt>
      <trkpt lat="45.07018" lon="5.59997">
        <ele>1785</ele>
        <time>2013-01-30T11:19:31Z</time>
      </trkpt>
      <trkpt lat="45.07015" lon="5.59997">
        <ele>1786</ele>
        <time>2013-01-30T11:19:36Z</time>
      </trkpt>
      <trkpt lat="45.07013" lon="5.59996">
        <ele>1786</ele>
        <time>2013-01-30T11:19:41Z</time>
      </trkpt>
      <trkpt lat="45.07011" lon="5.59996">
        <ele>1787</ele>
        <time>2013-01-30T11:19:46Z</time>
      </trkpt>
      <trkpt lat="45.07008" lon="5.59995">
        <ele>1787</ele>
        <time>2013-01-30T11:19:51Z</time>
      </trkpt>
      <trkpt lat="45.07005" lon="5.59994">
        <ele>1788</ele>
        <time>2013-01-30T11:19:56Z</time>
      </trkpt>
      <trkpt lat="45.07003" lon="5.59993">
        <ele>1788</ele>
        <time>2013-01-30T11:20:01Z</time>
      </trkpt>
      <trkpt lat="45.07003" lon="5.59996">
        <ele>1789</ele>
        <time>2013-01-30T11:20:06Z</time>
      </trkpt>
      <trkpt lat="45.07005" lon="5.59999">
        <ele>1790</ele>
        <time>2013-01-30T11:20:11Z</time>
      </trkpt>
      <trkpt lat="45.07006" lon="5.60002">
        <ele>1790</ele>
        <time>2013-01-30T11:20:16Z</time>
      </trkpt>
      <trkpt lat="45.07008" lon="5.60005">
        <ele>1791</ele>
        <time>2013-01-30T11:20:21Z</time>
      </trkpt>
      <trkpt lat="45.0701" lon="5.60009">
        <ele>1791</ele>
        <time>2013-01-30T11:20:26Z</time>
      </trkpt>
      <trkpt lat="45.07012" lon="5.60013">
        <ele>1792</ele>
        <time>2013-01-30T11:20:31Z</time>
      </trkpt>
      <trkpt lat="45.07013" lon="5.60015">
        <ele>1792</ele>
        <time>2013-01-30T11:20:36Z</time>
      </trkpt>
      <trkpt lat="45.07015" lon="5.60019">
        <ele>1793</ele>
        <time>2013-01-30T11:20:41Z</time>
      </trkpt>
      <trkpt lat="45.07016" lon="5.60022">
        <ele>1793</ele>
        <time>2013-01-30T11:20:46Z</time>
      </trkpt>
      <trkpt lat="45.07018" lon="5.60025">
        <ele>1794</ele>
        <time>2013-01-30T11:20:51Z</time>
      </trkpt>
      <trkpt lat="45.07019" lon="5.60028">
        <ele>1795</ele>
        <time>2013-01-30T11:20:56Z</time>
      </trkpt>
      <trkpt lat="45.07017" lon="5.60028">
        <ele>1795</ele>
        <time>2013-01-30T11:21:01Z</time>
      </trkpt>
      <trkpt lat="45.07015" lon="5.60028">
        <ele>1796</ele>
        <time>2013-01-30T11:21:06Z</time>
      </trkpt>
      <trkpt lat="45.07012" lon="5.60029">
        <ele>1796</ele>
        <time>2013-01-30T11:21:11Z</time>
      </trkpt>
      <trkpt lat="45.0701" lon="5.60029">
        <ele>1797</ele>
        <time>2013-01-30T11:21:16Z</time>
      </trkpt>
      <trkpt lat="45.07007" lon="5.6003">
        <ele>1798</ele>
        <time>2013-01-30T11:21:21Z</time>
      </trkpt>
      <trkpt lat="45.07005" lon="5.60031">
        <ele>1798</ele>
        <time>2013-01-30T11:21:26Z</time>
      </trkpt>
      <trkpt lat="45.07002" lon="5.60031">
        <ele>1799</ele>
        <time>2013-01-30T11:21:31Z</time>
      </trkpt>
      <trkpt lat="45.06999" lon="5.60032">
        <ele>1800</ele>
        <time>2013-01-30T11:21:36Z</time>
      </trkpt>
      <trkpt lat="45.06996" lon="5.60032">
        <ele>1801</ele>
        <time>2013-01-30T11:21:41Z</time>
      </trkpt>
      <trkpt lat="45.06994" lon="5.60033">
        <ele>1801</ele>
        <time>2013-01-30T11:21:46Z</time>
      </trkpt>
      <trkpt lat="45.06991" lon="5.60033">
        <ele>1802</ele>
        <time>2013-01-30T11:21:51Z</time>
      </trkpt>
      <trkpt lat="45.06988" lon="5.60034">
        <ele>1803</ele>
        <time>2013-01-30T11:21:56Z</time>
      </trkpt>
      <trkpt lat="45.06985" lon="5.60034">
        <ele>1803</ele>
        <time>2013-01-30T11:22:01Z</time>
      </trkpt>
      <trkpt lat="45.06983" lon="5.60034">
        <ele>1804</ele>
        <time>2013-01-30T11:22:06Z</time>
      </trkpt>
      <trkpt lat="45.06981" lon="5.60035">
        <ele>1805</ele>
        <time>2013-01-30T11:22:11Z</time>
      </trkpt>
      <trkpt lat="45.06983" lon="5.60038">
        <ele>1806</ele>
        <time>2013-01-30T11:22:16Z</time>
      </trkpt>
      <trkpt lat="45.06984" lon="5.60042">
        <ele>1806</ele>
        <time>2013-01-30T11:22:21Z</time>
      </trkpt>
      <trkpt lat="45.06986" lon="5.60044">
        <ele>1807</ele>
        <time>2013-01-30T11:22:26Z</time>
      </trkpt>
      <trkpt lat="45.06987" lon="5.60047">
        <ele>1807</ele>
        <time>2013-01-30T11:22:31Z</time>
      </trkpt>
      <trkpt lat="45.06989" lon="5.6005">
        <ele>1808</ele>
        <time>2013-01-30T11:22:36Z</time>
      </trkpt>
      <trkpt lat="45.0699" lon="5.60052">
        <ele>1809</ele>
        <time>2013-01-30T11:22:41Z</time>
      </trkpt>
      <trkpt lat="45.06991" lon="5.60055">
        <ele>1809</ele>
        <time>2013-01-30T11:22:46Z</time>
      </trkpt>
      <trkpt lat="45.06993" lon="5.60058">
        <ele>1810</ele>
        <time>2013-01-30T11:22:51Z</time>
      </trkpt>
      <trkpt lat="45.06995" lon="5.60061">
        <ele>1811</ele>
        <time>2013-01-30T11:22:56Z</time>
      </trkpt>
      <trkpt lat="45.06996" lon="5.60064">
        <ele>1811</ele>
        <time>2013-01-30T11:23:01Z</time>
      </trkpt>
      <trkpt lat="45.06998" lon="5.60066">
        <ele>1812</ele>
        <time>2013-01-30T11:23:06Z</time>
      </trkpt>
      <trkpt lat="45.06999" lon="5.60069">
        <ele>1812</ele>
        <time>2013-01-30T11:23:11Z</time>
      </trkpt>
      <trkpt lat="45.07001" lon="5.60072">
        <ele>1813</ele>
        <time>2013-01-30T11:23:16Z</time>
      </trkpt>
      <trkpt lat="45.07003" lon="5.60075">
        <ele>1813</ele>
        <time>2013-01-30T11:23:21Z</time>
      </trkpt>
      <trkpt lat="45.07002" lon="5.60076">
        <ele>1814</ele>
        <time>2013-01-30T11:23:26Z</time>
      </trkpt>
      <trkpt lat="45.07" lon="5.60076">
        <ele>1814</ele>
        <time>2013-01-30T11:23:31Z</time>
      </trkpt>
      <trkpt lat="45.06998" lon="5.60076">
        <ele>1815</ele>
        <time>2013-01-30T11:23:36Z</time>
      </trkpt>
      <trkpt lat="45.06995" lon="5.60077">
        <ele>1816</ele>
        <time>2013-01-30T11:23:41Z</time>
      </trkpt>
      <trkpt lat="45.06995" lon="5.60077">
        <ele>1816</ele>
        <time>2013-01-30T11:23:46Z</time>
      </trkpt>
      <trkpt lat="45.06995" lon="5.60077">
        <ele>1816</ele>
        <time>2013-01-30T11:23:51Z</time>
      </trkpt>
      <trkpt lat="45.06995" lon="5.60077">
        <ele>1816</ele>
        <time>2013-01-30T11:23:56Z</time>
      </trkpt>
      <trkpt lat="45.06995" lon="5.60077">
        <ele>1816</ele>
        <time>2013-01-30T11:24:01Z</time>
      </trkpt>
      <trkpt lat="45.06995" lon="5.60077">
        <ele>1816</ele>
        <time>2013-01-30T11:24:06Z</time>
      </trkpt>
      <trkpt lat="45.06995" lon="5.60077">
        <ele>1816</ele>
        <time>2013-01-30T11:24:11Z</time>
      </trkpt>
      <trkpt lat="45.06995" lon="5.60077">
        <ele>1816</ele>
        <time>2013-01-30T11:24:16Z</time>
      </trkpt>
      <trkpt lat="45.06995" lon="5.60077">
        <ele>1816</ele>
        <time>2013-01-30T11:24:21Z</time>
      </trkpt>
      <trkpt lat="45.06995" lon="5.60077">
        <ele>1816</ele>
        <time>2013-01-30T11:24:26Z</time>
      </trkpt>
      <trkpt lat="45.06995" lon="5.60077">
        <ele>1816</ele>
        <time>2013-01-30T11:24:31Z</time>
      </trkpt>
      <trkpt lat="45.06995" lon="5.60077">
        <ele>1816</ele>
        <time>2013-01-30T11:24:36Z</time>
      </trkpt>
      <trkpt lat="45.06993" lon="5.60077">
        <ele>1816</ele>
        <time>2013-01-30T11:24:41Z</time>
      </trkpt>
      <trkpt lat="45.06993" lon="5.60077">
        <ele>1816</ele>
        <time>2013-01-30T11:24:46Z</time>
      </trkpt>
      <trkpt lat="45.06992" lon="5.60077">
        <ele>1817</ele>
        <time>2013-01-30T11:24:51Z</time>
      </trkpt>
      <trkpt lat="45.06989" lon="5.60078">
        <ele>1817</ele>
        <time>2013-01-30T11:24:56Z</time>
      </trkpt>
      <trkpt lat="45.06987" lon="5.60078">
        <ele>1818</ele>
        <time>2013-01-30T11:25:01Z</time>
      </trkpt>
      <trkpt lat="45.06983" lon="5.60078">
        <ele>1819</ele>
        <time>2013-01-30T11:25:06Z</time>
      </trkpt>
      <trkpt lat="45.0698" lon="5.60079">
        <ele>1819</ele>
        <time>2013-01-30T11:25:11Z</time>
      </trkpt>
      <trkpt lat="45.0698" lon="5.6008">
        <ele>1819</ele>
        <time>2013-01-30T11:25:16Z</time>
      </trkpt>
      <trkpt lat="45.06982" lon="5.60083">
        <ele>1820</ele>
        <time>2013-01-30T11:25:21Z</time>
      </trkpt>
      <trkpt lat="45.06983" lon="5.60086">
        <ele>1821</ele>
        <time>2013-01-30T11:25:26Z</time>
      </trkpt>
      <trkpt lat="45.06984" lon="5.60089">
        <ele>1822</ele>
        <time>2013-01-30T11:25:31Z</time>
      </trkpt>
      <trkpt lat="45.06986" lon="5.60091">
        <ele>1822</ele>
        <time>2013-01-30T11:25:36Z</time>
      </trkpt>
      <trkpt lat="45.06987" lon="5.60094">
        <ele>1823</ele>
        <time>2013-01-30T11:25:41Z</time>
      </trkpt>
      <trkpt lat="45.06988" lon="5.60097">
        <ele>1824</ele>
        <time>2013-01-30T11:25:46Z</time>
      </trkpt>
      <trkpt lat="45.0699" lon="5.601">
        <ele>1825</ele>
        <time>2013-01-30T11:25:51Z</time>
      </trkpt>
      <trkpt lat="45.06992" lon="5.60103">
        <ele>1826</ele>
        <time>2013-01-30T11:25:56Z</time>
      </trkpt>
      <trkpt lat="45.06993" lon="5.60105">
        <ele>1826</ele>
        <time>2013-01-30T11:26:01Z</time>
      </trkpt>
      <trkpt lat="45.06994" lon="5.60108">
        <ele>1827</ele>
        <time>2013-01-30T11:26:06Z</time>
      </trkpt>
      <trkpt lat="45.06996" lon="5.60111">
        <ele>1828</ele>
        <time>2013-01-30T11:26:11Z</time>
      </trkpt>
      <trkpt lat="45.06997" lon="5.60114">
        <ele>1829</ele>
        <time>2013-01-30T11:26:16Z</time>
      </trkpt>
      <trkpt lat="45.06999" lon="5.60116">
        <ele>1830</ele>
        <time>2013-01-30T11:26:21Z</time>
      </trkpt>
      <trkpt lat="45.07" lon="5.60119">
        <ele>1831</ele>
        <time>2013-01-30T11:26:26Z</time>
      </trkpt>
      <trkpt lat="45.07002" lon="5.60122">
        <ele>1831</ele>
        <time>2013-01-30T11:26:31Z</time>
      </trkpt>
      <trkpt lat="45.07003" lon="5.60126">
        <ele>1832</ele>
        <time>2013-01-30T11:26:36Z</time>
      </trkpt>
      <trkpt lat="45.07005" lon="5.60129">
        <ele>1833</ele>
        <time>2013-01-30T11:26:41Z</time>
      </trkpt>
      <trkpt lat="45.07006" lon="5.60132">
        <ele>1834</ele>
        <time>2013-01-30T11:26:46Z</time>
      </trkpt>
      <trkpt lat="45.07007" lon="5.60135">
        <ele>1834</ele>
        <time>2013-01-30T11:26:51Z</time>
      </trkpt>
      <trkpt lat="45.07008" lon="5.60139">
        <ele>1835</ele>
        <time>2013-01-30T11:26:56Z</time>
      </trkpt>
      <trkpt lat="45.0701" lon="5.60142">
        <ele>1836</ele>
        <time>2013-01-30T11:27:01Z</time>
      </trkpt>
      <trkpt lat="45.07011" lon="5.60145">
        <ele>1837</ele>
        <time>2013-01-30T11:27:06Z</time>
      </trkpt>
      <trkpt lat="45.07012" lon="5.60148">
        <ele>1838</ele>
        <time>2013-01-30T11:27:11Z</time>
      </trkpt>
      <trkpt lat="45.07014" lon="5.60151">
        <ele>1839</ele>
        <time>2013-01-30T11:27:16Z</time>
      </trkpt>
      <trkpt lat="45.07015" lon="5.60155">
        <ele>1840</ele>
        <time>2013-01-30T11:27:21Z</time>
      </trkpt>
      <trkpt lat="45.07016" lon="5.60158">
        <ele>1840</ele>
        <time>2013-01-30T11:27:26Z</time>
      </trkpt>
      <trkpt lat="45.07017" lon="5.60161">
        <ele>1841</ele>
        <time>2013-01-30T11:27:31Z</time>
      </trkpt>
      <trkpt lat="45.07019" lon="5.60164">
        <ele>1842</ele>
        <time>2013-01-30T11:27:36Z</time>
      </trkpt>
      <trkpt lat="45.0702" lon="5.60167">
        <ele>1843</ele>
        <time>2013-01-30T11:27:41Z</time>
      </trkpt>
      <trkpt lat="45.07021" lon="5.6017">
        <ele>1843</ele>
        <time>2013-01-30T11:27:46Z</time>
      </trkpt>
      <trkpt lat="45.07023" lon="5.60173">
        <ele>1844</ele>
        <time>2013-01-30T11:27:51Z</time>
      </trkpt>
      <trkpt lat="45.07023" lon="5.60176">
        <ele>1845</ele>
        <time>2013-01-30T11:27:56Z</time>
      </trkpt>
      <trkpt lat="45.07025" lon="5.60179">
        <ele>1846</ele>
        <time>2013-01-30T11:28:01Z</time>
      </trkpt>
      <trkpt lat="45.07026" lon="5.60182">
        <ele>1846</ele>
        <time>2013-01-30T11:28:06Z</time>
      </trkpt>
      <trkpt lat="45.07027" lon="5.60185">
        <ele>1847</ele>
        <time>2013-01-30T11:28:11Z</time>
      </trkpt>
      <trkpt lat="45.07028" lon="5.60187">
        <ele>1848</ele>
        <time>2013-01-30T11:28:16Z</time>
      </trkpt>
      <trkpt lat="45.07029" lon="5.6019">
        <ele>1849</ele>
        <time>2013-01-30T11:28:21Z</time>
      </trkpt>
      <trkpt lat="45.0703" lon="5.60193">
        <ele>1849</ele>
        <time>2013-01-30T11:28:26Z</time>
      </trkpt>
      <trkpt lat="45.07031" lon="5.60196">
        <ele>1850</ele>
        <time>2013-01-30T11:28:31Z</time>
      </trkpt>
      <trkpt lat="45.07032" lon="5.60199">
        <ele>1851</ele>
        <time>2013-01-30T11:28:36Z</time>
      </trkpt>
      <trkpt lat="45.07034" lon="5.60202">
        <ele>1852</ele>
        <time>2013-01-30T11:28:41Z</time>
      </trkpt>
      <trkpt lat="45.07035" lon="5.60205">
        <ele>1852</ele>
        <time>2013-01-30T11:28:46Z</time>
      </trkpt>
      <trkpt lat="45.07036" lon="5.60208">
        <ele>1853</ele>
        <time>2013-01-30T11:28:51Z</time>
      </trkpt>
      <trkpt lat="45.07037" lon="5.60211">
        <ele>1854</ele>
        <time>2013-01-30T11:28:56Z</time>
      </trkpt>
      <trkpt lat="45.07039" lon="5.60214">
        <ele>1855</ele>
        <time>2013-01-30T11:29:01Z</time>
      </trkpt>
      <trkpt lat="45.0704" lon="5.60217">
        <ele>1855</ele>
        <time>2013-01-30T11:29:06Z</time>
      </trkpt>
      <trkpt lat="45.07042" lon="5.6022">
        <ele>1856</ele>
        <time>2013-01-30T11:29:11Z</time>
      </trkpt>
      <trkpt lat="45.07043" lon="5.60223">
        <ele>1857</ele>
        <time>2013-01-30T11:29:16Z</time>
      </trkpt>
      <trkpt lat="45.07044" lon="5.60226">
        <ele>1857</ele>
        <time>2013-01-30T11:29:21Z</time>
      </trkpt>
      <trkpt lat="45.07045" lon="5.6023">
        <ele>1858</ele>
        <time>2013-01-30T11:29:26Z</time>
      </trkpt>
      <trkpt lat="45.07046" lon="5.60233">
        <ele>1859</ele>
        <time>2013-01-30T11:29:31Z</time>
      </trkpt>
      <trkpt lat="45.07047" lon="5.60236">
        <ele>1859</ele>
        <time>2013-01-30T11:29:36Z</time>
      </trkpt>
      <trkpt lat="45.07048" lon="5.60239">
        <ele>1860</ele>
        <time>2013-01-30T11:29:41Z</time>
      </trkpt>
      <trkpt lat="45.07048" lon="5.6024">
        <ele>1860</ele>
        <time>2013-01-30T11:29:46Z</time>
      </trkpt>
      <trkpt lat="45.07048" lon="5.6024">
        <ele>1860</ele>
        <time>2013-01-30T11:29:51Z</time>
      </trkpt>
      <trkpt lat="45.07048" lon="5.6024">
        <ele>1860</ele>
        <time>2013-01-30T11:29:56Z</time>
      </trkpt>
      <trkpt lat="45.07047" lon="5.6024">
        <ele>1861</ele>
        <time>2013-01-30T11:30:01Z</time>
      </trkpt>
      <trkpt lat="45.07045" lon="5.6024">
        <ele>1861</ele>
        <time>2013-01-30T11:30:06Z</time>
      </trkpt>
      <trkpt lat="45.07042" lon="5.6024">
        <ele>1862</ele>
        <time>2013-01-30T11:30:11Z</time>
      </trkpt>
      <trkpt lat="45.07039" lon="5.6024">
        <ele>1863</ele>
        <time>2013-01-30T11:30:16Z</time>
      </trkpt>
      <trkpt lat="45.07037" lon="5.6024">
        <ele>1863</ele>
        <time>2013-01-30T11:30:21Z</time>
      </trkpt>
      <trkpt lat="45.07034" lon="5.6024">
        <ele>1864</ele>
        <time>2013-01-30T11:30:26Z</time>
      </trkpt>
      <trkpt lat="45.07031" lon="5.6024">
        <ele>1865</ele>
        <time>2013-01-30T11:30:31Z</time>
      </trkpt>
      <trkpt lat="45.07029" lon="5.6024">
        <ele>1866</ele>
        <time>2013-01-30T11:30:36Z</time>
      </trkpt>
      <trkpt lat="45.07026" lon="5.60239">
        <ele>1867</ele>
        <time>2013-01-30T11:30:41Z</time>
      </trkpt>
      <trkpt lat="45.07023" lon="5.6024">
        <ele>1868</ele>
        <time>2013-01-30T11:30:46Z</time>
      </trkpt>
      <trkpt lat="45.0702" lon="5.6024">
        <ele>1868</ele>
        <time>2013-01-30T11:30:51Z</time>
      </trkpt>
      <trkpt lat="45.07017" lon="5.6024">
        <ele>1869</ele>
        <time>2013-01-30T11:30:56Z</time>
      </trkpt>
      <trkpt lat="45.07015" lon="5.6024">
        <ele>1870</ele>
        <time>2013-01-30T11:31:01Z</time>
      </trkpt>
      <trkpt lat="45.07012" lon="5.60241">
        <ele>1870</ele>
        <time>2013-01-30T11:31:06Z</time>
      </trkpt>
      <trkpt lat="45.0701" lon="5.60241">
        <ele>1871</ele>
        <time>2013-01-30T11:31:11Z</time>
      </trkpt>
      <trkpt lat="45.07007" lon="5.60242">
        <ele>1872</ele>
        <time>2013-01-30T11:31:16Z</time>
      </trkpt>
      <trkpt lat="45.07004" lon="5.60242">
        <ele>1873</ele>
        <time>2013-01-30T11:31:21Z</time>
      </trkpt>
      <trkpt lat="45.07002" lon="5.60243">
        <ele>1873</ele>
        <time>2013-01-30T11:31:26Z</time>
      </trkpt>
      <trkpt lat="45.07" lon="5.60243">
        <ele>1874</ele>
        <time>2013-01-30T11:31:31Z</time>
      </trkpt>
      <trkpt lat="45.06997" lon="5.60243">
        <ele>1875</ele>
        <time>2013-01-30T11:31:36Z</time>
      </trkpt>
      <trkpt lat="45.06994" lon="5.60244">
        <ele>1875</ele>
        <time>2013-01-30T11:31:41Z</time>
      </trkpt>
      <trkpt lat="45.06991" lon="5.60244">
        <ele>1876</ele>
        <time>2013-01-30T11:31:46Z</time>
      </trkpt>
      <trkpt lat="45.06989" lon="5.60245">
        <ele>1877</ele>
        <time>2013-01-30T11:31:51Z</time>
      </trkpt>
      <trkpt lat="45.06986" lon="5.60246">
        <ele>1877</ele>
        <time>2013-01-30T11:31:56Z</time>
      </trkpt>
      <trkpt lat="45.06983" lon="5.60247">
        <ele>1878</ele>
        <time>2013-01-30T11:32:01Z</time>
      </trkpt>
      <trkpt lat="45.06981" lon="5.60248">
        <ele>1879</ele>
        <time>2013-01-30T11:32:06Z</time>
      </trkpt>
      <trkpt lat="45.06979" lon="5.60249">
        <ele>1879</ele>
        <time>2013-01-30T11:32:11Z</time>
      </trkpt>
      <trkpt lat="45.06977" lon="5.6025">
        <ele>1880</ele>
        <time>2013-01-30T11:32:16Z</time>
      </trkpt>
      <trkpt lat="45.06975" lon="5.60251">
        <ele>1880</ele>
        <time>2013-01-30T11:32:21Z</time>
      </trkpt>
      <trkpt lat="45.06973" lon="5.60252">
        <ele>1881</ele>
        <time>2013-01-30T11:32:26Z</time>
      </trkpt>
      <trkpt lat="45.0697" lon="5.60254">
        <ele>1882</ele>
        <time>2013-01-30T11:32:31Z</time>
      </trkpt>
      <trkpt lat="45.06969" lon="5.60255">
        <ele>1883</ele>
        <time>2013-01-30T11:32:36Z</time>
      </trkpt>
      <trkpt lat="45.06966" lon="5.60257">
        <ele>1883</ele>
        <time>2013-01-30T11:32:41Z</time>
      </trkpt>
      <trkpt lat="45.06964" lon="5.60258">
        <ele>1884</ele>
        <time>2013-01-30T11:32:46Z</time>
      </trkpt>
      <trkpt lat="45.06962" lon="5.60259">
        <ele>1885</ele>
        <time>2013-01-30T11:32:51Z</time>
      </trkpt>
      <trkpt lat="45.06962" lon="5.60259">
        <ele>1885</ele>
        <time>2013-01-30T11:32:56Z</time>
      </trkpt>
      <trkpt lat="45.06962" lon="5.60259">
        <ele>1885</ele>
        <time>2013-01-30T11:33:01Z</time>
      </trkpt>
      <trkpt lat="45.06963" lon="5.6026">
        <ele>1885</ele>
        <time>2013-01-30T11:33:06Z</time>
      </trkpt>
      <trkpt lat="45.06964" lon="5.60262">
        <ele>1886</ele>
        <time>2013-01-30T11:33:11Z</time>
      </trkpt>
      <trkpt lat="45.06966" lon="5.60264">
        <ele>1887</ele>
        <time>2013-01-30T11:33:16Z</time>
      </trkpt>
      <trkpt lat="45.06967" lon="5.60266">
        <ele>1887</ele>
        <time>2013-01-30T11:33:21Z</time>
      </trkpt>
      <trkpt lat="45.06969" lon="5.60268">
        <ele>1888</ele>
        <time>2013-01-30T11:33:26Z</time>
      </trkpt>
      <trkpt lat="45.0697" lon="5.6027">
        <ele>1889</ele>
        <time>2013-01-30T11:33:31Z</time>
      </trkpt>
      <trkpt lat="45.06972" lon="5.60272">
        <ele>1890</ele>
        <time>2013-01-30T11:33:36Z</time>
      </trkpt>
      <trkpt lat="45.06974" lon="5.60274">
        <ele>1891</ele>
        <time>2013-01-30T11:33:41Z</time>
      </trkpt>
      <trkpt lat="45.06976" lon="5.60276">
        <ele>1891</ele>
        <time>2013-01-30T11:33:46Z</time>
      </trkpt>
      <trkpt lat="45.06977" lon="5.60279">
        <ele>1892</ele>
        <time>2013-01-30T11:33:51Z</time>
      </trkpt>
      <trkpt lat="45.06979" lon="5.60281">
        <ele>1893</ele>
        <time>2013-01-30T11:33:56Z</time>
      </trkpt>
      <trkpt lat="45.06981" lon="5.60283">
        <ele>1894</ele>
        <time>2013-01-30T11:34:01Z</time>
      </trkpt>
      <trkpt lat="45.06983" lon="5.60285">
        <ele>1895</ele>
        <time>2013-01-30T11:34:06Z</time>
      </trkpt>
      <trkpt lat="45.06984" lon="5.60288">
        <ele>1895</ele>
        <time>2013-01-30T11:34:11Z</time>
      </trkpt>
      <trkpt lat="45.06986" lon="5.6029">
        <ele>1896</ele>
        <time>2013-01-30T11:34:16Z</time>
      </trkpt>
      <trkpt lat="45.06987" lon="5.60293">
        <ele>1897</ele>
        <time>2013-01-30T11:34:21Z</time>
      </trkpt>
      <trkpt lat="45.06989" lon="5.60294">
        <ele>1897</ele>
        <time>2013-01-30T11:34:26Z</time>
      </trkpt>
      <trkpt lat="45.0699" lon="5.60296">
        <ele>1898</ele>
        <time>2013-01-30T11:34:31Z</time>
      </trkpt>
      <trkpt lat="45.06992" lon="5.60299">
        <ele>1898</ele>
        <time>2013-01-30T11:34:36Z</time>
      </trkpt>
      <trkpt lat="45.06993" lon="5.60302">
        <ele>1899</ele>
        <time>2013-01-30T11:34:41Z</time>
      </trkpt>
      <trkpt lat="45.06995" lon="5.60305">
        <ele>1899</ele>
        <time>2013-01-30T11:34:46Z</time>
      </trkpt>
      <trkpt lat="45.06998" lon="5.60308">
        <ele>1900</ele>
        <time>2013-01-30T11:34:51Z</time>
      </trkpt>
      <trkpt lat="45.07002" lon="5.60311">
        <ele>1900</ele>
        <time>2013-01-30T11:34:56Z</time>
      </trkpt>
      <trkpt lat="45.07004" lon="5.60314">
        <ele>1901</ele>
        <time>2013-01-30T11:35:01Z</time>
      </trkpt>
      <trkpt lat="45.07006" lon="5.60316">
        <ele>1901</ele>
        <time>2013-01-30T11:35:06Z</time>
      </trkpt>
      <trkpt lat="45.07009" lon="5.60319">
        <ele>1902</ele>
        <time>2013-01-30T11:35:11Z</time>
      </trkpt>
      <trkpt lat="45.07011" lon="5.60321">
        <ele>1902</ele>
        <time>2013-01-30T11:35:16Z</time>
      </trkpt>
      <trkpt lat="45.07013" lon="5.60323">
        <ele>1902</ele>
        <time>2013-01-30T11:35:21Z</time>
      </trkpt>
      <trkpt lat="45.07015" lon="5.60326">
        <ele>1903</ele>
        <time>2013-01-30T11:35:26Z</time>
      </trkpt>
      <trkpt lat="45.07016" lon="5.60329">
        <ele>1904</ele>
        <time>2013-01-30T11:35:31Z</time>
      </trkpt>
      <trkpt lat="45.07018" lon="5.60333">
        <ele>1904</ele>
        <time>2013-01-30T11:35:36Z</time>
      </trkpt>
      <trkpt lat="45.07019" lon="5.60336">
        <ele>1905</ele>
        <time>2013-01-30T11:35:41Z</time>
      </trkpt>
      <trkpt lat="45.07021" lon="5.60339">
        <ele>1905</ele>
        <time>2013-01-30T11:35:46Z</time>
      </trkpt>
      <trkpt lat="45.07022" lon="5.60342">
        <ele>1906</ele>
        <time>2013-01-30T11:35:51Z</time>
      </trkpt>
      <trkpt lat="45.07023" lon="5.60344">
        <ele>1906</ele>
        <time>2013-01-30T11:35:56Z</time>
      </trkpt>
      <trkpt lat="45.07023" lon="5.60344">
        <ele>1906</ele>
        <time>2013-01-30T11:36:01Z</time>
      </trkpt>
      <trkpt lat="45.07023" lon="5.60344">
        <ele>1906</ele>
        <time>2013-01-30T11:36:06Z</time>
      </trkpt>
      <trkpt lat="45.07023" lon="5.60344">
        <ele>1906</ele>
        <time>2013-01-30T11:36:11Z</time>
      </trkpt>
      <trkpt lat="45.07023" lon="5.60344">
        <ele>1906</ele>
        <time>2013-01-30T11:36:16Z</time>
      </trkpt>
      <trkpt lat="45.07023" lon="5.60344">
        <ele>1906</ele>
        <time>2013-01-30T11:36:21Z</time>
      </trkpt>
      <trkpt lat="45.07022" lon="5.60344">
        <ele>1906</ele>
        <time>2013-01-30T11:36:26Z</time>
      </trkpt>
      <trkpt lat="45.07019" lon="5.60343">
        <ele>1907</ele>
        <time>2013-01-30T11:36:31Z</time>
      </trkpt>
      <trkpt lat="45.07016" lon="5.60342">
        <ele>1908</ele>
        <time>2013-01-30T11:36:36Z</time>
      </trkpt>
      <trkpt lat="45.07015" lon="5.60341">
        <ele>1908</ele>
        <time>2013-01-30T11:36:41Z</time>
      </trkpt>
      <trkpt lat="45.07013" lon="5.6034">
        <ele>1908</ele>
        <time>2013-01-30T11:36:46Z</time>
      </trkpt>
      <trkpt lat="45.0701" lon="5.60339">
        <ele>1909</ele>
        <time>2013-01-30T11:36:51Z</time>
      </trkpt>
      <trkpt lat="45.07007" lon="5.60338">
        <ele>1910</ele>
        <time>2013-01-30T11:36:56Z</time>
      </trkpt>
      <trkpt lat="45.07004" lon="5.60338">
        <ele>1910</ele>
        <time>2013-01-30T11:37:01Z</time>
      </trkpt>
      <trkpt lat="45.07002" lon="5.60338">
        <ele>1911</ele>
        <time>2013-01-30T11:37:06Z</time>
      </trkpt>
      <trkpt lat="45.07" lon="5.60338">
        <ele>1912</ele>
        <time>2013-01-30T11:37:11Z</time>
      </trkpt>
      <trkpt lat="45.06997" lon="5.60338">
        <ele>1913</ele>
        <time>2013-01-30T11:37:16Z</time>
      </trkpt>
      <trkpt lat="45.06994" lon="5.60338">
        <ele>1913</ele>
        <time>2013-01-30T11:37:21Z</time>
      </trkpt>
      <trkpt lat="45.06992" lon="5.60338">
        <ele>1914</ele>
        <time>2013-01-30T11:37:26Z</time>
      </trkpt>
      <trkpt lat="45.0699" lon="5.60338">
        <ele>1915</ele>
        <time>2013-01-30T11:37:31Z</time>
      </trkpt>
      <trkpt lat="45.06987" lon="5.60338">
        <ele>1915</ele>
        <time>2013-01-30T11:37:36Z</time>
      </trkpt>
      <trkpt lat="45.06985" lon="5.60338">
        <ele>1916</ele>
        <time>2013-01-30T11:37:41Z</time>
      </trkpt>
      <trkpt lat="45.06983" lon="5.60338">
        <ele>1917</ele>
        <time>2013-01-30T11:37:46Z</time>
      </trkpt>
      <trkpt lat="45.0698" lon="5.60339">
        <ele>1917</ele>
        <time>2013-01-30T11:37:51Z</time>
      </trkpt>
      <trkpt lat="45.06978" lon="5.60339">
        <ele>1918</ele>
        <time>2013-01-30T11:37:56Z</time>
      </trkpt>
      <trkpt lat="45.06975" lon="5.60339">
        <ele>1919</ele>
        <time>2013-01-30T11:38:01Z</time>
      </trkpt>
      <trkpt lat="45.06975" lon="5.6034">
        <ele>1919</ele>
        <time>2013-01-30T11:38:06Z</time>
      </trkpt>
      <trkpt lat="45.06976" lon="5.60342">
        <ele>1920</ele>
        <time>2013-01-30T11:38:11Z</time>
      </trkpt>
      <trkpt lat="45.06977" lon="5.60344">
        <ele>1921</ele>
        <time>2013-01-30T11:38:16Z</time>
      </trkpt>
      <trkpt lat="45.06979" lon="5.60347">
        <ele>1921</ele>
        <time>2013-01-30T11:38:21Z</time>
      </trkpt>
      <trkpt lat="45.0698" lon="5.60349">
        <ele>1922</ele>
        <time>2013-01-30T11:38:26Z</time>
      </trkpt>
      <trkpt lat="45.06982" lon="5.60352">
        <ele>1922</ele>
        <time>2013-01-30T11:38:31Z</time>
      </trkpt>
      <trkpt lat="45.06983" lon="5.60354">
        <ele>1923</ele>
        <time>2013-01-30T11:38:36Z</time>
      </trkpt>
      <trkpt lat="45.06984" lon="5.60356">
        <ele>1923</ele>
        <time>2013-01-30T11:38:41Z</time>
      </trkpt>
      <trkpt lat="45.06986" lon="5.60359">
        <ele>1924</ele>
        <time>2013-01-30T11:38:46Z</time>
      </trkpt>
      <trkpt lat="45.06987" lon="5.60362">
        <ele>1925</ele>
        <time>2013-01-30T11:38:51Z</time>
      </trkpt>
      <trkpt lat="45.06988" lon="5.60365">
        <ele>1925</ele>
        <time>2013-01-30T11:38:56Z</time>
      </trkpt>
      <trkpt lat="45.0699" lon="5.60368">
        <ele>1926</ele>
        <time>2013-01-30T11:39:01Z</time>
      </trkpt>
      <trkpt lat="45.06991" lon="5.60371">
        <ele>1926</ele>
        <time>2013-01-30T11:39:06Z</time>
      </trkpt>
      <trkpt lat="45.06993" lon="5.60374">
        <ele>1927</ele>
        <time>2013-01-30T11:39:11Z</time>
      </trkpt>
      <trkpt lat="45.06994" lon="5.60377">
        <ele>1927</ele>
        <time>2013-01-30T11:39:16Z</time>
      </trkpt>
      <trkpt lat="45.06996" lon="5.6038">
        <ele>1928</ele>
        <time>2013-01-30T11:39:21Z</time>
      </trkpt>
      <trkpt lat="45.06997" lon="5.60383">
        <ele>1928</ele>
        <time>2013-01-30T11:39:26Z</time>
      </trkpt>
      <trkpt lat="45.06999" lon="5.60386">
        <ele>1929</ele>
        <time>2013-01-30T11:39:31Z</time>
      </trkpt>
      <trkpt lat="45.07" lon="5.60389">
        <ele>1930</ele>
        <time>2013-01-30T11:39:36Z</time>
      </trkpt>
      <trkpt lat="45.07002" lon="5.60392">
        <ele>1931</ele>
        <time>2013-01-30T11:39:41Z</time>
      </trkpt>
      <trkpt lat="45.07002" lon="5.60396">
        <ele>1931</ele>
        <time>2013-01-30T11:39:46Z</time>
      </trkpt>
      <trkpt lat="45.07003" lon="5.60398">
        <ele>1932</ele>
        <time>2013-01-30T11:39:51Z</time>
      </trkpt>
      <trkpt lat="45.07004" lon="5.60401">
        <ele>1933</ele>
        <time>2013-01-30T11:39:56Z</time>
      </trkpt>
      <trkpt lat="45.07005" lon="5.60405">
        <ele>1934</ele>
        <time>2013-01-30T11:40:01Z</time>
      </trkpt>
      <trkpt lat="45.07006" lon="5.60408">
        <ele>1935</ele>
        <time>2013-01-30T11:40:06Z</time>
      </trkpt>
      <trkpt lat="45.07006" lon="5.6041">
        <ele>1936</ele>
        <time>2013-01-30T11:40:11Z</time>
      </trkpt>
      <trkpt lat="45.07007" lon="5.6041">
        <ele>1936</ele>
        <time>2013-01-30T11:40:16Z</time>
      </trkpt>
      <trkpt lat="45.07007" lon="5.6041">
        <ele>1936</ele>
        <time>2013-01-30T11:40:21Z</time>
      </trkpt>
      <trkpt lat="45.07007" lon="5.6041">
        <ele>1936</ele>
        <time>2013-01-30T11:40:26Z</time>
      </trkpt>
      <trkpt lat="45.07007" lon="5.6041">
        <ele>1936</ele>
        <time>2013-01-30T11:40:31Z</time>
      </trkpt>
      <trkpt lat="45.07006" lon="5.6041">
        <ele>1936</ele>
        <time>2013-01-30T11:40:36Z</time>
      </trkpt>
      <trkpt lat="45.07006" lon="5.6041">
        <ele>1936</ele>
        <time>2013-01-30T11:40:41Z</time>
      </trkpt>
      <trkpt lat="45.07006" lon="5.6041">
        <ele>1936</ele>
        <time>2013-01-30T11:40:46Z</time>
      </trkpt>
      <trkpt lat="45.07006" lon="5.6041">
        <ele>1936</ele>
        <time>2013-01-30T11:40:51Z</time>
      </trkpt>
      <trkpt lat="45.07006" lon="5.6041">
        <ele>1936</ele>
        <time>2013-01-30T11:40:56Z</time>
      </trkpt>
      <trkpt lat="45.07006" lon="5.6041">
        <ele>1936</ele>
        <time>2013-01-30T11:41:01Z</time>
      </trkpt>
      <trkpt lat="45.07006" lon="5.6041">
        <ele>1936</ele>
        <time>2013-01-30T11:41:06Z</time>
      </trkpt>
      <trkpt lat="45.07006" lon="5.6041">
        <ele>1936</ele>
        <time>2013-01-30T11:41:11Z</time>
      </trkpt>
      <trkpt lat="45.07006" lon="5.6041">
        <ele>1936</ele>
        <time>2013-01-30T11:41:16Z</time>
      </trkpt>
      <trkpt lat="45.07006" lon="5.6041">
        <ele>1936</ele>
        <time>2013-01-30T11:41:21Z</time>
      </trkpt>
      <trkpt lat="45.07006" lon="5.6041">
        <ele>1936</ele>
        <time>2013-01-30T11:41:26Z</time>
      </trkpt>
      <trkpt lat="45.07006" lon="5.6041">
        <ele>1936</ele>
        <time>2013-01-30T11:41:31Z</time>
      </trkpt>
      <trkpt lat="45.07006" lon="5.6041">
        <ele>1936</ele>
        <time>2013-01-30T11:41:36Z</time>
      </trkpt>
      <trkpt lat="45.07006" lon="5.6041">
        <ele>1936</ele>
        <time>2013-01-30T11:41:41Z</time>
      </trkpt>
      <trkpt lat="45.07006" lon="5.6041">
        <ele>1936</ele>
        <time>2013-01-30T11:41:46Z</time>
      </trkpt>
      <trkpt lat="45.07006" lon="5.6041">
        <ele>1936</ele>
        <time>2013-01-30T11:41:51Z</time>
      </trkpt>
      <trkpt lat="45.07006" lon="5.6041">
        <ele>1936</ele>
        <time>2013-01-30T11:41:56Z</time>
      </trkpt>
      <trkpt lat="45.07006" lon="5.6041">
        <ele>1936</ele>
        <time>2013-01-30T11:42:01Z</time>
      </trkpt>
      <trkpt lat="45.07006" lon="5.6041">
        <ele>1936</ele>
        <time>2013-01-30T11:42:06Z</time>
      </trkpt>
      <trkpt lat="45.07006" lon="5.6041">
        <ele>1936</ele>
        <time>2013-01-30T11:42:11Z</time>
      </trkpt>
      <trkpt lat="45.07006" lon="5.6041">
        <ele>1936</ele>
        <time>2013-01-30T11:42:16Z</time>
      </trkpt>
      <trkpt lat="45.07006" lon="5.6041">
        <ele>1936</ele>
        <time>2013-01-30T11:42:21Z</time>
      </trkpt>
      <trkpt lat="45.07006" lon="5.6041">
        <ele>1936</ele>
        <time>2013-01-30T11:42:26Z</time>
      </trkpt>
      <trkpt lat="45.07006" lon="5.60409">
        <ele>1936</ele>
        <time>2013-01-30T11:42:31Z</time>
      </trkpt>
      <trkpt lat="45.07006" lon="5.60409">
        <ele>1936</ele>
        <time>2013-01-30T11:42:36Z</time>
      </trkpt>
      <trkpt lat="45.07006" lon="5.60409">
        <ele>1936</ele>
        <time>2013-01-30T11:42:41Z</time>
      </trkpt>
      <trkpt lat="45.07006" lon="5.60409">
        <ele>1936</ele>
        <time>2013-01-30T11:42:46Z</time>
      </trkpt>
      <trkpt lat="45.07006" lon="5.60409">
        <ele>1936</ele>
        <time>2013-01-30T11:42:51Z</time>
      </trkpt>
      <trkpt lat="45.07006" lon="5.60409">
        <ele>1937</ele>
        <time>2013-01-30T11:42:56Z</time>
      </trkpt>
      <trkpt lat="45.07006" lon="5.60409">
        <ele>1937</ele>
        <time>2013-01-30T11:43:01Z</time>
      </trkpt>
      <trkpt lat="45.07006" lon="5.60409">
        <ele>1937</ele>
        <time>2013-01-30T11:43:06Z</time>
      </trkpt>
      <trkpt lat="45.07006" lon="5.6041">
        <ele>1937</ele>
        <time>2013-01-30T11:43:11Z</time>
      </trkpt>
      <trkpt lat="45.07006" lon="5.60409">
        <ele>1937</ele>
        <time>2013-01-30T11:43:16Z</time>
      </trkpt>
      <trkpt lat="45.07006" lon="5.60409">
        <ele>1937</ele>
        <time>2013-01-30T11:43:21Z</time>
      </trkpt>
      <trkpt lat="45.07006" lon="5.60409">
        <ele>1937</ele>
        <time>2013-01-30T11:43:26Z</time>
      </trkpt>
      <trkpt lat="45.07006" lon="5.6041">
        <ele>1937</ele>
        <time>2013-01-30T11:43:31Z</time>
      </trkpt>
      <trkpt lat="45.07006" lon="5.6041">
        <ele>1936</ele>
        <time>2013-01-30T11:43:36Z</time>
      </trkpt>
      <trkpt lat="45.07006" lon="5.60409">
        <ele>1936</ele>
        <time>2013-01-30T11:43:41Z</time>
      </trkpt>
      <trkpt lat="45.07006" lon="5.6041">
        <ele>1936</ele>
        <time>2013-01-30T11:43:46Z</time>
      </trkpt>
      <trkpt lat="45.07006" lon="5.60409">
        <ele>1936</ele>
        <time>2013-01-30T11:43:51Z</time>
      </trkpt>
      <trkpt lat="45.07006" lon="5.60409">
        <ele>1936</ele>
        <time>2013-01-30T11:43:56Z</time>
      </trkpt>
      <trkpt lat="45.07006" lon="5.60409">
        <ele>1936</ele>
        <time>2013-01-30T11:44:01Z</time>
      </trkpt>
      <trkpt lat="45.07006" lon="5.60409">
        <ele>1936</ele>
        <time>2013-01-30T11:44:06Z</time>
      </trkpt>
      <trkpt lat="45.07006" lon="5.6041">
        <ele>1936</ele>
        <time>2013-01-30T11:44:11Z</time>
      </trkpt>
      <trkpt lat="45.07006" lon="5.60412">
        <ele>1937</ele>
        <time>2013-01-30T11:44:16Z</time>
      </trkpt>
      <trkpt lat="45.07006" lon="5.60416">
        <ele>1938</ele>
        <time>2013-01-30T11:44:21Z</time>
      </trkpt>
      <trkpt lat="45.07007" lon="5.60419">
        <ele>1938</ele>
        <time>2013-01-30T11:44:26Z</time>
      </trkpt>
      <trkpt lat="45.07007" lon="5.60422">
        <ele>1939</ele>
        <time>2013-01-30T11:44:31Z</time>
      </trkpt>
      <trkpt lat="45.07007" lon="5.60426">
        <ele>1940</ele>
        <time>2013-01-30T11:44:36Z</time>
      </trkpt>
      <trkpt lat="45.07007" lon="5.6043">
        <ele>1941</ele>
        <time>2013-01-30T11:44:41Z</time>
      </trkpt>
      <trkpt lat="45.07007" lon="5.60433">
        <ele>1942</ele>
        <time>2013-01-30T11:44:46Z</time>
      </trkpt>
      <trkpt lat="45.07006" lon="5.60436">
        <ele>1942</ele>
        <time>2013-01-30T11:44:51Z</time>
      </trkpt>
      <trkpt lat="45.07004" lon="5.60435">
        <ele>1943</ele>
        <time>2013-01-30T11:44:56Z</time>
      </trkpt>
      <trkpt lat="45.07002" lon="5.60433">
        <ele>1944</ele>
        <time>2013-01-30T11:45:01Z</time>
      </trkpt>
      <trkpt lat="45.06999" lon="5.60431">
        <ele>1945</ele>
        <time>2013-01-30T11:45:06Z</time>
      </trkpt>
      <trkpt lat="45.06998" lon="5.60432">
        <ele>1943</ele>
        <time>2013-01-30T11:45:11Z</time>
      </trkpt>
      <trkpt lat="45.06997" lon="5.60434">
        <ele>1944</ele>
        <time>2013-01-30T11:45:16Z</time>
      </trkpt>
      <trkpt lat="45.06997" lon="5.60437">
        <ele>1945</ele>
        <time>2013-01-30T11:45:21Z</time>
      </trkpt>
      <trkpt lat="45.06998" lon="5.6044">
        <ele>1946</ele>
        <time>2013-01-30T11:45:26Z</time>
      </trkpt>
      <trkpt lat="45.06998" lon="5.60443">
        <ele>1947</ele>
        <time>2013-01-30T11:45:31Z</time>
      </trkpt>
      <trkpt lat="45.06998" lon="5.60445">
        <ele>1948</ele>
        <time>2013-01-30T11:45:36Z</time>
      </trkpt>
      <trkpt lat="45.06998" lon="5.60448">
        <ele>1949</ele>
        <time>2013-01-30T11:45:41Z</time>
      </trkpt>
      <trkpt lat="45.06998" lon="5.60451">
        <ele>1950</ele>
        <time>2013-01-30T11:45:46Z</time>
      </trkpt>
      <trkpt lat="45.06999" lon="5.60452">
        <ele>1950</ele>
        <time>2013-01-30T11:45:51Z</time>
      </trkpt>
      <trkpt lat="45.06998" lon="5.60452">
        <ele>1951</ele>
        <time>2013-01-30T11:45:56Z</time>
      </trkpt>
      <trkpt lat="45.06996" lon="5.6045">
        <ele>1952</ele>
        <time>2013-01-30T11:46:01Z</time>
      </trkpt>
      <trkpt lat="45.06994" lon="5.60448">
        <ele>1953</ele>
        <time>2013-01-30T11:46:06Z</time>
      </trkpt>
      <trkpt lat="45.06992" lon="5.60447">
        <ele>1954</ele>
        <time>2013-01-30T11:46:11Z</time>
      </trkpt>
      <trkpt lat="45.0699" lon="5.60445">
        <ele>1954</ele>
        <time>2013-01-30T11:46:16Z</time>
      </trkpt>
      <trkpt lat="45.06988" lon="5.60443">
        <ele>1955</ele>
        <time>2013-01-30T11:46:21Z</time>
      </trkpt>
      <trkpt lat="45.06986" lon="5.60442">
        <ele>1956</ele>
        <time>2013-01-30T11:46:26Z</time>
      </trkpt>
      <trkpt lat="45.06984" lon="5.6044">
        <ele>1957</ele>
        <time>2013-01-30T11:46:31Z</time>
      </trkpt>
      <trkpt lat="45.06982" lon="5.60439">
        <ele>1958</ele>
        <time>2013-01-30T11:46:36Z</time>
      </trkpt>
      <trkpt lat="45.06979" lon="5.60438">
        <ele>1959</ele>
        <time>2013-01-30T11:46:41Z</time>
      </trkpt>
      <trkpt lat="45.06977" lon="5.60436">
        <ele>1960</ele>
        <time>2013-01-30T11:46:46Z</time>
      </trkpt>
      <trkpt lat="45.06974" lon="5.60435">
        <ele>1960</ele>
        <time>2013-01-30T11:46:51Z</time>
      </trkpt>
      <trkpt lat="45.06972" lon="5.60434">
        <ele>1961</ele>
        <time>2013-01-30T11:46:56Z</time>
      </trkpt>
      <trkpt lat="45.0697" lon="5.60432">
        <ele>1962</ele>
        <time>2013-01-30T11:47:01Z</time>
      </trkpt>
      <trkpt lat="45.06968" lon="5.60431">
        <ele>1963</ele>
        <time>2013-01-30T11:47:06Z</time>
      </trkpt>
      <trkpt lat="45.06967" lon="5.60431">
        <ele>1963</ele>
        <time>2013-01-30T11:47:11Z</time>
      </trkpt>
      <trkpt lat="45.06967" lon="5.60431">
        <ele>1963</ele>
        <time>2013-01-30T11:47:16Z</time>
      </trkpt>
      <trkpt lat="45.06967" lon="5.60431">
        <ele>1963</ele>
        <time>2013-01-30T11:47:21Z</time>
      </trkpt>
      <trkpt lat="45.06967" lon="5.60432">
        <ele>1963</ele>
        <time>2013-01-30T11:47:26Z</time>
      </trkpt>
      <trkpt lat="45.06969" lon="5.60435">
        <ele>1964</ele>
        <time>2013-01-30T11:47:31Z</time>
      </trkpt>
      <trkpt lat="45.0697" lon="5.60438">
        <ele>1965</ele>
        <time>2013-01-30T11:47:36Z</time>
      </trkpt>
      <trkpt lat="45.06971" lon="5.60441">
        <ele>1965</ele>
        <time>2013-01-30T11:47:41Z</time>
      </trkpt>
      <trkpt lat="45.06972" lon="5.60445">
        <ele>1966</ele>
        <time>2013-01-30T11:47:46Z</time>
      </trkpt>
      <trkpt lat="45.06973" lon="5.60446">
        <ele>1966</ele>
        <time>2013-01-30T11:47:51Z</time>
      </trkpt>
      <trkpt lat="45.06971" lon="5.60446">
        <ele>1967</ele>
        <time>2013-01-30T11:47:56Z</time>
      </trkpt>
      <trkpt lat="45.06969" lon="5.60444">
        <ele>1967</ele>
        <time>2013-01-30T11:48:01Z</time>
      </trkpt>
      <trkpt lat="45.06966" lon="5.60443">
        <ele>1968</ele>
        <time>2013-01-30T11:48:06Z</time>
      </trkpt>
      <trkpt lat="45.06964" lon="5.60441">
        <ele>1969</ele>
        <time>2013-01-30T11:48:11Z</time>
      </trkpt>
      <trkpt lat="45.06961" lon="5.60439">
        <ele>1969</ele>
        <time>2013-01-30T11:48:16Z</time>
      </trkpt>
      <trkpt lat="45.06958" lon="5.60438">
        <ele>1970</ele>
        <time>2013-01-30T11:48:21Z</time>
      </trkpt>
      <trkpt lat="45.06956" lon="5.60437">
        <ele>1971</ele>
        <time>2013-01-30T11:48:26Z</time>
      </trkpt>
      <trkpt lat="45.06953" lon="5.60435">
        <ele>1971</ele>
        <time>2013-01-30T11:48:31Z</time>
      </trkpt>
      <trkpt lat="45.06951" lon="5.60434">
        <ele>1972</ele>
        <time>2013-01-30T11:48:36Z</time>
      </trkpt>
      <trkpt lat="45.06949" lon="5.60433">
        <ele>1973</ele>
        <time>2013-01-30T11:48:41Z</time>
      </trkpt>
      <trkpt lat="45.06947" lon="5.60432">
        <ele>1973</ele>
        <time>2013-01-30T11:48:46Z</time>
      </trkpt>
      <trkpt lat="45.06944" lon="5.60432">
        <ele>1974</ele>
        <time>2013-01-30T11:48:51Z</time>
      </trkpt>
      <trkpt lat="45.06942" lon="5.60431">
        <ele>1975</ele>
        <time>2013-01-30T11:48:56Z</time>
      </trkpt>
      <trkpt lat="45.06939" lon="5.6043">
        <ele>1975</ele>
        <time>2013-01-30T11:49:01Z</time>
      </trkpt>
      <trkpt lat="45.06939" lon="5.6043">
        <ele>1975</ele>
        <time>2013-01-30T11:49:06Z</time>
      </trkpt>
      <trkpt lat="45.06939" lon="5.6043">
        <ele>1975</ele>
        <time>2013-01-30T11:49:11Z</time>
      </trkpt>
      <trkpt lat="45.06939" lon="5.6043">
        <ele>1976</ele>
        <time>2013-01-30T11:49:16Z</time>
      </trkpt>
      <trkpt lat="45.06937" lon="5.6043">
        <ele>1976</ele>
        <time>2013-01-30T11:49:21Z</time>
      </trkpt>
      <trkpt lat="45.06934" lon="5.60429">
        <ele>1977</ele>
        <time>2013-01-30T11:49:26Z</time>
      </trkpt>
      <trkpt lat="45.06931" lon="5.60429">
        <ele>1978</ele>
        <time>2013-01-30T11:49:31Z</time>
      </trkpt>
      <trkpt lat="45.06929" lon="5.60429">
        <ele>1979</ele>
        <time>2013-01-30T11:49:36Z</time>
      </trkpt>
      <trkpt lat="45.06926" lon="5.60429">
        <ele>1979</ele>
        <time>2013-01-30T11:49:41Z</time>
      </trkpt>
      <trkpt lat="45.06924" lon="5.60429">
        <ele>1980</ele>
        <time>2013-01-30T11:49:46Z</time>
      </trkpt>
      <trkpt lat="45.06922" lon="5.60429">
        <ele>1981</ele>
        <time>2013-01-30T11:49:51Z</time>
      </trkpt>
      <trkpt lat="45.0692" lon="5.60429">
        <ele>1981</ele>
        <time>2013-01-30T11:49:56Z</time>
      </trkpt>
      <trkpt lat="45.0692" lon="5.6043">
        <ele>1982</ele>
        <time>2013-01-30T11:50:01Z</time>
      </trkpt>
      <trkpt lat="45.0692" lon="5.60429">
        <ele>1981</ele>
        <time>2013-01-30T11:50:06Z</time>
      </trkpt>
      <trkpt lat="45.06918" lon="5.60429">
        <ele>1982</ele>
        <time>2013-01-30T11:50:11Z</time>
      </trkpt>
      <trkpt lat="45.06915" lon="5.60429">
        <ele>1983</ele>
        <time>2013-01-30T11:50:16Z</time>
      </trkpt>
      <trkpt lat="45.06912" lon="5.60429">
        <ele>1984</ele>
        <time>2013-01-30T11:50:21Z</time>
      </trkpt>
      <trkpt lat="45.06911" lon="5.60429">
        <ele>1984</ele>
        <time>2013-01-30T11:50:26Z</time>
      </trkpt>
      <trkpt lat="45.06908" lon="5.60429">
        <ele>1985</ele>
        <time>2013-01-30T11:50:31Z</time>
      </trkpt>
      <trkpt lat="45.06905" lon="5.60429">
        <ele>1986</ele>
        <time>2013-01-30T11:50:36Z</time>
      </trkpt>
      <trkpt lat="45.06904" lon="5.60429">
        <ele>1986</ele>
        <time>2013-01-30T11:50:41Z</time>
      </trkpt>
      <trkpt lat="45.06904" lon="5.60429">
        <ele>1986</ele>
        <time>2013-01-30T11:50:46Z</time>
      </trkpt>
      <trkpt lat="45.06901" lon="5.60427">
        <ele>1986</ele>
        <time>2013-01-30T11:50:51Z</time>
      </trkpt>
      <trkpt lat="45.06899" lon="5.60427">
        <ele>1987</ele>
        <time>2013-01-30T11:50:56Z</time>
      </trkpt>
      <trkpt lat="45.06896" lon="5.60427">
        <ele>1987</ele>
        <time>2013-01-30T11:51:01Z</time>
      </trkpt>
      <trkpt lat="45.06893" lon="5.60427">
        <ele>1988</ele>
        <time>2013-01-30T11:51:06Z</time>
      </trkpt>
      <trkpt lat="45.06891" lon="5.60428">
        <ele>1989</ele>
        <time>2013-01-30T11:51:11Z</time>
      </trkpt>
      <trkpt lat="45.06888" lon="5.60428">
        <ele>1990</ele>
        <time>2013-01-30T11:51:16Z</time>
      </trkpt>
      <trkpt lat="45.06885" lon="5.60428">
        <ele>1991</ele>
        <time>2013-01-30T11:51:21Z</time>
      </trkpt>
      <trkpt lat="45.06883" lon="5.60427">
        <ele>1992</ele>
        <time>2013-01-30T11:51:26Z</time>
      </trkpt>
      <trkpt lat="45.06881" lon="5.60427">
        <ele>1993</ele>
        <time>2013-01-30T11:51:31Z</time>
      </trkpt>
      <trkpt lat="45.0688" lon="5.60427">
        <ele>1993</ele>
        <time>2013-01-30T11:51:36Z</time>
      </trkpt>
      <trkpt lat="45.0688" lon="5.60427">
        <ele>1993</ele>
        <time>2013-01-30T11:51:41Z</time>
      </trkpt>
      <trkpt lat="45.0688" lon="5.60427">
        <ele>1993</ele>
        <time>2013-01-30T11:51:46Z</time>
      </trkpt>
      <trkpt lat="45.0688" lon="5.60427">
        <ele>1993</ele>
        <time>2013-01-30T11:51:51Z</time>
      </trkpt>
      <trkpt lat="45.0688" lon="5.60427">
        <ele>1992</ele>
        <time>2013-01-30T11:51:56Z</time>
      </trkpt>
      <trkpt lat="45.06881" lon="5.60429">
        <ele>1993</ele>
        <time>2013-01-30T11:52:01Z</time>
      </trkpt>
      <trkpt lat="45.06882" lon="5.60431">
        <ele>1993</ele>
        <time>2013-01-30T11:52:06Z</time>
      </trkpt>
      <trkpt lat="45.06884" lon="5.60433">
        <ele>1994</ele>
        <time>2013-01-30T11:52:11Z</time>
      </trkpt>
      <trkpt lat="45.06886" lon="5.60435">
        <ele>1995</ele>
        <time>2013-01-30T11:52:16Z</time>
      </trkpt>
      <trkpt lat="45.06887" lon="5.60438">
        <ele>1995</ele>
        <time>2013-01-30T11:52:21Z</time>
      </trkpt>
      <trkpt lat="45.06889" lon="5.6044">
        <ele>1996</ele>
        <time>2013-01-30T11:52:26Z</time>
      </trkpt>
      <trkpt lat="45.0689" lon="5.60443">
        <ele>1997</ele>
        <time>2013-01-30T11:52:31Z</time>
      </trkpt>
      <trkpt lat="45.06891" lon="5.60443">
        <ele>1997</ele>
        <time>2013-01-30T11:52:36Z</time>
      </trkpt>
      <trkpt lat="45.06892" lon="5.60446">
        <ele>1998</ele>
        <time>2013-01-30T11:52:41Z</time>
      </trkpt>
      <trkpt lat="45.06894" lon="5.60448">
        <ele>1999</ele>
        <time>2013-01-30T11:52:46Z</time>
      </trkpt>
      <trkpt lat="45.06896" lon="5.6045">
        <ele>2000</ele>
        <time>2013-01-30T11:52:51Z</time>
      </trkpt>
      <trkpt lat="45.06897" lon="5.60452">
        <ele>2001</ele>
        <time>2013-01-30T11:52:56Z</time>
      </trkpt>
      <trkpt lat="45.06899" lon="5.60453">
        <ele>2001</ele>
        <time>2013-01-30T11:53:01Z</time>
      </trkpt>
      <trkpt lat="45.06898" lon="5.60453">
        <ele>2001</ele>
        <time>2013-01-30T11:53:06Z</time>
      </trkpt>
      <trkpt lat="45.06898" lon="5.60453">
        <ele>2002</ele>
        <time>2013-01-30T11:53:11Z</time>
      </trkpt>
      <trkpt lat="45.06898" lon="5.60453">
        <ele>2002</ele>
        <time>2013-01-30T11:53:16Z</time>
      </trkpt>
      <trkpt lat="45.06896" lon="5.60453">
        <ele>2002</ele>
        <time>2013-01-30T11:53:21Z</time>
      </trkpt>
      <trkpt lat="45.06895" lon="5.60452">
        <ele>2003</ele>
        <time>2013-01-30T11:53:26Z</time>
      </trkpt>
      <trkpt lat="45.06893" lon="5.60452">
        <ele>2003</ele>
        <time>2013-01-30T11:53:31Z</time>
      </trkpt>
      <trkpt lat="45.06891" lon="5.60452">
        <ele>2004</ele>
        <time>2013-01-30T11:53:36Z</time>
      </trkpt>
      <trkpt lat="45.06889" lon="5.60452">
        <ele>2004</ele>
        <time>2013-01-30T11:53:41Z</time>
      </trkpt>
      <trkpt lat="45.06886" lon="5.60452">
        <ele>2005</ele>
        <time>2013-01-30T11:53:46Z</time>
      </trkpt>
      <trkpt lat="45.06883" lon="5.60452">
        <ele>2006</ele>
        <time>2013-01-30T11:53:51Z</time>
      </trkpt>
      <trkpt lat="45.06881" lon="5.60452">
        <ele>2007</ele>
        <time>2013-01-30T11:53:56Z</time>
      </trkpt>
      <trkpt lat="45.06879" lon="5.60452">
        <ele>2007</ele>
        <time>2013-01-30T11:54:01Z</time>
      </trkpt>
      <trkpt lat="45.06876" lon="5.60451">
        <ele>2008</ele>
        <time>2013-01-30T11:54:06Z</time>
      </trkpt>
      <trkpt lat="45.06873" lon="5.60451">
        <ele>2009</ele>
        <time>2013-01-30T11:54:11Z</time>
      </trkpt>
      <trkpt lat="45.06871" lon="5.60451">
        <ele>2010</ele>
        <time>2013-01-30T11:54:16Z</time>
      </trkpt>
      <trkpt lat="45.06869" lon="5.6045">
        <ele>2010</ele>
        <time>2013-01-30T11:54:21Z</time>
      </trkpt>
      <trkpt lat="45.06869" lon="5.6045">
        <ele>2010</ele>
        <time>2013-01-30T11:54:26Z</time>
      </trkpt>
      <trkpt lat="45.06869" lon="5.6045">
        <ele>2010</ele>
        <time>2013-01-30T11:54:31Z</time>
      </trkpt>
      <trkpt lat="45.06869" lon="5.6045">
        <ele>2010</ele>
        <time>2013-01-30T11:54:36Z</time>
      </trkpt>
      <trkpt lat="45.06869" lon="5.60451">
        <ele>2010</ele>
        <time>2013-01-30T11:54:41Z</time>
      </trkpt>
      <trkpt lat="45.0687" lon="5.60451">
        <ele>2010</ele>
        <time>2013-01-30T11:54:46Z</time>
      </trkpt>
      <trkpt lat="45.06871" lon="5.60453">
        <ele>2011</ele>
        <time>2013-01-30T11:54:51Z</time>
      </trkpt>
      <trkpt lat="45.06873" lon="5.60455">
        <ele>2011</ele>
        <time>2013-01-30T11:54:56Z</time>
      </trkpt>
      <trkpt lat="45.06874" lon="5.60458">
        <ele>2012</ele>
        <time>2013-01-30T11:55:01Z</time>
      </trkpt>
      <trkpt lat="45.06876" lon="5.6046">
        <ele>2012</ele>
        <time>2013-01-30T11:55:06Z</time>
      </trkpt>
      <trkpt lat="45.06878" lon="5.60463">
        <ele>2013</ele>
        <time>2013-01-30T11:55:11Z</time>
      </trkpt>
      <trkpt lat="45.06878" lon="5.60463">
        <ele>2013</ele>
        <time>2013-01-30T11:55:16Z</time>
      </trkpt>
      <trkpt lat="45.06878" lon="5.60463">
        <ele>2013</ele>
        <time>2013-01-30T11:55:21Z</time>
      </trkpt>
      <trkpt lat="45.06877" lon="5.60463">
        <ele>2013</ele>
        <time>2013-01-30T11:55:26Z</time>
      </trkpt>
      <trkpt lat="45.06876" lon="5.60463">
        <ele>2014</ele>
        <time>2013-01-30T11:55:31Z</time>
      </trkpt>
      <trkpt lat="45.06875" lon="5.60463">
        <ele>2014</ele>
        <time>2013-01-30T11:55:36Z</time>
      </trkpt>
      <trkpt lat="45.06876" lon="5.60464">
        <ele>2014</ele>
        <time>2013-01-30T11:55:41Z</time>
      </trkpt>
      <trkpt lat="45.06878" lon="5.60467">
        <ele>2015</ele>
        <time>2013-01-30T11:55:46Z</time>
      </trkpt>
      <trkpt lat="45.0688" lon="5.60469">
        <ele>2016</ele>
        <time>2013-01-30T11:55:51Z</time>
      </trkpt>
      <trkpt lat="45.06882" lon="5.6047">
        <ele>2017</ele>
        <time>2013-01-30T11:55:56Z</time>
      </trkpt>
      <trkpt lat="45.06885" lon="5.60472">
        <ele>2017</ele>
        <time>2013-01-30T11:56:01Z</time>
      </trkpt>
      <trkpt lat="45.06887" lon="5.60475">
        <ele>2018</ele>
        <time>2013-01-30T11:56:06Z</time>
      </trkpt>
      <trkpt lat="45.06889" lon="5.60478">
        <ele>2018</ele>
        <time>2013-01-30T11:56:11Z</time>
      </trkpt>
      <trkpt lat="45.0689" lon="5.60479">
        <ele>2019</ele>
        <time>2013-01-30T11:56:16Z</time>
      </trkpt>
      <trkpt lat="45.0689" lon="5.6048">
        <ele>2019</ele>
        <time>2013-01-30T11:56:21Z</time>
      </trkpt>
      <trkpt lat="45.0689" lon="5.60479">
        <ele>2019</ele>
        <time>2013-01-30T11:56:26Z</time>
      </trkpt>
      <trkpt lat="45.0689" lon="5.60479">
        <ele>2019</ele>
        <time>2013-01-30T11:56:31Z</time>
      </trkpt>
      <trkpt lat="45.0689" lon="5.60479">
        <ele>2020</ele>
        <time>2013-01-30T11:56:36Z</time>
      </trkpt>
      <trkpt lat="45.0689" lon="5.60479">
        <ele>2020</ele>
        <time>2013-01-30T11:56:41Z</time>
      </trkpt>
      <trkpt lat="45.0689" lon="5.60479">
        <ele>2020</ele>
        <time>2013-01-30T11:56:46Z</time>
      </trkpt>
      <trkpt lat="45.0689" lon="5.60479">
        <ele>2020</ele>
        <time>2013-01-30T11:56:51Z</time>
      </trkpt>
      <trkpt lat="45.0689" lon="5.60479">
        <ele>2020</ele>
        <time>2013-01-30T11:56:56Z</time>
      </trkpt>
      <trkpt lat="45.06889" lon="5.6048">
        <ele>2020</ele>
        <time>2013-01-30T11:57:01Z</time>
      </trkpt>
      <trkpt lat="45.06888" lon="5.6048">
        <ele>2020</ele>
        <time>2013-01-30T11:57:06Z</time>
      </trkpt>
      <trkpt lat="45.06886" lon="5.60479">
        <ele>2020</ele>
        <time>2013-01-30T11:57:11Z</time>
      </trkpt>
      <trkpt lat="45.06883" lon="5.60479">
        <ele>2021</ele>
        <time>2013-01-30T11:57:16Z</time>
      </trkpt>
      <trkpt lat="45.0688" lon="5.60479">
        <ele>2022</ele>
        <time>2013-01-30T11:57:21Z</time>
      </trkpt>
      <trkpt lat="45.06878" lon="5.60478">
        <ele>2022</ele>
        <time>2013-01-30T11:57:26Z</time>
      </trkpt>
      <trkpt lat="45.06878" lon="5.60478">
        <ele>2022</ele>
        <time>2013-01-30T11:57:31Z</time>
      </trkpt>
      <trkpt lat="45.06877" lon="5.60478">
        <ele>2022</ele>
        <time>2013-01-30T11:57:36Z</time>
      </trkpt>
      <trkpt lat="45.06877" lon="5.60478">
        <ele>2022</ele>
        <time>2013-01-30T11:57:41Z</time>
      </trkpt>
      <trkpt lat="45.06876" lon="5.60478">
        <ele>2023</ele>
        <time>2013-01-30T11:57:46Z</time>
      </trkpt>
      <trkpt lat="45.06875" lon="5.60477">
        <ele>2023</ele>
        <time>2013-01-30T11:57:51Z</time>
      </trkpt>
      <trkpt lat="45.06872" lon="5.60475">
        <ele>2023</ele>
        <time>2013-01-30T11:57:56Z</time>
      </trkpt>
      <trkpt lat="45.06869" lon="5.60475">
        <ele>2024</ele>
        <time>2013-01-30T11:58:01Z</time>
      </trkpt>
      <trkpt lat="45.06865" lon="5.60475">
        <ele>2024</ele>
        <time>2013-01-30T11:58:06Z</time>
      </trkpt>
      <trkpt lat="45.06863" lon="5.60475">
        <ele>2025</ele>
        <time>2013-01-30T11:58:11Z</time>
      </trkpt>
      <trkpt lat="45.06862" lon="5.60475">
        <ele>2025</ele>
        <time>2013-01-30T11:58:16Z</time>
      </trkpt>
      <trkpt lat="45.06862" lon="5.60475">
        <ele>2025</ele>
        <time>2013-01-30T11:58:21Z</time>
      </trkpt>
      <trkpt lat="45.0686" lon="5.60475">
        <ele>2026</ele>
        <time>2013-01-30T11:58:26Z</time>
      </trkpt>
      <trkpt lat="45.06858" lon="5.60476">
        <ele>2027</ele>
        <time>2013-01-30T11:58:31Z</time>
      </trkpt>
      <trkpt lat="45.06856" lon="5.60476">
        <ele>2027</ele>
        <time>2013-01-30T11:58:36Z</time>
      </trkpt>
      <trkpt lat="45.06853" lon="5.60476">
        <ele>2028</ele>
        <time>2013-01-30T11:58:41Z</time>
      </trkpt>
      <trkpt lat="45.0685" lon="5.60475">
        <ele>2030</ele>
        <time>2013-01-30T11:58:46Z</time>
      </trkpt>
      <trkpt lat="45.06847" lon="5.60475">
        <ele>2030</ele>
        <time>2013-01-30T11:58:51Z</time>
      </trkpt>
      <trkpt lat="45.06846" lon="5.60476">
        <ele>2031</ele>
        <time>2013-01-30T11:58:56Z</time>
      </trkpt>
      <trkpt lat="45.06843" lon="5.60478">
        <ele>2032</ele>
        <time>2013-01-30T11:59:01Z</time>
      </trkpt>
      <trkpt lat="45.06841" lon="5.60479">
        <ele>2032</ele>
        <time>2013-01-30T11:59:06Z</time>
      </trkpt>
      <trkpt lat="45.06841" lon="5.60478">
        <ele>2033</ele>
        <time>2013-01-30T11:59:11Z</time>
      </trkpt>
      <trkpt lat="45.06841" lon="5.60478">
        <ele>2033</ele>
        <time>2013-01-30T11:59:16Z</time>
      </trkpt>
      <trkpt lat="45.06841" lon="5.60478">
        <ele>2033</ele>
        <time>2013-01-30T11:59:21Z</time>
      </trkpt>
      <trkpt lat="45.06841" lon="5.60477">
        <ele>2032</ele>
        <time>2013-01-30T11:59:26Z</time>
      </trkpt>
      <trkpt lat="45.06841" lon="5.60478">
        <ele>2032</ele>
        <time>2013-01-30T11:59:31Z</time>
      </trkpt>
      <trkpt lat="45.06841" lon="5.60477">
        <ele>2032</ele>
        <time>2013-01-30T11:59:36Z</time>
      </trkpt>
      <trkpt lat="45.06841" lon="5.60477">
        <ele>2031</ele>
        <time>2013-01-30T11:59:41Z</time>
      </trkpt>
      <trkpt lat="45.06841" lon="5.60477">
        <ele>2031</ele>
        <time>2013-01-30T11:59:46Z</time>
      </trkpt>
      <trkpt lat="45.06841" lon="5.60478">
        <ele>2031</ele>
        <time>2013-01-30T11:59:51Z</time>
      </trkpt>
      <trkpt lat="45.06841" lon="5.60477">
        <ele>2031</ele>
        <time>2013-01-30T11:59:56Z</time>
      </trkpt>
      <trkpt lat="45.06841" lon="5.60478">
        <ele>2031</ele>
        <time>2013-01-30T12:00:01Z</time>
      </trkpt>
      <trkpt lat="45.06841" lon="5.60478">
        <ele>2030</ele>
        <time>2013-01-30T12:00:06Z</time>
      </trkpt>
      <trkpt lat="45.06841" lon="5.60478">
        <ele>2030</ele>
        <time>2013-01-30T12:00:11Z</time>
      </trkpt>
      <trkpt lat="45.06841" lon="5.60477">
        <ele>2030</ele>
        <time>2013-01-30T12:00:16Z</time>
      </trkpt>
      <trkpt lat="45.06841" lon="5.60478">
        <ele>2030</ele>
        <time>2013-01-30T12:00:21Z</time>
      </trkpt>
      <trkpt lat="45.06839" lon="5.60479">
        <ele>2031</ele>
        <time>2013-01-30T12:00:26Z</time>
      </trkpt>
      <trkpt lat="45.06837" lon="5.6048">
        <ele>2032</ele>
        <time>2013-01-30T12:00:31Z</time>
      </trkpt>
      <trkpt lat="45.06837" lon="5.60481">
        <ele>2032</ele>
        <time>2013-01-30T12:00:36Z</time>
      </trkpt>
      <trkpt lat="45.06837" lon="5.60481">
        <ele>2032</ele>
        <time>2013-01-30T12:00:41Z</time>
      </trkpt>
      <trkpt lat="45.06837" lon="5.60481">
        <ele>2032</ele>
        <time>2013-01-30T12:00:46Z</time>
      </trkpt>
      <trkpt lat="45.06837" lon="5.60481">
        <ele>2031</ele>
        <time>2013-01-30T12:00:51Z</time>
      </trkpt>
      <trkpt lat="45.06837" lon="5.60482">
        <ele>2030</ele>
        <time>2013-01-30T12:00:56Z</time>
      </trkpt>
      <trkpt lat="45.06837" lon="5.60482">
        <ele>2029</ele>
        <time>2013-01-30T12:01:01Z</time>
      </trkpt>
      <trkpt lat="45.06837" lon="5.60482">
        <ele>2029</ele>
        <time>2013-01-30T12:01:06Z</time>
      </trkpt>
      <trkpt lat="45.06837" lon="5.60483">
        <ele>2029</ele>
        <time>2013-01-30T12:01:11Z</time>
      </trkpt>
      <trkpt lat="45.06837" lon="5.60483">
        <ele>2029</ele>
        <time>2013-01-30T12:01:16Z</time>
      </trkpt>
      <trkpt lat="45.06838" lon="5.60483">
        <ele>2028</ele>
        <time>2013-01-30T12:01:21Z</time>
      </trkpt>
      <trkpt lat="45.06838" lon="5.60482">
        <ele>2027</ele>
        <time>2013-01-30T12:01:26Z</time>
      </trkpt>
      <trkpt lat="45.06838" lon="5.60482">
        <ele>2027</ele>
        <time>2013-01-30T12:01:31Z</time>
      </trkpt>
      <trkpt lat="45.06837" lon="5.60483">
        <ele>2028</ele>
        <time>2013-01-30T12:01:36Z</time>
      </trkpt>
      <trkpt lat="45.06836" lon="5.60484">
        <ele>2029</ele>
        <time>2013-01-30T12:01:41Z</time>
      </trkpt>
      <trkpt lat="45.06836" lon="5.60485">
        <ele>2030</ele>
        <time>2013-01-30T12:01:46Z</time>
      </trkpt>
      <trkpt lat="45.06836" lon="5.60485">
        <ele>2030</ele>
        <time>2013-01-30T12:01:51Z</time>
      </trkpt>
      <trkpt lat="45.06836" lon="5.60485">
        <ele>2030</ele>
        <time>2013-01-30T12:01:56Z</time>
      </trkpt>
      <trkpt lat="45.06836" lon="5.60485">
        <ele>2030</ele>
        <time>2013-01-30T12:02:01Z</time>
      </trkpt>
      <trkpt lat="45.06837" lon="5.60485">
        <ele>2030</ele>
        <time>2013-01-30T12:02:06Z</time>
      </trkpt>
      <trkpt lat="45.06837" lon="5.60485">
        <ele>2029</ele>
        <time>2013-01-30T12:02:11Z</time>
      </trkpt>
      <trkpt lat="45.06837" lon="5.60485">
        <ele>2029</ele>
        <time>2013-01-30T12:02:16Z</time>
      </trkpt>
      <trkpt lat="45.06837" lon="5.60485">
        <ele>2029</ele>
        <time>2013-01-30T12:02:21Z</time>
      </trkpt>
      <trkpt lat="45.06837" lon="5.60485">
        <ele>2029</ele>
        <time>2013-01-30T12:02:26Z</time>
      </trkpt>
      <trkpt lat="45.06837" lon="5.60485">
        <ele>2029</ele>
        <time>2013-01-30T12:02:31Z</time>
      </trkpt>
      <trkpt lat="45.06837" lon="5.60484">
        <ele>2029</ele>
        <time>2013-01-30T12:02:36Z</time>
      </trkpt>
      <trkpt lat="45.06837" lon="5.60484">
        <ele>2029</ele>
        <time>2013-01-30T12:02:41Z</time>
      </trkpt>
      <trkpt lat="45.06837" lon="5.60484">
        <ele>2029</ele>
        <time>2013-01-30T12:02:46Z</time>
      </trkpt>
      <trkpt lat="45.06837" lon="5.60484">
        <ele>2028</ele>
        <time>2013-01-30T12:02:51Z</time>
      </trkpt>
      <trkpt lat="45.06837" lon="5.60484">
        <ele>2028</ele>
        <time>2013-01-30T12:02:56Z</time>
      </trkpt>
      <trkpt lat="45.06837" lon="5.60484">
        <ele>2028</ele>
        <time>2013-01-30T12:03:01Z</time>
      </trkpt>
      <trkpt lat="45.06837" lon="5.60485">
        <ele>2029</ele>
        <time>2013-01-30T12:03:06Z</time>
      </trkpt>
      <trkpt lat="45.06837" lon="5.60485">
        <ele>2030</ele>
        <time>2013-01-30T12:03:11Z</time>
      </trkpt>
      <trkpt lat="45.06837" lon="5.60485">
        <ele>2029</ele>
        <time>2013-01-30T12:03:16Z</time>
      </trkpt>
      <trkpt lat="45.06837" lon="5.60485">
        <ele>2029</ele>
        <time>2013-01-30T12:03:21Z</time>
      </trkpt>
      <trkpt lat="45.06837" lon="5.60484">
        <ele>2029</ele>
        <time>2013-01-30T12:03:26Z</time>
      </trkpt>
      <trkpt lat="45.06838" lon="5.60484">
        <ele>2029</ele>
        <time>2013-01-30T12:03:31Z</time>
      </trkpt>
      <trkpt lat="45.06838" lon="5.60484">
        <ele>2029</ele>
        <time>2013-01-30T12:03:36Z</time>
      </trkpt>
      <trkpt lat="45.06838" lon="5.60484">
        <ele>2028</ele>
        <time>2013-01-30T12:03:41Z</time>
      </trkpt>
      <trkpt lat="45.06838" lon="5.60484">
        <ele>2028</ele>
        <time>2013-01-30T12:03:46Z</time>
      </trkpt>
      <trkpt lat="45.06838" lon="5.60484">
        <ele>2028</ele>
        <time>2013-01-30T12:03:51Z</time>
      </trkpt>
      <trkpt lat="45.06838" lon="5.60484">
        <ele>2028</ele>
        <time>2013-01-30T12:03:56Z</time>
      </trkpt>
      <trkpt lat="45.06838" lon="5.60484">
        <ele>2028</ele>
        <time>2013-01-30T12:04:01Z</time>
      </trkpt>
      <trkpt lat="45.06838" lon="5.60484">
        <ele>2028</ele>
        <time>2013-01-30T12:04:06Z</time>
      </trkpt>
      <trkpt lat="45.06838" lon="5.60483">
        <ele>2028</ele>
        <time>2013-01-30T12:04:11Z</time>
      </trkpt>
      <trkpt lat="45.06838" lon="5.60483">
        <ele>2028</ele>
        <time>2013-01-30T12:04:16Z</time>
      </trkpt>
      <trkpt lat="45.06838" lon="5.60483">
        <ele>2028</ele>
        <time>2013-01-30T12:04:21Z</time>
      </trkpt>
      <trkpt lat="45.06837" lon="5.60483">
        <ele>2028</ele>
        <time>2013-01-30T12:04:26Z</time>
      </trkpt>
      <trkpt lat="45.06838" lon="5.60483">
        <ele>2028</ele>
        <time>2013-01-30T12:04:31Z</time>
      </trkpt>
      <trkpt lat="45.06838" lon="5.60483">
        <ele>2028</ele>
        <time>2013-01-30T12:04:36Z</time>
      </trkpt>
      <trkpt lat="45.06838" lon="5.60483">
        <ele>2028</ele>
        <time>2013-01-30T12:04:41Z</time>
      </trkpt>
      <trkpt lat="45.06838" lon="5.60483">
        <ele>2028</ele>
        <time>2013-01-30T12:04:46Z</time>
      </trkpt>
      <trkpt lat="45.06838" lon="5.60483">
        <ele>2028</ele>
        <time>2013-01-30T12:04:51Z</time>
      </trkpt>
      <trkpt lat="45.06838" lon="5.60483">
        <ele>2028</ele>
        <time>2013-01-30T12:04:56Z</time>
      </trkpt>
      <trkpt lat="45.06838" lon="5.60483">
        <ele>2028</ele>
        <time>2013-01-30T12:05:01Z</time>
      </trkpt>
      <trkpt lat="45.06838" lon="5.60483">
        <ele>2028</ele>
        <time>2013-01-30T12:05:06Z</time>
      </trkpt>
      <trkpt lat="45.06838" lon="5.60482">
        <ele>2026</ele>
        <time>2013-01-30T12:05:11Z</time>
      </trkpt>
      <trkpt lat="45.06838" lon="5.60482">
        <ele>2026</ele>
        <time>2013-01-30T12:05:16Z</time>
      </trkpt>
      <trkpt lat="45.06838" lon="5.60482">
        <ele>2026</ele>
        <time>2013-01-30T12:05:21Z</time>
      </trkpt>
      <trkpt lat="45.06838" lon="5.60482">
        <ele>2027</ele>
        <time>2013-01-30T12:05:26Z</time>
      </trkpt>
      <trkpt lat="45.06838" lon="5.60483">
        <ele>2027</ele>
        <time>2013-01-30T12:05:31Z</time>
      </trkpt>
      <trkpt lat="45.06838" lon="5.60483">
        <ele>2027</ele>
        <time>2013-01-30T12:05:36Z</time>
      </trkpt>
      <trkpt lat="45.06838" lon="5.60483">
        <ele>2028</ele>
        <time>2013-01-30T12:05:41Z</time>
      </trkpt>
      <trkpt lat="45.06838" lon="5.60483">
        <ele>2028</ele>
        <time>2013-01-30T12:05:46Z</time>
      </trkpt>
      <trkpt lat="45.06838" lon="5.60483">
        <ele>2028</ele>
        <time>2013-01-30T12:05:51Z</time>
      </trkpt>
      <trkpt lat="45.06838" lon="5.60482">
        <ele>2028</ele>
        <time>2013-01-30T12:05:56Z</time>
      </trkpt>
      <trkpt lat="45.06838" lon="5.60482">
        <ele>2029</ele>
        <time>2013-01-30T12:06:01Z</time>
      </trkpt>
      <trkpt lat="45.06837" lon="5.60482">
        <ele>2030</ele>
        <time>2013-01-30T12:06:06Z</time>
      </trkpt>
      <trkpt lat="45.06837" lon="5.60482">
        <ele>2031</ele>
        <time>2013-01-30T12:06:11Z</time>
      </trkpt>
      <trkpt lat="45.06837" lon="5.60482">
        <ele>2031</ele>
        <time>2013-01-30T12:06:16Z</time>
      </trkpt>
      <trkpt lat="45.06836" lon="5.60483">
        <ele>2032</ele>
        <time>2013-01-30T12:06:21Z</time>
      </trkpt>
      <trkpt lat="45.06836" lon="5.60484">
        <ele>2032</ele>
        <time>2013-01-30T12:06:26Z</time>
      </trkpt>
      <trkpt lat="45.06838" lon="5.60487">
        <ele>2033</ele>
        <time>2013-01-30T12:06:31Z</time>
      </trkpt>
      <trkpt lat="45.06839" lon="5.6049">
        <ele>2034</ele>
        <time>2013-01-30T12:06:36Z</time>
      </trkpt>
      <trkpt lat="45.06841" lon="5.60493">
        <ele>2035</ele>
        <time>2013-01-30T12:06:41Z</time>
      </trkpt>
      <trkpt lat="45.06842" lon="5.60495">
        <ele>2036</ele>
        <time>2013-01-30T12:06:46Z</time>
      </trkpt>
      <trkpt lat="45.06844" lon="5.60499">
        <ele>2037</ele>
        <time>2013-01-30T12:06:51Z</time>
      </trkpt>
      <trkpt lat="45.06846" lon="5.60502">
        <ele>2038</ele>
        <time>2013-01-30T12:06:56Z</time>
      </trkpt>
      <trkpt lat="45.06847" lon="5.60506">
        <ele>2038</ele>
        <time>2013-01-30T12:07:01Z</time>
      </trkpt>
      <trkpt lat="45.06849" lon="5.60509">
        <ele>2039</ele>
        <time>2013-01-30T12:07:06Z</time>
      </trkpt>
      <trkpt lat="45.06849" lon="5.60509">
        <ele>2040</ele>
        <time>2013-01-30T12:07:11Z</time>
      </trkpt>
      <trkpt lat="45.06849" lon="5.60509">
        <ele>2040</ele>
        <time>2013-01-30T12:07:16Z</time>
      </trkpt>
      <trkpt lat="45.06849" lon="5.60509">
        <ele>2040</ele>
        <time>2013-01-30T12:07:21Z</time>
      </trkpt>
      <trkpt lat="45.06849" lon="5.60509">
        <ele>2040</ele>
        <time>2013-01-30T12:07:26Z</time>
      </trkpt>
      <trkpt lat="45.06849" lon="5.60509">
        <ele>2040</ele>
        <time>2013-01-30T12:07:31Z</time>
      </trkpt>
      <trkpt lat="45.06849" lon="5.60509">
        <ele>2040</ele>
        <time>2013-01-30T12:07:36Z</time>
      </trkpt>
      <trkpt lat="45.06849" lon="5.60511">
        <ele>2040</ele>
        <time>2013-01-30T12:07:41Z</time>
      </trkpt>
      <trkpt lat="45.06848" lon="5.60511">
        <ele>2040</ele>
        <time>2013-01-30T12:07:46Z</time>
      </trkpt>
      <trkpt lat="45.06848" lon="5.6051">
        <ele>2040</ele>
        <time>2013-01-30T12:07:51Z</time>
      </trkpt>
      <trkpt lat="45.06848" lon="5.6051">
        <ele>2041</ele>
        <time>2013-01-30T12:07:56Z</time>
      </trkpt>
      <trkpt lat="45.06848" lon="5.6051">
        <ele>2041</ele>
        <time>2013-01-30T12:08:01Z</time>
      </trkpt>
      <trkpt lat="45.06848" lon="5.6051">
        <ele>2041</ele>
        <time>2013-01-30T12:08:06Z</time>
      </trkpt>
      <trkpt lat="45.06848" lon="5.6051">
        <ele>2041</ele>
        <time>2013-01-30T12:08:11Z</time>
      </trkpt>
      <trkpt lat="45.06848" lon="5.6051">
        <ele>2041</ele>
        <time>2013-01-30T12:08:16Z</time>
      </trkpt>
      <trkpt lat="45.06848" lon="5.6051">
        <ele>2041</ele>
        <time>2013-01-30T12:08:21Z</time>
      </trkpt>
      <trkpt lat="45.0685" lon="5.60513">
        <ele>2042</ele>
        <time>2013-01-30T12:08:26Z</time>
      </trkpt>
      <trkpt lat="45.06853" lon="5.60515">
        <ele>2042</ele>
        <time>2013-01-30T12:08:31Z</time>
      </trkpt>
      <trkpt lat="45.06858" lon="5.60517">
        <ele>2041</ele>
        <time>2013-01-30T12:08:36Z</time>
      </trkpt>
      <trkpt lat="45.06859" lon="5.60518">
        <ele>2041</ele>
        <time>2013-01-30T12:08:41Z</time>
      </trkpt>
      <trkpt lat="45.06859" lon="5.60518">
        <ele>2041</ele>
        <time>2013-01-30T12:08:46Z</time>
      </trkpt>
      <trkpt lat="45.06859" lon="5.60518">
        <ele>2041</ele>
        <time>2013-01-30T12:08:51Z</time>
      </trkpt>
      <trkpt lat="45.0686" lon="5.60521">
        <ele>2040</ele>
        <time>2013-01-30T12:08:56Z</time>
      </trkpt>
      <trkpt lat="45.06867" lon="5.60529">
        <ele>2039</ele>
        <time>2013-01-30T12:09:01Z</time>
      </trkpt>
      <trkpt lat="45.06871" lon="5.60534">
        <ele>2040</ele>
        <time>2013-01-30T12:09:06Z</time>
      </trkpt>
      <trkpt lat="45.06874" lon="5.60538">
        <ele>2041</ele>
        <time>2013-01-30T12:09:11Z</time>
      </trkpt>
      <trkpt lat="45.06878" lon="5.60543">
        <ele>2042</ele>
        <time>2013-01-30T12:09:16Z</time>
      </trkpt>
      <trkpt lat="45.06881" lon="5.60546">
        <ele>2042</ele>
        <time>2013-01-30T12:09:21Z</time>
      </trkpt>
      <trkpt lat="45.06883" lon="5.60547">
        <ele>2043</ele>
        <time>2013-01-30T12:09:26Z</time>
      </trkpt>
      <trkpt lat="45.06883" lon="5.60547">
        <ele>2043</ele>
        <time>2013-01-30T12:09:31Z</time>
      </trkpt>
      <trkpt lat="45.06882" lon="5.60547">
        <ele>2043</ele>
        <time>2013-01-30T12:09:36Z</time>
      </trkpt>
      <trkpt lat="45.06882" lon="5.60548">
        <ele>2042</ele>
        <time>2013-01-30T12:09:41Z</time>
      </trkpt>
      <trkpt lat="45.06883" lon="5.60548">
        <ele>2041</ele>
        <time>2013-01-30T12:09:46Z</time>
      </trkpt>
      <trkpt lat="45.06882" lon="5.60549">
        <ele>2040</ele>
        <time>2013-01-30T12:09:51Z</time>
      </trkpt>
      <trkpt lat="45.06882" lon="5.60549">
        <ele>2040</ele>
        <time>2013-01-30T12:09:56Z</time>
      </trkpt>
      <trkpt lat="45.06882" lon="5.60548">
        <ele>2041</ele>
        <time>2013-01-30T12:10:01Z</time>
      </trkpt>
      <trkpt lat="45.06882" lon="5.60547">
        <ele>2041</ele>
        <time>2013-01-30T12:10:06Z</time>
      </trkpt>
      <trkpt lat="45.06882" lon="5.60547">
        <ele>2040</ele>
        <time>2013-01-30T12:10:11Z</time>
      </trkpt>
      <trkpt lat="45.06883" lon="5.60546">
        <ele>2046</ele>
        <time>2013-01-30T12:29:46Z</time>
      </trkpt>
      <trkpt lat="45.06883" lon="5.60546">
        <ele>2046</ele>
        <time>2013-01-30T12:29:51Z</time>
      </trkpt>
      <trkpt lat="45.06886" lon="5.60545">
        <ele>2046</ele>
        <time>2013-01-30T12:29:56Z</time>
      </trkpt>
      <trkpt lat="45.06889" lon="5.60544">
        <ele>2046</ele>
        <time>2013-01-30T12:30:01Z</time>
      </trkpt>
      <trkpt lat="45.06889" lon="5.60545">
        <ele>2046</ele>
        <time>2013-01-30T12:30:06Z</time>
      </trkpt>
      <trkpt lat="45.06888" lon="5.60544">
        <ele>2046</ele>
        <time>2013-01-30T12:30:11Z</time>
      </trkpt>
      <trkpt lat="45.06888" lon="5.60544">
        <ele>2046</ele>
        <time>2013-01-30T12:30:16Z</time>
      </trkpt>
      <trkpt lat="45.06889" lon="5.60545">
        <ele>2046</ele>
        <time>2013-01-30T12:30:21Z</time>
      </trkpt>
      <trkpt lat="45.06888" lon="5.60544">
        <ele>2046</ele>
        <time>2013-01-30T12:30:26Z</time>
      </trkpt>
      <trkpt lat="45.06889" lon="5.60545">
        <ele>2046</ele>
        <time>2013-01-30T12:30:31Z</time>
      </trkpt>
      <trkpt lat="45.06889" lon="5.60545">
        <ele>2046</ele>
        <time>2013-01-30T12:30:36Z</time>
      </trkpt>
      <trkpt lat="45.06889" lon="5.60545">
        <ele>2045</ele>
        <time>2013-01-30T12:30:41Z</time>
      </trkpt>
      <trkpt lat="45.06888" lon="5.60544">
        <ele>2045</ele>
        <time>2013-01-30T12:30:46Z</time>
      </trkpt>
      <trkpt lat="45.06888" lon="5.60545">
        <ele>2045</ele>
        <time>2013-01-30T12:30:51Z</time>
      </trkpt>
      <trkpt lat="45.06888" lon="5.60545">
        <ele>2045</ele>
        <time>2013-01-30T12:30:56Z</time>
      </trkpt>
      <trkpt lat="45.06889" lon="5.60544">
        <ele>2045</ele>
        <time>2013-01-30T12:31:01Z</time>
      </trkpt>
      <trkpt lat="45.06889" lon="5.60544">
        <ele>2044</ele>
        <time>2013-01-30T12:31:06Z</time>
      </trkpt>
      <trkpt lat="45.06889" lon="5.60545">
        <ele>2044</ele>
        <time>2013-01-30T12:31:11Z</time>
      </trkpt>
      <trkpt lat="45.06891" lon="5.60548">
        <ele>2044</ele>
        <time>2013-01-30T12:31:16Z</time>
      </trkpt>
      <trkpt lat="45.06892" lon="5.60549">
        <ele>2043</ele>
        <time>2013-01-30T12:31:21Z</time>
      </trkpt>
      <trkpt lat="45.06897" lon="5.60545">
        <ele>2042</ele>
        <time>2013-01-30T12:31:26Z</time>
      </trkpt>
      <trkpt lat="45.0689" lon="5.60525">
        <ele>2038</ele>
        <time>2013-01-30T12:31:31Z</time>
      </trkpt>
      <trkpt lat="45.06898" lon="5.6051">
        <ele>2034</ele>
        <time>2013-01-30T12:31:36Z</time>
      </trkpt>
      <trkpt lat="45.06884" lon="5.60495">
        <ele>2031</ele>
        <time>2013-01-30T12:31:41Z</time>
      </trkpt>
      <trkpt lat="45.06886" lon="5.60481">
        <ele>2025</ele>
        <time>2013-01-30T12:31:46Z</time>
      </trkpt>
      <trkpt lat="45.06889" lon="5.60467">
        <ele>2017</ele>
        <time>2013-01-30T12:31:51Z</time>
      </trkpt>
      <trkpt lat="45.0689" lon="5.60468">
        <ele>2017</ele>
        <time>2013-01-30T12:31:56Z</time>
      </trkpt>
      <trkpt lat="45.06891" lon="5.60468">
        <ele>2016</ele>
        <time>2013-01-30T12:32:01Z</time>
      </trkpt>
      <trkpt lat="45.06891" lon="5.60468">
        <ele>2016</ele>
        <time>2013-01-30T12:32:06Z</time>
      </trkpt>
      <trkpt lat="45.06891" lon="5.60468">
        <ele>2015</ele>
        <time>2013-01-30T12:32:11Z</time>
      </trkpt>
      <trkpt lat="45.06892" lon="5.60468">
        <ele>2015</ele>
        <time>2013-01-30T12:32:16Z</time>
      </trkpt>
      <trkpt lat="45.06892" lon="5.60469">
        <ele>2015</ele>
        <time>2013-01-30T12:32:21Z</time>
      </trkpt>
      <trkpt lat="45.06893" lon="5.60469">
        <ele>2016</ele>
        <time>2013-01-30T12:32:26Z</time>
      </trkpt>
      <trkpt lat="45.06894" lon="5.60469">
        <ele>2017</ele>
        <time>2013-01-30T12:32:31Z</time>
      </trkpt>
      <trkpt lat="45.06894" lon="5.60468">
        <ele>2018</ele>
        <time>2013-01-30T12:32:36Z</time>
      </trkpt>
      <trkpt lat="45.06894" lon="5.60468">
        <ele>2019</ele>
        <time>2013-01-30T12:32:41Z</time>
      </trkpt>
      <trkpt lat="45.06895" lon="5.60462">
        <ele>2016</ele>
        <time>2013-01-30T12:32:46Z</time>
      </trkpt>
      <trkpt lat="45.06901" lon="5.60451">
        <ele>2009</ele>
        <time>2013-01-30T12:32:51Z</time>
      </trkpt>
      <trkpt lat="45.06902" lon="5.60438">
        <ele>2001</ele>
        <time>2013-01-30T12:32:56Z</time>
      </trkpt>
      <trkpt lat="45.06897" lon="5.60422">
        <ele>1992</ele>
        <time>2013-01-30T12:33:01Z</time>
      </trkpt>
      <trkpt lat="45.069" lon="5.60414">
        <ele>1984</ele>
        <time>2013-01-30T12:33:06Z</time>
      </trkpt>
      <trkpt lat="45.06903" lon="5.60412">
        <ele>1981</ele>
        <time>2013-01-30T12:33:11Z</time>
      </trkpt>
      <trkpt lat="45.06916" lon="5.60413">
        <ele>1978</ele>
        <time>2013-01-30T12:33:16Z</time>
      </trkpt>
      <trkpt lat="45.06922" lon="5.60401">
        <ele>1967</ele>
        <time>2013-01-30T12:33:21Z</time>
      </trkpt>
      <trkpt lat="45.06932" lon="5.60388">
        <ele>1958</ele>
        <time>2013-01-30T12:33:26Z</time>
      </trkpt>
      <trkpt lat="45.06937" lon="5.60385">
        <ele>1953</ele>
        <time>2013-01-30T12:33:31Z</time>
      </trkpt>
      <trkpt lat="45.06942" lon="5.60373">
        <ele>1945</ele>
        <time>2013-01-30T12:33:36Z</time>
      </trkpt>
      <trkpt lat="45.0695" lon="5.60363">
        <ele>1938</ele>
        <time>2013-01-30T12:33:41Z</time>
      </trkpt>
      <trkpt lat="45.06959" lon="5.6035">
        <ele>1930</ele>
        <time>2013-01-30T12:33:46Z</time>
      </trkpt>
      <trkpt lat="45.06958" lon="5.60346">
        <ele>1928</ele>
        <time>2013-01-30T12:33:51Z</time>
      </trkpt>
      <trkpt lat="45.06958" lon="5.60346">
        <ele>1928</ele>
        <time>2013-01-30T12:33:56Z</time>
      </trkpt>
      <trkpt lat="45.06958" lon="5.60347">
        <ele>1928</ele>
        <time>2013-01-30T12:34:01Z</time>
      </trkpt>
      <trkpt lat="45.06958" lon="5.60347">
        <ele>1928</ele>
        <time>2013-01-30T12:34:06Z</time>
      </trkpt>
      <trkpt lat="45.06957" lon="5.60347">
        <ele>1928</ele>
        <time>2013-01-30T12:34:11Z</time>
      </trkpt>
      <trkpt lat="45.06957" lon="5.60347">
        <ele>1928</ele>
        <time>2013-01-30T12:34:16Z</time>
      </trkpt>
      <trkpt lat="45.06957" lon="5.60347">
        <ele>1928</ele>
        <time>2013-01-30T12:34:21Z</time>
      </trkpt>
      <trkpt lat="45.06957" lon="5.60348">
        <ele>1928</ele>
        <time>2013-01-30T12:34:26Z</time>
      </trkpt>
      <trkpt lat="45.06957" lon="5.60348">
        <ele>1929</ele>
        <time>2013-01-30T12:34:31Z</time>
      </trkpt>
      <trkpt lat="45.06957" lon="5.60348">
        <ele>1929</ele>
        <time>2013-01-30T12:34:36Z</time>
      </trkpt>
      <trkpt lat="45.06957" lon="5.60348">
        <ele>1929</ele>
        <time>2013-01-30T12:34:41Z</time>
      </trkpt>
      <trkpt lat="45.06957" lon="5.60348">
        <ele>1929</ele>
        <time>2013-01-30T12:34:46Z</time>
      </trkpt>
      <trkpt lat="45.06957" lon="5.60348">
        <ele>1929</ele>
        <time>2013-01-30T12:34:51Z</time>
      </trkpt>
      <trkpt lat="45.06957" lon="5.60348">
        <ele>1929</ele>
        <time>2013-01-30T12:34:56Z</time>
      </trkpt>
      <trkpt lat="45.06957" lon="5.60348">
        <ele>1930</ele>
        <time>2013-01-30T12:35:01Z</time>
      </trkpt>
      <trkpt lat="45.06957" lon="5.60348">
        <ele>1930</ele>
        <time>2013-01-30T12:35:06Z</time>
      </trkpt>
      <trkpt lat="45.06957" lon="5.60347">
        <ele>1930</ele>
        <time>2013-01-30T12:35:11Z</time>
      </trkpt>
      <trkpt lat="45.06957" lon="5.60347">
        <ele>1930</ele>
        <time>2013-01-30T12:35:16Z</time>
      </trkpt>
      <trkpt lat="45.06957" lon="5.60347">
        <ele>1930</ele>
        <time>2013-01-30T12:35:21Z</time>
      </trkpt>
      <trkpt lat="45.06957" lon="5.60347">
        <ele>1930</ele>
        <time>2013-01-30T12:35:26Z</time>
      </trkpt>
      <trkpt lat="45.06957" lon="5.60347">
        <ele>1930</ele>
        <time>2013-01-30T12:35:31Z</time>
      </trkpt>
      <trkpt lat="45.06957" lon="5.60347">
        <ele>1930</ele>
        <time>2013-01-30T12:35:36Z</time>
      </trkpt>
      <trkpt lat="45.06957" lon="5.60347">
        <ele>1930</ele>
        <time>2013-01-30T12:35:41Z</time>
      </trkpt>
      <trkpt lat="45.06957" lon="5.60347">
        <ele>1930</ele>
        <time>2013-01-30T12:35:46Z</time>
      </trkpt>
      <trkpt lat="45.06957" lon="5.60348">
        <ele>1930</ele>
        <time>2013-01-30T12:35:51Z</time>
      </trkpt>
      <trkpt lat="45.06957" lon="5.60348">
        <ele>1930</ele>
        <time>2013-01-30T12:35:56Z</time>
      </trkpt>
      <trkpt lat="45.06957" lon="5.60348">
        <ele>1929</ele>
        <time>2013-01-30T12:36:01Z</time>
      </trkpt>
      <trkpt lat="45.06957" lon="5.60348">
        <ele>1930</ele>
        <time>2013-01-30T12:36:06Z</time>
      </trkpt>
      <trkpt lat="45.06957" lon="5.60348">
        <ele>1929</ele>
        <time>2013-01-30T12:36:11Z</time>
      </trkpt>
      <trkpt lat="45.06957" lon="5.60348">
        <ele>1929</ele>
        <time>2013-01-30T12:36:16Z</time>
      </trkpt>
      <trkpt lat="45.06957" lon="5.60349">
        <ele>1929</ele>
        <time>2013-01-30T12:36:21Z</time>
      </trkpt>
      <trkpt lat="45.06957" lon="5.60348">
        <ele>1929</ele>
        <time>2013-01-30T12:36:26Z</time>
      </trkpt>
      <trkpt lat="45.0696" lon="5.60345">
        <ele>1928</ele>
        <time>2013-01-30T12:36:31Z</time>
      </trkpt>
      <trkpt lat="45.06965" lon="5.60336">
        <ele>1924</ele>
        <time>2013-01-30T12:36:36Z</time>
      </trkpt>
      <trkpt lat="45.06967" lon="5.60315">
        <ele>1917</ele>
        <time>2013-01-30T12:36:41Z</time>
      </trkpt>
      <trkpt lat="45.06967" lon="5.60296">
        <ele>1908</ele>
        <time>2013-01-30T12:36:46Z</time>
      </trkpt>
      <trkpt lat="45.06979" lon="5.60282">
        <ele>1899</ele>
        <time>2013-01-30T12:36:51Z</time>
      </trkpt>
      <trkpt lat="45.06966" lon="5.60257">
        <ele>1890</ele>
        <time>2013-01-30T12:36:56Z</time>
      </trkpt>
      <trkpt lat="45.06985" lon="5.60239">
        <ele>1882</ele>
        <time>2013-01-30T12:37:01Z</time>
      </trkpt>
      <trkpt lat="45.0698" lon="5.60209">
        <ele>1868</ele>
        <time>2013-01-30T12:37:06Z</time>
      </trkpt>
      <trkpt lat="45.06986" lon="5.60177">
        <ele>1854</ele>
        <time>2013-01-30T12:37:11Z</time>
      </trkpt>
      <trkpt lat="45.06983" lon="5.60144">
        <ele>1843</ele>
        <time>2013-01-30T12:37:16Z</time>
      </trkpt>
      <trkpt lat="45.06985" lon="5.60111">
        <ele>1831</ele>
        <time>2013-01-30T12:37:21Z</time>
      </trkpt>
      <trkpt lat="45.06974" lon="5.60082">
        <ele>1822</ele>
        <time>2013-01-30T12:37:26Z</time>
      </trkpt>
      <trkpt lat="45.06982" lon="5.60065">
        <ele>1814</ele>
        <time>2013-01-30T12:37:31Z</time>
      </trkpt>
      <trkpt lat="45.06992" lon="5.60036">
        <ele>1804</ele>
        <time>2013-01-30T12:37:36Z</time>
      </trkpt>
      <trkpt lat="45.06989" lon="5.60025">
        <ele>1799</ele>
        <time>2013-01-30T12:37:41Z</time>
      </trkpt>
      <trkpt lat="45.0699" lon="5.60025">
        <ele>1801</ele>
        <time>2013-01-30T12:39:41Z</time>
      </trkpt>
      <trkpt lat="45.06991" lon="5.60024">
        <ele>1801</ele>
        <time>2013-01-30T12:39:46Z</time>
      </trkpt>
      <trkpt lat="45.07" lon="5.60011">
        <ele>1797</ele>
        <time>2013-01-30T12:39:51Z</time>
      </trkpt>
      <trkpt lat="45.07007" lon="5.59987">
        <ele>1788</ele>
        <time>2013-01-30T12:39:56Z</time>
      </trkpt>
      <trkpt lat="45.07021" lon="5.59966">
        <ele>1778</ele>
        <time>2013-01-30T12:40:01Z</time>
      </trkpt>
      <trkpt lat="45.07031" lon="5.59942">
        <ele>1768</ele>
        <time>2013-01-30T12:40:06Z</time>
      </trkpt>
      <trkpt lat="45.07039" lon="5.59938">
        <ele>1763</ele>
        <time>2013-01-30T12:40:11Z</time>
      </trkpt>
      <trkpt lat="45.07039" lon="5.59938">
        <ele>1762</ele>
        <time>2013-01-30T12:40:16Z</time>
      </trkpt>
      <trkpt lat="45.07039" lon="5.59939">
        <ele>1762</ele>
        <time>2013-01-30T12:40:21Z</time>
      </trkpt>
      <trkpt lat="45.07041" lon="5.59939">
        <ele>1761</ele>
        <time>2013-01-30T12:40:26Z</time>
      </trkpt>
      <trkpt lat="45.07056" lon="5.59932">
        <ele>1756</ele>
        <time>2013-01-30T12:40:31Z</time>
      </trkpt>
      <trkpt lat="45.07074" lon="5.59912">
        <ele>1746</ele>
        <time>2013-01-30T12:40:36Z</time>
      </trkpt>
      <trkpt lat="45.07084" lon="5.59889">
        <ele>1736</ele>
        <time>2013-01-30T12:40:41Z</time>
      </trkpt>
      <trkpt lat="45.07071" lon="5.59857">
        <ele>1732</ele>
        <time>2013-01-30T12:40:46Z</time>
      </trkpt>
      <trkpt lat="45.07078" lon="5.59836">
        <ele>1728</ele>
        <time>2013-01-30T12:40:51Z</time>
      </trkpt>
      <trkpt lat="45.07089" lon="5.59816">
        <ele>1722</ele>
        <time>2013-01-30T12:40:56Z</time>
      </trkpt>
      <trkpt lat="45.07103" lon="5.59812">
        <ele>1714</ele>
        <time>2013-01-30T12:41:01Z</time>
      </trkpt>
      <trkpt lat="45.07117" lon="5.59814">
        <ele>1704</ele>
        <time>2013-01-30T12:41:06Z</time>
      </trkpt>
      <trkpt lat="45.07137" lon="5.59799">
        <ele>1691</ele>
        <time>2013-01-30T12:41:11Z</time>
      </trkpt>
      <trkpt lat="45.07147" lon="5.5978">
        <ele>1681</ele>
        <time>2013-01-30T12:41:16Z</time>
      </trkpt>
      <trkpt lat="45.07148" lon="5.5978">
        <ele>1680</ele>
        <time>2013-01-30T12:41:21Z</time>
      </trkpt>
      <trkpt lat="45.07148" lon="5.59781">
        <ele>1680</ele>
        <time>2013-01-30T12:41:26Z</time>
      </trkpt>
      <trkpt lat="45.07148" lon="5.59781">
        <ele>1680</ele>
        <time>2013-01-30T12:41:31Z</time>
      </trkpt>
      <trkpt lat="45.07148" lon="5.59781">
        <ele>1680</ele>
        <time>2013-01-30T12:41:36Z</time>
      </trkpt>
      <trkpt lat="45.07148" lon="5.59782">
        <ele>1680</ele>
        <time>2013-01-30T12:41:41Z</time>
      </trkpt>
      <trkpt lat="45.07148" lon="5.59782">
        <ele>1680</ele>
        <time>2013-01-30T12:41:46Z</time>
      </trkpt>
      <trkpt lat="45.07148" lon="5.59781">
        <ele>1679</ele>
        <time>2013-01-30T12:41:51Z</time>
      </trkpt>
      <trkpt lat="45.07158" lon="5.59772">
        <ele>1674</ele>
        <time>2013-01-30T12:41:56Z</time>
      </trkpt>
      <trkpt lat="45.07155" lon="5.59763">
        <ele>1672</ele>
        <time>2013-01-30T12:42:01Z</time>
      </trkpt>
      <trkpt lat="45.07153" lon="5.59757">
        <ele>1672</ele>
        <time>2013-01-30T12:42:06Z</time>
      </trkpt>
      <trkpt lat="45.07153" lon="5.59741">
        <ele>1671</ele>
        <time>2013-01-30T12:42:11Z</time>
      </trkpt>
      <trkpt lat="45.07153" lon="5.59736">
        <ele>1671</ele>
        <time>2013-01-30T12:42:16Z</time>
      </trkpt>
      <trkpt lat="45.07158" lon="5.59726">
        <ele>1668</ele>
        <time>2013-01-30T12:42:21Z</time>
      </trkpt>
      <trkpt lat="45.0716" lon="5.59715">
        <ele>1665</ele>
        <time>2013-01-30T12:42:26Z</time>
      </trkpt>
      <trkpt lat="45.07163" lon="5.59698">
        <ele>1663</ele>
        <time>2013-01-30T12:42:31Z</time>
      </trkpt>
      <trkpt lat="45.07168" lon="5.59683">
        <ele>1660</ele>
        <time>2013-01-30T12:42:36Z</time>
      </trkpt>
      <trkpt lat="45.07167" lon="5.59681">
        <ele>1659</ele>
        <time>2013-01-30T12:42:41Z</time>
      </trkpt>
      <trkpt lat="45.07166" lon="5.59678">
        <ele>1658</ele>
        <time>2013-01-30T12:42:46Z</time>
      </trkpt>
      <trkpt lat="45.0716" lon="5.59659">
        <ele>1655</ele>
        <time>2013-01-30T12:42:51Z</time>
      </trkpt>
      <trkpt lat="45.07156" lon="5.59641">
        <ele>1650</ele>
        <time>2013-01-30T12:42:56Z</time>
      </trkpt>
      <trkpt lat="45.07153" lon="5.59636">
        <ele>1647</ele>
        <time>2013-01-30T12:43:01Z</time>
      </trkpt>
      <trkpt lat="45.07151" lon="5.59631">
        <ele>1646</ele>
        <time>2013-01-30T12:43:06Z</time>
      </trkpt>
      <trkpt lat="45.07149" lon="5.59621">
        <ele>1643</ele>
        <time>2013-01-30T12:43:11Z</time>
      </trkpt>
      <trkpt lat="45.07148" lon="5.5962">
        <ele>1642</ele>
        <time>2013-01-30T12:43:16Z</time>
      </trkpt>
      <trkpt lat="45.07147" lon="5.5962">
        <ele>1641</ele>
        <time>2013-01-30T12:43:21Z</time>
      </trkpt>
      <trkpt lat="45.07147" lon="5.5962">
        <ele>1640</ele>
        <time>2013-01-30T12:43:26Z</time>
      </trkpt>
      <trkpt lat="45.07145" lon="5.59616">
        <ele>1639</ele>
        <time>2013-01-30T12:43:31Z</time>
      </trkpt>
      <trkpt lat="45.07144" lon="5.59616">
        <ele>1638</ele>
        <time>2013-01-30T12:43:36Z</time>
      </trkpt>
      <trkpt lat="45.07144" lon="5.59616">
        <ele>1638</ele>
        <time>2013-01-30T12:43:41Z</time>
      </trkpt>
      <trkpt lat="45.07145" lon="5.59616">
        <ele>1637</ele>
        <time>2013-01-30T12:43:46Z</time>
      </trkpt>
      <trkpt lat="45.07145" lon="5.59617">
        <ele>1636</ele>
        <time>2013-01-30T12:43:51Z</time>
      </trkpt>
      <trkpt lat="45.07145" lon="5.59616">
        <ele>1636</ele>
        <time>2013-01-30T12:52:01Z</time>
      </trkpt>
      <trkpt lat="45.07144" lon="5.59615">
        <ele>1635</ele>
        <time>2013-01-30T12:52:06Z</time>
      </trkpt>
      <trkpt lat="45.0714" lon="5.59608">
        <ele>1634</ele>
        <time>2013-01-30T12:52:11Z</time>
      </trkpt>
      <trkpt lat="45.0714" lon="5.59608">
        <ele>1635</ele>
        <time>2013-01-30T12:52:16Z</time>
      </trkpt>
      <trkpt lat="45.07138" lon="5.59606">
        <ele>1635</ele>
        <time>2013-01-30T12:52:21Z</time>
      </trkpt>
      <trkpt lat="45.07135" lon="5.59589">
        <ele>1630</ele>
        <time>2013-01-30T12:52:26Z</time>
      </trkpt>
      <trkpt lat="45.07133" lon="5.59563">
        <ele>1621</ele>
        <time>2013-01-30T12:52:31Z</time>
      </trkpt>
      <trkpt lat="45.07129" lon="5.5953">
        <ele>1614</ele>
        <time>2013-01-30T12:52:36Z</time>
      </trkpt>
      <trkpt lat="45.07128" lon="5.59523">
        <ele>1611</ele>
        <time>2013-01-30T12:52:41Z</time>
      </trkpt>
      <trkpt lat="45.07126" lon="5.59525">
        <ele>1610</ele>
        <time>2013-01-30T12:52:46Z</time>
      </trkpt>
      <trkpt lat="45.07123" lon="5.59528">
        <ele>1609</ele>
        <time>2013-01-30T12:52:51Z</time>
      </trkpt>
      <trkpt lat="45.07114" lon="5.59534">
        <ele>1604</ele>
        <time>2013-01-30T12:52:56Z</time>
      </trkpt>
      <trkpt lat="45.07101" lon="5.5953">
        <ele>1598</ele>
        <time>2013-01-30T12:53:01Z</time>
      </trkpt>
      <trkpt lat="45.07096" lon="5.59531">
        <ele>1593</ele>
        <time>2013-01-30T12:53:06Z</time>
      </trkpt>
      <trkpt lat="45.07086" lon="5.59521">
        <ele>1591</ele>
        <time>2013-01-30T12:53:11Z</time>
      </trkpt>
      <trkpt lat="45.07076" lon="5.59513">
        <ele>1584</ele>
        <time>2013-01-30T12:53:16Z</time>
      </trkpt>
      <trkpt lat="45.07077" lon="5.59507">
        <ele>1578</ele>
        <time>2013-01-30T12:53:21Z</time>
      </trkpt>
      <trkpt lat="45.07079" lon="5.59507">
        <ele>1578</ele>
        <time>2013-01-30T12:53:26Z</time>
      </trkpt>
      <trkpt lat="45.07077" lon="5.595">
        <ele>1577</ele>
        <time>2013-01-30T12:53:31Z</time>
      </trkpt>
      <trkpt lat="45.07074" lon="5.59498">
        <ele>1577</ele>
        <time>2013-01-30T12:53:36Z</time>
      </trkpt>
      <trkpt lat="45.07062" lon="5.59494">
        <ele>1574</ele>
        <time>2013-01-30T12:53:41Z</time>
      </trkpt>
      <trkpt lat="45.07052" lon="5.59496">
        <ele>1574</ele>
        <time>2013-01-30T12:53:46Z</time>
      </trkpt>
      <trkpt lat="45.07052" lon="5.59494">
        <ele>1577</ele>
        <time>2013-01-30T12:53:51Z</time>
      </trkpt>
      <trkpt lat="45.07051" lon="5.59494">
        <ele>1580</ele>
        <time>2013-01-30T12:53:56Z</time>
      </trkpt>
      <trkpt lat="45.0705" lon="5.59491">
        <ele>1579</ele>
        <time>2013-01-30T12:54:01Z</time>
      </trkpt>
      <trkpt lat="45.07052" lon="5.5949">
        <ele>1579</ele>
        <time>2013-01-30T12:54:06Z</time>
      </trkpt>
      <trkpt lat="45.07052" lon="5.59488">
        <ele>1580</ele>
        <time>2013-01-30T12:54:11Z</time>
      </trkpt>
      <trkpt lat="45.07054" lon="5.59485">
        <ele>1580</ele>
        <time>2013-01-30T12:54:16Z</time>
      </trkpt>
      <trkpt lat="45.07055" lon="5.59484">
        <ele>1580</ele>
        <time>2013-01-30T12:54:21Z</time>
      </trkpt>
      <trkpt lat="45.07057" lon="5.59482">
        <ele>1579</ele>
        <time>2013-01-30T12:54:26Z</time>
      </trkpt>
      <trkpt lat="45.07057" lon="5.59482">
        <ele>1579</ele>
        <time>2013-01-30T12:54:31Z</time>
      </trkpt>
      <trkpt lat="45.07054" lon="5.59482">
        <ele>1579</ele>
        <time>2013-01-30T12:54:36Z</time>
      </trkpt>
      <trkpt lat="45.07036" lon="5.59484">
        <ele>1576</ele>
        <time>2013-01-30T12:54:41Z</time>
      </trkpt>
      <trkpt lat="45.07042" lon="5.59477">
        <ele>1572</ele>
        <time>2013-01-30T12:54:46Z</time>
      </trkpt>
      <trkpt lat="45.07033" lon="5.59473">
        <ele>1568</ele>
        <time>2013-01-30T12:54:51Z</time>
      </trkpt>
      <trkpt lat="45.07022" lon="5.59459">
        <ele>1565</ele>
        <time>2013-01-30T12:54:56Z</time>
      </trkpt>
      <trkpt lat="45.07034" lon="5.5945">
        <ele>1561</ele>
        <time>2013-01-30T12:55:01Z</time>
      </trkpt>
      <trkpt lat="45.07034" lon="5.59442">
        <ele>1556</ele>
        <time>2013-01-30T12:55:06Z</time>
      </trkpt>
      <trkpt lat="45.07041" lon="5.59427">
        <ele>1549</ele>
        <time>2013-01-30T12:55:11Z</time>
      </trkpt>
      <trkpt lat="45.07052" lon="5.59422">
        <ele>1543</ele>
        <time>2013-01-30T12:55:16Z</time>
      </trkpt>
      <trkpt lat="45.07061" lon="5.59415">
        <ele>1539</ele>
        <time>2013-01-30T12:55:21Z</time>
      </trkpt>
      <trkpt lat="45.07069" lon="5.594">
        <ele>1533</ele>
        <time>2013-01-30T12:55:26Z</time>
      </trkpt>
      <trkpt lat="45.07078" lon="5.59403">
        <ele>1532</ele>
        <time>2013-01-30T12:55:31Z</time>
      </trkpt>
      <trkpt lat="45.07079" lon="5.59402">
        <ele>1533</ele>
        <time>2013-01-30T12:55:36Z</time>
      </trkpt>
      <trkpt lat="45.07079" lon="5.59402">
        <ele>1534</ele>
        <time>2013-01-30T12:55:41Z</time>
      </trkpt>
      <trkpt lat="45.07085" lon="5.59396">
        <ele>1532</ele>
        <time>2013-01-30T12:55:46Z</time>
      </trkpt>
      <trkpt lat="45.07095" lon="5.59386">
        <ele>1530</ele>
        <time>2013-01-30T12:55:51Z</time>
      </trkpt>
      <trkpt lat="45.07104" lon="5.59379">
        <ele>1526</ele>
        <time>2013-01-30T12:55:56Z</time>
      </trkpt>
      <trkpt lat="45.07099" lon="5.59359">
        <ele>1520</ele>
        <time>2013-01-30T12:56:01Z</time>
      </trkpt>
      <trkpt lat="45.07111" lon="5.59346">
        <ele>1514</ele>
        <time>2013-01-30T12:56:06Z</time>
      </trkpt>
      <trkpt lat="45.07124" lon="5.59327">
        <ele>1506</ele>
        <time>2013-01-30T12:56:11Z</time>
      </trkpt>
      <trkpt lat="45.0712" lon="5.59299">
        <ele>1497</ele>
        <time>2013-01-30T12:56:16Z</time>
      </trkpt>
      <trkpt lat="45.0713" lon="5.59281">
        <ele>1489</ele>
        <time>2013-01-30T12:56:21Z</time>
      </trkpt>
      <trkpt lat="45.07146" lon="5.59263">
        <ele>1486</ele>
        <time>2013-01-30T12:56:26Z</time>
      </trkpt>
      <trkpt lat="45.07155" lon="5.5925">
        <ele>1483</ele>
        <time>2013-01-30T12:56:31Z</time>
      </trkpt>
      <trkpt lat="45.07159" lon="5.59233">
        <ele>1476</ele>
        <time>2013-01-30T12:56:38Z</time>
      </trkpt>
      <trkpt lat="45.07163" lon="5.59217">
        <ele>1468</ele>
        <time>2013-01-30T12:56:43Z</time>
      </trkpt>
      <trkpt lat="45.07174" lon="5.59199">
        <ele>1461</ele>
        <time>2013-01-30T12:56:48Z</time>
      </trkpt>
      <trkpt lat="45.07176" lon="5.59194">
        <ele>1458</ele>
        <time>2013-01-30T12:56:53Z</time>
      </trkpt>
      <trkpt lat="45.07177" lon="5.59194">
        <ele>1457</ele>
        <time>2013-01-30T12:56:58Z</time>
      </trkpt>
      <trkpt lat="45.07178" lon="5.59194">
        <ele>1457</ele>
        <time>2013-01-30T12:57:03Z</time>
      </trkpt>
      <trkpt lat="45.07177" lon="5.59194">
        <ele>1458</ele>
        <time>2013-01-30T12:57:08Z</time>
      </trkpt>
      <trkpt lat="45.07177" lon="5.59194">
        <ele>1459</ele>
        <time>2013-01-30T12:57:13Z</time>
      </trkpt>
      <trkpt lat="45.07177" lon="5.59194">
        <ele>1459</ele>
        <time>2013-01-30T12:57:18Z</time>
      </trkpt>
      <trkpt lat="45.07176" lon="5.59194">
        <ele>1459</ele>
        <time>2013-01-30T12:57:23Z</time>
      </trkpt>
      <trkpt lat="45.07176" lon="5.59194">
        <ele>1459</ele>
        <time>2013-01-30T12:57:28Z</time>
      </trkpt>
      <trkpt lat="45.07175" lon="5.59184">
        <ele>1458</ele>
        <time>2013-01-30T12:57:33Z</time>
      </trkpt>
      <trkpt lat="45.07182" lon="5.59174">
        <ele>1454</ele>
        <time>2013-01-30T12:57:38Z</time>
      </trkpt>
      <trkpt lat="45.07172" lon="5.5916">
        <ele>1448</ele>
        <time>2013-01-30T12:57:43Z</time>
      </trkpt>
      <trkpt lat="45.07173" lon="5.59157">
        <ele>1445</ele>
        <time>2013-01-30T12:57:48Z</time>
      </trkpt>
      <trkpt lat="45.07176" lon="5.59147">
        <ele>1443</ele>
        <time>2013-01-30T12:57:53Z</time>
      </trkpt>
      <trkpt lat="45.07183" lon="5.59123">
        <ele>1438</ele>
        <time>2013-01-30T12:57:58Z</time>
      </trkpt>
      <trkpt lat="45.07185" lon="5.59092">
        <ele>1434</ele>
        <time>2013-01-30T12:58:03Z</time>
      </trkpt>
      <trkpt lat="45.07182" lon="5.59064">
        <ele>1432</ele>
        <time>2013-01-30T12:58:08Z</time>
      </trkpt>
      <trkpt lat="45.07182" lon="5.59035">
        <ele>1427</ele>
        <time>2013-01-30T12:58:13Z</time>
      </trkpt>
      <trkpt lat="45.07176" lon="5.59008">
        <ele>1425</ele>
        <time>2013-01-30T12:58:18Z</time>
      </trkpt>
      <trkpt lat="45.0718" lon="5.58972">
        <ele>1419</ele>
        <time>2013-01-30T12:58:23Z</time>
      </trkpt>
      <trkpt lat="45.07181" lon="5.58933">
        <ele>1414</ele>
        <time>2013-01-30T12:58:28Z</time>
      </trkpt>
      <trkpt lat="45.07176" lon="5.58907">
        <ele>1408</ele>
        <time>2013-01-30T12:58:33Z</time>
      </trkpt>
      <trkpt lat="45.07167" lon="5.58896">
        <ele>1405</ele>
        <time>2013-01-30T12:58:38Z</time>
      </trkpt>
      <trkpt lat="45.07147" lon="5.58875">
        <ele>1401</ele>
        <time>2013-01-30T12:58:43Z</time>
      </trkpt>
      <trkpt lat="45.07128" lon="5.58854">
        <ele>1396</ele>
        <time>2013-01-30T12:58:48Z</time>
      </trkpt>
      <trkpt lat="45.07108" lon="5.58831">
        <ele>1390</ele>
        <time>2013-01-30T12:58:53Z</time>
      </trkpt>
      <trkpt lat="45.0709" lon="5.5881">
        <ele>1386</ele>
        <time>2013-01-30T12:58:58Z</time>
      </trkpt>
      <trkpt lat="45.07074" lon="5.58785">
        <ele>1381</ele>
        <time>2013-01-30T12:59:03Z</time>
      </trkpt>
      <trkpt lat="45.07057" lon="5.58759">
        <ele>1377</ele>
        <time>2013-01-30T12:59:08Z</time>
      </trkpt>
      <trkpt lat="45.07055" lon="5.58755">
        <ele>1375</ele>
        <time>2013-01-30T12:59:13Z</time>
      </trkpt>
      <trkpt lat="45.07055" lon="5.58754">
        <ele>1375</ele>
        <time>2013-01-30T12:59:18Z</time>
      </trkpt>
      <trkpt lat="45.07055" lon="5.58752">
        <ele>1374</ele>
        <time>2013-01-30T12:59:23Z</time>
      </trkpt>
      <trkpt lat="45.07058" lon="5.58747">
        <ele>1373</ele>
        <time>2013-01-30T12:59:28Z</time>
      </trkpt>
      <trkpt lat="45.07062" lon="5.58741">
        <ele>1374</ele>
        <time>2013-01-30T12:59:33Z</time>
      </trkpt>
      <trkpt lat="45.07062" lon="5.58737">
        <ele>1375</ele>
        <time>2013-01-30T12:59:38Z</time>
      </trkpt>
      <trkpt lat="45.07064" lon="5.58737">
        <ele>1375</ele>
        <time>2013-01-30T12:59:43Z</time>
      </trkpt>
      <trkpt lat="45.07065" lon="5.58737">
        <ele>1375</ele>
        <time>2013-01-30T12:59:48Z</time>
      </trkpt>
      <trkpt lat="45.07065" lon="5.58735">
        <ele>1376</ele>
        <time>2013-01-30T12:59:53Z</time>
      </trkpt>
      <trkpt lat="45.07065" lon="5.58733">
        <ele>1376</ele>
        <time>2013-01-30T12:59:58Z</time>
      </trkpt>
      <trkpt lat="45.07062" lon="5.58726">
        <ele>1377</ele>
        <time>2013-01-30T13:00:03Z</time>
      </trkpt>
      <trkpt lat="45.0706" lon="5.58721">
        <ele>1376</ele>
        <time>2013-01-30T13:00:08Z</time>
      </trkpt>
      <trkpt lat="45.07066" lon="5.58715">
        <ele>1373</ele>
        <time>2013-01-30T13:00:13Z</time>
      </trkpt>
      <trkpt lat="45.07067" lon="5.58711">
        <ele>1369</ele>
        <time>2013-01-30T13:00:18Z</time>
      </trkpt>
      <trkpt lat="45.07068" lon="5.58712">
        <ele>1366</ele>
        <time>2013-01-30T13:00:23Z</time>
      </trkpt>
      <trkpt lat="45.07071" lon="5.5871">
        <ele>1363</ele>
        <time>2013-01-30T13:00:28Z</time>
      </trkpt>
      <trkpt lat="45.07079" lon="5.58709">
        <ele>1360</ele>
        <time>2013-01-30T13:00:33Z</time>
      </trkpt>
      <trkpt lat="45.07078" lon="5.58707">
        <ele>1359</ele>
        <time>2013-01-30T13:00:38Z</time>
      </trkpt>
      <trkpt lat="45.07077" lon="5.58706">
        <ele>1358</ele>
        <time>2013-01-30T13:00:43Z</time>
      </trkpt>
      <trkpt lat="45.07079" lon="5.58706">
        <ele>1359</ele>
        <time>2013-01-30T13:00:48Z</time>
      </trkpt>
      <trkpt lat="45.07082" lon="5.58703">
        <ele>1358</ele>
        <time>2013-01-30T13:00:53Z</time>
      </trkpt>
      <trkpt lat="45.07084" lon="5.58704">
        <ele>1356</ele>
        <time>2013-01-30T13:00:58Z</time>
      </trkpt>
      <trkpt lat="45.07084" lon="5.58702">
        <ele>1354</ele>
        <time>2013-01-30T13:01:03Z</time>
      </trkpt>
      <trkpt lat="45.07084" lon="5.587">
        <ele>1354</ele>
        <time>2013-01-30T13:01:08Z</time>
      </trkpt>
      <trkpt lat="45.07084" lon="5.58701">
        <ele>1354</ele>
        <time>2013-01-30T13:01:13Z</time>
      </trkpt>
      <trkpt lat="45.07083" lon="5.58702">
        <ele>1354</ele>
        <time>2013-01-30T13:01:18Z</time>
      </trkpt>
      <trkpt lat="45.07084" lon="5.58703">
        <ele>1354</ele>
        <time>2013-01-30T13:01:23Z</time>
      </trkpt>
      <trkpt lat="45.07085" lon="5.58707">
        <ele>1350</ele>
        <time>2013-01-30T13:01:28Z</time>
      </trkpt>
      <trkpt lat="45.07094" lon="5.58704">
        <ele>1352</ele>
        <time>2013-01-30T13:01:33Z</time>
      </trkpt>
      <trkpt lat="45.07094" lon="5.58702">
        <ele>1352</ele>
        <time>2013-01-30T13:01:38Z</time>
      </trkpt>
      <trkpt lat="45.07099" lon="5.58704">
        <ele>1349</ele>
        <time>2013-01-30T13:01:43Z</time>
      </trkpt>
      <trkpt lat="45.07102" lon="5.58702">
        <ele>1347</ele>
        <time>2013-01-30T13:01:48Z</time>
      </trkpt>
      <trkpt lat="45.07103" lon="5.58703">
        <ele>1345</ele>
        <time>2013-01-30T13:01:53Z</time>
      </trkpt>
      <trkpt lat="45.07104" lon="5.58701">
        <ele>1345</ele>
        <time>2013-01-30T13:01:58Z</time>
      </trkpt>
      <trkpt lat="45.07104" lon="5.58701">
        <ele>1344</ele>
        <time>2013-01-30T13:02:03Z</time>
      </trkpt>
      <trkpt lat="45.07103" lon="5.58699">
        <ele>1345</ele>
        <time>2013-01-30T13:02:08Z</time>
      </trkpt>
      <trkpt lat="45.07104" lon="5.58699">
        <ele>1346</ele>
        <time>2013-01-30T13:02:13Z</time>
      </trkpt>
      <trkpt lat="45.07105" lon="5.58698">
        <ele>1346</ele>
        <time>2013-01-30T13:02:18Z</time>
      </trkpt>
      <trkpt lat="45.07106" lon="5.58698">
        <ele>1347</ele>
        <time>2013-01-30T13:02:23Z</time>
      </trkpt>
      <trkpt lat="45.07106" lon="5.58696">
        <ele>1346</ele>
        <time>2013-01-30T13:02:28Z</time>
      </trkpt>
      <trkpt lat="45.07108" lon="5.58694">
        <ele>1348</ele>
        <time>2013-01-30T13:02:33Z</time>
      </trkpt>
      <trkpt lat="45.07108" lon="5.58692">
        <ele>1347</ele>
        <time>2013-01-30T13:02:38Z</time>
      </trkpt>
      <trkpt lat="45.0711" lon="5.58691">
        <ele>1344</ele>
        <time>2013-01-30T13:02:43Z</time>
      </trkpt>
      <trkpt lat="45.07111" lon="5.58681">
        <ele>1345</ele>
        <time>2013-01-30T13:02:48Z</time>
      </trkpt>
      <trkpt lat="45.07111" lon="5.58679">
        <ele>1346</ele>
        <time>2013-01-30T13:02:53Z</time>
      </trkpt>
      <trkpt lat="45.07113" lon="5.58678">
        <ele>1346</ele>
        <time>2013-01-30T13:02:58Z</time>
      </trkpt>
      <trkpt lat="45.07111" lon="5.58678">
        <ele>1347</ele>
        <time>2013-01-30T13:03:03Z</time>
      </trkpt>
      <trkpt lat="45.07109" lon="5.58675">
        <ele>1346</ele>
        <time>2013-01-30T13:03:08Z</time>
      </trkpt>
      <trkpt lat="45.07108" lon="5.58675">
        <ele>1344</ele>
        <time>2013-01-30T13:03:13Z</time>
      </trkpt>
      <trkpt lat="45.07108" lon="5.58674">
        <ele>1345</ele>
        <time>2013-01-30T13:03:18Z</time>
      </trkpt>
      <trkpt lat="45.07106" lon="5.58674">
        <ele>1342</ele>
        <time>2013-01-30T13:03:23Z</time>
      </trkpt>
      <trkpt lat="45.07104" lon="5.58675">
        <ele>1340</ele>
        <time>2013-01-30T13:03:28Z</time>
      </trkpt>
      <trkpt lat="45.07103" lon="5.58675">
        <ele>1339</ele>
        <time>2013-01-30T13:03:33Z</time>
      </trkpt>
      <trkpt lat="45.07105" lon="5.58675">
        <ele>1341</ele>
        <time>2013-01-30T13:03:38Z</time>
      </trkpt>
      <trkpt lat="45.07108" lon="5.58674">
        <ele>1344</ele>
        <time>2013-01-30T13:03:43Z</time>
      </trkpt>
      <trkpt lat="45.0711" lon="5.58673">
        <ele>1347</ele>
        <time>2013-01-30T13:03:48Z</time>
      </trkpt>
      <trkpt lat="45.07111" lon="5.58673">
        <ele>1349</ele>
        <time>2013-01-30T13:03:53Z</time>
      </trkpt>
      <trkpt lat="45.0711" lon="5.58673">
        <ele>1349</ele>
        <time>2013-01-30T13:03:58Z</time>
      </trkpt>
      <trkpt lat="45.0711" lon="5.58672">
        <ele>1348</ele>
        <time>2013-01-30T13:04:03Z</time>
      </trkpt>
      <trkpt lat="45.0711" lon="5.58672">
        <ele>1348</ele>
        <time>2013-01-30T13:04:08Z</time>
      </trkpt>
      <trkpt lat="45.07108" lon="5.58671">
        <ele>1351</ele>
        <time>2013-01-30T13:04:13Z</time>
      </trkpt>
      <trkpt lat="45.07104" lon="5.58667">
        <ele>1349</ele>
        <time>2013-01-30T13:04:18Z</time>
      </trkpt>
      <trkpt lat="45.071" lon="5.58663">
        <ele>1351</ele>
        <time>2013-01-30T13:04:23Z</time>
      </trkpt>
      <trkpt lat="45.071" lon="5.58654">
        <ele>1349</ele>
        <time>2013-01-30T13:04:28Z</time>
      </trkpt>
      <trkpt lat="45.07095" lon="5.58645">
        <ele>1347</ele>
        <time>2013-01-30T13:04:33Z</time>
      </trkpt>
      <trkpt lat="45.07094" lon="5.58634">
        <ele>1345</ele>
        <time>2013-01-30T13:04:38Z</time>
      </trkpt>
      <trkpt lat="45.07093" lon="5.58628">
        <ele>1342</ele>
        <time>2013-01-30T13:04:43Z</time>
      </trkpt>
      <trkpt lat="45.07092" lon="5.58628">
        <ele>1339</ele>
        <time>2013-01-30T13:04:48Z</time>
      </trkpt>
      <trkpt lat="45.07091" lon="5.58627">
        <ele>1336</ele>
        <time>2013-01-30T13:04:53Z</time>
      </trkpt>
      <trkpt lat="45.07091" lon="5.58627">
        <ele>1333</ele>
        <time>2013-01-30T13:04:58Z</time>
      </trkpt>
      <trkpt lat="45.0709" lon="5.58626">
        <ele>1331</ele>
        <time>2013-01-30T13:05:03Z</time>
      </trkpt>
      <trkpt lat="45.07091" lon="5.58625">
        <ele>1330</ele>
        <time>2013-01-30T13:05:08Z</time>
      </trkpt>
      <trkpt lat="45.07094" lon="5.58619">
        <ele>1328</ele>
        <time>2013-01-30T13:05:13Z</time>
      </trkpt>
      <trkpt lat="45.07097" lon="5.58611">
        <ele>1326</ele>
        <time>2013-01-30T13:05:18Z</time>
      </trkpt>
      <trkpt lat="45.07098" lon="5.58609">
        <ele>1326</ele>
        <time>2013-01-30T13:05:23Z</time>
      </trkpt>
      <trkpt lat="45.07107" lon="5.58603">
        <ele>1324</ele>
        <time>2013-01-30T13:05:28Z</time>
      </trkpt>
      <trkpt lat="45.07103" lon="5.58594">
        <ele>1322</ele>
        <time>2013-01-30T13:05:33Z</time>
      </trkpt>
      <trkpt lat="45.071" lon="5.5859">
        <ele>1319</ele>
        <time>2013-01-30T13:05:38Z</time>
      </trkpt>
      <trkpt lat="45.071" lon="5.5859">
        <ele>1317</ele>
        <time>2013-01-30T13:05:43Z</time>
      </trkpt>
      <trkpt lat="45.071" lon="5.58589">
        <ele>1317</ele>
        <time>2013-01-30T13:05:48Z</time>
      </trkpt>
      <trkpt lat="45.07098" lon="5.58586">
        <ele>1316</ele>
        <time>2013-01-30T13:05:53Z</time>
      </trkpt>
      <trkpt lat="45.07097" lon="5.58575">
        <ele>1316</ele>
        <time>2013-01-30T13:05:58Z</time>
      </trkpt>
      <trkpt lat="45.07097" lon="5.58575">
        <ele>1314</ele>
        <time>2013-01-30T13:06:03Z</time>
      </trkpt>
      <trkpt lat="45.07101" lon="5.58567">
        <ele>1312</ele>
        <time>2013-01-30T13:06:08Z</time>
      </trkpt>
      <trkpt lat="45.07104" lon="5.58562">
        <ele>1315</ele>
        <time>2013-01-30T13:06:13Z</time>
      </trkpt>
      <trkpt lat="45.07106" lon="5.58556">
        <ele>1313</ele>
        <time>2013-01-30T13:06:18Z</time>
      </trkpt>
      <trkpt lat="45.0711" lon="5.58552">
        <ele>1311</ele>
        <time>2013-01-30T13:06:23Z</time>
      </trkpt>
      <trkpt lat="45.07111" lon="5.5854">
        <ele>1306</ele>
        <time>2013-01-30T13:06:28Z</time>
      </trkpt>
      <trkpt lat="45.07127" lon="5.58526">
        <ele>1300</ele>
        <time>2013-01-30T13:06:33Z</time>
      </trkpt>
      <trkpt lat="45.07134" lon="5.58528">
        <ele>1296</ele>
        <time>2013-01-30T13:06:38Z</time>
      </trkpt>
      <trkpt lat="45.07139" lon="5.58522">
        <ele>1293</ele>
        <time>2013-01-30T13:06:43Z</time>
      </trkpt>
      <trkpt lat="45.07148" lon="5.58522">
        <ele>1290</ele>
        <time>2013-01-30T13:06:48Z</time>
      </trkpt>
      <trkpt lat="45.07163" lon="5.58507">
        <ele>1287</ele>
        <time>2013-01-30T13:06:53Z</time>
      </trkpt>
      <trkpt lat="45.07176" lon="5.58507">
        <ele>1281</ele>
        <time>2013-01-30T13:06:58Z</time>
      </trkpt>
      <trkpt lat="45.07187" lon="5.58495">
        <ele>1274</ele>
        <time>2013-01-30T13:07:03Z</time>
      </trkpt>
      <trkpt lat="45.07188" lon="5.58492">
        <ele>1267</ele>
        <time>2013-01-30T13:07:28Z</time>
      </trkpt>
      <trkpt lat="45.07194" lon="5.58491">
        <ele>1274</ele>
        <time>2013-01-30T13:08:38Z</time>
      </trkpt>
      <trkpt lat="45.07203" lon="5.58478">
        <ele>1271</ele>
        <time>2013-01-30T13:08:43Z</time>
      </trkpt>
      <trkpt lat="45.07212" lon="5.58457">
        <ele>1267</ele>
        <time>2013-01-30T13:08:48Z</time>
      </trkpt>
      <trkpt lat="45.07205" lon="5.58407">
        <ele>1260</ele>
        <time>2013-01-30T13:08:53Z</time>
      </trkpt>
      <trkpt lat="45.07193" lon="5.58366">
        <ele>1255</ele>
        <time>2013-01-30T13:08:58Z</time>
      </trkpt>
      <trkpt lat="45.07197" lon="5.5833">
        <ele>1247</ele>
        <time>2013-01-30T13:09:03Z</time>
      </trkpt>
      <trkpt lat="45.07212" lon="5.58301">
        <ele>1237</ele>
        <time>2013-01-30T13:09:08Z</time>
      </trkpt>
      <trkpt lat="45.07226" lon="5.58263">
        <ele>1228</ele>
        <time>2013-01-30T13:09:13Z</time>
      </trkpt>
      <trkpt lat="45.07215" lon="5.58221">
        <ele>1222</ele>
        <time>2013-01-30T13:09:18Z</time>
      </trkpt>
      <trkpt lat="45.07203" lon="5.58186">
        <ele>1217</ele>
        <time>2013-01-30T13:09:23Z</time>
      </trkpt>
      <trkpt lat="45.07205" lon="5.58161">
        <ele>1213</ele>
        <time>2013-01-30T13:09:28Z</time>
      </trkpt>
      <trkpt lat="45.07208" lon="5.58131">
        <ele>1209</ele>
        <time>2013-01-30T13:09:33Z</time>
      </trkpt>
      <trkpt lat="45.07205" lon="5.58112">
        <ele>1207</ele>
        <time>2013-01-30T13:09:38Z</time>
      </trkpt>
      <trkpt lat="45.07213" lon="5.58113">
        <ele>1206</ele>
        <time>2013-01-30T13:09:43Z</time>
      </trkpt>
      <trkpt lat="45.07224" lon="5.58112">
        <ele>1204</ele>
        <time>2013-01-30T13:09:48Z</time>
      </trkpt>
      <trkpt lat="45.07243" lon="5.58106">
        <ele>1200</ele>
        <time>2013-01-30T13:09:53Z</time>
      </trkpt>
      <trkpt lat="45.07266" lon="5.58108">
        <ele>1197</ele>
        <time>2013-01-30T13:09:58Z</time>
      </trkpt>
      <trkpt lat="45.07266" lon="5.58079">
        <ele>1193</ele>
        <time>2013-01-30T13:10:03Z</time>
      </trkpt>
      <trkpt lat="45.07273" lon="5.5805">
        <ele>1189</ele>
        <time>2013-01-30T13:10:08Z</time>
      </trkpt>
      <trkpt lat="45.07285" lon="5.58021">
        <ele>1187</ele>
        <time>2013-01-30T13:10:13Z</time>
      </trkpt>
      <trkpt lat="45.07295" lon="5.5799">
        <ele>1183</ele>
        <time>2013-01-30T13:10:18Z</time>
      </trkpt>
      <trkpt lat="45.07304" lon="5.57958">
        <ele>1179</ele>
        <time>2013-01-30T13:10:23Z</time>
      </trkpt>
      <trkpt lat="45.07303" lon="5.57943">
        <ele>1178</ele>
        <time>2013-01-30T13:10:28Z</time>
      </trkpt>
    </trkseg>
  </trk>
</gpx>